<?xml version="1.0" encoding="UTF-8" standalone="no" ?>
<gpx xmlns="http://www.topografix.com/GPX/1/1" xmlns:xsi="http://www.w3.org/2001/XMLSchema-instance" xsi:schemaLocation="http://www.topografix.com/GPX/1/1 http://www.topografix.com/GPX/1/1/gpx.xsd" version="1.1" creator="VisuGPX - https://www.visugpx.com">
  <metadata>
    <name>O-S-Rouans Chéméré St Hilaire de Chaléon St Pazanne St Mars Coutais Bouaye</name>
    <desc><![CDATA[O-S-Rouans Chéméré St Hilaire de Chaléon St Pazanne St Mars Coutais Bouaye]]></desc>
  </metadata>
  <trk>
    <name><![CDATA[2021-02-07 08:58 +01:00]]></name>
    <trkseg>
      <trkpt lat="47.16772" lon="-1.62665">
        <ele>70</ele>
        <time>2021-02-07T07:58:51.000Z</time>
      </trkpt>
      <trkpt lat="47.1677" lon="-1.62678">
        <ele>67</ele>
        <time>2021-02-07T08:01:27.000Z</time>
      </trkpt>
      <trkpt lat="47.1676" lon="-1.62678">
        <ele>70</ele>
        <time>2021-02-07T08:01:30.000Z</time>
      </trkpt>
      <trkpt lat="47.1675" lon="-1.62673">
        <ele>71</ele>
        <time>2021-02-07T08:01:33.000Z</time>
      </trkpt>
      <trkpt lat="47.16741" lon="-1.62679">
        <ele>72</ele>
        <time>2021-02-07T08:01:36.000Z</time>
      </trkpt>
      <trkpt lat="47.16729" lon="-1.62687">
        <ele>73</ele>
        <time>2021-02-07T08:01:39.000Z</time>
      </trkpt>
      <trkpt lat="47.16719" lon="-1.62696">
        <ele>73</ele>
        <time>2021-02-07T08:01:42.000Z</time>
      </trkpt>
      <trkpt lat="47.1672" lon="-1.62714">
        <ele>73</ele>
        <time>2021-02-07T08:01:45.000Z</time>
      </trkpt>
      <trkpt lat="47.16728" lon="-1.62728">
        <ele>73</ele>
        <time>2021-02-07T08:01:48.000Z</time>
      </trkpt>
      <trkpt lat="47.16735" lon="-1.6274">
        <ele>73</ele>
        <time>2021-02-07T08:01:50.000Z</time>
      </trkpt>
      <trkpt lat="47.16743" lon="-1.62751">
        <ele>73</ele>
        <time>2021-02-07T08:01:52.000Z</time>
      </trkpt>
      <trkpt lat="47.16752" lon="-1.62762">
        <ele>73</ele>
        <time>2021-02-07T08:01:54.000Z</time>
      </trkpt>
      <trkpt lat="47.16763" lon="-1.62773">
        <ele>72</ele>
        <time>2021-02-07T08:01:56.000Z</time>
      </trkpt>
      <trkpt lat="47.16775" lon="-1.62785">
        <ele>72</ele>
        <time>2021-02-07T08:01:58.000Z</time>
      </trkpt>
      <trkpt lat="47.16788" lon="-1.62796">
        <ele>72</ele>
        <time>2021-02-07T08:02:00.000Z</time>
      </trkpt>
      <trkpt lat="47.168" lon="-1.62806">
        <ele>72</ele>
        <time>2021-02-07T08:02:02.000Z</time>
      </trkpt>
      <trkpt lat="47.16811" lon="-1.62817">
        <ele>73</ele>
        <time>2021-02-07T08:02:04.000Z</time>
      </trkpt>
      <trkpt lat="47.16822" lon="-1.62827">
        <ele>73</ele>
        <time>2021-02-07T08:02:06.000Z</time>
      </trkpt>
      <trkpt lat="47.16832" lon="-1.62837">
        <ele>73</ele>
        <time>2021-02-07T08:02:08.000Z</time>
      </trkpt>
      <trkpt lat="47.16843" lon="-1.62847">
        <ele>74</ele>
        <time>2021-02-07T08:02:10.000Z</time>
      </trkpt>
      <trkpt lat="47.16853" lon="-1.62856">
        <ele>74</ele>
        <time>2021-02-07T08:02:12.000Z</time>
      </trkpt>
      <trkpt lat="47.16861" lon="-1.62865">
        <ele>74</ele>
        <time>2021-02-07T08:02:14.000Z</time>
      </trkpt>
      <trkpt lat="47.16869" lon="-1.62873">
        <ele>75</ele>
        <time>2021-02-07T08:02:16.000Z</time>
      </trkpt>
      <trkpt lat="47.16877" lon="-1.62885">
        <ele>75</ele>
        <time>2021-02-07T08:02:18.000Z</time>
      </trkpt>
      <trkpt lat="47.16882" lon="-1.62898">
        <ele>75</ele>
        <time>2021-02-07T08:02:20.000Z</time>
      </trkpt>
      <trkpt lat="47.16886" lon="-1.62914">
        <ele>76</ele>
        <time>2021-02-07T08:02:22.000Z</time>
      </trkpt>
      <trkpt lat="47.16889" lon="-1.62931">
        <ele>76</ele>
        <time>2021-02-07T08:02:24.000Z</time>
      </trkpt>
      <trkpt lat="47.16891" lon="-1.62948">
        <ele>76</ele>
        <time>2021-02-07T08:02:26.000Z</time>
      </trkpt>
      <trkpt lat="47.16892" lon="-1.62965">
        <ele>77</ele>
        <time>2021-02-07T08:02:28.000Z</time>
      </trkpt>
      <trkpt lat="47.16892" lon="-1.62983">
        <ele>77</ele>
        <time>2021-02-07T08:02:30.000Z</time>
      </trkpt>
      <trkpt lat="47.1689" lon="-1.63001">
        <ele>77</ele>
        <time>2021-02-07T08:02:32.000Z</time>
      </trkpt>
      <trkpt lat="47.16888" lon="-1.63018">
        <ele>78</ele>
        <time>2021-02-07T08:02:34.000Z</time>
      </trkpt>
      <trkpt lat="47.16887" lon="-1.63036">
        <ele>78</ele>
        <time>2021-02-07T08:02:36.000Z</time>
      </trkpt>
      <trkpt lat="47.16887" lon="-1.63053">
        <ele>78</ele>
        <time>2021-02-07T08:02:38.000Z</time>
      </trkpt>
      <trkpt lat="47.16889" lon="-1.63071">
        <ele>79</ele>
        <time>2021-02-07T08:02:40.000Z</time>
      </trkpt>
      <trkpt lat="47.16892" lon="-1.63088">
        <ele>78</ele>
        <time>2021-02-07T08:02:42.000Z</time>
      </trkpt>
      <trkpt lat="47.16895" lon="-1.63105">
        <ele>78</ele>
        <time>2021-02-07T08:02:44.000Z</time>
      </trkpt>
      <trkpt lat="47.16898" lon="-1.63122">
        <ele>78</ele>
        <time>2021-02-07T08:02:46.000Z</time>
      </trkpt>
      <trkpt lat="47.16903" lon="-1.63138">
        <ele>78</ele>
        <time>2021-02-07T08:02:48.000Z</time>
      </trkpt>
      <trkpt lat="47.16908" lon="-1.63153">
        <ele>79</ele>
        <time>2021-02-07T08:02:50.000Z</time>
      </trkpt>
      <trkpt lat="47.16915" lon="-1.63168">
        <ele>79</ele>
        <time>2021-02-07T08:02:52.000Z</time>
      </trkpt>
      <trkpt lat="47.16922" lon="-1.63182">
        <ele>79</ele>
        <time>2021-02-07T08:02:54.000Z</time>
      </trkpt>
      <trkpt lat="47.16928" lon="-1.63196">
        <ele>79</ele>
        <time>2021-02-07T08:02:56.000Z</time>
      </trkpt>
      <trkpt lat="47.16936" lon="-1.63208">
        <ele>80</ele>
        <time>2021-02-07T08:02:58.000Z</time>
      </trkpt>
      <trkpt lat="47.16944" lon="-1.63219">
        <ele>80</ele>
        <time>2021-02-07T08:03:00.000Z</time>
      </trkpt>
      <trkpt lat="47.16952" lon="-1.6323">
        <ele>79</ele>
        <time>2021-02-07T08:03:02.000Z</time>
      </trkpt>
      <trkpt lat="47.16959" lon="-1.63239">
        <ele>79</ele>
        <time>2021-02-07T08:03:04.000Z</time>
      </trkpt>
      <trkpt lat="47.16968" lon="-1.63251">
        <ele>80</ele>
        <time>2021-02-07T08:03:07.000Z</time>
      </trkpt>
      <trkpt lat="47.16963" lon="-1.63268">
        <ele>80</ele>
        <time>2021-02-07T08:03:10.000Z</time>
      </trkpt>
      <trkpt lat="47.16957" lon="-1.63281">
        <ele>80</ele>
        <time>2021-02-07T08:03:12.000Z</time>
      </trkpt>
      <trkpt lat="47.1695" lon="-1.63295">
        <ele>81</ele>
        <time>2021-02-07T08:03:14.000Z</time>
      </trkpt>
      <trkpt lat="47.16941" lon="-1.63309">
        <ele>80</ele>
        <time>2021-02-07T08:03:16.000Z</time>
      </trkpt>
      <trkpt lat="47.16933" lon="-1.63322">
        <ele>80</ele>
        <time>2021-02-07T08:03:18.000Z</time>
      </trkpt>
      <trkpt lat="47.16924" lon="-1.63334">
        <ele>80</ele>
        <time>2021-02-07T08:03:20.000Z</time>
      </trkpt>
      <trkpt lat="47.16915" lon="-1.63347">
        <ele>80</ele>
        <time>2021-02-07T08:03:22.000Z</time>
      </trkpt>
      <trkpt lat="47.16906" lon="-1.63358">
        <ele>80</ele>
        <time>2021-02-07T08:03:24.000Z</time>
      </trkpt>
      <trkpt lat="47.16897" lon="-1.63371">
        <ele>80</ele>
        <time>2021-02-07T08:03:26.000Z</time>
      </trkpt>
      <trkpt lat="47.16889" lon="-1.63384">
        <ele>81</ele>
        <time>2021-02-07T08:03:28.000Z</time>
      </trkpt>
      <trkpt lat="47.1688" lon="-1.63398">
        <ele>81</ele>
        <time>2021-02-07T08:03:30.000Z</time>
      </trkpt>
      <trkpt lat="47.16872" lon="-1.63413">
        <ele>81</ele>
        <time>2021-02-07T08:03:32.000Z</time>
      </trkpt>
      <trkpt lat="47.16865" lon="-1.63426">
        <ele>81</ele>
        <time>2021-02-07T08:03:34.000Z</time>
      </trkpt>
      <trkpt lat="47.16857" lon="-1.63439">
        <ele>81</ele>
        <time>2021-02-07T08:03:36.000Z</time>
      </trkpt>
      <trkpt lat="47.16849" lon="-1.63453">
        <ele>82</ele>
        <time>2021-02-07T08:03:38.000Z</time>
      </trkpt>
      <trkpt lat="47.16841" lon="-1.63466">
        <ele>82</ele>
        <time>2021-02-07T08:03:40.000Z</time>
      </trkpt>
      <trkpt lat="47.16833" lon="-1.63479">
        <ele>82</ele>
        <time>2021-02-07T08:03:42.000Z</time>
      </trkpt>
      <trkpt lat="47.16825" lon="-1.63492">
        <ele>82</ele>
        <time>2021-02-07T08:03:44.000Z</time>
      </trkpt>
      <trkpt lat="47.16817" lon="-1.63506">
        <ele>82</ele>
        <time>2021-02-07T08:03:46.000Z</time>
      </trkpt>
      <trkpt lat="47.16809" lon="-1.63519">
        <ele>82</ele>
        <time>2021-02-07T08:03:48.000Z</time>
      </trkpt>
      <trkpt lat="47.16801" lon="-1.63533">
        <ele>81</ele>
        <time>2021-02-07T08:03:50.000Z</time>
      </trkpt>
      <trkpt lat="47.16793" lon="-1.63547">
        <ele>81</ele>
        <time>2021-02-07T08:03:52.000Z</time>
      </trkpt>
      <trkpt lat="47.16784" lon="-1.63561">
        <ele>81</ele>
        <time>2021-02-07T08:03:54.000Z</time>
      </trkpt>
      <trkpt lat="47.16776" lon="-1.63575">
        <ele>81</ele>
        <time>2021-02-07T08:03:56.000Z</time>
      </trkpt>
      <trkpt lat="47.16768" lon="-1.63589">
        <ele>81</ele>
        <time>2021-02-07T08:03:58.000Z</time>
      </trkpt>
      <trkpt lat="47.1676" lon="-1.63601">
        <ele>81</ele>
        <time>2021-02-07T08:04:00.000Z</time>
      </trkpt>
      <trkpt lat="47.16753" lon="-1.63614">
        <ele>81</ele>
        <time>2021-02-07T08:04:02.000Z</time>
      </trkpt>
      <trkpt lat="47.16745" lon="-1.63627">
        <ele>81</ele>
        <time>2021-02-07T08:04:04.000Z</time>
      </trkpt>
      <trkpt lat="47.16746" lon="-1.63641">
        <ele>80</ele>
        <time>2021-02-07T08:04:06.000Z</time>
      </trkpt>
      <trkpt lat="47.16757" lon="-1.63649">
        <ele>80</ele>
        <time>2021-02-07T08:04:08.000Z</time>
      </trkpt>
      <trkpt lat="47.16769" lon="-1.63652">
        <ele>81</ele>
        <time>2021-02-07T08:04:10.000Z</time>
      </trkpt>
      <trkpt lat="47.16781" lon="-1.63655">
        <ele>81</ele>
        <time>2021-02-07T08:04:12.000Z</time>
      </trkpt>
      <trkpt lat="47.16793" lon="-1.63659">
        <ele>81</ele>
        <time>2021-02-07T08:04:14.000Z</time>
      </trkpt>
      <trkpt lat="47.16806" lon="-1.63663">
        <ele>81</ele>
        <time>2021-02-07T08:04:16.000Z</time>
      </trkpt>
      <trkpt lat="47.16818" lon="-1.63667">
        <ele>80</ele>
        <time>2021-02-07T08:04:18.000Z</time>
      </trkpt>
      <trkpt lat="47.1683" lon="-1.63672">
        <ele>80</ele>
        <time>2021-02-07T08:04:20.000Z</time>
      </trkpt>
      <trkpt lat="47.16842" lon="-1.63677">
        <ele>80</ele>
        <time>2021-02-07T08:04:22.000Z</time>
      </trkpt>
      <trkpt lat="47.16854" lon="-1.63681">
        <ele>79</ele>
        <time>2021-02-07T08:04:24.000Z</time>
      </trkpt>
      <trkpt lat="47.16866" lon="-1.63686">
        <ele>79</ele>
        <time>2021-02-07T08:04:26.000Z</time>
      </trkpt>
      <trkpt lat="47.16878" lon="-1.63691">
        <ele>79</ele>
        <time>2021-02-07T08:04:28.000Z</time>
      </trkpt>
      <trkpt lat="47.1689" lon="-1.63695">
        <ele>79</ele>
        <time>2021-02-07T08:04:30.000Z</time>
      </trkpt>
      <trkpt lat="47.16903" lon="-1.63699">
        <ele>79</ele>
        <time>2021-02-07T08:04:32.000Z</time>
      </trkpt>
      <trkpt lat="47.16915" lon="-1.63704">
        <ele>78</ele>
        <time>2021-02-07T08:04:34.000Z</time>
      </trkpt>
      <trkpt lat="47.16928" lon="-1.63709">
        <ele>78</ele>
        <time>2021-02-07T08:04:36.000Z</time>
      </trkpt>
      <trkpt lat="47.1694" lon="-1.63714">
        <ele>78</ele>
        <time>2021-02-07T08:04:38.000Z</time>
      </trkpt>
      <trkpt lat="47.16953" lon="-1.63718">
        <ele>78</ele>
        <time>2021-02-07T08:04:40.000Z</time>
      </trkpt>
      <trkpt lat="47.16967" lon="-1.63723">
        <ele>78</ele>
        <time>2021-02-07T08:04:42.000Z</time>
      </trkpt>
      <trkpt lat="47.16979" lon="-1.63727">
        <ele>79</ele>
        <time>2021-02-07T08:04:44.000Z</time>
      </trkpt>
      <trkpt lat="47.16992" lon="-1.63732">
        <ele>78</ele>
        <time>2021-02-07T08:04:46.000Z</time>
      </trkpt>
      <trkpt lat="47.17005" lon="-1.63736">
        <ele>78</ele>
        <time>2021-02-07T08:04:48.000Z</time>
      </trkpt>
      <trkpt lat="47.17018" lon="-1.63741">
        <ele>78</ele>
        <time>2021-02-07T08:04:50.000Z</time>
      </trkpt>
      <trkpt lat="47.1703" lon="-1.63746">
        <ele>78</ele>
        <time>2021-02-07T08:04:52.000Z</time>
      </trkpt>
      <trkpt lat="47.17043" lon="-1.63751">
        <ele>78</ele>
        <time>2021-02-07T08:04:54.000Z</time>
      </trkpt>
      <trkpt lat="47.17054" lon="-1.63759">
        <ele>78</ele>
        <time>2021-02-07T08:04:56.000Z</time>
      </trkpt>
      <trkpt lat="47.17064" lon="-1.63773">
        <ele>78</ele>
        <time>2021-02-07T08:04:58.000Z</time>
      </trkpt>
      <trkpt lat="47.17071" lon="-1.63789">
        <ele>78</ele>
        <time>2021-02-07T08:05:00.000Z</time>
      </trkpt>
      <trkpt lat="47.17077" lon="-1.63806">
        <ele>79</ele>
        <time>2021-02-07T08:05:02.000Z</time>
      </trkpt>
      <trkpt lat="47.17082" lon="-1.63824">
        <ele>79</ele>
        <time>2021-02-07T08:05:04.000Z</time>
      </trkpt>
      <trkpt lat="47.17088" lon="-1.63841">
        <ele>80</ele>
        <time>2021-02-07T08:05:06.000Z</time>
      </trkpt>
      <trkpt lat="47.17093" lon="-1.63858">
        <ele>80</ele>
        <time>2021-02-07T08:05:08.000Z</time>
      </trkpt>
      <trkpt lat="47.17099" lon="-1.63875">
        <ele>79</ele>
        <time>2021-02-07T08:05:10.000Z</time>
      </trkpt>
      <trkpt lat="47.17104" lon="-1.63891">
        <ele>79</ele>
        <time>2021-02-07T08:05:12.000Z</time>
      </trkpt>
      <trkpt lat="47.1711" lon="-1.63907">
        <ele>79</ele>
        <time>2021-02-07T08:05:14.000Z</time>
      </trkpt>
      <trkpt lat="47.17115" lon="-1.63923">
        <ele>79</ele>
        <time>2021-02-07T08:05:16.000Z</time>
      </trkpt>
      <trkpt lat="47.17122" lon="-1.63935">
        <ele>79</ele>
        <time>2021-02-07T08:05:18.000Z</time>
      </trkpt>
      <trkpt lat="47.17131" lon="-1.63943">
        <ele>79</ele>
        <time>2021-02-07T08:05:20.000Z</time>
      </trkpt>
      <trkpt lat="47.17139" lon="-1.63957">
        <ele>80</ele>
        <time>2021-02-07T08:05:23.000Z</time>
      </trkpt>
      <trkpt lat="47.1714" lon="-1.63972">
        <ele>81</ele>
        <time>2021-02-07T08:05:25.000Z</time>
      </trkpt>
      <trkpt lat="47.1714" lon="-1.63989">
        <ele>81</ele>
        <time>2021-02-07T08:05:27.000Z</time>
      </trkpt>
      <trkpt lat="47.17139" lon="-1.64007">
        <ele>81</ele>
        <time>2021-02-07T08:05:29.000Z</time>
      </trkpt>
      <trkpt lat="47.17137" lon="-1.64025">
        <ele>81</ele>
        <time>2021-02-07T08:05:31.000Z</time>
      </trkpt>
      <trkpt lat="47.17135" lon="-1.64045">
        <ele>81</ele>
        <time>2021-02-07T08:05:33.000Z</time>
      </trkpt>
      <trkpt lat="47.17133" lon="-1.64064">
        <ele>81</ele>
        <time>2021-02-07T08:05:35.000Z</time>
      </trkpt>
      <trkpt lat="47.17132" lon="-1.64083">
        <ele>81</ele>
        <time>2021-02-07T08:05:37.000Z</time>
      </trkpt>
      <trkpt lat="47.1713" lon="-1.64101">
        <ele>81</ele>
        <time>2021-02-07T08:05:39.000Z</time>
      </trkpt>
      <trkpt lat="47.17129" lon="-1.64118">
        <ele>81</ele>
        <time>2021-02-07T08:05:41.000Z</time>
      </trkpt>
      <trkpt lat="47.17126" lon="-1.64137">
        <ele>81</ele>
        <time>2021-02-07T08:05:43.000Z</time>
      </trkpt>
      <trkpt lat="47.17124" lon="-1.64156">
        <ele>81</ele>
        <time>2021-02-07T08:05:45.000Z</time>
      </trkpt>
      <trkpt lat="47.17122" lon="-1.64175">
        <ele>80</ele>
        <time>2021-02-07T08:05:47.000Z</time>
      </trkpt>
      <trkpt lat="47.17119" lon="-1.64194">
        <ele>81</ele>
        <time>2021-02-07T08:05:49.000Z</time>
      </trkpt>
      <trkpt lat="47.17117" lon="-1.64212">
        <ele>80</ele>
        <time>2021-02-07T08:05:51.000Z</time>
      </trkpt>
      <trkpt lat="47.17115" lon="-1.6423">
        <ele>80</ele>
        <time>2021-02-07T08:05:53.000Z</time>
      </trkpt>
      <trkpt lat="47.17113" lon="-1.64248">
        <ele>80</ele>
        <time>2021-02-07T08:05:55.000Z</time>
      </trkpt>
      <trkpt lat="47.17111" lon="-1.64267">
        <ele>80</ele>
        <time>2021-02-07T08:05:57.000Z</time>
      </trkpt>
      <trkpt lat="47.1711" lon="-1.64286">
        <ele>81</ele>
        <time>2021-02-07T08:05:59.000Z</time>
      </trkpt>
      <trkpt lat="47.17108" lon="-1.64304">
        <ele>81</ele>
        <time>2021-02-07T08:06:01.000Z</time>
      </trkpt>
      <trkpt lat="47.17106" lon="-1.64323">
        <ele>80</ele>
        <time>2021-02-07T08:06:03.000Z</time>
      </trkpt>
      <trkpt lat="47.17104" lon="-1.64341">
        <ele>80</ele>
        <time>2021-02-07T08:06:05.000Z</time>
      </trkpt>
      <trkpt lat="47.17103" lon="-1.6436">
        <ele>80</ele>
        <time>2021-02-07T08:06:07.000Z</time>
      </trkpt>
      <trkpt lat="47.17102" lon="-1.64379">
        <ele>80</ele>
        <time>2021-02-07T08:06:09.000Z</time>
      </trkpt>
      <trkpt lat="47.171" lon="-1.64397">
        <ele>80</ele>
        <time>2021-02-07T08:06:11.000Z</time>
      </trkpt>
      <trkpt lat="47.17098" lon="-1.64416">
        <ele>80</ele>
        <time>2021-02-07T08:06:13.000Z</time>
      </trkpt>
      <trkpt lat="47.17097" lon="-1.64435">
        <ele>80</ele>
        <time>2021-02-07T08:06:15.000Z</time>
      </trkpt>
      <trkpt lat="47.17097" lon="-1.64454">
        <ele>80</ele>
        <time>2021-02-07T08:06:17.000Z</time>
      </trkpt>
      <trkpt lat="47.17096" lon="-1.64474">
        <ele>81</ele>
        <time>2021-02-07T08:06:19.000Z</time>
      </trkpt>
      <trkpt lat="47.17094" lon="-1.64493">
        <ele>81</ele>
        <time>2021-02-07T08:06:21.000Z</time>
      </trkpt>
      <trkpt lat="47.17093" lon="-1.64513">
        <ele>80</ele>
        <time>2021-02-07T08:06:23.000Z</time>
      </trkpt>
      <trkpt lat="47.17092" lon="-1.64532">
        <ele>80</ele>
        <time>2021-02-07T08:06:25.000Z</time>
      </trkpt>
      <trkpt lat="47.17091" lon="-1.64551">
        <ele>79</ele>
        <time>2021-02-07T08:06:27.000Z</time>
      </trkpt>
      <trkpt lat="47.1709" lon="-1.6457">
        <ele>79</ele>
        <time>2021-02-07T08:06:29.000Z</time>
      </trkpt>
      <trkpt lat="47.1709" lon="-1.6459">
        <ele>79</ele>
        <time>2021-02-07T08:06:31.000Z</time>
      </trkpt>
      <trkpt lat="47.17089" lon="-1.64608">
        <ele>79</ele>
        <time>2021-02-07T08:06:33.000Z</time>
      </trkpt>
      <trkpt lat="47.17089" lon="-1.64628">
        <ele>78</ele>
        <time>2021-02-07T08:06:35.000Z</time>
      </trkpt>
      <trkpt lat="47.1709" lon="-1.64647">
        <ele>78</ele>
        <time>2021-02-07T08:06:37.000Z</time>
      </trkpt>
      <trkpt lat="47.1709" lon="-1.64667">
        <ele>78</ele>
        <time>2021-02-07T08:06:39.000Z</time>
      </trkpt>
      <trkpt lat="47.1709" lon="-1.64687">
        <ele>78</ele>
        <time>2021-02-07T08:06:41.000Z</time>
      </trkpt>
      <trkpt lat="47.17091" lon="-1.64707">
        <ele>78</ele>
        <time>2021-02-07T08:06:43.000Z</time>
      </trkpt>
      <trkpt lat="47.17093" lon="-1.64724">
        <ele>78</ele>
        <time>2021-02-07T08:06:45.000Z</time>
      </trkpt>
      <trkpt lat="47.17094" lon="-1.64743">
        <ele>78</ele>
        <time>2021-02-07T08:06:47.000Z</time>
      </trkpt>
      <trkpt lat="47.17095" lon="-1.64761">
        <ele>78</ele>
        <time>2021-02-07T08:06:49.000Z</time>
      </trkpt>
      <trkpt lat="47.17097" lon="-1.6478">
        <ele>77</ele>
        <time>2021-02-07T08:06:51.000Z</time>
      </trkpt>
      <trkpt lat="47.17099" lon="-1.648">
        <ele>76</ele>
        <time>2021-02-07T08:06:53.000Z</time>
      </trkpt>
      <trkpt lat="47.17102" lon="-1.6482">
        <ele>76</ele>
        <time>2021-02-07T08:06:55.000Z</time>
      </trkpt>
      <trkpt lat="47.17102" lon="-1.64839">
        <ele>76</ele>
        <time>2021-02-07T08:06:57.000Z</time>
      </trkpt>
      <trkpt lat="47.17103" lon="-1.64859">
        <ele>76</ele>
        <time>2021-02-07T08:06:59.000Z</time>
      </trkpt>
      <trkpt lat="47.17103" lon="-1.6488">
        <ele>76</ele>
        <time>2021-02-07T08:07:01.000Z</time>
      </trkpt>
      <trkpt lat="47.17104" lon="-1.64899">
        <ele>77</ele>
        <time>2021-02-07T08:07:03.000Z</time>
      </trkpt>
      <trkpt lat="47.17104" lon="-1.64918">
        <ele>77</ele>
        <time>2021-02-07T08:07:05.000Z</time>
      </trkpt>
      <trkpt lat="47.17106" lon="-1.64937">
        <ele>77</ele>
        <time>2021-02-07T08:07:07.000Z</time>
      </trkpt>
      <trkpt lat="47.17107" lon="-1.64956">
        <ele>77</ele>
        <time>2021-02-07T08:07:09.000Z</time>
      </trkpt>
      <trkpt lat="47.17108" lon="-1.64975">
        <ele>78</ele>
        <time>2021-02-07T08:07:11.000Z</time>
      </trkpt>
      <trkpt lat="47.17109" lon="-1.64993">
        <ele>78</ele>
        <time>2021-02-07T08:07:13.000Z</time>
      </trkpt>
      <trkpt lat="47.1711" lon="-1.65011">
        <ele>78</ele>
        <time>2021-02-07T08:07:15.000Z</time>
      </trkpt>
      <trkpt lat="47.17111" lon="-1.6503">
        <ele>79</ele>
        <time>2021-02-07T08:07:17.000Z</time>
      </trkpt>
      <trkpt lat="47.17113" lon="-1.65048">
        <ele>79</ele>
        <time>2021-02-07T08:07:19.000Z</time>
      </trkpt>
      <trkpt lat="47.17114" lon="-1.65066">
        <ele>79</ele>
        <time>2021-02-07T08:07:21.000Z</time>
      </trkpt>
      <trkpt lat="47.17115" lon="-1.65084">
        <ele>79</ele>
        <time>2021-02-07T08:07:23.000Z</time>
      </trkpt>
      <trkpt lat="47.17116" lon="-1.65103">
        <ele>78</ele>
        <time>2021-02-07T08:07:25.000Z</time>
      </trkpt>
      <trkpt lat="47.17117" lon="-1.65121">
        <ele>78</ele>
        <time>2021-02-07T08:07:27.000Z</time>
      </trkpt>
      <trkpt lat="47.17119" lon="-1.6514">
        <ele>78</ele>
        <time>2021-02-07T08:07:29.000Z</time>
      </trkpt>
      <trkpt lat="47.17119" lon="-1.65158">
        <ele>78</ele>
        <time>2021-02-07T08:07:31.000Z</time>
      </trkpt>
      <trkpt lat="47.1712" lon="-1.65175">
        <ele>78</ele>
        <time>2021-02-07T08:07:33.000Z</time>
      </trkpt>
      <trkpt lat="47.17121" lon="-1.65192">
        <ele>78</ele>
        <time>2021-02-07T08:07:35.000Z</time>
      </trkpt>
      <trkpt lat="47.17122" lon="-1.65209">
        <ele>79</ele>
        <time>2021-02-07T08:07:37.000Z</time>
      </trkpt>
      <trkpt lat="47.17124" lon="-1.65225">
        <ele>79</ele>
        <time>2021-02-07T08:07:39.000Z</time>
      </trkpt>
      <trkpt lat="47.17124" lon="-1.65241">
        <ele>79</ele>
        <time>2021-02-07T08:07:41.000Z</time>
      </trkpt>
      <trkpt lat="47.17126" lon="-1.65256">
        <ele>80</ele>
        <time>2021-02-07T08:07:43.000Z</time>
      </trkpt>
      <trkpt lat="47.17129" lon="-1.65271">
        <ele>80</ele>
        <time>2021-02-07T08:07:45.000Z</time>
      </trkpt>
      <trkpt lat="47.17136" lon="-1.65285">
        <ele>80</ele>
        <time>2021-02-07T08:07:47.000Z</time>
      </trkpt>
      <trkpt lat="47.17139" lon="-1.65301">
        <ele>80</ele>
        <time>2021-02-07T08:07:49.000Z</time>
      </trkpt>
      <trkpt lat="47.17138" lon="-1.65317">
        <ele>80</ele>
        <time>2021-02-07T08:07:51.000Z</time>
      </trkpt>
      <trkpt lat="47.17133" lon="-1.65331">
        <ele>80</ele>
        <time>2021-02-07T08:07:53.000Z</time>
      </trkpt>
      <trkpt lat="47.17125" lon="-1.65343">
        <ele>80</ele>
        <time>2021-02-07T08:07:55.000Z</time>
      </trkpt>
      <trkpt lat="47.1712" lon="-1.65358">
        <ele>79</ele>
        <time>2021-02-07T08:07:57.000Z</time>
      </trkpt>
      <trkpt lat="47.1712" lon="-1.65375">
        <ele>80</ele>
        <time>2021-02-07T08:07:59.000Z</time>
      </trkpt>
      <trkpt lat="47.1712" lon="-1.65392">
        <ele>80</ele>
        <time>2021-02-07T08:08:01.000Z</time>
      </trkpt>
      <trkpt lat="47.1712" lon="-1.65407">
        <ele>80</ele>
        <time>2021-02-07T08:08:03.000Z</time>
      </trkpt>
      <trkpt lat="47.17121" lon="-1.65423">
        <ele>81</ele>
        <time>2021-02-07T08:08:05.000Z</time>
      </trkpt>
      <trkpt lat="47.17121" lon="-1.65437">
        <ele>82</ele>
        <time>2021-02-07T08:08:07.000Z</time>
      </trkpt>
      <trkpt lat="47.17122" lon="-1.65451">
        <ele>82</ele>
        <time>2021-02-07T08:08:09.000Z</time>
      </trkpt>
      <trkpt lat="47.17121" lon="-1.65465">
        <ele>83</ele>
        <time>2021-02-07T08:08:11.000Z</time>
      </trkpt>
      <trkpt lat="47.1712" lon="-1.65479">
        <ele>83</ele>
        <time>2021-02-07T08:08:13.000Z</time>
      </trkpt>
      <trkpt lat="47.17118" lon="-1.65493">
        <ele>84</ele>
        <time>2021-02-07T08:08:15.000Z</time>
      </trkpt>
      <trkpt lat="47.17114" lon="-1.65505">
        <ele>85</ele>
        <time>2021-02-07T08:08:17.000Z</time>
      </trkpt>
      <trkpt lat="47.1711" lon="-1.65518">
        <ele>85</ele>
        <time>2021-02-07T08:08:19.000Z</time>
      </trkpt>
      <trkpt lat="47.17106" lon="-1.6553">
        <ele>86</ele>
        <time>2021-02-07T08:08:21.000Z</time>
      </trkpt>
      <trkpt lat="47.17101" lon="-1.65543">
        <ele>85</ele>
        <time>2021-02-07T08:08:23.000Z</time>
      </trkpt>
      <trkpt lat="47.17094" lon="-1.65554">
        <ele>86</ele>
        <time>2021-02-07T08:08:25.000Z</time>
      </trkpt>
      <trkpt lat="47.17088" lon="-1.65565">
        <ele>86</ele>
        <time>2021-02-07T08:08:27.000Z</time>
      </trkpt>
      <trkpt lat="47.17081" lon="-1.65577">
        <ele>86</ele>
        <time>2021-02-07T08:08:29.000Z</time>
      </trkpt>
      <trkpt lat="47.17075" lon="-1.65588">
        <ele>86</ele>
        <time>2021-02-07T08:08:31.000Z</time>
      </trkpt>
      <trkpt lat="47.17068" lon="-1.65599">
        <ele>86</ele>
        <time>2021-02-07T08:08:33.000Z</time>
      </trkpt>
      <trkpt lat="47.17062" lon="-1.6561">
        <ele>86</ele>
        <time>2021-02-07T08:08:35.000Z</time>
      </trkpt>
      <trkpt lat="47.17055" lon="-1.65623">
        <ele>86</ele>
        <time>2021-02-07T08:08:37.000Z</time>
      </trkpt>
      <trkpt lat="47.17047" lon="-1.65635">
        <ele>86</ele>
        <time>2021-02-07T08:08:39.000Z</time>
      </trkpt>
      <trkpt lat="47.17039" lon="-1.65649">
        <ele>85</ele>
        <time>2021-02-07T08:08:41.000Z</time>
      </trkpt>
      <trkpt lat="47.17032" lon="-1.65665">
        <ele>84</ele>
        <time>2021-02-07T08:08:43.000Z</time>
      </trkpt>
      <trkpt lat="47.17023" lon="-1.6568">
        <ele>83</ele>
        <time>2021-02-07T08:08:45.000Z</time>
      </trkpt>
      <trkpt lat="47.17017" lon="-1.65696">
        <ele>83</ele>
        <time>2021-02-07T08:08:47.000Z</time>
      </trkpt>
      <trkpt lat="47.1701" lon="-1.65712">
        <ele>84</ele>
        <time>2021-02-07T08:08:49.000Z</time>
      </trkpt>
      <trkpt lat="47.17006" lon="-1.6573">
        <ele>83</ele>
        <time>2021-02-07T08:08:51.000Z</time>
      </trkpt>
      <trkpt lat="47.17003" lon="-1.65747">
        <ele>83</ele>
        <time>2021-02-07T08:08:53.000Z</time>
      </trkpt>
      <trkpt lat="47.16996" lon="-1.65762">
        <ele>83</ele>
        <time>2021-02-07T08:08:55.000Z</time>
      </trkpt>
      <trkpt lat="47.16985" lon="-1.65771">
        <ele>83</ele>
        <time>2021-02-07T08:08:57.000Z</time>
      </trkpt>
      <trkpt lat="47.16973" lon="-1.6578">
        <ele>82</ele>
        <time>2021-02-07T08:08:59.000Z</time>
      </trkpt>
      <trkpt lat="47.16963" lon="-1.6579">
        <ele>82</ele>
        <time>2021-02-07T08:09:01.000Z</time>
      </trkpt>
      <trkpt lat="47.16954" lon="-1.65804">
        <ele>82</ele>
        <time>2021-02-07T08:09:03.000Z</time>
      </trkpt>
      <trkpt lat="47.16946" lon="-1.6582">
        <ele>82</ele>
        <time>2021-02-07T08:09:05.000Z</time>
      </trkpt>
      <trkpt lat="47.16938" lon="-1.65835">
        <ele>81</ele>
        <time>2021-02-07T08:09:07.000Z</time>
      </trkpt>
      <trkpt lat="47.16931" lon="-1.6585">
        <ele>82</ele>
        <time>2021-02-07T08:09:09.000Z</time>
      </trkpt>
      <trkpt lat="47.16923" lon="-1.65866">
        <ele>82</ele>
        <time>2021-02-07T08:09:11.000Z</time>
      </trkpt>
      <trkpt lat="47.16915" lon="-1.65882">
        <ele>82</ele>
        <time>2021-02-07T08:09:13.000Z</time>
      </trkpt>
      <trkpt lat="47.16907" lon="-1.65897">
        <ele>82</ele>
        <time>2021-02-07T08:09:15.000Z</time>
      </trkpt>
      <trkpt lat="47.169" lon="-1.65913">
        <ele>82</ele>
        <time>2021-02-07T08:09:17.000Z</time>
      </trkpt>
      <trkpt lat="47.16892" lon="-1.6593">
        <ele>82</ele>
        <time>2021-02-07T08:09:19.000Z</time>
      </trkpt>
      <trkpt lat="47.16885" lon="-1.65947">
        <ele>81</ele>
        <time>2021-02-07T08:09:21.000Z</time>
      </trkpt>
      <trkpt lat="47.16877" lon="-1.65964">
        <ele>81</ele>
        <time>2021-02-07T08:09:23.000Z</time>
      </trkpt>
      <trkpt lat="47.16871" lon="-1.65983">
        <ele>81</ele>
        <time>2021-02-07T08:09:25.000Z</time>
      </trkpt>
      <trkpt lat="47.16866" lon="-1.66001">
        <ele>80</ele>
        <time>2021-02-07T08:09:27.000Z</time>
      </trkpt>
      <trkpt lat="47.16861" lon="-1.66019">
        <ele>80</ele>
        <time>2021-02-07T08:09:29.000Z</time>
      </trkpt>
      <trkpt lat="47.16856" lon="-1.66038">
        <ele>79</ele>
        <time>2021-02-07T08:09:31.000Z</time>
      </trkpt>
      <trkpt lat="47.16853" lon="-1.66057">
        <ele>79</ele>
        <time>2021-02-07T08:09:33.000Z</time>
      </trkpt>
      <trkpt lat="47.16851" lon="-1.66075">
        <ele>79</ele>
        <time>2021-02-07T08:09:35.000Z</time>
      </trkpt>
      <trkpt lat="47.16849" lon="-1.66094">
        <ele>79</ele>
        <time>2021-02-07T08:09:37.000Z</time>
      </trkpt>
      <trkpt lat="47.16847" lon="-1.66113">
        <ele>78</ele>
        <time>2021-02-07T08:09:39.000Z</time>
      </trkpt>
      <trkpt lat="47.16847" lon="-1.66131">
        <ele>78</ele>
        <time>2021-02-07T08:09:41.000Z</time>
      </trkpt>
      <trkpt lat="47.16847" lon="-1.6615">
        <ele>78</ele>
        <time>2021-02-07T08:09:43.000Z</time>
      </trkpt>
      <trkpt lat="47.16848" lon="-1.66169">
        <ele>78</ele>
        <time>2021-02-07T08:09:45.000Z</time>
      </trkpt>
      <trkpt lat="47.16848" lon="-1.66187">
        <ele>78</ele>
        <time>2021-02-07T08:09:47.000Z</time>
      </trkpt>
      <trkpt lat="47.16849" lon="-1.66205">
        <ele>78</ele>
        <time>2021-02-07T08:09:49.000Z</time>
      </trkpt>
      <trkpt lat="47.1685" lon="-1.66224">
        <ele>78</ele>
        <time>2021-02-07T08:09:51.000Z</time>
      </trkpt>
      <trkpt lat="47.16851" lon="-1.66242">
        <ele>77</ele>
        <time>2021-02-07T08:09:53.000Z</time>
      </trkpt>
      <trkpt lat="47.16852" lon="-1.6626">
        <ele>77</ele>
        <time>2021-02-07T08:09:55.000Z</time>
      </trkpt>
      <trkpt lat="47.16854" lon="-1.66278">
        <ele>78</ele>
        <time>2021-02-07T08:09:57.000Z</time>
      </trkpt>
      <trkpt lat="47.16855" lon="-1.66296">
        <ele>78</ele>
        <time>2021-02-07T08:09:59.000Z</time>
      </trkpt>
      <trkpt lat="47.16856" lon="-1.66314">
        <ele>78</ele>
        <time>2021-02-07T08:10:01.000Z</time>
      </trkpt>
      <trkpt lat="47.16858" lon="-1.66331">
        <ele>78</ele>
        <time>2021-02-07T08:10:03.000Z</time>
      </trkpt>
      <trkpt lat="47.1686" lon="-1.6635">
        <ele>78</ele>
        <time>2021-02-07T08:10:05.000Z</time>
      </trkpt>
      <trkpt lat="47.16862" lon="-1.66367">
        <ele>78</ele>
        <time>2021-02-07T08:10:07.000Z</time>
      </trkpt>
      <trkpt lat="47.16864" lon="-1.66385">
        <ele>78</ele>
        <time>2021-02-07T08:10:09.000Z</time>
      </trkpt>
      <trkpt lat="47.16866" lon="-1.66403">
        <ele>78</ele>
        <time>2021-02-07T08:10:11.000Z</time>
      </trkpt>
      <trkpt lat="47.16868" lon="-1.6642">
        <ele>78</ele>
        <time>2021-02-07T08:10:13.000Z</time>
      </trkpt>
      <trkpt lat="47.16871" lon="-1.66437">
        <ele>78</ele>
        <time>2021-02-07T08:10:15.000Z</time>
      </trkpt>
      <trkpt lat="47.16872" lon="-1.66455">
        <ele>78</ele>
        <time>2021-02-07T08:10:17.000Z</time>
      </trkpt>
      <trkpt lat="47.16874" lon="-1.66473">
        <ele>79</ele>
        <time>2021-02-07T08:10:19.000Z</time>
      </trkpt>
      <trkpt lat="47.16876" lon="-1.66491">
        <ele>79</ele>
        <time>2021-02-07T08:10:21.000Z</time>
      </trkpt>
      <trkpt lat="47.16877" lon="-1.66509">
        <ele>79</ele>
        <time>2021-02-07T08:10:23.000Z</time>
      </trkpt>
      <trkpt lat="47.16879" lon="-1.66526">
        <ele>78</ele>
        <time>2021-02-07T08:10:25.000Z</time>
      </trkpt>
      <trkpt lat="47.16881" lon="-1.66543">
        <ele>78</ele>
        <time>2021-02-07T08:10:27.000Z</time>
      </trkpt>
      <trkpt lat="47.16883" lon="-1.6656">
        <ele>78</ele>
        <time>2021-02-07T08:10:29.000Z</time>
      </trkpt>
      <trkpt lat="47.16886" lon="-1.66577">
        <ele>78</ele>
        <time>2021-02-07T08:10:31.000Z</time>
      </trkpt>
      <trkpt lat="47.16887" lon="-1.66595">
        <ele>78</ele>
        <time>2021-02-07T08:10:33.000Z</time>
      </trkpt>
      <trkpt lat="47.16889" lon="-1.66612">
        <ele>78</ele>
        <time>2021-02-07T08:10:35.000Z</time>
      </trkpt>
      <trkpt lat="47.16891" lon="-1.6663">
        <ele>78</ele>
        <time>2021-02-07T08:10:37.000Z</time>
      </trkpt>
      <trkpt lat="47.16893" lon="-1.66647">
        <ele>79</ele>
        <time>2021-02-07T08:10:39.000Z</time>
      </trkpt>
      <trkpt lat="47.16893" lon="-1.66665">
        <ele>79</ele>
        <time>2021-02-07T08:10:41.000Z</time>
      </trkpt>
      <trkpt lat="47.16893" lon="-1.66682">
        <ele>79</ele>
        <time>2021-02-07T08:10:43.000Z</time>
      </trkpt>
      <trkpt lat="47.1689" lon="-1.66699">
        <ele>80</ele>
        <time>2021-02-07T08:10:45.000Z</time>
      </trkpt>
      <trkpt lat="47.16887" lon="-1.66716">
        <ele>80</ele>
        <time>2021-02-07T08:10:47.000Z</time>
      </trkpt>
      <trkpt lat="47.16881" lon="-1.66733">
        <ele>81</ele>
        <time>2021-02-07T08:10:49.000Z</time>
      </trkpt>
      <trkpt lat="47.16874" lon="-1.66748">
        <ele>81</ele>
        <time>2021-02-07T08:10:51.000Z</time>
      </trkpt>
      <trkpt lat="47.16867" lon="-1.66764">
        <ele>81</ele>
        <time>2021-02-07T08:10:53.000Z</time>
      </trkpt>
      <trkpt lat="47.1686" lon="-1.66778">
        <ele>81</ele>
        <time>2021-02-07T08:10:55.000Z</time>
      </trkpt>
      <trkpt lat="47.16852" lon="-1.66793">
        <ele>81</ele>
        <time>2021-02-07T08:10:57.000Z</time>
      </trkpt>
      <trkpt lat="47.16844" lon="-1.66808">
        <ele>80</ele>
        <time>2021-02-07T08:10:59.000Z</time>
      </trkpt>
      <trkpt lat="47.16836" lon="-1.66823">
        <ele>80</ele>
        <time>2021-02-07T08:11:01.000Z</time>
      </trkpt>
      <trkpt lat="47.16829" lon="-1.66837">
        <ele>80</ele>
        <time>2021-02-07T08:11:03.000Z</time>
      </trkpt>
      <trkpt lat="47.16821" lon="-1.66853">
        <ele>80</ele>
        <time>2021-02-07T08:11:05.000Z</time>
      </trkpt>
      <trkpt lat="47.16813" lon="-1.66867">
        <ele>81</ele>
        <time>2021-02-07T08:11:07.000Z</time>
      </trkpt>
      <trkpt lat="47.16805" lon="-1.6688">
        <ele>81</ele>
        <time>2021-02-07T08:11:09.000Z</time>
      </trkpt>
      <trkpt lat="47.16797" lon="-1.66892">
        <ele>81</ele>
        <time>2021-02-07T08:11:11.000Z</time>
      </trkpt>
      <trkpt lat="47.16786" lon="-1.66902">
        <ele>81</ele>
        <time>2021-02-07T08:11:13.000Z</time>
      </trkpt>
      <trkpt lat="47.16776" lon="-1.66911">
        <ele>82</ele>
        <time>2021-02-07T08:11:15.000Z</time>
      </trkpt>
      <trkpt lat="47.16764" lon="-1.66916">
        <ele>81</ele>
        <time>2021-02-07T08:11:17.000Z</time>
      </trkpt>
      <trkpt lat="47.16753" lon="-1.66919">
        <ele>81</ele>
        <time>2021-02-07T08:11:19.000Z</time>
      </trkpt>
      <trkpt lat="47.1674" lon="-1.66924">
        <ele>81</ele>
        <time>2021-02-07T08:11:21.000Z</time>
      </trkpt>
      <trkpt lat="47.16729" lon="-1.66928">
        <ele>81</ele>
        <time>2021-02-07T08:11:23.000Z</time>
      </trkpt>
      <trkpt lat="47.16718" lon="-1.66932">
        <ele>80</ele>
        <time>2021-02-07T08:11:25.000Z</time>
      </trkpt>
      <trkpt lat="47.16706" lon="-1.66936">
        <ele>80</ele>
        <time>2021-02-07T08:11:27.000Z</time>
      </trkpt>
      <trkpt lat="47.16693" lon="-1.66945">
        <ele>79</ele>
        <time>2021-02-07T08:11:29.000Z</time>
      </trkpt>
      <trkpt lat="47.16681" lon="-1.66956">
        <ele>79</ele>
        <time>2021-02-07T08:11:31.000Z</time>
      </trkpt>
      <trkpt lat="47.16673" lon="-1.66971">
        <ele>79</ele>
        <time>2021-02-07T08:11:33.000Z</time>
      </trkpt>
      <trkpt lat="47.16667" lon="-1.66986">
        <ele>79</ele>
        <time>2021-02-07T08:11:35.000Z</time>
      </trkpt>
      <trkpt lat="47.16664" lon="-1.67003">
        <ele>79</ele>
        <time>2021-02-07T08:11:37.000Z</time>
      </trkpt>
      <trkpt lat="47.16661" lon="-1.67021">
        <ele>79</ele>
        <time>2021-02-07T08:11:39.000Z</time>
      </trkpt>
      <trkpt lat="47.16657" lon="-1.67039">
        <ele>80</ele>
        <time>2021-02-07T08:11:41.000Z</time>
      </trkpt>
      <trkpt lat="47.16652" lon="-1.67058">
        <ele>79</ele>
        <time>2021-02-07T08:11:43.000Z</time>
      </trkpt>
      <trkpt lat="47.16648" lon="-1.67077">
        <ele>79</ele>
        <time>2021-02-07T08:11:45.000Z</time>
      </trkpt>
      <trkpt lat="47.16645" lon="-1.67095">
        <ele>79</ele>
        <time>2021-02-07T08:11:47.000Z</time>
      </trkpt>
      <trkpt lat="47.16641" lon="-1.67113">
        <ele>79</ele>
        <time>2021-02-07T08:11:49.000Z</time>
      </trkpt>
      <trkpt lat="47.16637" lon="-1.67131">
        <ele>79</ele>
        <time>2021-02-07T08:11:51.000Z</time>
      </trkpt>
      <trkpt lat="47.16634" lon="-1.67148">
        <ele>79</ele>
        <time>2021-02-07T08:11:53.000Z</time>
      </trkpt>
      <trkpt lat="47.1663" lon="-1.67167">
        <ele>79</ele>
        <time>2021-02-07T08:11:55.000Z</time>
      </trkpt>
      <trkpt lat="47.16627" lon="-1.67184">
        <ele>79</ele>
        <time>2021-02-07T08:11:57.000Z</time>
      </trkpt>
      <trkpt lat="47.16623" lon="-1.67201">
        <ele>78</ele>
        <time>2021-02-07T08:11:59.000Z</time>
      </trkpt>
      <trkpt lat="47.1662" lon="-1.67218">
        <ele>79</ele>
        <time>2021-02-07T08:12:01.000Z</time>
      </trkpt>
      <trkpt lat="47.16616" lon="-1.67234">
        <ele>79</ele>
        <time>2021-02-07T08:12:03.000Z</time>
      </trkpt>
      <trkpt lat="47.16613" lon="-1.67248">
        <ele>78</ele>
        <time>2021-02-07T08:12:05.000Z</time>
      </trkpt>
      <trkpt lat="47.16617" lon="-1.67266">
        <ele>77</ele>
        <time>2021-02-07T08:12:08.000Z</time>
      </trkpt>
      <trkpt lat="47.16627" lon="-1.67268">
        <ele>77</ele>
        <time>2021-02-07T08:12:10.000Z</time>
      </trkpt>
      <trkpt lat="47.16639" lon="-1.67272">
        <ele>77</ele>
        <time>2021-02-07T08:12:12.000Z</time>
      </trkpt>
      <trkpt lat="47.16651" lon="-1.67275">
        <ele>77</ele>
        <time>2021-02-07T08:12:14.000Z</time>
      </trkpt>
      <trkpt lat="47.16662" lon="-1.67279">
        <ele>78</ele>
        <time>2021-02-07T08:12:16.000Z</time>
      </trkpt>
      <trkpt lat="47.16673" lon="-1.67283">
        <ele>78</ele>
        <time>2021-02-07T08:12:18.000Z</time>
      </trkpt>
      <trkpt lat="47.16685" lon="-1.67288">
        <ele>79</ele>
        <time>2021-02-07T08:12:20.000Z</time>
      </trkpt>
      <trkpt lat="47.16697" lon="-1.67293">
        <ele>79</ele>
        <time>2021-02-07T08:12:22.000Z</time>
      </trkpt>
      <trkpt lat="47.16708" lon="-1.67299">
        <ele>79</ele>
        <time>2021-02-07T08:12:24.000Z</time>
      </trkpt>
      <trkpt lat="47.16719" lon="-1.67306">
        <ele>79</ele>
        <time>2021-02-07T08:12:26.000Z</time>
      </trkpt>
      <trkpt lat="47.16731" lon="-1.67314">
        <ele>79</ele>
        <time>2021-02-07T08:12:28.000Z</time>
      </trkpt>
      <trkpt lat="47.16741" lon="-1.67322">
        <ele>80</ele>
        <time>2021-02-07T08:12:30.000Z</time>
      </trkpt>
      <trkpt lat="47.16752" lon="-1.67329">
        <ele>81</ele>
        <time>2021-02-07T08:12:32.000Z</time>
      </trkpt>
      <trkpt lat="47.16762" lon="-1.67338">
        <ele>81</ele>
        <time>2021-02-07T08:12:34.000Z</time>
      </trkpt>
      <trkpt lat="47.16773" lon="-1.67348">
        <ele>81</ele>
        <time>2021-02-07T08:12:36.000Z</time>
      </trkpt>
      <trkpt lat="47.16782" lon="-1.67357">
        <ele>82</ele>
        <time>2021-02-07T08:12:38.000Z</time>
      </trkpt>
      <trkpt lat="47.16792" lon="-1.67368">
        <ele>83</ele>
        <time>2021-02-07T08:12:40.000Z</time>
      </trkpt>
      <trkpt lat="47.16801" lon="-1.67378">
        <ele>84</ele>
        <time>2021-02-07T08:12:42.000Z</time>
      </trkpt>
      <trkpt lat="47.16811" lon="-1.67389">
        <ele>84</ele>
        <time>2021-02-07T08:12:44.000Z</time>
      </trkpt>
      <trkpt lat="47.16822" lon="-1.67401">
        <ele>84</ele>
        <time>2021-02-07T08:12:46.000Z</time>
      </trkpt>
      <trkpt lat="47.16832" lon="-1.67411">
        <ele>83</ele>
        <time>2021-02-07T08:12:48.000Z</time>
      </trkpt>
      <trkpt lat="47.16842" lon="-1.67423">
        <ele>83</ele>
        <time>2021-02-07T08:12:50.000Z</time>
      </trkpt>
      <trkpt lat="47.16851" lon="-1.67435">
        <ele>83</ele>
        <time>2021-02-07T08:12:52.000Z</time>
      </trkpt>
      <trkpt lat="47.16861" lon="-1.67446">
        <ele>83</ele>
        <time>2021-02-07T08:12:54.000Z</time>
      </trkpt>
      <trkpt lat="47.1687" lon="-1.67457">
        <ele>83</ele>
        <time>2021-02-07T08:12:56.000Z</time>
      </trkpt>
      <trkpt lat="47.16879" lon="-1.67468">
        <ele>83</ele>
        <time>2021-02-07T08:12:58.000Z</time>
      </trkpt>
      <trkpt lat="47.16889" lon="-1.67478">
        <ele>82</ele>
        <time>2021-02-07T08:13:00.000Z</time>
      </trkpt>
      <trkpt lat="47.16898" lon="-1.67488">
        <ele>83</ele>
        <time>2021-02-07T08:13:02.000Z</time>
      </trkpt>
      <trkpt lat="47.16907" lon="-1.67499">
        <ele>82</ele>
        <time>2021-02-07T08:13:04.000Z</time>
      </trkpt>
      <trkpt lat="47.16917" lon="-1.67512">
        <ele>81</ele>
        <time>2021-02-07T08:13:06.000Z</time>
      </trkpt>
      <trkpt lat="47.16927" lon="-1.67523">
        <ele>81</ele>
        <time>2021-02-07T08:13:08.000Z</time>
      </trkpt>
      <trkpt lat="47.16936" lon="-1.67534">
        <ele>82</ele>
        <time>2021-02-07T08:13:10.000Z</time>
      </trkpt>
      <trkpt lat="47.16945" lon="-1.67544">
        <ele>82</ele>
        <time>2021-02-07T08:13:12.000Z</time>
      </trkpt>
      <trkpt lat="47.16955" lon="-1.67554">
        <ele>82</ele>
        <time>2021-02-07T08:13:14.000Z</time>
      </trkpt>
      <trkpt lat="47.16964" lon="-1.67565">
        <ele>82</ele>
        <time>2021-02-07T08:13:16.000Z</time>
      </trkpt>
      <trkpt lat="47.16973" lon="-1.67577">
        <ele>82</ele>
        <time>2021-02-07T08:13:18.000Z</time>
      </trkpt>
      <trkpt lat="47.16983" lon="-1.67588">
        <ele>82</ele>
        <time>2021-02-07T08:13:20.000Z</time>
      </trkpt>
      <trkpt lat="47.16992" lon="-1.67599">
        <ele>82</ele>
        <time>2021-02-07T08:13:22.000Z</time>
      </trkpt>
      <trkpt lat="47.17002" lon="-1.67611">
        <ele>82</ele>
        <time>2021-02-07T08:13:24.000Z</time>
      </trkpt>
      <trkpt lat="47.17012" lon="-1.67622">
        <ele>82</ele>
        <time>2021-02-07T08:13:26.000Z</time>
      </trkpt>
      <trkpt lat="47.17022" lon="-1.67632">
        <ele>82</ele>
        <time>2021-02-07T08:13:28.000Z</time>
      </trkpt>
      <trkpt lat="47.17031" lon="-1.67642">
        <ele>82</ele>
        <time>2021-02-07T08:13:30.000Z</time>
      </trkpt>
      <trkpt lat="47.17041" lon="-1.67657">
        <ele>80</ele>
        <time>2021-02-07T08:13:32.000Z</time>
      </trkpt>
      <trkpt lat="47.17051" lon="-1.67669">
        <ele>80</ele>
        <time>2021-02-07T08:13:34.000Z</time>
      </trkpt>
      <trkpt lat="47.17061" lon="-1.6768">
        <ele>80</ele>
        <time>2021-02-07T08:13:36.000Z</time>
      </trkpt>
      <trkpt lat="47.17071" lon="-1.67692">
        <ele>80</ele>
        <time>2021-02-07T08:13:38.000Z</time>
      </trkpt>
      <trkpt lat="47.1708" lon="-1.67702">
        <ele>80</ele>
        <time>2021-02-07T08:13:40.000Z</time>
      </trkpt>
      <trkpt lat="47.1709" lon="-1.67714">
        <ele>80</ele>
        <time>2021-02-07T08:13:42.000Z</time>
      </trkpt>
      <trkpt lat="47.17099" lon="-1.67725">
        <ele>80</ele>
        <time>2021-02-07T08:13:44.000Z</time>
      </trkpt>
      <trkpt lat="47.17108" lon="-1.67735">
        <ele>79</ele>
        <time>2021-02-07T08:13:46.000Z</time>
      </trkpt>
      <trkpt lat="47.17118" lon="-1.67747">
        <ele>79</ele>
        <time>2021-02-07T08:13:48.000Z</time>
      </trkpt>
      <trkpt lat="47.17128" lon="-1.67758">
        <ele>80</ele>
        <time>2021-02-07T08:13:50.000Z</time>
      </trkpt>
      <trkpt lat="47.17137" lon="-1.67768">
        <ele>81</ele>
        <time>2021-02-07T08:13:52.000Z</time>
      </trkpt>
      <trkpt lat="47.17147" lon="-1.67778">
        <ele>82</ele>
        <time>2021-02-07T08:13:54.000Z</time>
      </trkpt>
      <trkpt lat="47.17156" lon="-1.67787">
        <ele>82</ele>
        <time>2021-02-07T08:13:56.000Z</time>
      </trkpt>
      <trkpt lat="47.17166" lon="-1.67796">
        <ele>83</ele>
        <time>2021-02-07T08:13:58.000Z</time>
      </trkpt>
      <trkpt lat="47.17176" lon="-1.67808">
        <ele>83</ele>
        <time>2021-02-07T08:14:00.000Z</time>
      </trkpt>
      <trkpt lat="47.17185" lon="-1.67821">
        <ele>83</ele>
        <time>2021-02-07T08:14:02.000Z</time>
      </trkpt>
      <trkpt lat="47.17195" lon="-1.67834">
        <ele>83</ele>
        <time>2021-02-07T08:14:04.000Z</time>
      </trkpt>
      <trkpt lat="47.17204" lon="-1.67847">
        <ele>83</ele>
        <time>2021-02-07T08:14:06.000Z</time>
      </trkpt>
      <trkpt lat="47.17214" lon="-1.67858">
        <ele>83</ele>
        <time>2021-02-07T08:14:08.000Z</time>
      </trkpt>
      <trkpt lat="47.17223" lon="-1.67871">
        <ele>82</ele>
        <time>2021-02-07T08:14:10.000Z</time>
      </trkpt>
      <trkpt lat="47.17233" lon="-1.67883">
        <ele>82</ele>
        <time>2021-02-07T08:14:12.000Z</time>
      </trkpt>
      <trkpt lat="47.17243" lon="-1.67895">
        <ele>81</ele>
        <time>2021-02-07T08:14:14.000Z</time>
      </trkpt>
      <trkpt lat="47.17254" lon="-1.67906">
        <ele>81</ele>
        <time>2021-02-07T08:14:16.000Z</time>
      </trkpt>
      <trkpt lat="47.17264" lon="-1.67918">
        <ele>81</ele>
        <time>2021-02-07T08:14:18.000Z</time>
      </trkpt>
      <trkpt lat="47.17273" lon="-1.67929">
        <ele>81</ele>
        <time>2021-02-07T08:14:20.000Z</time>
      </trkpt>
      <trkpt lat="47.17283" lon="-1.67941">
        <ele>81</ele>
        <time>2021-02-07T08:14:22.000Z</time>
      </trkpt>
      <trkpt lat="47.17292" lon="-1.67952">
        <ele>81</ele>
        <time>2021-02-07T08:14:24.000Z</time>
      </trkpt>
      <trkpt lat="47.17302" lon="-1.67963">
        <ele>81</ele>
        <time>2021-02-07T08:14:26.000Z</time>
      </trkpt>
      <trkpt lat="47.1731" lon="-1.67974">
        <ele>81</ele>
        <time>2021-02-07T08:14:28.000Z</time>
      </trkpt>
      <trkpt lat="47.1732" lon="-1.67988">
        <ele>80</ele>
        <time>2021-02-07T08:14:30.000Z</time>
      </trkpt>
      <trkpt lat="47.17328" lon="-1.68001">
        <ele>80</ele>
        <time>2021-02-07T08:14:32.000Z</time>
      </trkpt>
      <trkpt lat="47.17334" lon="-1.68017">
        <ele>80</ele>
        <time>2021-02-07T08:14:34.000Z</time>
      </trkpt>
      <trkpt lat="47.17339" lon="-1.68034">
        <ele>79</ele>
        <time>2021-02-07T08:14:36.000Z</time>
      </trkpt>
      <trkpt lat="47.17343" lon="-1.68051">
        <ele>79</ele>
        <time>2021-02-07T08:14:38.000Z</time>
      </trkpt>
      <trkpt lat="47.17346" lon="-1.68069">
        <ele>79</ele>
        <time>2021-02-07T08:14:40.000Z</time>
      </trkpt>
      <trkpt lat="47.1735" lon="-1.68085">
        <ele>79</ele>
        <time>2021-02-07T08:14:42.000Z</time>
      </trkpt>
      <trkpt lat="47.17353" lon="-1.68103">
        <ele>79</ele>
        <time>2021-02-07T08:14:44.000Z</time>
      </trkpt>
      <trkpt lat="47.17357" lon="-1.6812">
        <ele>79</ele>
        <time>2021-02-07T08:14:46.000Z</time>
      </trkpt>
      <trkpt lat="47.1736" lon="-1.68137">
        <ele>79</ele>
        <time>2021-02-07T08:14:48.000Z</time>
      </trkpt>
      <trkpt lat="47.17361" lon="-1.68154">
        <ele>79</ele>
        <time>2021-02-07T08:14:50.000Z</time>
      </trkpt>
      <trkpt lat="47.17361" lon="-1.68172">
        <ele>79</ele>
        <time>2021-02-07T08:14:52.000Z</time>
      </trkpt>
      <trkpt lat="47.1736" lon="-1.68191">
        <ele>79</ele>
        <time>2021-02-07T08:14:54.000Z</time>
      </trkpt>
      <trkpt lat="47.17358" lon="-1.68208">
        <ele>79</ele>
        <time>2021-02-07T08:14:56.000Z</time>
      </trkpt>
      <trkpt lat="47.17355" lon="-1.68226">
        <ele>79</ele>
        <time>2021-02-07T08:14:58.000Z</time>
      </trkpt>
      <trkpt lat="47.17351" lon="-1.68242">
        <ele>79</ele>
        <time>2021-02-07T08:15:00.000Z</time>
      </trkpt>
      <trkpt lat="47.17348" lon="-1.68258">
        <ele>79</ele>
        <time>2021-02-07T08:15:02.000Z</time>
      </trkpt>
      <trkpt lat="47.17345" lon="-1.68274">
        <ele>80</ele>
        <time>2021-02-07T08:15:04.000Z</time>
      </trkpt>
      <trkpt lat="47.17342" lon="-1.68289">
        <ele>81</ele>
        <time>2021-02-07T08:15:06.000Z</time>
      </trkpt>
      <trkpt lat="47.17339" lon="-1.68305">
        <ele>82</ele>
        <time>2021-02-07T08:15:08.000Z</time>
      </trkpt>
      <trkpt lat="47.17336" lon="-1.6832">
        <ele>82</ele>
        <time>2021-02-07T08:15:10.000Z</time>
      </trkpt>
      <trkpt lat="47.17332" lon="-1.68335">
        <ele>83</ele>
        <time>2021-02-07T08:15:12.000Z</time>
      </trkpt>
      <trkpt lat="47.17329" lon="-1.6835">
        <ele>83</ele>
        <time>2021-02-07T08:15:14.000Z</time>
      </trkpt>
      <trkpt lat="47.17332" lon="-1.68364">
        <ele>84</ele>
        <time>2021-02-07T08:15:16.000Z</time>
      </trkpt>
      <trkpt lat="47.17339" lon="-1.68373">
        <ele>84</ele>
        <time>2021-02-07T08:15:18.000Z</time>
      </trkpt>
      <trkpt lat="47.17349" lon="-1.68378">
        <ele>84</ele>
        <time>2021-02-07T08:15:20.000Z</time>
      </trkpt>
      <trkpt lat="47.17359" lon="-1.68379">
        <ele>84</ele>
        <time>2021-02-07T08:15:22.000Z</time>
      </trkpt>
      <trkpt lat="47.17369" lon="-1.68379">
        <ele>85</ele>
        <time>2021-02-07T08:15:24.000Z</time>
      </trkpt>
      <trkpt lat="47.17378" lon="-1.68388">
        <ele>85</ele>
        <time>2021-02-07T08:15:26.000Z</time>
      </trkpt>
      <trkpt lat="47.1738" lon="-1.68404">
        <ele>85</ele>
        <time>2021-02-07T08:15:28.000Z</time>
      </trkpt>
      <trkpt lat="47.17376" lon="-1.68417">
        <ele>85</ele>
        <time>2021-02-07T08:15:30.000Z</time>
      </trkpt>
      <trkpt lat="47.17368" lon="-1.68427">
        <ele>85</ele>
        <time>2021-02-07T08:15:32.000Z</time>
      </trkpt>
      <trkpt lat="47.1736" lon="-1.68436">
        <ele>85</ele>
        <time>2021-02-07T08:15:34.000Z</time>
      </trkpt>
      <trkpt lat="47.17359" lon="-1.68451">
        <ele>85</ele>
        <time>2021-02-07T08:15:36.000Z</time>
      </trkpt>
      <trkpt lat="47.17364" lon="-1.68466">
        <ele>84</ele>
        <time>2021-02-07T08:15:38.000Z</time>
      </trkpt>
      <trkpt lat="47.17371" lon="-1.68478">
        <ele>84</ele>
        <time>2021-02-07T08:15:40.000Z</time>
      </trkpt>
      <trkpt lat="47.17381" lon="-1.6849">
        <ele>84</ele>
        <time>2021-02-07T08:15:42.000Z</time>
      </trkpt>
      <trkpt lat="47.17391" lon="-1.68503">
        <ele>84</ele>
        <time>2021-02-07T08:15:44.000Z</time>
      </trkpt>
      <trkpt lat="47.17401" lon="-1.68517">
        <ele>83</ele>
        <time>2021-02-07T08:15:46.000Z</time>
      </trkpt>
      <trkpt lat="47.1741" lon="-1.68532">
        <ele>82</ele>
        <time>2021-02-07T08:15:48.000Z</time>
      </trkpt>
      <trkpt lat="47.17419" lon="-1.68548">
        <ele>82</ele>
        <time>2021-02-07T08:15:50.000Z</time>
      </trkpt>
      <trkpt lat="47.17427" lon="-1.68564">
        <ele>82</ele>
        <time>2021-02-07T08:15:52.000Z</time>
      </trkpt>
      <trkpt lat="47.17435" lon="-1.68581">
        <ele>82</ele>
        <time>2021-02-07T08:15:54.000Z</time>
      </trkpt>
      <trkpt lat="47.17444" lon="-1.686">
        <ele>81</ele>
        <time>2021-02-07T08:15:56.000Z</time>
      </trkpt>
      <trkpt lat="47.17451" lon="-1.68618">
        <ele>81</ele>
        <time>2021-02-07T08:15:58.000Z</time>
      </trkpt>
      <trkpt lat="47.17458" lon="-1.68636">
        <ele>80</ele>
        <time>2021-02-07T08:16:00.000Z</time>
      </trkpt>
      <trkpt lat="47.17464" lon="-1.68655">
        <ele>80</ele>
        <time>2021-02-07T08:16:02.000Z</time>
      </trkpt>
      <trkpt lat="47.1747" lon="-1.68673">
        <ele>80</ele>
        <time>2021-02-07T08:16:04.000Z</time>
      </trkpt>
      <trkpt lat="47.17475" lon="-1.68692">
        <ele>80</ele>
        <time>2021-02-07T08:16:06.000Z</time>
      </trkpt>
      <trkpt lat="47.1748" lon="-1.68711">
        <ele>80</ele>
        <time>2021-02-07T08:16:08.000Z</time>
      </trkpt>
      <trkpt lat="47.17484" lon="-1.68729">
        <ele>80</ele>
        <time>2021-02-07T08:16:10.000Z</time>
      </trkpt>
      <trkpt lat="47.17488" lon="-1.68748">
        <ele>79</ele>
        <time>2021-02-07T08:16:12.000Z</time>
      </trkpt>
      <trkpt lat="47.17492" lon="-1.68767">
        <ele>79</ele>
        <time>2021-02-07T08:16:14.000Z</time>
      </trkpt>
      <trkpt lat="47.17496" lon="-1.68786">
        <ele>80</ele>
        <time>2021-02-07T08:16:16.000Z</time>
      </trkpt>
      <trkpt lat="47.175" lon="-1.68804">
        <ele>80</ele>
        <time>2021-02-07T08:16:18.000Z</time>
      </trkpt>
      <trkpt lat="47.17504" lon="-1.68823">
        <ele>79</ele>
        <time>2021-02-07T08:16:20.000Z</time>
      </trkpt>
      <trkpt lat="47.17508" lon="-1.68842">
        <ele>79</ele>
        <time>2021-02-07T08:16:22.000Z</time>
      </trkpt>
      <trkpt lat="47.17511" lon="-1.68861">
        <ele>79</ele>
        <time>2021-02-07T08:16:24.000Z</time>
      </trkpt>
      <trkpt lat="47.17512" lon="-1.6888">
        <ele>80</ele>
        <time>2021-02-07T08:16:26.000Z</time>
      </trkpt>
      <trkpt lat="47.1751" lon="-1.68898">
        <ele>79</ele>
        <time>2021-02-07T08:16:28.000Z</time>
      </trkpt>
      <trkpt lat="47.17507" lon="-1.68917">
        <ele>78</ele>
        <time>2021-02-07T08:16:30.000Z</time>
      </trkpt>
      <trkpt lat="47.17505" lon="-1.68937">
        <ele>78</ele>
        <time>2021-02-07T08:16:32.000Z</time>
      </trkpt>
      <trkpt lat="47.17504" lon="-1.68956">
        <ele>78</ele>
        <time>2021-02-07T08:16:34.000Z</time>
      </trkpt>
      <trkpt lat="47.17505" lon="-1.68976">
        <ele>78</ele>
        <time>2021-02-07T08:16:36.000Z</time>
      </trkpt>
      <trkpt lat="47.17505" lon="-1.68995">
        <ele>78</ele>
        <time>2021-02-07T08:16:38.000Z</time>
      </trkpt>
      <trkpt lat="47.17506" lon="-1.69014">
        <ele>77</ele>
        <time>2021-02-07T08:16:40.000Z</time>
      </trkpt>
      <trkpt lat="47.17507" lon="-1.69034">
        <ele>78</ele>
        <time>2021-02-07T08:16:42.000Z</time>
      </trkpt>
      <trkpt lat="47.17507" lon="-1.69053">
        <ele>77</ele>
        <time>2021-02-07T08:16:44.000Z</time>
      </trkpt>
      <trkpt lat="47.17507" lon="-1.69072">
        <ele>77</ele>
        <time>2021-02-07T08:16:46.000Z</time>
      </trkpt>
      <trkpt lat="47.17507" lon="-1.6909">
        <ele>77</ele>
        <time>2021-02-07T08:16:48.000Z</time>
      </trkpt>
      <trkpt lat="47.17507" lon="-1.69109">
        <ele>77</ele>
        <time>2021-02-07T08:16:50.000Z</time>
      </trkpt>
      <trkpt lat="47.17506" lon="-1.69127">
        <ele>77</ele>
        <time>2021-02-07T08:16:52.000Z</time>
      </trkpt>
      <trkpt lat="47.17505" lon="-1.69146">
        <ele>77</ele>
        <time>2021-02-07T08:16:54.000Z</time>
      </trkpt>
      <trkpt lat="47.17504" lon="-1.69165">
        <ele>78</ele>
        <time>2021-02-07T08:16:56.000Z</time>
      </trkpt>
      <trkpt lat="47.17503" lon="-1.69183">
        <ele>78</ele>
        <time>2021-02-07T08:16:58.000Z</time>
      </trkpt>
      <trkpt lat="47.17501" lon="-1.69201">
        <ele>78</ele>
        <time>2021-02-07T08:17:00.000Z</time>
      </trkpt>
      <trkpt lat="47.17501" lon="-1.6922">
        <ele>78</ele>
        <time>2021-02-07T08:17:02.000Z</time>
      </trkpt>
      <trkpt lat="47.175" lon="-1.69238">
        <ele>78</ele>
        <time>2021-02-07T08:17:04.000Z</time>
      </trkpt>
      <trkpt lat="47.17499" lon="-1.69257">
        <ele>79</ele>
        <time>2021-02-07T08:17:06.000Z</time>
      </trkpt>
      <trkpt lat="47.17498" lon="-1.69276">
        <ele>78</ele>
        <time>2021-02-07T08:17:08.000Z</time>
      </trkpt>
      <trkpt lat="47.17497" lon="-1.69294">
        <ele>78</ele>
        <time>2021-02-07T08:17:10.000Z</time>
      </trkpt>
      <trkpt lat="47.17496" lon="-1.69313">
        <ele>78</ele>
        <time>2021-02-07T08:17:12.000Z</time>
      </trkpt>
      <trkpt lat="47.17496" lon="-1.69332">
        <ele>78</ele>
        <time>2021-02-07T08:17:14.000Z</time>
      </trkpt>
      <trkpt lat="47.17496" lon="-1.69351">
        <ele>78</ele>
        <time>2021-02-07T08:17:16.000Z</time>
      </trkpt>
      <trkpt lat="47.17495" lon="-1.69369">
        <ele>77</ele>
        <time>2021-02-07T08:17:18.000Z</time>
      </trkpt>
      <trkpt lat="47.17494" lon="-1.69388">
        <ele>77</ele>
        <time>2021-02-07T08:17:20.000Z</time>
      </trkpt>
      <trkpt lat="47.17493" lon="-1.69407">
        <ele>77</ele>
        <time>2021-02-07T08:17:22.000Z</time>
      </trkpt>
      <trkpt lat="47.17494" lon="-1.69425">
        <ele>77</ele>
        <time>2021-02-07T08:17:24.000Z</time>
      </trkpt>
      <trkpt lat="47.17496" lon="-1.69445">
        <ele>77</ele>
        <time>2021-02-07T08:17:26.000Z</time>
      </trkpt>
      <trkpt lat="47.17497" lon="-1.69464">
        <ele>77</ele>
        <time>2021-02-07T08:17:28.000Z</time>
      </trkpt>
      <trkpt lat="47.17498" lon="-1.69483">
        <ele>77</ele>
        <time>2021-02-07T08:17:30.000Z</time>
      </trkpt>
      <trkpt lat="47.17498" lon="-1.69502">
        <ele>77</ele>
        <time>2021-02-07T08:17:32.000Z</time>
      </trkpt>
      <trkpt lat="47.17499" lon="-1.69521">
        <ele>77</ele>
        <time>2021-02-07T08:17:34.000Z</time>
      </trkpt>
      <trkpt lat="47.175" lon="-1.6954">
        <ele>77</ele>
        <time>2021-02-07T08:17:36.000Z</time>
      </trkpt>
      <trkpt lat="47.17501" lon="-1.6956">
        <ele>77</ele>
        <time>2021-02-07T08:17:38.000Z</time>
      </trkpt>
      <trkpt lat="47.17503" lon="-1.69579">
        <ele>78</ele>
        <time>2021-02-07T08:17:40.000Z</time>
      </trkpt>
      <trkpt lat="47.17505" lon="-1.69598">
        <ele>78</ele>
        <time>2021-02-07T08:17:42.000Z</time>
      </trkpt>
      <trkpt lat="47.17506" lon="-1.69617">
        <ele>78</ele>
        <time>2021-02-07T08:17:44.000Z</time>
      </trkpt>
      <trkpt lat="47.17507" lon="-1.69636">
        <ele>78</ele>
        <time>2021-02-07T08:17:46.000Z</time>
      </trkpt>
      <trkpt lat="47.17509" lon="-1.69655">
        <ele>78</ele>
        <time>2021-02-07T08:17:48.000Z</time>
      </trkpt>
      <trkpt lat="47.1751" lon="-1.69673">
        <ele>78</ele>
        <time>2021-02-07T08:17:50.000Z</time>
      </trkpt>
      <trkpt lat="47.17511" lon="-1.69692">
        <ele>78</ele>
        <time>2021-02-07T08:17:52.000Z</time>
      </trkpt>
      <trkpt lat="47.17513" lon="-1.69711">
        <ele>78</ele>
        <time>2021-02-07T08:17:54.000Z</time>
      </trkpt>
      <trkpt lat="47.17514" lon="-1.6973">
        <ele>78</ele>
        <time>2021-02-07T08:17:56.000Z</time>
      </trkpt>
      <trkpt lat="47.17516" lon="-1.69749">
        <ele>77</ele>
        <time>2021-02-07T08:17:58.000Z</time>
      </trkpt>
      <trkpt lat="47.17518" lon="-1.69767">
        <ele>77</ele>
        <time>2021-02-07T08:18:00.000Z</time>
      </trkpt>
      <trkpt lat="47.1752" lon="-1.69786">
        <ele>78</ele>
        <time>2021-02-07T08:18:02.000Z</time>
      </trkpt>
      <trkpt lat="47.17522" lon="-1.69804">
        <ele>78</ele>
        <time>2021-02-07T08:18:04.000Z</time>
      </trkpt>
      <trkpt lat="47.17524" lon="-1.69823">
        <ele>78</ele>
        <time>2021-02-07T08:18:06.000Z</time>
      </trkpt>
      <trkpt lat="47.17526" lon="-1.69842">
        <ele>78</ele>
        <time>2021-02-07T08:18:08.000Z</time>
      </trkpt>
      <trkpt lat="47.17527" lon="-1.6986">
        <ele>78</ele>
        <time>2021-02-07T08:18:10.000Z</time>
      </trkpt>
      <trkpt lat="47.1753" lon="-1.69877">
        <ele>78</ele>
        <time>2021-02-07T08:18:12.000Z</time>
      </trkpt>
      <trkpt lat="47.17533" lon="-1.69894">
        <ele>78</ele>
        <time>2021-02-07T08:18:14.000Z</time>
      </trkpt>
      <trkpt lat="47.17536" lon="-1.69912">
        <ele>78</ele>
        <time>2021-02-07T08:18:16.000Z</time>
      </trkpt>
      <trkpt lat="47.17539" lon="-1.6993">
        <ele>78</ele>
        <time>2021-02-07T08:18:18.000Z</time>
      </trkpt>
      <trkpt lat="47.17542" lon="-1.69948">
        <ele>78</ele>
        <time>2021-02-07T08:18:20.000Z</time>
      </trkpt>
      <trkpt lat="47.17546" lon="-1.69965">
        <ele>78</ele>
        <time>2021-02-07T08:18:22.000Z</time>
      </trkpt>
      <trkpt lat="47.17549" lon="-1.69982">
        <ele>78</ele>
        <time>2021-02-07T08:18:24.000Z</time>
      </trkpt>
      <trkpt lat="47.17553" lon="-1.7">
        <ele>78</ele>
        <time>2021-02-07T08:18:26.000Z</time>
      </trkpt>
      <trkpt lat="47.17557" lon="-1.70017">
        <ele>78</ele>
        <time>2021-02-07T08:18:28.000Z</time>
      </trkpt>
      <trkpt lat="47.17561" lon="-1.70034">
        <ele>78</ele>
        <time>2021-02-07T08:18:30.000Z</time>
      </trkpt>
      <trkpt lat="47.17565" lon="-1.70051">
        <ele>78</ele>
        <time>2021-02-07T08:18:32.000Z</time>
      </trkpt>
      <trkpt lat="47.17568" lon="-1.70068">
        <ele>77</ele>
        <time>2021-02-07T08:18:34.000Z</time>
      </trkpt>
      <trkpt lat="47.17572" lon="-1.70085">
        <ele>77</ele>
        <time>2021-02-07T08:18:36.000Z</time>
      </trkpt>
      <trkpt lat="47.17576" lon="-1.70103">
        <ele>77</ele>
        <time>2021-02-07T08:18:38.000Z</time>
      </trkpt>
      <trkpt lat="47.17579" lon="-1.7012">
        <ele>77</ele>
        <time>2021-02-07T08:18:40.000Z</time>
      </trkpt>
      <trkpt lat="47.17582" lon="-1.70139">
        <ele>77</ele>
        <time>2021-02-07T08:18:42.000Z</time>
      </trkpt>
      <trkpt lat="47.17585" lon="-1.70156">
        <ele>77</ele>
        <time>2021-02-07T08:18:44.000Z</time>
      </trkpt>
      <trkpt lat="47.17589" lon="-1.70174">
        <ele>76</ele>
        <time>2021-02-07T08:18:46.000Z</time>
      </trkpt>
      <trkpt lat="47.17592" lon="-1.70192">
        <ele>76</ele>
        <time>2021-02-07T08:18:48.000Z</time>
      </trkpt>
      <trkpt lat="47.17595" lon="-1.7021">
        <ele>77</ele>
        <time>2021-02-07T08:18:50.000Z</time>
      </trkpt>
      <trkpt lat="47.17597" lon="-1.70228">
        <ele>77</ele>
        <time>2021-02-07T08:18:52.000Z</time>
      </trkpt>
      <trkpt lat="47.17597" lon="-1.70246">
        <ele>77</ele>
        <time>2021-02-07T08:18:54.000Z</time>
      </trkpt>
      <trkpt lat="47.17596" lon="-1.70264">
        <ele>77</ele>
        <time>2021-02-07T08:18:56.000Z</time>
      </trkpt>
      <trkpt lat="47.17594" lon="-1.70281">
        <ele>77</ele>
        <time>2021-02-07T08:18:58.000Z</time>
      </trkpt>
      <trkpt lat="47.1759" lon="-1.70297">
        <ele>78</ele>
        <time>2021-02-07T08:19:00.000Z</time>
      </trkpt>
      <trkpt lat="47.17586" lon="-1.70313">
        <ele>78</ele>
        <time>2021-02-07T08:19:02.000Z</time>
      </trkpt>
      <trkpt lat="47.1758" lon="-1.70328">
        <ele>79</ele>
        <time>2021-02-07T08:19:04.000Z</time>
      </trkpt>
      <trkpt lat="47.17574" lon="-1.70342">
        <ele>79</ele>
        <time>2021-02-07T08:19:06.000Z</time>
      </trkpt>
      <trkpt lat="47.1757" lon="-1.70357">
        <ele>80</ele>
        <time>2021-02-07T08:19:08.000Z</time>
      </trkpt>
      <trkpt lat="47.17571" lon="-1.70371">
        <ele>79</ele>
        <time>2021-02-07T08:19:10.000Z</time>
      </trkpt>
      <trkpt lat="47.17577" lon="-1.70382">
        <ele>79</ele>
        <time>2021-02-07T08:19:12.000Z</time>
      </trkpt>
      <trkpt lat="47.17587" lon="-1.70387">
        <ele>79</ele>
        <time>2021-02-07T08:19:14.000Z</time>
      </trkpt>
      <trkpt lat="47.17598" lon="-1.70387">
        <ele>79</ele>
        <time>2021-02-07T08:19:16.000Z</time>
      </trkpt>
      <trkpt lat="47.17607" lon="-1.70388">
        <ele>80</ele>
        <time>2021-02-07T08:19:18.000Z</time>
      </trkpt>
      <trkpt lat="47.17615" lon="-1.70399">
        <ele>80</ele>
        <time>2021-02-07T08:19:20.000Z</time>
      </trkpt>
      <trkpt lat="47.17619" lon="-1.70412">
        <ele>79</ele>
        <time>2021-02-07T08:19:22.000Z</time>
      </trkpt>
      <trkpt lat="47.17618" lon="-1.70427">
        <ele>79</ele>
        <time>2021-02-07T08:19:24.000Z</time>
      </trkpt>
      <trkpt lat="47.17615" lon="-1.70441">
        <ele>78</ele>
        <time>2021-02-07T08:19:26.000Z</time>
      </trkpt>
      <trkpt lat="47.17612" lon="-1.70457">
        <ele>78</ele>
        <time>2021-02-07T08:19:28.000Z</time>
      </trkpt>
      <trkpt lat="47.17615" lon="-1.70472">
        <ele>78</ele>
        <time>2021-02-07T08:19:30.000Z</time>
      </trkpt>
      <trkpt lat="47.17623" lon="-1.70485">
        <ele>77</ele>
        <time>2021-02-07T08:19:32.000Z</time>
      </trkpt>
      <trkpt lat="47.1763" lon="-1.70498">
        <ele>77</ele>
        <time>2021-02-07T08:19:34.000Z</time>
      </trkpt>
      <trkpt lat="47.17639" lon="-1.7051">
        <ele>77</ele>
        <time>2021-02-07T08:19:36.000Z</time>
      </trkpt>
      <trkpt lat="47.1765" lon="-1.70521">
        <ele>76</ele>
        <time>2021-02-07T08:19:38.000Z</time>
      </trkpt>
      <trkpt lat="47.17661" lon="-1.70531">
        <ele>76</ele>
        <time>2021-02-07T08:19:40.000Z</time>
      </trkpt>
      <trkpt lat="47.17672" lon="-1.70542">
        <ele>75</ele>
        <time>2021-02-07T08:19:42.000Z</time>
      </trkpt>
      <trkpt lat="47.17683" lon="-1.70552">
        <ele>75</ele>
        <time>2021-02-07T08:19:44.000Z</time>
      </trkpt>
      <trkpt lat="47.17695" lon="-1.70562">
        <ele>75</ele>
        <time>2021-02-07T08:19:46.000Z</time>
      </trkpt>
      <trkpt lat="47.17705" lon="-1.70573">
        <ele>75</ele>
        <time>2021-02-07T08:19:48.000Z</time>
      </trkpt>
      <trkpt lat="47.17714" lon="-1.70586">
        <ele>75</ele>
        <time>2021-02-07T08:19:50.000Z</time>
      </trkpt>
      <trkpt lat="47.17723" lon="-1.70599">
        <ele>75</ele>
        <time>2021-02-07T08:19:52.000Z</time>
      </trkpt>
      <trkpt lat="47.17731" lon="-1.70614">
        <ele>75</ele>
        <time>2021-02-07T08:19:54.000Z</time>
      </trkpt>
      <trkpt lat="47.17738" lon="-1.7063">
        <ele>75</ele>
        <time>2021-02-07T08:19:56.000Z</time>
      </trkpt>
      <trkpt lat="47.17744" lon="-1.70646">
        <ele>76</ele>
        <time>2021-02-07T08:19:58.000Z</time>
      </trkpt>
      <trkpt lat="47.17749" lon="-1.70662">
        <ele>76</ele>
        <time>2021-02-07T08:20:00.000Z</time>
      </trkpt>
      <trkpt lat="47.17755" lon="-1.70678">
        <ele>76</ele>
        <time>2021-02-07T08:20:02.000Z</time>
      </trkpt>
      <trkpt lat="47.1776" lon="-1.70695">
        <ele>76</ele>
        <time>2021-02-07T08:20:04.000Z</time>
      </trkpt>
      <trkpt lat="47.17765" lon="-1.7071">
        <ele>76</ele>
        <time>2021-02-07T08:20:06.000Z</time>
      </trkpt>
      <trkpt lat="47.1777" lon="-1.70725">
        <ele>76</ele>
        <time>2021-02-07T08:20:08.000Z</time>
      </trkpt>
      <trkpt lat="47.17775" lon="-1.70741">
        <ele>75</ele>
        <time>2021-02-07T08:20:10.000Z</time>
      </trkpt>
      <trkpt lat="47.1778" lon="-1.70757">
        <ele>76</ele>
        <time>2021-02-07T08:20:12.000Z</time>
      </trkpt>
      <trkpt lat="47.17785" lon="-1.70772">
        <ele>76</ele>
        <time>2021-02-07T08:20:14.000Z</time>
      </trkpt>
      <trkpt lat="47.17791" lon="-1.70787">
        <ele>76</ele>
        <time>2021-02-07T08:20:16.000Z</time>
      </trkpt>
      <trkpt lat="47.17796" lon="-1.70803">
        <ele>76</ele>
        <time>2021-02-07T08:20:18.000Z</time>
      </trkpt>
      <trkpt lat="47.17801" lon="-1.70819">
        <ele>76</ele>
        <time>2021-02-07T08:20:20.000Z</time>
      </trkpt>
      <trkpt lat="47.17807" lon="-1.70834">
        <ele>76</ele>
        <time>2021-02-07T08:20:22.000Z</time>
      </trkpt>
      <trkpt lat="47.17812" lon="-1.7085">
        <ele>76</ele>
        <time>2021-02-07T08:20:24.000Z</time>
      </trkpt>
      <trkpt lat="47.17817" lon="-1.70865">
        <ele>76</ele>
        <time>2021-02-07T08:20:26.000Z</time>
      </trkpt>
      <trkpt lat="47.17822" lon="-1.7088">
        <ele>76</ele>
        <time>2021-02-07T08:20:28.000Z</time>
      </trkpt>
      <trkpt lat="47.17827" lon="-1.70896">
        <ele>76</ele>
        <time>2021-02-07T08:20:30.000Z</time>
      </trkpt>
      <trkpt lat="47.17833" lon="-1.70911">
        <ele>76</ele>
        <time>2021-02-07T08:20:32.000Z</time>
      </trkpt>
      <trkpt lat="47.17838" lon="-1.70926">
        <ele>76</ele>
        <time>2021-02-07T08:20:34.000Z</time>
      </trkpt>
      <trkpt lat="47.17843" lon="-1.70941">
        <ele>76</ele>
        <time>2021-02-07T08:20:36.000Z</time>
      </trkpt>
      <trkpt lat="47.17849" lon="-1.70956">
        <ele>76</ele>
        <time>2021-02-07T08:20:38.000Z</time>
      </trkpt>
      <trkpt lat="47.17856" lon="-1.70971">
        <ele>76</ele>
        <time>2021-02-07T08:20:40.000Z</time>
      </trkpt>
      <trkpt lat="47.17863" lon="-1.70985">
        <ele>76</ele>
        <time>2021-02-07T08:20:42.000Z</time>
      </trkpt>
      <trkpt lat="47.17871" lon="-1.70999">
        <ele>76</ele>
        <time>2021-02-07T08:20:44.000Z</time>
      </trkpt>
      <trkpt lat="47.17878" lon="-1.71013">
        <ele>76</ele>
        <time>2021-02-07T08:20:46.000Z</time>
      </trkpt>
      <trkpt lat="47.17884" lon="-1.7103">
        <ele>76</ele>
        <time>2021-02-07T08:20:48.000Z</time>
      </trkpt>
      <trkpt lat="47.17889" lon="-1.71046">
        <ele>76</ele>
        <time>2021-02-07T08:20:50.000Z</time>
      </trkpt>
      <trkpt lat="47.17895" lon="-1.71062">
        <ele>76</ele>
        <time>2021-02-07T08:20:52.000Z</time>
      </trkpt>
      <trkpt lat="47.179" lon="-1.71079">
        <ele>76</ele>
        <time>2021-02-07T08:20:54.000Z</time>
      </trkpt>
      <trkpt lat="47.17905" lon="-1.71095">
        <ele>76</ele>
        <time>2021-02-07T08:20:56.000Z</time>
      </trkpt>
      <trkpt lat="47.1791" lon="-1.71112">
        <ele>76</ele>
        <time>2021-02-07T08:20:58.000Z</time>
      </trkpt>
      <trkpt lat="47.17915" lon="-1.71128">
        <ele>77</ele>
        <time>2021-02-07T08:21:00.000Z</time>
      </trkpt>
      <trkpt lat="47.17919" lon="-1.71145">
        <ele>77</ele>
        <time>2021-02-07T08:21:02.000Z</time>
      </trkpt>
      <trkpt lat="47.17923" lon="-1.71164">
        <ele>76</ele>
        <time>2021-02-07T08:21:04.000Z</time>
      </trkpt>
      <trkpt lat="47.17925" lon="-1.71181">
        <ele>77</ele>
        <time>2021-02-07T08:21:06.000Z</time>
      </trkpt>
      <trkpt lat="47.17928" lon="-1.71199">
        <ele>77</ele>
        <time>2021-02-07T08:21:08.000Z</time>
      </trkpt>
      <trkpt lat="47.17932" lon="-1.71216">
        <ele>77</ele>
        <time>2021-02-07T08:21:10.000Z</time>
      </trkpt>
      <trkpt lat="47.17937" lon="-1.71234">
        <ele>77</ele>
        <time>2021-02-07T08:21:12.000Z</time>
      </trkpt>
      <trkpt lat="47.17943" lon="-1.7125">
        <ele>77</ele>
        <time>2021-02-07T08:21:14.000Z</time>
      </trkpt>
      <trkpt lat="47.17948" lon="-1.71267">
        <ele>77</ele>
        <time>2021-02-07T08:21:16.000Z</time>
      </trkpt>
      <trkpt lat="47.17953" lon="-1.71283">
        <ele>77</ele>
        <time>2021-02-07T08:21:18.000Z</time>
      </trkpt>
      <trkpt lat="47.17959" lon="-1.713">
        <ele>77</ele>
        <time>2021-02-07T08:21:20.000Z</time>
      </trkpt>
      <trkpt lat="47.17964" lon="-1.71316">
        <ele>76</ele>
        <time>2021-02-07T08:21:22.000Z</time>
      </trkpt>
      <trkpt lat="47.1797" lon="-1.71333">
        <ele>76</ele>
        <time>2021-02-07T08:21:24.000Z</time>
      </trkpt>
      <trkpt lat="47.17975" lon="-1.7135">
        <ele>76</ele>
        <time>2021-02-07T08:21:26.000Z</time>
      </trkpt>
      <trkpt lat="47.17981" lon="-1.71367">
        <ele>76</ele>
        <time>2021-02-07T08:21:28.000Z</time>
      </trkpt>
      <trkpt lat="47.17986" lon="-1.71384">
        <ele>76</ele>
        <time>2021-02-07T08:21:30.000Z</time>
      </trkpt>
      <trkpt lat="47.17992" lon="-1.71401">
        <ele>77</ele>
        <time>2021-02-07T08:21:32.000Z</time>
      </trkpt>
      <trkpt lat="47.17997" lon="-1.71417">
        <ele>77</ele>
        <time>2021-02-07T08:21:34.000Z</time>
      </trkpt>
      <trkpt lat="47.18003" lon="-1.71434">
        <ele>76</ele>
        <time>2021-02-07T08:21:36.000Z</time>
      </trkpt>
      <trkpt lat="47.18008" lon="-1.7145">
        <ele>76</ele>
        <time>2021-02-07T08:21:38.000Z</time>
      </trkpt>
      <trkpt lat="47.18014" lon="-1.71467">
        <ele>77</ele>
        <time>2021-02-07T08:21:40.000Z</time>
      </trkpt>
      <trkpt lat="47.18019" lon="-1.71484">
        <ele>77</ele>
        <time>2021-02-07T08:21:42.000Z</time>
      </trkpt>
      <trkpt lat="47.18024" lon="-1.715">
        <ele>76</ele>
        <time>2021-02-07T08:21:44.000Z</time>
      </trkpt>
      <trkpt lat="47.1803" lon="-1.71517">
        <ele>76</ele>
        <time>2021-02-07T08:21:46.000Z</time>
      </trkpt>
      <trkpt lat="47.18035" lon="-1.71534">
        <ele>76</ele>
        <time>2021-02-07T08:21:48.000Z</time>
      </trkpt>
      <trkpt lat="47.1804" lon="-1.71551">
        <ele>76</ele>
        <time>2021-02-07T08:21:50.000Z</time>
      </trkpt>
      <trkpt lat="47.18046" lon="-1.71568">
        <ele>76</ele>
        <time>2021-02-07T08:21:52.000Z</time>
      </trkpt>
      <trkpt lat="47.18052" lon="-1.71586">
        <ele>76</ele>
        <time>2021-02-07T08:21:54.000Z</time>
      </trkpt>
      <trkpt lat="47.18057" lon="-1.71602">
        <ele>77</ele>
        <time>2021-02-07T08:21:56.000Z</time>
      </trkpt>
      <trkpt lat="47.18062" lon="-1.7162">
        <ele>77</ele>
        <time>2021-02-07T08:21:58.000Z</time>
      </trkpt>
      <trkpt lat="47.18068" lon="-1.71637">
        <ele>76</ele>
        <time>2021-02-07T08:22:00.000Z</time>
      </trkpt>
      <trkpt lat="47.18073" lon="-1.71655">
        <ele>76</ele>
        <time>2021-02-07T08:22:02.000Z</time>
      </trkpt>
      <trkpt lat="47.18078" lon="-1.71672">
        <ele>76</ele>
        <time>2021-02-07T08:22:04.000Z</time>
      </trkpt>
      <trkpt lat="47.18085" lon="-1.71688">
        <ele>76</ele>
        <time>2021-02-07T08:22:06.000Z</time>
      </trkpt>
      <trkpt lat="47.18091" lon="-1.71705">
        <ele>76</ele>
        <time>2021-02-07T08:22:08.000Z</time>
      </trkpt>
      <trkpt lat="47.18097" lon="-1.71722">
        <ele>77</ele>
        <time>2021-02-07T08:22:10.000Z</time>
      </trkpt>
      <trkpt lat="47.18103" lon="-1.7174">
        <ele>76</ele>
        <time>2021-02-07T08:22:12.000Z</time>
      </trkpt>
      <trkpt lat="47.18109" lon="-1.71756">
        <ele>76</ele>
        <time>2021-02-07T08:22:14.000Z</time>
      </trkpt>
      <trkpt lat="47.18115" lon="-1.71773">
        <ele>76</ele>
        <time>2021-02-07T08:22:16.000Z</time>
      </trkpt>
      <trkpt lat="47.18121" lon="-1.71789">
        <ele>76</ele>
        <time>2021-02-07T08:22:18.000Z</time>
      </trkpt>
      <trkpt lat="47.18127" lon="-1.71805">
        <ele>76</ele>
        <time>2021-02-07T08:22:20.000Z</time>
      </trkpt>
      <trkpt lat="47.18133" lon="-1.71822">
        <ele>76</ele>
        <time>2021-02-07T08:22:22.000Z</time>
      </trkpt>
      <trkpt lat="47.18139" lon="-1.71839">
        <ele>76</ele>
        <time>2021-02-07T08:22:24.000Z</time>
      </trkpt>
      <trkpt lat="47.18145" lon="-1.71856">
        <ele>75</ele>
        <time>2021-02-07T08:22:26.000Z</time>
      </trkpt>
      <trkpt lat="47.1815" lon="-1.71873">
        <ele>75</ele>
        <time>2021-02-07T08:22:28.000Z</time>
      </trkpt>
      <trkpt lat="47.18156" lon="-1.7189">
        <ele>75</ele>
        <time>2021-02-07T08:22:30.000Z</time>
      </trkpt>
      <trkpt lat="47.18161" lon="-1.71907">
        <ele>75</ele>
        <time>2021-02-07T08:22:32.000Z</time>
      </trkpt>
      <trkpt lat="47.18167" lon="-1.71924">
        <ele>75</ele>
        <time>2021-02-07T08:22:34.000Z</time>
      </trkpt>
      <trkpt lat="47.18172" lon="-1.71941">
        <ele>75</ele>
        <time>2021-02-07T08:22:36.000Z</time>
      </trkpt>
      <trkpt lat="47.18177" lon="-1.71959">
        <ele>75</ele>
        <time>2021-02-07T08:22:38.000Z</time>
      </trkpt>
      <trkpt lat="47.18186" lon="-1.71984">
        <ele>75</ele>
        <time>2021-02-07T08:22:41.000Z</time>
      </trkpt>
      <trkpt lat="47.18191" lon="-1.72001">
        <ele>75</ele>
        <time>2021-02-07T08:22:43.000Z</time>
      </trkpt>
      <trkpt lat="47.18197" lon="-1.72019">
        <ele>75</ele>
        <time>2021-02-07T08:22:45.000Z</time>
      </trkpt>
      <trkpt lat="47.18205" lon="-1.72044">
        <ele>74</ele>
        <time>2021-02-07T08:22:48.000Z</time>
      </trkpt>
      <trkpt lat="47.1821" lon="-1.72061">
        <ele>74</ele>
        <time>2021-02-07T08:22:50.000Z</time>
      </trkpt>
      <trkpt lat="47.18215" lon="-1.72078">
        <ele>74</ele>
        <time>2021-02-07T08:22:52.000Z</time>
      </trkpt>
      <trkpt lat="47.18221" lon="-1.72094">
        <ele>74</ele>
        <time>2021-02-07T08:22:54.000Z</time>
      </trkpt>
      <trkpt lat="47.18226" lon="-1.7211">
        <ele>74</ele>
        <time>2021-02-07T08:22:56.000Z</time>
      </trkpt>
      <trkpt lat="47.18232" lon="-1.72127">
        <ele>74</ele>
        <time>2021-02-07T08:22:58.000Z</time>
      </trkpt>
      <trkpt lat="47.18237" lon="-1.72145">
        <ele>74</ele>
        <time>2021-02-07T08:23:00.000Z</time>
      </trkpt>
      <trkpt lat="47.18243" lon="-1.72161">
        <ele>74</ele>
        <time>2021-02-07T08:23:02.000Z</time>
      </trkpt>
      <trkpt lat="47.18248" lon="-1.72178">
        <ele>74</ele>
        <time>2021-02-07T08:23:04.000Z</time>
      </trkpt>
      <trkpt lat="47.18255" lon="-1.72204">
        <ele>74</ele>
        <time>2021-02-07T08:23:07.000Z</time>
      </trkpt>
      <trkpt lat="47.18258" lon="-1.72222">
        <ele>75</ele>
        <time>2021-02-07T08:23:09.000Z</time>
      </trkpt>
      <trkpt lat="47.18261" lon="-1.7224">
        <ele>75</ele>
        <time>2021-02-07T08:23:11.000Z</time>
      </trkpt>
      <trkpt lat="47.18263" lon="-1.72259">
        <ele>74</ele>
        <time>2021-02-07T08:23:13.000Z</time>
      </trkpt>
      <trkpt lat="47.18265" lon="-1.72279">
        <ele>74</ele>
        <time>2021-02-07T08:23:15.000Z</time>
      </trkpt>
      <trkpt lat="47.18268" lon="-1.72298">
        <ele>74</ele>
        <time>2021-02-07T08:23:17.000Z</time>
      </trkpt>
      <trkpt lat="47.18269" lon="-1.72318">
        <ele>74</ele>
        <time>2021-02-07T08:23:19.000Z</time>
      </trkpt>
      <trkpt lat="47.18271" lon="-1.72337">
        <ele>74</ele>
        <time>2021-02-07T08:23:21.000Z</time>
      </trkpt>
      <trkpt lat="47.18273" lon="-1.72356">
        <ele>74</ele>
        <time>2021-02-07T08:23:23.000Z</time>
      </trkpt>
      <trkpt lat="47.18274" lon="-1.72374">
        <ele>74</ele>
        <time>2021-02-07T08:23:25.000Z</time>
      </trkpt>
      <trkpt lat="47.18275" lon="-1.72393">
        <ele>74</ele>
        <time>2021-02-07T08:23:27.000Z</time>
      </trkpt>
      <trkpt lat="47.18275" lon="-1.72411">
        <ele>74</ele>
        <time>2021-02-07T08:23:29.000Z</time>
      </trkpt>
      <trkpt lat="47.18274" lon="-1.72427">
        <ele>74</ele>
        <time>2021-02-07T08:23:31.000Z</time>
      </trkpt>
      <trkpt lat="47.18272" lon="-1.72452">
        <ele>75</ele>
        <time>2021-02-07T08:23:34.000Z</time>
      </trkpt>
      <trkpt lat="47.1827" lon="-1.72468">
        <ele>76</ele>
        <time>2021-02-07T08:23:36.000Z</time>
      </trkpt>
      <trkpt lat="47.18265" lon="-1.7249">
        <ele>76</ele>
        <time>2021-02-07T08:23:39.000Z</time>
      </trkpt>
      <trkpt lat="47.18263" lon="-1.72509">
        <ele>77</ele>
        <time>2021-02-07T08:23:42.000Z</time>
      </trkpt>
      <trkpt lat="47.18265" lon="-1.72528">
        <ele>78</ele>
        <time>2021-02-07T08:23:45.000Z</time>
      </trkpt>
      <trkpt lat="47.1827" lon="-1.72545">
        <ele>78</ele>
        <time>2021-02-07T08:23:48.000Z</time>
      </trkpt>
      <trkpt lat="47.18282" lon="-1.72551">
        <ele>79</ele>
        <time>2021-02-07T08:23:51.000Z</time>
      </trkpt>
      <trkpt lat="47.18295" lon="-1.72549">
        <ele>79</ele>
        <time>2021-02-07T08:23:54.000Z</time>
      </trkpt>
      <trkpt lat="47.18305" lon="-1.72551">
        <ele>79</ele>
        <time>2021-02-07T08:23:56.000Z</time>
      </trkpt>
      <trkpt lat="47.18312" lon="-1.72559">
        <ele>79</ele>
        <time>2021-02-07T08:23:58.000Z</time>
      </trkpt>
      <trkpt lat="47.18318" lon="-1.72584">
        <ele>79</ele>
        <time>2021-02-07T08:24:02.000Z</time>
      </trkpt>
      <trkpt lat="47.18317" lon="-1.72598">
        <ele>79</ele>
        <time>2021-02-07T08:24:04.000Z</time>
      </trkpt>
      <trkpt lat="47.18314" lon="-1.72612">
        <ele>79</ele>
        <time>2021-02-07T08:24:06.000Z</time>
      </trkpt>
      <trkpt lat="47.18318" lon="-1.72636">
        <ele>78</ele>
        <time>2021-02-07T08:24:09.000Z</time>
      </trkpt>
      <trkpt lat="47.18323" lon="-1.72653">
        <ele>78</ele>
        <time>2021-02-07T08:24:11.000Z</time>
      </trkpt>
      <trkpt lat="47.18328" lon="-1.7267">
        <ele>77</ele>
        <time>2021-02-07T08:24:13.000Z</time>
      </trkpt>
      <trkpt lat="47.18334" lon="-1.72687">
        <ele>76</ele>
        <time>2021-02-07T08:24:15.000Z</time>
      </trkpt>
      <trkpt lat="47.1834" lon="-1.72704">
        <ele>76</ele>
        <time>2021-02-07T08:24:17.000Z</time>
      </trkpt>
      <trkpt lat="47.18347" lon="-1.72723">
        <ele>76</ele>
        <time>2021-02-07T08:24:19.000Z</time>
      </trkpt>
      <trkpt lat="47.18353" lon="-1.72741">
        <ele>75</ele>
        <time>2021-02-07T08:24:21.000Z</time>
      </trkpt>
      <trkpt lat="47.18359" lon="-1.72759">
        <ele>75</ele>
        <time>2021-02-07T08:24:23.000Z</time>
      </trkpt>
      <trkpt lat="47.18368" lon="-1.72786">
        <ele>75</ele>
        <time>2021-02-07T08:24:26.000Z</time>
      </trkpt>
      <trkpt lat="47.18374" lon="-1.72803">
        <ele>75</ele>
        <time>2021-02-07T08:24:28.000Z</time>
      </trkpt>
      <trkpt lat="47.1838" lon="-1.7282">
        <ele>75</ele>
        <time>2021-02-07T08:24:30.000Z</time>
      </trkpt>
      <trkpt lat="47.18386" lon="-1.72837">
        <ele>75</ele>
        <time>2021-02-07T08:24:32.000Z</time>
      </trkpt>
      <trkpt lat="47.18392" lon="-1.72854">
        <ele>75</ele>
        <time>2021-02-07T08:24:34.000Z</time>
      </trkpt>
      <trkpt lat="47.184" lon="-1.72878">
        <ele>76</ele>
        <time>2021-02-07T08:24:37.000Z</time>
      </trkpt>
      <trkpt lat="47.18405" lon="-1.72893">
        <ele>76</ele>
        <time>2021-02-07T08:24:39.000Z</time>
      </trkpt>
      <trkpt lat="47.18409" lon="-1.72911">
        <ele>76</ele>
        <time>2021-02-07T08:24:41.000Z</time>
      </trkpt>
      <trkpt lat="47.18413" lon="-1.72928">
        <ele>76</ele>
        <time>2021-02-07T08:24:43.000Z</time>
      </trkpt>
      <trkpt lat="47.18417" lon="-1.72945">
        <ele>75</ele>
        <time>2021-02-07T08:24:45.000Z</time>
      </trkpt>
      <trkpt lat="47.1842" lon="-1.72963">
        <ele>75</ele>
        <time>2021-02-07T08:24:47.000Z</time>
      </trkpt>
      <trkpt lat="47.18423" lon="-1.72982">
        <ele>75</ele>
        <time>2021-02-07T08:24:49.000Z</time>
      </trkpt>
      <trkpt lat="47.18426" lon="-1.73">
        <ele>75</ele>
        <time>2021-02-07T08:24:51.000Z</time>
      </trkpt>
      <trkpt lat="47.18429" lon="-1.73028">
        <ele>75</ele>
        <time>2021-02-07T08:24:54.000Z</time>
      </trkpt>
      <trkpt lat="47.18431" lon="-1.73047">
        <ele>75</ele>
        <time>2021-02-07T08:24:56.000Z</time>
      </trkpt>
      <trkpt lat="47.18433" lon="-1.73064">
        <ele>74</ele>
        <time>2021-02-07T08:24:58.000Z</time>
      </trkpt>
      <trkpt lat="47.18435" lon="-1.73083">
        <ele>74</ele>
        <time>2021-02-07T08:25:00.000Z</time>
      </trkpt>
      <trkpt lat="47.18438" lon="-1.73101">
        <ele>74</ele>
        <time>2021-02-07T08:25:02.000Z</time>
      </trkpt>
      <trkpt lat="47.1844" lon="-1.7312">
        <ele>74</ele>
        <time>2021-02-07T08:25:04.000Z</time>
      </trkpt>
      <trkpt lat="47.18442" lon="-1.73138">
        <ele>74</ele>
        <time>2021-02-07T08:25:06.000Z</time>
      </trkpt>
      <trkpt lat="47.18445" lon="-1.73157">
        <ele>74</ele>
        <time>2021-02-07T08:25:08.000Z</time>
      </trkpt>
      <trkpt lat="47.18447" lon="-1.73175">
        <ele>74</ele>
        <time>2021-02-07T08:25:10.000Z</time>
      </trkpt>
      <trkpt lat="47.1845" lon="-1.73193">
        <ele>74</ele>
        <time>2021-02-07T08:25:12.000Z</time>
      </trkpt>
      <trkpt lat="47.18452" lon="-1.73212">
        <ele>74</ele>
        <time>2021-02-07T08:25:14.000Z</time>
      </trkpt>
      <trkpt lat="47.18455" lon="-1.7323">
        <ele>74</ele>
        <time>2021-02-07T08:25:16.000Z</time>
      </trkpt>
      <trkpt lat="47.18457" lon="-1.73249">
        <ele>74</ele>
        <time>2021-02-07T08:25:18.000Z</time>
      </trkpt>
      <trkpt lat="47.18459" lon="-1.73267">
        <ele>74</ele>
        <time>2021-02-07T08:25:20.000Z</time>
      </trkpt>
      <trkpt lat="47.18462" lon="-1.73295">
        <ele>74</ele>
        <time>2021-02-07T08:25:23.000Z</time>
      </trkpt>
      <trkpt lat="47.18465" lon="-1.73314">
        <ele>74</ele>
        <time>2021-02-07T08:25:25.000Z</time>
      </trkpt>
      <trkpt lat="47.18467" lon="-1.73333">
        <ele>74</ele>
        <time>2021-02-07T08:25:27.000Z</time>
      </trkpt>
      <trkpt lat="47.18469" lon="-1.73351">
        <ele>73</ele>
        <time>2021-02-07T08:25:29.000Z</time>
      </trkpt>
      <trkpt lat="47.1847" lon="-1.7337">
        <ele>73</ele>
        <time>2021-02-07T08:25:31.000Z</time>
      </trkpt>
      <trkpt lat="47.18472" lon="-1.73388">
        <ele>73</ele>
        <time>2021-02-07T08:25:33.000Z</time>
      </trkpt>
      <trkpt lat="47.18473" lon="-1.73407">
        <ele>74</ele>
        <time>2021-02-07T08:25:35.000Z</time>
      </trkpt>
      <trkpt lat="47.18475" lon="-1.73425">
        <ele>74</ele>
        <time>2021-02-07T08:25:37.000Z</time>
      </trkpt>
      <trkpt lat="47.18477" lon="-1.73443">
        <ele>74</ele>
        <time>2021-02-07T08:25:39.000Z</time>
      </trkpt>
      <trkpt lat="47.18478" lon="-1.73461">
        <ele>74</ele>
        <time>2021-02-07T08:25:41.000Z</time>
      </trkpt>
      <trkpt lat="47.1848" lon="-1.73479">
        <ele>74</ele>
        <time>2021-02-07T08:25:43.000Z</time>
      </trkpt>
      <trkpt lat="47.18482" lon="-1.73497">
        <ele>74</ele>
        <time>2021-02-07T08:25:45.000Z</time>
      </trkpt>
      <trkpt lat="47.18484" lon="-1.73515">
        <ele>74</ele>
        <time>2021-02-07T08:25:47.000Z</time>
      </trkpt>
      <trkpt lat="47.18486" lon="-1.73533">
        <ele>74</ele>
        <time>2021-02-07T08:25:49.000Z</time>
      </trkpt>
      <trkpt lat="47.18487" lon="-1.73551">
        <ele>74</ele>
        <time>2021-02-07T08:25:51.000Z</time>
      </trkpt>
      <trkpt lat="47.18489" lon="-1.73569">
        <ele>74</ele>
        <time>2021-02-07T08:25:53.000Z</time>
      </trkpt>
      <trkpt lat="47.18491" lon="-1.73586">
        <ele>73</ele>
        <time>2021-02-07T08:25:55.000Z</time>
      </trkpt>
      <trkpt lat="47.18493" lon="-1.73604">
        <ele>73</ele>
        <time>2021-02-07T08:25:57.000Z</time>
      </trkpt>
      <trkpt lat="47.18495" lon="-1.73622">
        <ele>73</ele>
        <time>2021-02-07T08:25:59.000Z</time>
      </trkpt>
      <trkpt lat="47.18496" lon="-1.7364">
        <ele>73</ele>
        <time>2021-02-07T08:26:01.000Z</time>
      </trkpt>
      <trkpt lat="47.18498" lon="-1.73658">
        <ele>73</ele>
        <time>2021-02-07T08:26:03.000Z</time>
      </trkpt>
      <trkpt lat="47.185" lon="-1.73676">
        <ele>74</ele>
        <time>2021-02-07T08:26:05.000Z</time>
      </trkpt>
      <trkpt lat="47.18501" lon="-1.73694">
        <ele>74</ele>
        <time>2021-02-07T08:26:07.000Z</time>
      </trkpt>
      <trkpt lat="47.18503" lon="-1.7371">
        <ele>74</ele>
        <time>2021-02-07T08:26:09.000Z</time>
      </trkpt>
      <trkpt lat="47.18505" lon="-1.73727">
        <ele>74</ele>
        <time>2021-02-07T08:26:11.000Z</time>
      </trkpt>
      <trkpt lat="47.18506" lon="-1.73744">
        <ele>74</ele>
        <time>2021-02-07T08:26:13.000Z</time>
      </trkpt>
      <trkpt lat="47.18508" lon="-1.73762">
        <ele>74</ele>
        <time>2021-02-07T08:26:15.000Z</time>
      </trkpt>
      <trkpt lat="47.18509" lon="-1.73778">
        <ele>74</ele>
        <time>2021-02-07T08:26:17.000Z</time>
      </trkpt>
      <trkpt lat="47.18511" lon="-1.73795">
        <ele>74</ele>
        <time>2021-02-07T08:26:19.000Z</time>
      </trkpt>
      <trkpt lat="47.18513" lon="-1.73812">
        <ele>73</ele>
        <time>2021-02-07T08:26:21.000Z</time>
      </trkpt>
      <trkpt lat="47.18515" lon="-1.73829">
        <ele>73</ele>
        <time>2021-02-07T08:26:23.000Z</time>
      </trkpt>
      <trkpt lat="47.18516" lon="-1.73846">
        <ele>74</ele>
        <time>2021-02-07T08:26:25.000Z</time>
      </trkpt>
      <trkpt lat="47.18518" lon="-1.73864">
        <ele>74</ele>
        <time>2021-02-07T08:26:27.000Z</time>
      </trkpt>
      <trkpt lat="47.18519" lon="-1.73881">
        <ele>73</ele>
        <time>2021-02-07T08:26:29.000Z</time>
      </trkpt>
      <trkpt lat="47.18521" lon="-1.73898">
        <ele>74</ele>
        <time>2021-02-07T08:26:31.000Z</time>
      </trkpt>
      <trkpt lat="47.18522" lon="-1.73915">
        <ele>74</ele>
        <time>2021-02-07T08:26:33.000Z</time>
      </trkpt>
      <trkpt lat="47.18522" lon="-1.73933">
        <ele>74</ele>
        <time>2021-02-07T08:26:35.000Z</time>
      </trkpt>
      <trkpt lat="47.18523" lon="-1.73951">
        <ele>74</ele>
        <time>2021-02-07T08:26:37.000Z</time>
      </trkpt>
      <trkpt lat="47.18523" lon="-1.73969">
        <ele>73</ele>
        <time>2021-02-07T08:26:39.000Z</time>
      </trkpt>
      <trkpt lat="47.18523" lon="-1.73987">
        <ele>73</ele>
        <time>2021-02-07T08:26:41.000Z</time>
      </trkpt>
      <trkpt lat="47.18523" lon="-1.74005">
        <ele>73</ele>
        <time>2021-02-07T08:26:43.000Z</time>
      </trkpt>
      <trkpt lat="47.18522" lon="-1.74023">
        <ele>72</ele>
        <time>2021-02-07T08:26:45.000Z</time>
      </trkpt>
      <trkpt lat="47.18522" lon="-1.74041">
        <ele>72</ele>
        <time>2021-02-07T08:26:47.000Z</time>
      </trkpt>
      <trkpt lat="47.1852" lon="-1.7406">
        <ele>72</ele>
        <time>2021-02-07T08:26:49.000Z</time>
      </trkpt>
      <trkpt lat="47.18519" lon="-1.74078">
        <ele>71</ele>
        <time>2021-02-07T08:26:51.000Z</time>
      </trkpt>
      <trkpt lat="47.18519" lon="-1.74096">
        <ele>71</ele>
        <time>2021-02-07T08:26:53.000Z</time>
      </trkpt>
      <trkpt lat="47.1852" lon="-1.74114">
        <ele>71</ele>
        <time>2021-02-07T08:26:55.000Z</time>
      </trkpt>
      <trkpt lat="47.18522" lon="-1.74132">
        <ele>71</ele>
        <time>2021-02-07T08:26:57.000Z</time>
      </trkpt>
      <trkpt lat="47.18522" lon="-1.74149">
        <ele>71</ele>
        <time>2021-02-07T08:26:59.000Z</time>
      </trkpt>
      <trkpt lat="47.18518" lon="-1.74166">
        <ele>71</ele>
        <time>2021-02-07T08:27:01.000Z</time>
      </trkpt>
      <trkpt lat="47.18518" lon="-1.74184">
        <ele>71</ele>
        <time>2021-02-07T08:27:03.000Z</time>
      </trkpt>
      <trkpt lat="47.18518" lon="-1.74202">
        <ele>71</ele>
        <time>2021-02-07T08:27:05.000Z</time>
      </trkpt>
      <trkpt lat="47.18518" lon="-1.74219">
        <ele>71</ele>
        <time>2021-02-07T08:27:07.000Z</time>
      </trkpt>
      <trkpt lat="47.18519" lon="-1.74236">
        <ele>72</ele>
        <time>2021-02-07T08:27:09.000Z</time>
      </trkpt>
      <trkpt lat="47.1852" lon="-1.74252">
        <ele>72</ele>
        <time>2021-02-07T08:27:11.000Z</time>
      </trkpt>
      <trkpt lat="47.18522" lon="-1.74267">
        <ele>73</ele>
        <time>2021-02-07T08:27:13.000Z</time>
      </trkpt>
      <trkpt lat="47.18523" lon="-1.74283">
        <ele>74</ele>
        <time>2021-02-07T08:27:15.000Z</time>
      </trkpt>
      <trkpt lat="47.18524" lon="-1.74299">
        <ele>74</ele>
        <time>2021-02-07T08:27:17.000Z</time>
      </trkpt>
      <trkpt lat="47.18525" lon="-1.74314">
        <ele>74</ele>
        <time>2021-02-07T08:27:19.000Z</time>
      </trkpt>
      <trkpt lat="47.18526" lon="-1.7433">
        <ele>75</ele>
        <time>2021-02-07T08:27:21.000Z</time>
      </trkpt>
      <trkpt lat="47.18527" lon="-1.74346">
        <ele>75</ele>
        <time>2021-02-07T08:27:23.000Z</time>
      </trkpt>
      <trkpt lat="47.18527" lon="-1.74362">
        <ele>74</ele>
        <time>2021-02-07T08:27:25.000Z</time>
      </trkpt>
      <trkpt lat="47.18528" lon="-1.74378">
        <ele>74</ele>
        <time>2021-02-07T08:27:27.000Z</time>
      </trkpt>
      <trkpt lat="47.18528" lon="-1.74394">
        <ele>74</ele>
        <time>2021-02-07T08:27:29.000Z</time>
      </trkpt>
      <trkpt lat="47.18528" lon="-1.7441">
        <ele>74</ele>
        <time>2021-02-07T08:27:31.000Z</time>
      </trkpt>
      <trkpt lat="47.18527" lon="-1.74426">
        <ele>74</ele>
        <time>2021-02-07T08:27:33.000Z</time>
      </trkpt>
      <trkpt lat="47.18526" lon="-1.74443">
        <ele>74</ele>
        <time>2021-02-07T08:27:35.000Z</time>
      </trkpt>
      <trkpt lat="47.18526" lon="-1.74459">
        <ele>74</ele>
        <time>2021-02-07T08:27:37.000Z</time>
      </trkpt>
      <trkpt lat="47.18525" lon="-1.74475">
        <ele>75</ele>
        <time>2021-02-07T08:27:39.000Z</time>
      </trkpt>
      <trkpt lat="47.18524" lon="-1.74491">
        <ele>74</ele>
        <time>2021-02-07T08:27:41.000Z</time>
      </trkpt>
      <trkpt lat="47.18523" lon="-1.74508">
        <ele>75</ele>
        <time>2021-02-07T08:27:43.000Z</time>
      </trkpt>
      <trkpt lat="47.18522" lon="-1.74525">
        <ele>75</ele>
        <time>2021-02-07T08:27:45.000Z</time>
      </trkpt>
      <trkpt lat="47.1852" lon="-1.74541">
        <ele>75</ele>
        <time>2021-02-07T08:27:47.000Z</time>
      </trkpt>
      <trkpt lat="47.18519" lon="-1.74556">
        <ele>75</ele>
        <time>2021-02-07T08:27:49.000Z</time>
      </trkpt>
      <trkpt lat="47.18517" lon="-1.74573">
        <ele>75</ele>
        <time>2021-02-07T08:27:51.000Z</time>
      </trkpt>
      <trkpt lat="47.18516" lon="-1.74589">
        <ele>75</ele>
        <time>2021-02-07T08:27:53.000Z</time>
      </trkpt>
      <trkpt lat="47.18514" lon="-1.74606">
        <ele>75</ele>
        <time>2021-02-07T08:27:55.000Z</time>
      </trkpt>
      <trkpt lat="47.18512" lon="-1.74623">
        <ele>75</ele>
        <time>2021-02-07T08:27:57.000Z</time>
      </trkpt>
      <trkpt lat="47.1851" lon="-1.7464">
        <ele>75</ele>
        <time>2021-02-07T08:27:59.000Z</time>
      </trkpt>
      <trkpt lat="47.18509" lon="-1.74656">
        <ele>75</ele>
        <time>2021-02-07T08:28:01.000Z</time>
      </trkpt>
      <trkpt lat="47.18508" lon="-1.74672">
        <ele>75</ele>
        <time>2021-02-07T08:28:03.000Z</time>
      </trkpt>
      <trkpt lat="47.18506" lon="-1.74689">
        <ele>75</ele>
        <time>2021-02-07T08:28:05.000Z</time>
      </trkpt>
      <trkpt lat="47.18504" lon="-1.74705">
        <ele>75</ele>
        <time>2021-02-07T08:28:07.000Z</time>
      </trkpt>
      <trkpt lat="47.18502" lon="-1.74722">
        <ele>75</ele>
        <time>2021-02-07T08:28:09.000Z</time>
      </trkpt>
      <trkpt lat="47.185" lon="-1.74738">
        <ele>74</ele>
        <time>2021-02-07T08:28:11.000Z</time>
      </trkpt>
      <trkpt lat="47.18497" lon="-1.74755">
        <ele>74</ele>
        <time>2021-02-07T08:28:13.000Z</time>
      </trkpt>
      <trkpt lat="47.18495" lon="-1.74772">
        <ele>74</ele>
        <time>2021-02-07T08:28:15.000Z</time>
      </trkpt>
      <trkpt lat="47.18493" lon="-1.74789">
        <ele>74</ele>
        <time>2021-02-07T08:28:17.000Z</time>
      </trkpt>
      <trkpt lat="47.18489" lon="-1.74806">
        <ele>74</ele>
        <time>2021-02-07T08:28:19.000Z</time>
      </trkpt>
      <trkpt lat="47.18487" lon="-1.74823">
        <ele>74</ele>
        <time>2021-02-07T08:28:21.000Z</time>
      </trkpt>
      <trkpt lat="47.18483" lon="-1.74839">
        <ele>73</ele>
        <time>2021-02-07T08:28:23.000Z</time>
      </trkpt>
      <trkpt lat="47.1848" lon="-1.74857">
        <ele>73</ele>
        <time>2021-02-07T08:28:25.000Z</time>
      </trkpt>
      <trkpt lat="47.18476" lon="-1.74875">
        <ele>72</ele>
        <time>2021-02-07T08:28:27.000Z</time>
      </trkpt>
      <trkpt lat="47.18473" lon="-1.74894">
        <ele>71</ele>
        <time>2021-02-07T08:28:29.000Z</time>
      </trkpt>
      <trkpt lat="47.18469" lon="-1.74912">
        <ele>71</ele>
        <time>2021-02-07T08:28:31.000Z</time>
      </trkpt>
      <trkpt lat="47.18466" lon="-1.74931">
        <ele>71</ele>
        <time>2021-02-07T08:28:33.000Z</time>
      </trkpt>
      <trkpt lat="47.18462" lon="-1.74951">
        <ele>70</ele>
        <time>2021-02-07T08:28:35.000Z</time>
      </trkpt>
      <trkpt lat="47.18458" lon="-1.7497">
        <ele>70</ele>
        <time>2021-02-07T08:28:37.000Z</time>
      </trkpt>
      <trkpt lat="47.18455" lon="-1.74991">
        <ele>69</ele>
        <time>2021-02-07T08:28:39.000Z</time>
      </trkpt>
      <trkpt lat="47.18451" lon="-1.75011">
        <ele>69</ele>
        <time>2021-02-07T08:28:41.000Z</time>
      </trkpt>
      <trkpt lat="47.18447" lon="-1.75032">
        <ele>68</ele>
        <time>2021-02-07T08:28:43.000Z</time>
      </trkpt>
      <trkpt lat="47.18442" lon="-1.75052">
        <ele>68</ele>
        <time>2021-02-07T08:28:45.000Z</time>
      </trkpt>
      <trkpt lat="47.18438" lon="-1.75073">
        <ele>68</ele>
        <time>2021-02-07T08:28:47.000Z</time>
      </trkpt>
      <trkpt lat="47.18434" lon="-1.75094">
        <ele>67</ele>
        <time>2021-02-07T08:28:49.000Z</time>
      </trkpt>
      <trkpt lat="47.18431" lon="-1.75115">
        <ele>67</ele>
        <time>2021-02-07T08:28:51.000Z</time>
      </trkpt>
      <trkpt lat="47.18427" lon="-1.75135">
        <ele>67</ele>
        <time>2021-02-07T08:28:53.000Z</time>
      </trkpt>
      <trkpt lat="47.18423" lon="-1.75156">
        <ele>67</ele>
        <time>2021-02-07T08:28:55.000Z</time>
      </trkpt>
      <trkpt lat="47.1842" lon="-1.75176">
        <ele>67</ele>
        <time>2021-02-07T08:28:57.000Z</time>
      </trkpt>
      <trkpt lat="47.18416" lon="-1.75195">
        <ele>67</ele>
        <time>2021-02-07T08:28:59.000Z</time>
      </trkpt>
      <trkpt lat="47.18413" lon="-1.75214">
        <ele>67</ele>
        <time>2021-02-07T08:29:01.000Z</time>
      </trkpt>
      <trkpt lat="47.1841" lon="-1.75234">
        <ele>67</ele>
        <time>2021-02-07T08:29:03.000Z</time>
      </trkpt>
      <trkpt lat="47.18408" lon="-1.75252">
        <ele>67</ele>
        <time>2021-02-07T08:29:05.000Z</time>
      </trkpt>
      <trkpt lat="47.18405" lon="-1.7527">
        <ele>67</ele>
        <time>2021-02-07T08:29:07.000Z</time>
      </trkpt>
      <trkpt lat="47.18403" lon="-1.75289">
        <ele>67</ele>
        <time>2021-02-07T08:29:09.000Z</time>
      </trkpt>
      <trkpt lat="47.18401" lon="-1.75308">
        <ele>68</ele>
        <time>2021-02-07T08:29:11.000Z</time>
      </trkpt>
      <trkpt lat="47.184" lon="-1.75326">
        <ele>67</ele>
        <time>2021-02-07T08:29:13.000Z</time>
      </trkpt>
      <trkpt lat="47.18399" lon="-1.75346">
        <ele>67</ele>
        <time>2021-02-07T08:29:15.000Z</time>
      </trkpt>
      <trkpt lat="47.18399" lon="-1.75365">
        <ele>67</ele>
        <time>2021-02-07T08:29:17.000Z</time>
      </trkpt>
      <trkpt lat="47.184" lon="-1.75383">
        <ele>67</ele>
        <time>2021-02-07T08:29:19.000Z</time>
      </trkpt>
      <trkpt lat="47.18403" lon="-1.75401">
        <ele>67</ele>
        <time>2021-02-07T08:29:21.000Z</time>
      </trkpt>
      <trkpt lat="47.18405" lon="-1.75419">
        <ele>68</ele>
        <time>2021-02-07T08:29:23.000Z</time>
      </trkpt>
      <trkpt lat="47.18402" lon="-1.75437">
        <ele>68</ele>
        <time>2021-02-07T08:29:25.000Z</time>
      </trkpt>
      <trkpt lat="47.184" lon="-1.75455">
        <ele>68</ele>
        <time>2021-02-07T08:29:27.000Z</time>
      </trkpt>
      <trkpt lat="47.18399" lon="-1.75473">
        <ele>68</ele>
        <time>2021-02-07T08:29:29.000Z</time>
      </trkpt>
      <trkpt lat="47.18399" lon="-1.75488">
        <ele>68</ele>
        <time>2021-02-07T08:29:31.000Z</time>
      </trkpt>
      <trkpt lat="47.18401" lon="-1.75505">
        <ele>69</ele>
        <time>2021-02-07T08:29:33.000Z</time>
      </trkpt>
      <trkpt lat="47.18402" lon="-1.75521">
        <ele>69</ele>
        <time>2021-02-07T08:29:35.000Z</time>
      </trkpt>
      <trkpt lat="47.18402" lon="-1.75537">
        <ele>69</ele>
        <time>2021-02-07T08:29:37.000Z</time>
      </trkpt>
      <trkpt lat="47.18403" lon="-1.75553">
        <ele>70</ele>
        <time>2021-02-07T08:29:39.000Z</time>
      </trkpt>
      <trkpt lat="47.18404" lon="-1.75568">
        <ele>70</ele>
        <time>2021-02-07T08:29:41.000Z</time>
      </trkpt>
      <trkpt lat="47.18406" lon="-1.75584">
        <ele>70</ele>
        <time>2021-02-07T08:29:43.000Z</time>
      </trkpt>
      <trkpt lat="47.18407" lon="-1.756">
        <ele>71</ele>
        <time>2021-02-07T08:29:45.000Z</time>
      </trkpt>
      <trkpt lat="47.18408" lon="-1.75616">
        <ele>71</ele>
        <time>2021-02-07T08:29:47.000Z</time>
      </trkpt>
      <trkpt lat="47.18409" lon="-1.75632">
        <ele>71</ele>
        <time>2021-02-07T08:29:49.000Z</time>
      </trkpt>
      <trkpt lat="47.18409" lon="-1.75648">
        <ele>71</ele>
        <time>2021-02-07T08:29:51.000Z</time>
      </trkpt>
      <trkpt lat="47.1841" lon="-1.75664">
        <ele>71</ele>
        <time>2021-02-07T08:29:53.000Z</time>
      </trkpt>
      <trkpt lat="47.1841" lon="-1.7568">
        <ele>71</ele>
        <time>2021-02-07T08:29:55.000Z</time>
      </trkpt>
      <trkpt lat="47.1841" lon="-1.75696">
        <ele>71</ele>
        <time>2021-02-07T08:29:57.000Z</time>
      </trkpt>
      <trkpt lat="47.1841" lon="-1.75712">
        <ele>71</ele>
        <time>2021-02-07T08:29:59.000Z</time>
      </trkpt>
      <trkpt lat="47.18409" lon="-1.75728">
        <ele>71</ele>
        <time>2021-02-07T08:30:01.000Z</time>
      </trkpt>
      <trkpt lat="47.18408" lon="-1.75743">
        <ele>71</ele>
        <time>2021-02-07T08:30:03.000Z</time>
      </trkpt>
      <trkpt lat="47.18407" lon="-1.75759">
        <ele>71</ele>
        <time>2021-02-07T08:30:05.000Z</time>
      </trkpt>
      <trkpt lat="47.18405" lon="-1.75775">
        <ele>70</ele>
        <time>2021-02-07T08:30:07.000Z</time>
      </trkpt>
      <trkpt lat="47.18404" lon="-1.75792">
        <ele>71</ele>
        <time>2021-02-07T08:30:09.000Z</time>
      </trkpt>
      <trkpt lat="47.18402" lon="-1.75808">
        <ele>71</ele>
        <time>2021-02-07T08:30:11.000Z</time>
      </trkpt>
      <trkpt lat="47.184" lon="-1.75825">
        <ele>71</ele>
        <time>2021-02-07T08:30:13.000Z</time>
      </trkpt>
      <trkpt lat="47.18398" lon="-1.75841">
        <ele>71</ele>
        <time>2021-02-07T08:30:15.000Z</time>
      </trkpt>
      <trkpt lat="47.18397" lon="-1.75858">
        <ele>71</ele>
        <time>2021-02-07T08:30:17.000Z</time>
      </trkpt>
      <trkpt lat="47.18395" lon="-1.75876">
        <ele>70</ele>
        <time>2021-02-07T08:30:19.000Z</time>
      </trkpt>
      <trkpt lat="47.18393" lon="-1.75893">
        <ele>70</ele>
        <time>2021-02-07T08:30:21.000Z</time>
      </trkpt>
      <trkpt lat="47.18391" lon="-1.75911">
        <ele>69</ele>
        <time>2021-02-07T08:30:23.000Z</time>
      </trkpt>
      <trkpt lat="47.18389" lon="-1.75929">
        <ele>69</ele>
        <time>2021-02-07T08:30:25.000Z</time>
      </trkpt>
      <trkpt lat="47.18387" lon="-1.75947">
        <ele>69</ele>
        <time>2021-02-07T08:30:27.000Z</time>
      </trkpt>
      <trkpt lat="47.18386" lon="-1.75965">
        <ele>68</ele>
        <time>2021-02-07T08:30:29.000Z</time>
      </trkpt>
      <trkpt lat="47.18383" lon="-1.75985">
        <ele>68</ele>
        <time>2021-02-07T08:30:31.000Z</time>
      </trkpt>
      <trkpt lat="47.18381" lon="-1.76004">
        <ele>67</ele>
        <time>2021-02-07T08:30:33.000Z</time>
      </trkpt>
      <trkpt lat="47.18379" lon="-1.76024">
        <ele>67</ele>
        <time>2021-02-07T08:30:35.000Z</time>
      </trkpt>
      <trkpt lat="47.18376" lon="-1.76043">
        <ele>67</ele>
        <time>2021-02-07T08:30:37.000Z</time>
      </trkpt>
      <trkpt lat="47.18374" lon="-1.76062">
        <ele>67</ele>
        <time>2021-02-07T08:30:39.000Z</time>
      </trkpt>
      <trkpt lat="47.18371" lon="-1.76082">
        <ele>66</ele>
        <time>2021-02-07T08:30:41.000Z</time>
      </trkpt>
      <trkpt lat="47.18369" lon="-1.76102">
        <ele>65</ele>
        <time>2021-02-07T08:30:43.000Z</time>
      </trkpt>
      <trkpt lat="47.18367" lon="-1.76121">
        <ele>65</ele>
        <time>2021-02-07T08:30:45.000Z</time>
      </trkpt>
      <trkpt lat="47.18365" lon="-1.76141">
        <ele>65</ele>
        <time>2021-02-07T08:30:47.000Z</time>
      </trkpt>
      <trkpt lat="47.18363" lon="-1.76161">
        <ele>65</ele>
        <time>2021-02-07T08:30:49.000Z</time>
      </trkpt>
      <trkpt lat="47.18361" lon="-1.76181">
        <ele>65</ele>
        <time>2021-02-07T08:30:51.000Z</time>
      </trkpt>
      <trkpt lat="47.18358" lon="-1.762">
        <ele>64</ele>
        <time>2021-02-07T08:30:53.000Z</time>
      </trkpt>
      <trkpt lat="47.18356" lon="-1.76221">
        <ele>63</ele>
        <time>2021-02-07T08:30:55.000Z</time>
      </trkpt>
      <trkpt lat="47.18353" lon="-1.76241">
        <ele>63</ele>
        <time>2021-02-07T08:30:57.000Z</time>
      </trkpt>
      <trkpt lat="47.18351" lon="-1.76261">
        <ele>63</ele>
        <time>2021-02-07T08:30:59.000Z</time>
      </trkpt>
      <trkpt lat="47.1835" lon="-1.76282">
        <ele>63</ele>
        <time>2021-02-07T08:31:01.000Z</time>
      </trkpt>
      <trkpt lat="47.18348" lon="-1.76301">
        <ele>63</ele>
        <time>2021-02-07T08:31:03.000Z</time>
      </trkpt>
      <trkpt lat="47.18347" lon="-1.7632">
        <ele>64</ele>
        <time>2021-02-07T08:31:05.000Z</time>
      </trkpt>
      <trkpt lat="47.18347" lon="-1.76338">
        <ele>64</ele>
        <time>2021-02-07T08:31:07.000Z</time>
      </trkpt>
      <trkpt lat="47.18345" lon="-1.76357">
        <ele>64</ele>
        <time>2021-02-07T08:31:09.000Z</time>
      </trkpt>
      <trkpt lat="47.18344" lon="-1.76374">
        <ele>64</ele>
        <time>2021-02-07T08:31:11.000Z</time>
      </trkpt>
      <trkpt lat="47.18344" lon="-1.76391">
        <ele>64</ele>
        <time>2021-02-07T08:31:13.000Z</time>
      </trkpt>
      <trkpt lat="47.18343" lon="-1.76408">
        <ele>65</ele>
        <time>2021-02-07T08:31:15.000Z</time>
      </trkpt>
      <trkpt lat="47.18342" lon="-1.76424">
        <ele>64</ele>
        <time>2021-02-07T08:31:17.000Z</time>
      </trkpt>
      <trkpt lat="47.18342" lon="-1.76441">
        <ele>64</ele>
        <time>2021-02-07T08:31:19.000Z</time>
      </trkpt>
      <trkpt lat="47.1834" lon="-1.76457">
        <ele>64</ele>
        <time>2021-02-07T08:31:21.000Z</time>
      </trkpt>
      <trkpt lat="47.1834" lon="-1.76474">
        <ele>65</ele>
        <time>2021-02-07T08:31:23.000Z</time>
      </trkpt>
      <trkpt lat="47.18339" lon="-1.7649">
        <ele>65</ele>
        <time>2021-02-07T08:31:25.000Z</time>
      </trkpt>
      <trkpt lat="47.18339" lon="-1.76507">
        <ele>65</ele>
        <time>2021-02-07T08:31:27.000Z</time>
      </trkpt>
      <trkpt lat="47.18338" lon="-1.76523">
        <ele>65</ele>
        <time>2021-02-07T08:31:29.000Z</time>
      </trkpt>
      <trkpt lat="47.18338" lon="-1.76539">
        <ele>65</ele>
        <time>2021-02-07T08:31:31.000Z</time>
      </trkpt>
      <trkpt lat="47.18339" lon="-1.76555">
        <ele>65</ele>
        <time>2021-02-07T08:31:33.000Z</time>
      </trkpt>
      <trkpt lat="47.18339" lon="-1.76571">
        <ele>66</ele>
        <time>2021-02-07T08:31:35.000Z</time>
      </trkpt>
      <trkpt lat="47.1834" lon="-1.76586">
        <ele>66</ele>
        <time>2021-02-07T08:31:37.000Z</time>
      </trkpt>
      <trkpt lat="47.1834" lon="-1.76601">
        <ele>66</ele>
        <time>2021-02-07T08:31:39.000Z</time>
      </trkpt>
      <trkpt lat="47.18341" lon="-1.76615">
        <ele>66</ele>
        <time>2021-02-07T08:31:41.000Z</time>
      </trkpt>
      <trkpt lat="47.18342" lon="-1.7663">
        <ele>66</ele>
        <time>2021-02-07T08:31:43.000Z</time>
      </trkpt>
      <trkpt lat="47.18344" lon="-1.76645">
        <ele>66</ele>
        <time>2021-02-07T08:31:45.000Z</time>
      </trkpt>
      <trkpt lat="47.18345" lon="-1.7666">
        <ele>66</ele>
        <time>2021-02-07T08:31:47.000Z</time>
      </trkpt>
      <trkpt lat="47.18346" lon="-1.76675">
        <ele>66</ele>
        <time>2021-02-07T08:31:49.000Z</time>
      </trkpt>
      <trkpt lat="47.18348" lon="-1.7669">
        <ele>67</ele>
        <time>2021-02-07T08:31:51.000Z</time>
      </trkpt>
      <trkpt lat="47.18349" lon="-1.76705">
        <ele>67</ele>
        <time>2021-02-07T08:31:53.000Z</time>
      </trkpt>
      <trkpt lat="47.18351" lon="-1.76719">
        <ele>68</ele>
        <time>2021-02-07T08:31:55.000Z</time>
      </trkpt>
      <trkpt lat="47.18353" lon="-1.76734">
        <ele>68</ele>
        <time>2021-02-07T08:31:57.000Z</time>
      </trkpt>
      <trkpt lat="47.18355" lon="-1.76749">
        <ele>69</ele>
        <time>2021-02-07T08:31:59.000Z</time>
      </trkpt>
      <trkpt lat="47.18356" lon="-1.76765">
        <ele>69</ele>
        <time>2021-02-07T08:32:01.000Z</time>
      </trkpt>
      <trkpt lat="47.18357" lon="-1.7678">
        <ele>69</ele>
        <time>2021-02-07T08:32:03.000Z</time>
      </trkpt>
      <trkpt lat="47.18358" lon="-1.76795">
        <ele>69</ele>
        <time>2021-02-07T08:32:05.000Z</time>
      </trkpt>
      <trkpt lat="47.1836" lon="-1.76809">
        <ele>70</ele>
        <time>2021-02-07T08:32:07.000Z</time>
      </trkpt>
      <trkpt lat="47.18361" lon="-1.76824">
        <ele>70</ele>
        <time>2021-02-07T08:32:09.000Z</time>
      </trkpt>
      <trkpt lat="47.18363" lon="-1.7684">
        <ele>70</ele>
        <time>2021-02-07T08:32:11.000Z</time>
      </trkpt>
      <trkpt lat="47.18365" lon="-1.76856">
        <ele>70</ele>
        <time>2021-02-07T08:32:13.000Z</time>
      </trkpt>
      <trkpt lat="47.18367" lon="-1.76871">
        <ele>70</ele>
        <time>2021-02-07T08:32:15.000Z</time>
      </trkpt>
      <trkpt lat="47.18368" lon="-1.76886">
        <ele>70</ele>
        <time>2021-02-07T08:32:17.000Z</time>
      </trkpt>
      <trkpt lat="47.1837" lon="-1.76902">
        <ele>70</ele>
        <time>2021-02-07T08:32:19.000Z</time>
      </trkpt>
      <trkpt lat="47.18371" lon="-1.76917">
        <ele>70</ele>
        <time>2021-02-07T08:32:21.000Z</time>
      </trkpt>
      <trkpt lat="47.18372" lon="-1.76932">
        <ele>70</ele>
        <time>2021-02-07T08:32:23.000Z</time>
      </trkpt>
      <trkpt lat="47.18374" lon="-1.76947">
        <ele>70</ele>
        <time>2021-02-07T08:32:25.000Z</time>
      </trkpt>
      <trkpt lat="47.18375" lon="-1.76962">
        <ele>71</ele>
        <time>2021-02-07T08:32:27.000Z</time>
      </trkpt>
      <trkpt lat="47.18377" lon="-1.76978">
        <ele>71</ele>
        <time>2021-02-07T08:32:29.000Z</time>
      </trkpt>
      <trkpt lat="47.18378" lon="-1.76993">
        <ele>71</ele>
        <time>2021-02-07T08:32:31.000Z</time>
      </trkpt>
      <trkpt lat="47.18378" lon="-1.7701">
        <ele>71</ele>
        <time>2021-02-07T08:32:33.000Z</time>
      </trkpt>
      <trkpt lat="47.18378" lon="-1.77025">
        <ele>71</ele>
        <time>2021-02-07T08:32:35.000Z</time>
      </trkpt>
      <trkpt lat="47.18378" lon="-1.77041">
        <ele>72</ele>
        <time>2021-02-07T08:32:37.000Z</time>
      </trkpt>
      <trkpt lat="47.18378" lon="-1.77057">
        <ele>72</ele>
        <time>2021-02-07T08:32:39.000Z</time>
      </trkpt>
      <trkpt lat="47.18377" lon="-1.77073">
        <ele>72</ele>
        <time>2021-02-07T08:32:41.000Z</time>
      </trkpt>
      <trkpt lat="47.18376" lon="-1.77088">
        <ele>72</ele>
        <time>2021-02-07T08:32:43.000Z</time>
      </trkpt>
      <trkpt lat="47.18374" lon="-1.77103">
        <ele>72</ele>
        <time>2021-02-07T08:32:45.000Z</time>
      </trkpt>
      <trkpt lat="47.18373" lon="-1.77119">
        <ele>72</ele>
        <time>2021-02-07T08:32:47.000Z</time>
      </trkpt>
      <trkpt lat="47.18372" lon="-1.77135">
        <ele>72</ele>
        <time>2021-02-07T08:32:49.000Z</time>
      </trkpt>
      <trkpt lat="47.18371" lon="-1.7715">
        <ele>73</ele>
        <time>2021-02-07T08:32:51.000Z</time>
      </trkpt>
      <trkpt lat="47.18368" lon="-1.77166">
        <ele>73</ele>
        <time>2021-02-07T08:32:53.000Z</time>
      </trkpt>
      <trkpt lat="47.18366" lon="-1.77182">
        <ele>73</ele>
        <time>2021-02-07T08:32:55.000Z</time>
      </trkpt>
      <trkpt lat="47.18365" lon="-1.77197">
        <ele>73</ele>
        <time>2021-02-07T08:32:57.000Z</time>
      </trkpt>
      <trkpt lat="47.18365" lon="-1.77213">
        <ele>73</ele>
        <time>2021-02-07T08:32:59.000Z</time>
      </trkpt>
      <trkpt lat="47.18364" lon="-1.77229">
        <ele>73</ele>
        <time>2021-02-07T08:33:01.000Z</time>
      </trkpt>
      <trkpt lat="47.18365" lon="-1.77245">
        <ele>73</ele>
        <time>2021-02-07T08:33:03.000Z</time>
      </trkpt>
      <trkpt lat="47.18365" lon="-1.77262">
        <ele>73</ele>
        <time>2021-02-07T08:33:05.000Z</time>
      </trkpt>
      <trkpt lat="47.18366" lon="-1.77278">
        <ele>73</ele>
        <time>2021-02-07T08:33:07.000Z</time>
      </trkpt>
      <trkpt lat="47.18366" lon="-1.77294">
        <ele>73</ele>
        <time>2021-02-07T08:33:09.000Z</time>
      </trkpt>
      <trkpt lat="47.18367" lon="-1.7731">
        <ele>73</ele>
        <time>2021-02-07T08:33:11.000Z</time>
      </trkpt>
      <trkpt lat="47.18368" lon="-1.77326">
        <ele>73</ele>
        <time>2021-02-07T08:33:13.000Z</time>
      </trkpt>
      <trkpt lat="47.18369" lon="-1.77342">
        <ele>73</ele>
        <time>2021-02-07T08:33:15.000Z</time>
      </trkpt>
      <trkpt lat="47.1837" lon="-1.77358">
        <ele>73</ele>
        <time>2021-02-07T08:33:17.000Z</time>
      </trkpt>
      <trkpt lat="47.1837" lon="-1.77374">
        <ele>73</ele>
        <time>2021-02-07T08:33:19.000Z</time>
      </trkpt>
      <trkpt lat="47.18371" lon="-1.77391">
        <ele>73</ele>
        <time>2021-02-07T08:33:21.000Z</time>
      </trkpt>
      <trkpt lat="47.18372" lon="-1.77408">
        <ele>73</ele>
        <time>2021-02-07T08:33:23.000Z</time>
      </trkpt>
      <trkpt lat="47.18373" lon="-1.77424">
        <ele>73</ele>
        <time>2021-02-07T08:33:25.000Z</time>
      </trkpt>
      <trkpt lat="47.18374" lon="-1.7744">
        <ele>73</ele>
        <time>2021-02-07T08:33:27.000Z</time>
      </trkpt>
      <trkpt lat="47.18374" lon="-1.77457">
        <ele>73</ele>
        <time>2021-02-07T08:33:29.000Z</time>
      </trkpt>
      <trkpt lat="47.18375" lon="-1.77473">
        <ele>73</ele>
        <time>2021-02-07T08:33:31.000Z</time>
      </trkpt>
      <trkpt lat="47.18375" lon="-1.77489">
        <ele>73</ele>
        <time>2021-02-07T08:33:33.000Z</time>
      </trkpt>
      <trkpt lat="47.18375" lon="-1.77506">
        <ele>72</ele>
        <time>2021-02-07T08:33:35.000Z</time>
      </trkpt>
      <trkpt lat="47.18374" lon="-1.77522">
        <ele>73</ele>
        <time>2021-02-07T08:33:37.000Z</time>
      </trkpt>
      <trkpt lat="47.18372" lon="-1.77539">
        <ele>73</ele>
        <time>2021-02-07T08:33:39.000Z</time>
      </trkpt>
      <trkpt lat="47.1837" lon="-1.77554">
        <ele>73</ele>
        <time>2021-02-07T08:33:41.000Z</time>
      </trkpt>
      <trkpt lat="47.18367" lon="-1.7757">
        <ele>73</ele>
        <time>2021-02-07T08:33:43.000Z</time>
      </trkpt>
      <trkpt lat="47.18364" lon="-1.77587">
        <ele>74</ele>
        <time>2021-02-07T08:33:45.000Z</time>
      </trkpt>
      <trkpt lat="47.18359" lon="-1.77602">
        <ele>74</ele>
        <time>2021-02-07T08:33:47.000Z</time>
      </trkpt>
      <trkpt lat="47.18355" lon="-1.77618">
        <ele>74</ele>
        <time>2021-02-07T08:33:49.000Z</time>
      </trkpt>
      <trkpt lat="47.1835" lon="-1.77634">
        <ele>74</ele>
        <time>2021-02-07T08:33:51.000Z</time>
      </trkpt>
      <trkpt lat="47.18345" lon="-1.7765">
        <ele>74</ele>
        <time>2021-02-07T08:33:53.000Z</time>
      </trkpt>
      <trkpt lat="47.1834" lon="-1.77665">
        <ele>74</ele>
        <time>2021-02-07T08:33:55.000Z</time>
      </trkpt>
      <trkpt lat="47.18334" lon="-1.7768">
        <ele>74</ele>
        <time>2021-02-07T08:33:57.000Z</time>
      </trkpt>
      <trkpt lat="47.18329" lon="-1.77695">
        <ele>74</ele>
        <time>2021-02-07T08:33:59.000Z</time>
      </trkpt>
      <trkpt lat="47.18324" lon="-1.7771">
        <ele>74</ele>
        <time>2021-02-07T08:34:01.000Z</time>
      </trkpt>
      <trkpt lat="47.18319" lon="-1.77725">
        <ele>73</ele>
        <time>2021-02-07T08:34:03.000Z</time>
      </trkpt>
      <trkpt lat="47.18314" lon="-1.77742">
        <ele>73</ele>
        <time>2021-02-07T08:34:05.000Z</time>
      </trkpt>
      <trkpt lat="47.18309" lon="-1.77757">
        <ele>73</ele>
        <time>2021-02-07T08:34:07.000Z</time>
      </trkpt>
      <trkpt lat="47.18303" lon="-1.77773">
        <ele>72</ele>
        <time>2021-02-07T08:34:09.000Z</time>
      </trkpt>
      <trkpt lat="47.18298" lon="-1.77787">
        <ele>73</ele>
        <time>2021-02-07T08:34:11.000Z</time>
      </trkpt>
      <trkpt lat="47.18293" lon="-1.77803">
        <ele>72</ele>
        <time>2021-02-07T08:34:13.000Z</time>
      </trkpt>
      <trkpt lat="47.18288" lon="-1.77818">
        <ele>72</ele>
        <time>2021-02-07T08:34:15.000Z</time>
      </trkpt>
      <trkpt lat="47.18283" lon="-1.77832">
        <ele>72</ele>
        <time>2021-02-07T08:34:17.000Z</time>
      </trkpt>
      <trkpt lat="47.18278" lon="-1.77847">
        <ele>72</ele>
        <time>2021-02-07T08:34:19.000Z</time>
      </trkpt>
      <trkpt lat="47.18277" lon="-1.77862">
        <ele>73</ele>
        <time>2021-02-07T08:34:21.000Z</time>
      </trkpt>
      <trkpt lat="47.18282" lon="-1.77875">
        <ele>72</ele>
        <time>2021-02-07T08:34:23.000Z</time>
      </trkpt>
      <trkpt lat="47.18291" lon="-1.77885">
        <ele>72</ele>
        <time>2021-02-07T08:34:25.000Z</time>
      </trkpt>
      <trkpt lat="47.183" lon="-1.77892">
        <ele>73</ele>
        <time>2021-02-07T08:34:27.000Z</time>
      </trkpt>
      <trkpt lat="47.18309" lon="-1.77899">
        <ele>73</ele>
        <time>2021-02-07T08:34:29.000Z</time>
      </trkpt>
      <trkpt lat="47.18319" lon="-1.77902">
        <ele>73</ele>
        <time>2021-02-07T08:34:31.000Z</time>
      </trkpt>
      <trkpt lat="47.18329" lon="-1.77903">
        <ele>74</ele>
        <time>2021-02-07T08:34:33.000Z</time>
      </trkpt>
      <trkpt lat="47.18339" lon="-1.77903">
        <ele>74</ele>
        <time>2021-02-07T08:34:35.000Z</time>
      </trkpt>
      <trkpt lat="47.18349" lon="-1.77903">
        <ele>75</ele>
        <time>2021-02-07T08:34:37.000Z</time>
      </trkpt>
      <trkpt lat="47.18362" lon="-1.77902">
        <ele>75</ele>
        <time>2021-02-07T08:34:40.000Z</time>
      </trkpt>
      <trkpt lat="47.18371" lon="-1.77901">
        <ele>76</ele>
        <time>2021-02-07T08:34:42.000Z</time>
      </trkpt>
      <trkpt lat="47.18384" lon="-1.77901">
        <ele>77</ele>
        <time>2021-02-07T08:34:45.000Z</time>
      </trkpt>
      <trkpt lat="47.18393" lon="-1.779">
        <ele>77</ele>
        <time>2021-02-07T08:34:47.000Z</time>
      </trkpt>
      <trkpt lat="47.18402" lon="-1.779">
        <ele>77</ele>
        <time>2021-02-07T08:34:49.000Z</time>
      </trkpt>
      <trkpt lat="47.18415" lon="-1.779">
        <ele>78</ele>
        <time>2021-02-07T08:34:52.000Z</time>
      </trkpt>
      <trkpt lat="47.18427" lon="-1.77899">
        <ele>79</ele>
        <time>2021-02-07T08:34:55.000Z</time>
      </trkpt>
      <trkpt lat="47.18437" lon="-1.77899">
        <ele>79</ele>
        <time>2021-02-07T08:34:57.000Z</time>
      </trkpt>
      <trkpt lat="47.1845" lon="-1.77899">
        <ele>79</ele>
        <time>2021-02-07T08:35:00.000Z</time>
      </trkpt>
      <trkpt lat="47.1846" lon="-1.77899">
        <ele>79</ele>
        <time>2021-02-07T08:35:02.000Z</time>
      </trkpt>
      <trkpt lat="47.1847" lon="-1.77899">
        <ele>79</ele>
        <time>2021-02-07T08:35:04.000Z</time>
      </trkpt>
      <trkpt lat="47.18479" lon="-1.77897">
        <ele>79</ele>
        <time>2021-02-07T08:35:06.000Z</time>
      </trkpt>
      <trkpt lat="47.18489" lon="-1.77896">
        <ele>79</ele>
        <time>2021-02-07T08:35:08.000Z</time>
      </trkpt>
      <trkpt lat="47.18499" lon="-1.77894">
        <ele>79</ele>
        <time>2021-02-07T08:35:10.000Z</time>
      </trkpt>
      <trkpt lat="47.18509" lon="-1.77889">
        <ele>78</ele>
        <time>2021-02-07T08:35:12.000Z</time>
      </trkpt>
      <trkpt lat="47.18518" lon="-1.77882">
        <ele>78</ele>
        <time>2021-02-07T08:35:14.000Z</time>
      </trkpt>
      <trkpt lat="47.18528" lon="-1.7788">
        <ele>78</ele>
        <time>2021-02-07T08:35:16.000Z</time>
      </trkpt>
      <trkpt lat="47.18538" lon="-1.77889">
        <ele>78</ele>
        <time>2021-02-07T08:35:18.000Z</time>
      </trkpt>
      <trkpt lat="47.18544" lon="-1.77902">
        <ele>77</ele>
        <time>2021-02-07T08:35:20.000Z</time>
      </trkpt>
      <trkpt lat="47.18548" lon="-1.77916">
        <ele>77</ele>
        <time>2021-02-07T08:35:22.000Z</time>
      </trkpt>
      <trkpt lat="47.18554" lon="-1.7793">
        <ele>77</ele>
        <time>2021-02-07T08:35:24.000Z</time>
      </trkpt>
      <trkpt lat="47.18559" lon="-1.77944">
        <ele>76</ele>
        <time>2021-02-07T08:35:26.000Z</time>
      </trkpt>
      <trkpt lat="47.1856" lon="-1.7796">
        <ele>76</ele>
        <time>2021-02-07T08:35:28.000Z</time>
      </trkpt>
      <trkpt lat="47.18556" lon="-1.77977">
        <ele>76</ele>
        <time>2021-02-07T08:35:30.000Z</time>
      </trkpt>
      <trkpt lat="47.18548" lon="-1.77991">
        <ele>76</ele>
        <time>2021-02-07T08:35:32.000Z</time>
      </trkpt>
      <trkpt lat="47.1854" lon="-1.78007">
        <ele>76</ele>
        <time>2021-02-07T08:35:34.000Z</time>
      </trkpt>
      <trkpt lat="47.18535" lon="-1.78025">
        <ele>76</ele>
        <time>2021-02-07T08:35:36.000Z</time>
      </trkpt>
      <trkpt lat="47.18532" lon="-1.78045">
        <ele>76</ele>
        <time>2021-02-07T08:35:38.000Z</time>
      </trkpt>
      <trkpt lat="47.18528" lon="-1.78065">
        <ele>75</ele>
        <time>2021-02-07T08:35:40.000Z</time>
      </trkpt>
      <trkpt lat="47.18525" lon="-1.78085">
        <ele>74</ele>
        <time>2021-02-07T08:35:42.000Z</time>
      </trkpt>
      <trkpt lat="47.18522" lon="-1.78105">
        <ele>74</ele>
        <time>2021-02-07T08:35:44.000Z</time>
      </trkpt>
      <trkpt lat="47.1852" lon="-1.78124">
        <ele>74</ele>
        <time>2021-02-07T08:35:46.000Z</time>
      </trkpt>
      <trkpt lat="47.18518" lon="-1.78144">
        <ele>74</ele>
        <time>2021-02-07T08:35:48.000Z</time>
      </trkpt>
      <trkpt lat="47.18518" lon="-1.78163">
        <ele>73</ele>
        <time>2021-02-07T08:35:50.000Z</time>
      </trkpt>
      <trkpt lat="47.18517" lon="-1.78182">
        <ele>73</ele>
        <time>2021-02-07T08:35:52.000Z</time>
      </trkpt>
      <trkpt lat="47.18517" lon="-1.78201">
        <ele>73</ele>
        <time>2021-02-07T08:35:54.000Z</time>
      </trkpt>
      <trkpt lat="47.18518" lon="-1.7822">
        <ele>73</ele>
        <time>2021-02-07T08:35:56.000Z</time>
      </trkpt>
      <trkpt lat="47.1852" lon="-1.78239">
        <ele>73</ele>
        <time>2021-02-07T08:35:58.000Z</time>
      </trkpt>
      <trkpt lat="47.18521" lon="-1.78259">
        <ele>73</ele>
        <time>2021-02-07T08:36:00.000Z</time>
      </trkpt>
      <trkpt lat="47.18523" lon="-1.78277">
        <ele>72</ele>
        <time>2021-02-07T08:36:02.000Z</time>
      </trkpt>
      <trkpt lat="47.18525" lon="-1.78295">
        <ele>72</ele>
        <time>2021-02-07T08:36:04.000Z</time>
      </trkpt>
      <trkpt lat="47.18528" lon="-1.78314">
        <ele>72</ele>
        <time>2021-02-07T08:36:06.000Z</time>
      </trkpt>
      <trkpt lat="47.1853" lon="-1.78333">
        <ele>72</ele>
        <time>2021-02-07T08:36:08.000Z</time>
      </trkpt>
      <trkpt lat="47.18531" lon="-1.78351">
        <ele>73</ele>
        <time>2021-02-07T08:36:10.000Z</time>
      </trkpt>
      <trkpt lat="47.18534" lon="-1.7837">
        <ele>73</ele>
        <time>2021-02-07T08:36:12.000Z</time>
      </trkpt>
      <trkpt lat="47.18535" lon="-1.78389">
        <ele>72</ele>
        <time>2021-02-07T08:36:14.000Z</time>
      </trkpt>
      <trkpt lat="47.18538" lon="-1.78407">
        <ele>72</ele>
        <time>2021-02-07T08:36:16.000Z</time>
      </trkpt>
      <trkpt lat="47.1854" lon="-1.78426">
        <ele>71</ele>
        <time>2021-02-07T08:36:18.000Z</time>
      </trkpt>
      <trkpt lat="47.18542" lon="-1.78445">
        <ele>72</ele>
        <time>2021-02-07T08:36:20.000Z</time>
      </trkpt>
      <trkpt lat="47.18544" lon="-1.78464">
        <ele>71</ele>
        <time>2021-02-07T08:36:22.000Z</time>
      </trkpt>
      <trkpt lat="47.18546" lon="-1.78483">
        <ele>71</ele>
        <time>2021-02-07T08:36:24.000Z</time>
      </trkpt>
      <trkpt lat="47.18548" lon="-1.78501">
        <ele>71</ele>
        <time>2021-02-07T08:36:26.000Z</time>
      </trkpt>
      <trkpt lat="47.1855" lon="-1.7852">
        <ele>71</ele>
        <time>2021-02-07T08:36:28.000Z</time>
      </trkpt>
      <trkpt lat="47.18554" lon="-1.78538">
        <ele>71</ele>
        <time>2021-02-07T08:36:30.000Z</time>
      </trkpt>
      <trkpt lat="47.18558" lon="-1.78554">
        <ele>71</ele>
        <time>2021-02-07T08:36:32.000Z</time>
      </trkpt>
      <trkpt lat="47.18562" lon="-1.78569">
        <ele>72</ele>
        <time>2021-02-07T08:36:34.000Z</time>
      </trkpt>
      <trkpt lat="47.18567" lon="-1.78584">
        <ele>72</ele>
        <time>2021-02-07T08:36:36.000Z</time>
      </trkpt>
      <trkpt lat="47.18572" lon="-1.78597">
        <ele>71</ele>
        <time>2021-02-07T08:36:38.000Z</time>
      </trkpt>
      <trkpt lat="47.18577" lon="-1.78611">
        <ele>71</ele>
        <time>2021-02-07T08:36:40.000Z</time>
      </trkpt>
      <trkpt lat="47.18582" lon="-1.78625">
        <ele>71</ele>
        <time>2021-02-07T08:36:42.000Z</time>
      </trkpt>
      <trkpt lat="47.18587" lon="-1.78639">
        <ele>71</ele>
        <time>2021-02-07T08:36:44.000Z</time>
      </trkpt>
      <trkpt lat="47.18592" lon="-1.78653">
        <ele>71</ele>
        <time>2021-02-07T08:36:46.000Z</time>
      </trkpt>
      <trkpt lat="47.18596" lon="-1.78667">
        <ele>71</ele>
        <time>2021-02-07T08:36:48.000Z</time>
      </trkpt>
      <trkpt lat="47.186" lon="-1.78681">
        <ele>71</ele>
        <time>2021-02-07T08:36:50.000Z</time>
      </trkpt>
      <trkpt lat="47.18604" lon="-1.78695">
        <ele>71</ele>
        <time>2021-02-07T08:36:52.000Z</time>
      </trkpt>
      <trkpt lat="47.18607" lon="-1.7871">
        <ele>71</ele>
        <time>2021-02-07T08:36:54.000Z</time>
      </trkpt>
      <trkpt lat="47.18611" lon="-1.78725">
        <ele>72</ele>
        <time>2021-02-07T08:36:56.000Z</time>
      </trkpt>
      <trkpt lat="47.18615" lon="-1.7874">
        <ele>72</ele>
        <time>2021-02-07T08:36:58.000Z</time>
      </trkpt>
      <trkpt lat="47.18618" lon="-1.78754">
        <ele>72</ele>
        <time>2021-02-07T08:37:00.000Z</time>
      </trkpt>
      <trkpt lat="47.18622" lon="-1.78769">
        <ele>72</ele>
        <time>2021-02-07T08:37:02.000Z</time>
      </trkpt>
      <trkpt lat="47.18625" lon="-1.78784">
        <ele>72</ele>
        <time>2021-02-07T08:37:04.000Z</time>
      </trkpt>
      <trkpt lat="47.18629" lon="-1.78799">
        <ele>72</ele>
        <time>2021-02-07T08:37:06.000Z</time>
      </trkpt>
      <trkpt lat="47.18633" lon="-1.78814">
        <ele>72</ele>
        <time>2021-02-07T08:37:08.000Z</time>
      </trkpt>
      <trkpt lat="47.18639" lon="-1.78827">
        <ele>72</ele>
        <time>2021-02-07T08:37:10.000Z</time>
      </trkpt>
      <trkpt lat="47.18646" lon="-1.78839">
        <ele>72</ele>
        <time>2021-02-07T08:37:12.000Z</time>
      </trkpt>
      <trkpt lat="47.18654" lon="-1.78849">
        <ele>72</ele>
        <time>2021-02-07T08:37:14.000Z</time>
      </trkpt>
      <trkpt lat="47.18663" lon="-1.78858">
        <ele>73</ele>
        <time>2021-02-07T08:37:16.000Z</time>
      </trkpt>
      <trkpt lat="47.18673" lon="-1.78865">
        <ele>72</ele>
        <time>2021-02-07T08:37:18.000Z</time>
      </trkpt>
      <trkpt lat="47.18683" lon="-1.78871">
        <ele>72</ele>
        <time>2021-02-07T08:37:20.000Z</time>
      </trkpt>
      <trkpt lat="47.18692" lon="-1.78878">
        <ele>73</ele>
        <time>2021-02-07T08:37:22.000Z</time>
      </trkpt>
      <trkpt lat="47.18701" lon="-1.78884">
        <ele>72</ele>
        <time>2021-02-07T08:37:24.000Z</time>
      </trkpt>
      <trkpt lat="47.1871" lon="-1.7889">
        <ele>73</ele>
        <time>2021-02-07T08:37:26.000Z</time>
      </trkpt>
      <trkpt lat="47.18721" lon="-1.78882">
        <ele>72</ele>
        <time>2021-02-07T08:37:29.000Z</time>
      </trkpt>
      <trkpt lat="47.18726" lon="-1.78867">
        <ele>72</ele>
        <time>2021-02-07T08:37:31.000Z</time>
      </trkpt>
      <trkpt lat="47.18731" lon="-1.78852">
        <ele>71</ele>
        <time>2021-02-07T08:37:33.000Z</time>
      </trkpt>
      <trkpt lat="47.18736" lon="-1.78837">
        <ele>72</ele>
        <time>2021-02-07T08:37:35.000Z</time>
      </trkpt>
      <trkpt lat="47.18741" lon="-1.78823">
        <ele>71</ele>
        <time>2021-02-07T08:37:37.000Z</time>
      </trkpt>
      <trkpt lat="47.18746" lon="-1.78809">
        <ele>71</ele>
        <time>2021-02-07T08:37:39.000Z</time>
      </trkpt>
      <trkpt lat="47.18752" lon="-1.78795">
        <ele>71</ele>
        <time>2021-02-07T08:37:41.000Z</time>
      </trkpt>
      <trkpt lat="47.18757" lon="-1.7878">
        <ele>71</ele>
        <time>2021-02-07T08:37:43.000Z</time>
      </trkpt>
      <trkpt lat="47.18764" lon="-1.78767">
        <ele>71</ele>
        <time>2021-02-07T08:37:45.000Z</time>
      </trkpt>
      <trkpt lat="47.1877" lon="-1.78755">
        <ele>71</ele>
        <time>2021-02-07T08:37:47.000Z</time>
      </trkpt>
      <trkpt lat="47.18778" lon="-1.78743">
        <ele>71</ele>
        <time>2021-02-07T08:37:49.000Z</time>
      </trkpt>
      <trkpt lat="47.18786" lon="-1.78733">
        <ele>70</ele>
        <time>2021-02-07T08:37:51.000Z</time>
      </trkpt>
      <trkpt lat="47.18795" lon="-1.78722">
        <ele>69</ele>
        <time>2021-02-07T08:37:53.000Z</time>
      </trkpt>
      <trkpt lat="47.18805" lon="-1.78712">
        <ele>69</ele>
        <time>2021-02-07T08:37:55.000Z</time>
      </trkpt>
      <trkpt lat="47.18815" lon="-1.78703">
        <ele>69</ele>
        <time>2021-02-07T08:37:57.000Z</time>
      </trkpt>
      <trkpt lat="47.18824" lon="-1.78694">
        <ele>69</ele>
        <time>2021-02-07T08:37:59.000Z</time>
      </trkpt>
      <trkpt lat="47.18834" lon="-1.78683">
        <ele>68</ele>
        <time>2021-02-07T08:38:01.000Z</time>
      </trkpt>
      <trkpt lat="47.18843" lon="-1.78674">
        <ele>68</ele>
        <time>2021-02-07T08:38:03.000Z</time>
      </trkpt>
      <trkpt lat="47.18851" lon="-1.78664">
        <ele>68</ele>
        <time>2021-02-07T08:38:05.000Z</time>
      </trkpt>
      <trkpt lat="47.18861" lon="-1.78662">
        <ele>67</ele>
        <time>2021-02-07T08:38:07.000Z</time>
      </trkpt>
      <trkpt lat="47.18869" lon="-1.78675">
        <ele>68</ele>
        <time>2021-02-07T08:38:10.000Z</time>
      </trkpt>
      <trkpt lat="47.1887" lon="-1.78691">
        <ele>68</ele>
        <time>2021-02-07T08:38:12.000Z</time>
      </trkpt>
      <trkpt lat="47.18872" lon="-1.78707">
        <ele>68</ele>
        <time>2021-02-07T08:38:14.000Z</time>
      </trkpt>
      <trkpt lat="47.18873" lon="-1.78724">
        <ele>68</ele>
        <time>2021-02-07T08:38:16.000Z</time>
      </trkpt>
      <trkpt lat="47.18875" lon="-1.78741">
        <ele>68</ele>
        <time>2021-02-07T08:38:18.000Z</time>
      </trkpt>
      <trkpt lat="47.18878" lon="-1.78758">
        <ele>68</ele>
        <time>2021-02-07T08:38:20.000Z</time>
      </trkpt>
      <trkpt lat="47.1888" lon="-1.78776">
        <ele>68</ele>
        <time>2021-02-07T08:38:22.000Z</time>
      </trkpt>
      <trkpt lat="47.18881" lon="-1.78794">
        <ele>68</ele>
        <time>2021-02-07T08:38:24.000Z</time>
      </trkpt>
      <trkpt lat="47.18883" lon="-1.78812">
        <ele>67</ele>
        <time>2021-02-07T08:38:26.000Z</time>
      </trkpt>
      <trkpt lat="47.18884" lon="-1.7883">
        <ele>67</ele>
        <time>2021-02-07T08:38:28.000Z</time>
      </trkpt>
      <trkpt lat="47.18886" lon="-1.78847">
        <ele>68</ele>
        <time>2021-02-07T08:38:30.000Z</time>
      </trkpt>
      <trkpt lat="47.18888" lon="-1.78864">
        <ele>68</ele>
        <time>2021-02-07T08:38:32.000Z</time>
      </trkpt>
      <trkpt lat="47.1889" lon="-1.78882">
        <ele>68</ele>
        <time>2021-02-07T08:38:34.000Z</time>
      </trkpt>
      <trkpt lat="47.18892" lon="-1.789">
        <ele>68</ele>
        <time>2021-02-07T08:38:36.000Z</time>
      </trkpt>
      <trkpt lat="47.18893" lon="-1.78916">
        <ele>68</ele>
        <time>2021-02-07T08:38:38.000Z</time>
      </trkpt>
      <trkpt lat="47.18895" lon="-1.78933">
        <ele>68</ele>
        <time>2021-02-07T08:38:40.000Z</time>
      </trkpt>
      <trkpt lat="47.18897" lon="-1.7895">
        <ele>68</ele>
        <time>2021-02-07T08:38:42.000Z</time>
      </trkpt>
      <trkpt lat="47.18898" lon="-1.78968">
        <ele>68</ele>
        <time>2021-02-07T08:38:44.000Z</time>
      </trkpt>
      <trkpt lat="47.18899" lon="-1.78986">
        <ele>68</ele>
        <time>2021-02-07T08:38:46.000Z</time>
      </trkpt>
      <trkpt lat="47.18901" lon="-1.79003">
        <ele>69</ele>
        <time>2021-02-07T08:38:48.000Z</time>
      </trkpt>
      <trkpt lat="47.18902" lon="-1.7902">
        <ele>69</ele>
        <time>2021-02-07T08:38:50.000Z</time>
      </trkpt>
      <trkpt lat="47.18905" lon="-1.79037">
        <ele>70</ele>
        <time>2021-02-07T08:38:52.000Z</time>
      </trkpt>
      <trkpt lat="47.18907" lon="-1.79054">
        <ele>70</ele>
        <time>2021-02-07T08:38:54.000Z</time>
      </trkpt>
      <trkpt lat="47.18908" lon="-1.79072">
        <ele>70</ele>
        <time>2021-02-07T08:38:56.000Z</time>
      </trkpt>
      <trkpt lat="47.1891" lon="-1.7909">
        <ele>70</ele>
        <time>2021-02-07T08:38:58.000Z</time>
      </trkpt>
      <trkpt lat="47.18912" lon="-1.79107">
        <ele>70</ele>
        <time>2021-02-07T08:39:00.000Z</time>
      </trkpt>
      <trkpt lat="47.18914" lon="-1.79125">
        <ele>70</ele>
        <time>2021-02-07T08:39:02.000Z</time>
      </trkpt>
      <trkpt lat="47.18916" lon="-1.79142">
        <ele>70</ele>
        <time>2021-02-07T08:39:04.000Z</time>
      </trkpt>
      <trkpt lat="47.18918" lon="-1.7916">
        <ele>70</ele>
        <time>2021-02-07T08:39:06.000Z</time>
      </trkpt>
      <trkpt lat="47.18921" lon="-1.79179">
        <ele>70</ele>
        <time>2021-02-07T08:39:08.000Z</time>
      </trkpt>
      <trkpt lat="47.18924" lon="-1.79197">
        <ele>69</ele>
        <time>2021-02-07T08:39:10.000Z</time>
      </trkpt>
      <trkpt lat="47.18927" lon="-1.79215">
        <ele>69</ele>
        <time>2021-02-07T08:39:12.000Z</time>
      </trkpt>
      <trkpt lat="47.18931" lon="-1.79233">
        <ele>68</ele>
        <time>2021-02-07T08:39:14.000Z</time>
      </trkpt>
      <trkpt lat="47.18935" lon="-1.79249">
        <ele>70</ele>
        <time>2021-02-07T08:39:16.000Z</time>
      </trkpt>
      <trkpt lat="47.18939" lon="-1.79266">
        <ele>69</ele>
        <time>2021-02-07T08:39:18.000Z</time>
      </trkpt>
      <trkpt lat="47.18943" lon="-1.79281">
        <ele>69</ele>
        <time>2021-02-07T08:39:20.000Z</time>
      </trkpt>
      <trkpt lat="47.18946" lon="-1.79299">
        <ele>69</ele>
        <time>2021-02-07T08:39:22.000Z</time>
      </trkpt>
      <trkpt lat="47.18948" lon="-1.79317">
        <ele>69</ele>
        <time>2021-02-07T08:39:24.000Z</time>
      </trkpt>
      <trkpt lat="47.18949" lon="-1.79333">
        <ele>69</ele>
        <time>2021-02-07T08:39:26.000Z</time>
      </trkpt>
      <trkpt lat="47.18952" lon="-1.7935">
        <ele>68</ele>
        <time>2021-02-07T08:39:28.000Z</time>
      </trkpt>
      <trkpt lat="47.18955" lon="-1.79367">
        <ele>68</ele>
        <time>2021-02-07T08:39:30.000Z</time>
      </trkpt>
      <trkpt lat="47.18958" lon="-1.79384">
        <ele>69</ele>
        <time>2021-02-07T08:39:32.000Z</time>
      </trkpt>
      <trkpt lat="47.18961" lon="-1.79402">
        <ele>68</ele>
        <time>2021-02-07T08:39:34.000Z</time>
      </trkpt>
      <trkpt lat="47.18963" lon="-1.7942">
        <ele>67</ele>
        <time>2021-02-07T08:39:36.000Z</time>
      </trkpt>
      <trkpt lat="47.18965" lon="-1.79436">
        <ele>67</ele>
        <time>2021-02-07T08:39:38.000Z</time>
      </trkpt>
      <trkpt lat="47.18969" lon="-1.79452">
        <ele>66</ele>
        <time>2021-02-07T08:39:40.000Z</time>
      </trkpt>
      <trkpt lat="47.18971" lon="-1.79469">
        <ele>66</ele>
        <time>2021-02-07T08:39:42.000Z</time>
      </trkpt>
      <trkpt lat="47.18974" lon="-1.79486">
        <ele>65</ele>
        <time>2021-02-07T08:39:44.000Z</time>
      </trkpt>
      <trkpt lat="47.18977" lon="-1.79502">
        <ele>66</ele>
        <time>2021-02-07T08:39:46.000Z</time>
      </trkpt>
      <trkpt lat="47.18979" lon="-1.79518">
        <ele>66</ele>
        <time>2021-02-07T08:39:48.000Z</time>
      </trkpt>
      <trkpt lat="47.18983" lon="-1.79534">
        <ele>66</ele>
        <time>2021-02-07T08:39:50.000Z</time>
      </trkpt>
      <trkpt lat="47.18987" lon="-1.7955">
        <ele>66</ele>
        <time>2021-02-07T08:39:52.000Z</time>
      </trkpt>
      <trkpt lat="47.1899" lon="-1.79565">
        <ele>66</ele>
        <time>2021-02-07T08:39:54.000Z</time>
      </trkpt>
      <trkpt lat="47.18994" lon="-1.79581">
        <ele>66</ele>
        <time>2021-02-07T08:39:56.000Z</time>
      </trkpt>
      <trkpt lat="47.18997" lon="-1.79596">
        <ele>66</ele>
        <time>2021-02-07T08:39:58.000Z</time>
      </trkpt>
      <trkpt lat="47.19001" lon="-1.79613">
        <ele>66</ele>
        <time>2021-02-07T08:40:00.000Z</time>
      </trkpt>
      <trkpt lat="47.19004" lon="-1.79629">
        <ele>66</ele>
        <time>2021-02-07T08:40:02.000Z</time>
      </trkpt>
      <trkpt lat="47.19008" lon="-1.79644">
        <ele>66</ele>
        <time>2021-02-07T08:40:04.000Z</time>
      </trkpt>
      <trkpt lat="47.19012" lon="-1.7966">
        <ele>66</ele>
        <time>2021-02-07T08:40:06.000Z</time>
      </trkpt>
      <trkpt lat="47.19016" lon="-1.79675">
        <ele>66</ele>
        <time>2021-02-07T08:40:08.000Z</time>
      </trkpt>
      <trkpt lat="47.1902" lon="-1.79691">
        <ele>66</ele>
        <time>2021-02-07T08:40:10.000Z</time>
      </trkpt>
      <trkpt lat="47.19024" lon="-1.79706">
        <ele>66</ele>
        <time>2021-02-07T08:40:12.000Z</time>
      </trkpt>
      <trkpt lat="47.19028" lon="-1.79722">
        <ele>67</ele>
        <time>2021-02-07T08:40:14.000Z</time>
      </trkpt>
      <trkpt lat="47.19032" lon="-1.79739">
        <ele>66</ele>
        <time>2021-02-07T08:40:16.000Z</time>
      </trkpt>
      <trkpt lat="47.19037" lon="-1.79754">
        <ele>66</ele>
        <time>2021-02-07T08:40:18.000Z</time>
      </trkpt>
      <trkpt lat="47.19044" lon="-1.79766">
        <ele>67</ele>
        <time>2021-02-07T08:40:20.000Z</time>
      </trkpt>
      <trkpt lat="47.1905" lon="-1.79779">
        <ele>68</ele>
        <time>2021-02-07T08:40:22.000Z</time>
      </trkpt>
      <trkpt lat="47.19056" lon="-1.79794">
        <ele>68</ele>
        <time>2021-02-07T08:40:24.000Z</time>
      </trkpt>
      <trkpt lat="47.19063" lon="-1.79808">
        <ele>67</ele>
        <time>2021-02-07T08:40:26.000Z</time>
      </trkpt>
      <trkpt lat="47.19069" lon="-1.79823">
        <ele>67</ele>
        <time>2021-02-07T08:40:28.000Z</time>
      </trkpt>
      <trkpt lat="47.19075" lon="-1.79837">
        <ele>67</ele>
        <time>2021-02-07T08:40:30.000Z</time>
      </trkpt>
      <trkpt lat="47.19082" lon="-1.79851">
        <ele>67</ele>
        <time>2021-02-07T08:40:32.000Z</time>
      </trkpt>
      <trkpt lat="47.19088" lon="-1.79866">
        <ele>67</ele>
        <time>2021-02-07T08:40:34.000Z</time>
      </trkpt>
      <trkpt lat="47.19094" lon="-1.79881">
        <ele>67</ele>
        <time>2021-02-07T08:40:36.000Z</time>
      </trkpt>
      <trkpt lat="47.191" lon="-1.79896">
        <ele>66</ele>
        <time>2021-02-07T08:40:38.000Z</time>
      </trkpt>
      <trkpt lat="47.19106" lon="-1.79911">
        <ele>67</ele>
        <time>2021-02-07T08:40:40.000Z</time>
      </trkpt>
      <trkpt lat="47.19113" lon="-1.79925">
        <ele>67</ele>
        <time>2021-02-07T08:40:42.000Z</time>
      </trkpt>
      <trkpt lat="47.19119" lon="-1.79939">
        <ele>67</ele>
        <time>2021-02-07T08:40:44.000Z</time>
      </trkpt>
      <trkpt lat="47.19126" lon="-1.79954">
        <ele>68</ele>
        <time>2021-02-07T08:40:46.000Z</time>
      </trkpt>
      <trkpt lat="47.19132" lon="-1.79968">
        <ele>68</ele>
        <time>2021-02-07T08:40:48.000Z</time>
      </trkpt>
      <trkpt lat="47.19138" lon="-1.79983">
        <ele>67</ele>
        <time>2021-02-07T08:40:50.000Z</time>
      </trkpt>
      <trkpt lat="47.19144" lon="-1.79997">
        <ele>67</ele>
        <time>2021-02-07T08:40:52.000Z</time>
      </trkpt>
      <trkpt lat="47.1915" lon="-1.8001">
        <ele>67</ele>
        <time>2021-02-07T08:40:54.000Z</time>
      </trkpt>
      <trkpt lat="47.19156" lon="-1.80024">
        <ele>67</ele>
        <time>2021-02-07T08:40:56.000Z</time>
      </trkpt>
      <trkpt lat="47.19163" lon="-1.80038">
        <ele>66</ele>
        <time>2021-02-07T08:40:58.000Z</time>
      </trkpt>
      <trkpt lat="47.19169" lon="-1.80052">
        <ele>67</ele>
        <time>2021-02-07T08:41:00.000Z</time>
      </trkpt>
      <trkpt lat="47.19177" lon="-1.80066">
        <ele>67</ele>
        <time>2021-02-07T08:41:02.000Z</time>
      </trkpt>
      <trkpt lat="47.19184" lon="-1.8008">
        <ele>67</ele>
        <time>2021-02-07T08:41:04.000Z</time>
      </trkpt>
      <trkpt lat="47.19191" lon="-1.80094">
        <ele>67</ele>
        <time>2021-02-07T08:41:06.000Z</time>
      </trkpt>
      <trkpt lat="47.19198" lon="-1.80107">
        <ele>67</ele>
        <time>2021-02-07T08:41:08.000Z</time>
      </trkpt>
      <trkpt lat="47.19205" lon="-1.80122">
        <ele>67</ele>
        <time>2021-02-07T08:41:10.000Z</time>
      </trkpt>
      <trkpt lat="47.19213" lon="-1.80136">
        <ele>68</ele>
        <time>2021-02-07T08:41:12.000Z</time>
      </trkpt>
      <trkpt lat="47.19218" lon="-1.8015">
        <ele>68</ele>
        <time>2021-02-07T08:41:14.000Z</time>
      </trkpt>
      <trkpt lat="47.19225" lon="-1.80165">
        <ele>68</ele>
        <time>2021-02-07T08:41:16.000Z</time>
      </trkpt>
      <trkpt lat="47.19231" lon="-1.8018">
        <ele>67</ele>
        <time>2021-02-07T08:41:18.000Z</time>
      </trkpt>
      <trkpt lat="47.19236" lon="-1.80197">
        <ele>67</ele>
        <time>2021-02-07T08:41:20.000Z</time>
      </trkpt>
      <trkpt lat="47.19241" lon="-1.80214">
        <ele>66</ele>
        <time>2021-02-07T08:41:22.000Z</time>
      </trkpt>
      <trkpt lat="47.19246" lon="-1.8023">
        <ele>66</ele>
        <time>2021-02-07T08:41:24.000Z</time>
      </trkpt>
      <trkpt lat="47.19251" lon="-1.80248">
        <ele>66</ele>
        <time>2021-02-07T08:41:26.000Z</time>
      </trkpt>
      <trkpt lat="47.19255" lon="-1.80266">
        <ele>66</ele>
        <time>2021-02-07T08:41:28.000Z</time>
      </trkpt>
      <trkpt lat="47.1926" lon="-1.80284">
        <ele>66</ele>
        <time>2021-02-07T08:41:30.000Z</time>
      </trkpt>
      <trkpt lat="47.19265" lon="-1.80302">
        <ele>66</ele>
        <time>2021-02-07T08:41:32.000Z</time>
      </trkpt>
      <trkpt lat="47.1927" lon="-1.80319">
        <ele>66</ele>
        <time>2021-02-07T08:41:34.000Z</time>
      </trkpt>
      <trkpt lat="47.19274" lon="-1.80336">
        <ele>66</ele>
        <time>2021-02-07T08:41:36.000Z</time>
      </trkpt>
      <trkpt lat="47.1928" lon="-1.80352">
        <ele>65</ele>
        <time>2021-02-07T08:41:38.000Z</time>
      </trkpt>
      <trkpt lat="47.19285" lon="-1.8037">
        <ele>65</ele>
        <time>2021-02-07T08:41:40.000Z</time>
      </trkpt>
      <trkpt lat="47.1929" lon="-1.80387">
        <ele>65</ele>
        <time>2021-02-07T08:41:42.000Z</time>
      </trkpt>
      <trkpt lat="47.19296" lon="-1.80403">
        <ele>64</ele>
        <time>2021-02-07T08:41:44.000Z</time>
      </trkpt>
      <trkpt lat="47.19301" lon="-1.80421">
        <ele>64</ele>
        <time>2021-02-07T08:41:46.000Z</time>
      </trkpt>
      <trkpt lat="47.19307" lon="-1.80437">
        <ele>64</ele>
        <time>2021-02-07T08:41:48.000Z</time>
      </trkpt>
      <trkpt lat="47.19313" lon="-1.80454">
        <ele>64</ele>
        <time>2021-02-07T08:41:50.000Z</time>
      </trkpt>
      <trkpt lat="47.19318" lon="-1.80472">
        <ele>63</ele>
        <time>2021-02-07T08:41:52.000Z</time>
      </trkpt>
      <trkpt lat="47.19324" lon="-1.80489">
        <ele>64</ele>
        <time>2021-02-07T08:41:54.000Z</time>
      </trkpt>
      <trkpt lat="47.1933" lon="-1.80506">
        <ele>63</ele>
        <time>2021-02-07T08:41:56.000Z</time>
      </trkpt>
      <trkpt lat="47.19336" lon="-1.80524">
        <ele>63</ele>
        <time>2021-02-07T08:41:58.000Z</time>
      </trkpt>
      <trkpt lat="47.19341" lon="-1.80542">
        <ele>63</ele>
        <time>2021-02-07T08:42:00.000Z</time>
      </trkpt>
      <trkpt lat="47.19345" lon="-1.8056">
        <ele>63</ele>
        <time>2021-02-07T08:42:02.000Z</time>
      </trkpt>
      <trkpt lat="47.19348" lon="-1.80577">
        <ele>63</ele>
        <time>2021-02-07T08:42:04.000Z</time>
      </trkpt>
      <trkpt lat="47.19351" lon="-1.80595">
        <ele>63</ele>
        <time>2021-02-07T08:42:06.000Z</time>
      </trkpt>
      <trkpt lat="47.19353" lon="-1.80613">
        <ele>63</ele>
        <time>2021-02-07T08:42:08.000Z</time>
      </trkpt>
      <trkpt lat="47.19356" lon="-1.80631">
        <ele>63</ele>
        <time>2021-02-07T08:42:10.000Z</time>
      </trkpt>
      <trkpt lat="47.19358" lon="-1.80647">
        <ele>63</ele>
        <time>2021-02-07T08:42:12.000Z</time>
      </trkpt>
      <trkpt lat="47.19359" lon="-1.80663">
        <ele>62</ele>
        <time>2021-02-07T08:42:14.000Z</time>
      </trkpt>
      <trkpt lat="47.19356" lon="-1.8068">
        <ele>61</ele>
        <time>2021-02-07T08:42:16.000Z</time>
      </trkpt>
      <trkpt lat="47.19353" lon="-1.80698">
        <ele>62</ele>
        <time>2021-02-07T08:42:18.000Z</time>
      </trkpt>
      <trkpt lat="47.19351" lon="-1.80714">
        <ele>62</ele>
        <time>2021-02-07T08:42:20.000Z</time>
      </trkpt>
      <trkpt lat="47.1935" lon="-1.80732">
        <ele>62</ele>
        <time>2021-02-07T08:42:22.000Z</time>
      </trkpt>
      <trkpt lat="47.1935" lon="-1.8075">
        <ele>62</ele>
        <time>2021-02-07T08:42:24.000Z</time>
      </trkpt>
      <trkpt lat="47.19354" lon="-1.80768">
        <ele>62</ele>
        <time>2021-02-07T08:42:26.000Z</time>
      </trkpt>
      <trkpt lat="47.19358" lon="-1.80786">
        <ele>60</ele>
        <time>2021-02-07T08:42:28.000Z</time>
      </trkpt>
      <trkpt lat="47.19362" lon="-1.80805">
        <ele>59</ele>
        <time>2021-02-07T08:42:30.000Z</time>
      </trkpt>
      <trkpt lat="47.19365" lon="-1.80824">
        <ele>59</ele>
        <time>2021-02-07T08:42:32.000Z</time>
      </trkpt>
      <trkpt lat="47.19368" lon="-1.80842">
        <ele>60</ele>
        <time>2021-02-07T08:42:34.000Z</time>
      </trkpt>
      <trkpt lat="47.19371" lon="-1.80861">
        <ele>60</ele>
        <time>2021-02-07T08:42:36.000Z</time>
      </trkpt>
      <trkpt lat="47.19374" lon="-1.8088">
        <ele>60</ele>
        <time>2021-02-07T08:42:38.000Z</time>
      </trkpt>
      <trkpt lat="47.19376" lon="-1.80899">
        <ele>60</ele>
        <time>2021-02-07T08:42:40.000Z</time>
      </trkpt>
      <trkpt lat="47.19378" lon="-1.80918">
        <ele>61</ele>
        <time>2021-02-07T08:42:42.000Z</time>
      </trkpt>
      <trkpt lat="47.19381" lon="-1.80936">
        <ele>61</ele>
        <time>2021-02-07T08:42:44.000Z</time>
      </trkpt>
      <trkpt lat="47.19383" lon="-1.80954">
        <ele>62</ele>
        <time>2021-02-07T08:42:46.000Z</time>
      </trkpt>
      <trkpt lat="47.19385" lon="-1.80971">
        <ele>61</ele>
        <time>2021-02-07T08:42:48.000Z</time>
      </trkpt>
      <trkpt lat="47.19387" lon="-1.80989">
        <ele>62</ele>
        <time>2021-02-07T08:42:50.000Z</time>
      </trkpt>
      <trkpt lat="47.19391" lon="-1.81007">
        <ele>61</ele>
        <time>2021-02-07T08:42:52.000Z</time>
      </trkpt>
      <trkpt lat="47.19393" lon="-1.81025">
        <ele>61</ele>
        <time>2021-02-07T08:42:54.000Z</time>
      </trkpt>
      <trkpt lat="47.19397" lon="-1.81041">
        <ele>61</ele>
        <time>2021-02-07T08:42:56.000Z</time>
      </trkpt>
      <trkpt lat="47.19399" lon="-1.81058">
        <ele>61</ele>
        <time>2021-02-07T08:42:58.000Z</time>
      </trkpt>
      <trkpt lat="47.19401" lon="-1.81075">
        <ele>60</ele>
        <time>2021-02-07T08:43:00.000Z</time>
      </trkpt>
      <trkpt lat="47.19402" lon="-1.81093">
        <ele>59</ele>
        <time>2021-02-07T08:43:02.000Z</time>
      </trkpt>
      <trkpt lat="47.19404" lon="-1.81107">
        <ele>59</ele>
        <time>2021-02-07T08:43:04.000Z</time>
      </trkpt>
      <trkpt lat="47.19411" lon="-1.81117">
        <ele>59</ele>
        <time>2021-02-07T08:43:06.000Z</time>
      </trkpt>
      <trkpt lat="47.19421" lon="-1.81122">
        <ele>60</ele>
        <time>2021-02-07T08:43:08.000Z</time>
      </trkpt>
      <trkpt lat="47.19433" lon="-1.81121">
        <ele>60</ele>
        <time>2021-02-07T08:43:10.000Z</time>
      </trkpt>
      <trkpt lat="47.19446" lon="-1.8112">
        <ele>59</ele>
        <time>2021-02-07T08:43:12.000Z</time>
      </trkpt>
      <trkpt lat="47.19459" lon="-1.8112">
        <ele>59</ele>
        <time>2021-02-07T08:43:14.000Z</time>
      </trkpt>
      <trkpt lat="47.19472" lon="-1.81119">
        <ele>59</ele>
        <time>2021-02-07T08:43:16.000Z</time>
      </trkpt>
      <trkpt lat="47.19484" lon="-1.81118">
        <ele>58</ele>
        <time>2021-02-07T08:43:18.000Z</time>
      </trkpt>
      <trkpt lat="47.19497" lon="-1.81118">
        <ele>58</ele>
        <time>2021-02-07T08:43:20.000Z</time>
      </trkpt>
      <trkpt lat="47.19509" lon="-1.81117">
        <ele>58</ele>
        <time>2021-02-07T08:43:22.000Z</time>
      </trkpt>
      <trkpt lat="47.19522" lon="-1.81117">
        <ele>58</ele>
        <time>2021-02-07T08:43:24.000Z</time>
      </trkpt>
      <trkpt lat="47.19535" lon="-1.81116">
        <ele>57</ele>
        <time>2021-02-07T08:43:26.000Z</time>
      </trkpt>
      <trkpt lat="47.19548" lon="-1.81117">
        <ele>57</ele>
        <time>2021-02-07T08:43:28.000Z</time>
      </trkpt>
      <trkpt lat="47.19561" lon="-1.81117">
        <ele>56</ele>
        <time>2021-02-07T08:43:30.000Z</time>
      </trkpt>
      <trkpt lat="47.19574" lon="-1.81117">
        <ele>55</ele>
        <time>2021-02-07T08:43:32.000Z</time>
      </trkpt>
      <trkpt lat="47.19587" lon="-1.81117">
        <ele>55</ele>
        <time>2021-02-07T08:43:34.000Z</time>
      </trkpt>
      <trkpt lat="47.196" lon="-1.81116">
        <ele>54</ele>
        <time>2021-02-07T08:43:36.000Z</time>
      </trkpt>
      <trkpt lat="47.19613" lon="-1.81116">
        <ele>53</ele>
        <time>2021-02-07T08:43:38.000Z</time>
      </trkpt>
      <trkpt lat="47.19626" lon="-1.81116">
        <ele>53</ele>
        <time>2021-02-07T08:43:40.000Z</time>
      </trkpt>
      <trkpt lat="47.19639" lon="-1.81116">
        <ele>54</ele>
        <time>2021-02-07T08:43:42.000Z</time>
      </trkpt>
      <trkpt lat="47.19652" lon="-1.81116">
        <ele>54</ele>
        <time>2021-02-07T08:43:44.000Z</time>
      </trkpt>
      <trkpt lat="47.19663" lon="-1.81116">
        <ele>54</ele>
        <time>2021-02-07T08:43:46.000Z</time>
      </trkpt>
      <trkpt lat="47.19675" lon="-1.81117">
        <ele>54</ele>
        <time>2021-02-07T08:43:48.000Z</time>
      </trkpt>
      <trkpt lat="47.19685" lon="-1.81117">
        <ele>53</ele>
        <time>2021-02-07T08:43:50.000Z</time>
      </trkpt>
      <trkpt lat="47.19695" lon="-1.81117">
        <ele>53</ele>
        <time>2021-02-07T08:43:53.000Z</time>
      </trkpt>
      <trkpt lat="47.19705" lon="-1.81129">
        <ele>52</ele>
        <time>2021-02-07T08:43:57.000Z</time>
      </trkpt>
      <trkpt lat="47.19708" lon="-1.81142">
        <ele>52</ele>
        <time>2021-02-07T08:43:59.000Z</time>
      </trkpt>
      <trkpt lat="47.19711" lon="-1.81158">
        <ele>53</ele>
        <time>2021-02-07T08:44:01.000Z</time>
      </trkpt>
      <trkpt lat="47.19713" lon="-1.81173">
        <ele>53</ele>
        <time>2021-02-07T08:44:03.000Z</time>
      </trkpt>
      <trkpt lat="47.19717" lon="-1.81188">
        <ele>53</ele>
        <time>2021-02-07T08:44:05.000Z</time>
      </trkpt>
      <trkpt lat="47.19722" lon="-1.81203">
        <ele>53</ele>
        <time>2021-02-07T08:44:07.000Z</time>
      </trkpt>
      <trkpt lat="47.19728" lon="-1.81216">
        <ele>54</ele>
        <time>2021-02-07T08:44:09.000Z</time>
      </trkpt>
      <trkpt lat="47.19735" lon="-1.81229">
        <ele>54</ele>
        <time>2021-02-07T08:44:11.000Z</time>
      </trkpt>
      <trkpt lat="47.19743" lon="-1.81241">
        <ele>54</ele>
        <time>2021-02-07T08:44:13.000Z</time>
      </trkpt>
      <trkpt lat="47.1975" lon="-1.81251">
        <ele>54</ele>
        <time>2021-02-07T08:44:15.000Z</time>
      </trkpt>
      <trkpt lat="47.19757" lon="-1.81263">
        <ele>54</ele>
        <time>2021-02-07T08:44:17.000Z</time>
      </trkpt>
      <trkpt lat="47.19764" lon="-1.81276">
        <ele>54</ele>
        <time>2021-02-07T08:44:19.000Z</time>
      </trkpt>
      <trkpt lat="47.19769" lon="-1.81289">
        <ele>54</ele>
        <time>2021-02-07T08:44:21.000Z</time>
      </trkpt>
      <trkpt lat="47.19774" lon="-1.81302">
        <ele>55</ele>
        <time>2021-02-07T08:44:23.000Z</time>
      </trkpt>
      <trkpt lat="47.19779" lon="-1.81314">
        <ele>55</ele>
        <time>2021-02-07T08:44:25.000Z</time>
      </trkpt>
      <trkpt lat="47.19782" lon="-1.81328">
        <ele>55</ele>
        <time>2021-02-07T08:44:27.000Z</time>
      </trkpt>
      <trkpt lat="47.19786" lon="-1.81341">
        <ele>55</ele>
        <time>2021-02-07T08:44:29.000Z</time>
      </trkpt>
      <trkpt lat="47.1979" lon="-1.81353">
        <ele>55</ele>
        <time>2021-02-07T08:44:31.000Z</time>
      </trkpt>
      <trkpt lat="47.19794" lon="-1.81366">
        <ele>56</ele>
        <time>2021-02-07T08:44:33.000Z</time>
      </trkpt>
      <trkpt lat="47.19797" lon="-1.81379">
        <ele>56</ele>
        <time>2021-02-07T08:44:35.000Z</time>
      </trkpt>
      <trkpt lat="47.19801" lon="-1.81392">
        <ele>56</ele>
        <time>2021-02-07T08:44:37.000Z</time>
      </trkpt>
      <trkpt lat="47.19805" lon="-1.81405">
        <ele>57</ele>
        <time>2021-02-07T08:44:39.000Z</time>
      </trkpt>
      <trkpt lat="47.19809" lon="-1.81418">
        <ele>57</ele>
        <time>2021-02-07T08:44:41.000Z</time>
      </trkpt>
      <trkpt lat="47.19813" lon="-1.81431">
        <ele>57</ele>
        <time>2021-02-07T08:44:43.000Z</time>
      </trkpt>
      <trkpt lat="47.19817" lon="-1.81443">
        <ele>57</ele>
        <time>2021-02-07T08:44:45.000Z</time>
      </trkpt>
      <trkpt lat="47.19821" lon="-1.81456">
        <ele>57</ele>
        <time>2021-02-07T08:44:47.000Z</time>
      </trkpt>
      <trkpt lat="47.19826" lon="-1.81468">
        <ele>57</ele>
        <time>2021-02-07T08:44:49.000Z</time>
      </trkpt>
      <trkpt lat="47.1983" lon="-1.8148">
        <ele>58</ele>
        <time>2021-02-07T08:44:51.000Z</time>
      </trkpt>
      <trkpt lat="47.19835" lon="-1.81493">
        <ele>58</ele>
        <time>2021-02-07T08:44:53.000Z</time>
      </trkpt>
      <trkpt lat="47.19839" lon="-1.81505">
        <ele>59</ele>
        <time>2021-02-07T08:44:55.000Z</time>
      </trkpt>
      <trkpt lat="47.19844" lon="-1.81518">
        <ele>59</ele>
        <time>2021-02-07T08:44:57.000Z</time>
      </trkpt>
      <trkpt lat="47.19848" lon="-1.8153">
        <ele>58</ele>
        <time>2021-02-07T08:44:59.000Z</time>
      </trkpt>
      <trkpt lat="47.19853" lon="-1.81543">
        <ele>59</ele>
        <time>2021-02-07T08:45:01.000Z</time>
      </trkpt>
      <trkpt lat="47.19857" lon="-1.81555">
        <ele>59</ele>
        <time>2021-02-07T08:45:03.000Z</time>
      </trkpt>
      <trkpt lat="47.19862" lon="-1.81569">
        <ele>59</ele>
        <time>2021-02-07T08:45:05.000Z</time>
      </trkpt>
      <trkpt lat="47.19865" lon="-1.81581">
        <ele>59</ele>
        <time>2021-02-07T08:45:07.000Z</time>
      </trkpt>
      <trkpt lat="47.19869" lon="-1.81595">
        <ele>60</ele>
        <time>2021-02-07T08:45:09.000Z</time>
      </trkpt>
      <trkpt lat="47.19872" lon="-1.81609">
        <ele>60</ele>
        <time>2021-02-07T08:45:11.000Z</time>
      </trkpt>
      <trkpt lat="47.19876" lon="-1.81623">
        <ele>60</ele>
        <time>2021-02-07T08:45:13.000Z</time>
      </trkpt>
      <trkpt lat="47.19878" lon="-1.81637">
        <ele>60</ele>
        <time>2021-02-07T08:45:15.000Z</time>
      </trkpt>
      <trkpt lat="47.1988" lon="-1.81651">
        <ele>60</ele>
        <time>2021-02-07T08:45:17.000Z</time>
      </trkpt>
      <trkpt lat="47.19881" lon="-1.81665">
        <ele>60</ele>
        <time>2021-02-07T08:45:19.000Z</time>
      </trkpt>
      <trkpt lat="47.19884" lon="-1.8168">
        <ele>61</ele>
        <time>2021-02-07T08:45:21.000Z</time>
      </trkpt>
      <trkpt lat="47.19886" lon="-1.81695">
        <ele>61</ele>
        <time>2021-02-07T08:45:23.000Z</time>
      </trkpt>
      <trkpt lat="47.19887" lon="-1.81709">
        <ele>60</ele>
        <time>2021-02-07T08:45:25.000Z</time>
      </trkpt>
      <trkpt lat="47.1989" lon="-1.81723">
        <ele>61</ele>
        <time>2021-02-07T08:45:27.000Z</time>
      </trkpt>
      <trkpt lat="47.19893" lon="-1.81737">
        <ele>61</ele>
        <time>2021-02-07T08:45:29.000Z</time>
      </trkpt>
      <trkpt lat="47.19896" lon="-1.81751">
        <ele>61</ele>
        <time>2021-02-07T08:45:31.000Z</time>
      </trkpt>
      <trkpt lat="47.19898" lon="-1.81765">
        <ele>62</ele>
        <time>2021-02-07T08:45:33.000Z</time>
      </trkpt>
      <trkpt lat="47.19901" lon="-1.81778">
        <ele>62</ele>
        <time>2021-02-07T08:45:35.000Z</time>
      </trkpt>
      <trkpt lat="47.19905" lon="-1.81792">
        <ele>63</ele>
        <time>2021-02-07T08:45:37.000Z</time>
      </trkpt>
      <trkpt lat="47.19908" lon="-1.81805">
        <ele>63</ele>
        <time>2021-02-07T08:45:39.000Z</time>
      </trkpt>
      <trkpt lat="47.1991" lon="-1.81819">
        <ele>63</ele>
        <time>2021-02-07T08:45:41.000Z</time>
      </trkpt>
      <trkpt lat="47.19913" lon="-1.81833">
        <ele>63</ele>
        <time>2021-02-07T08:45:43.000Z</time>
      </trkpt>
      <trkpt lat="47.19916" lon="-1.81848">
        <ele>63</ele>
        <time>2021-02-07T08:45:45.000Z</time>
      </trkpt>
      <trkpt lat="47.19918" lon="-1.81861">
        <ele>64</ele>
        <time>2021-02-07T08:45:47.000Z</time>
      </trkpt>
      <trkpt lat="47.19921" lon="-1.81874">
        <ele>64</ele>
        <time>2021-02-07T08:45:49.000Z</time>
      </trkpt>
      <trkpt lat="47.19924" lon="-1.81888">
        <ele>63</ele>
        <time>2021-02-07T08:45:51.000Z</time>
      </trkpt>
      <trkpt lat="47.19926" lon="-1.81902">
        <ele>63</ele>
        <time>2021-02-07T08:45:53.000Z</time>
      </trkpt>
      <trkpt lat="47.19929" lon="-1.81916">
        <ele>63</ele>
        <time>2021-02-07T08:45:55.000Z</time>
      </trkpt>
      <trkpt lat="47.19932" lon="-1.81931">
        <ele>64</ele>
        <time>2021-02-07T08:45:57.000Z</time>
      </trkpt>
      <trkpt lat="47.19934" lon="-1.81946">
        <ele>64</ele>
        <time>2021-02-07T08:45:59.000Z</time>
      </trkpt>
      <trkpt lat="47.19936" lon="-1.81961">
        <ele>64</ele>
        <time>2021-02-07T08:46:01.000Z</time>
      </trkpt>
      <trkpt lat="47.19939" lon="-1.81975">
        <ele>64</ele>
        <time>2021-02-07T08:46:03.000Z</time>
      </trkpt>
      <trkpt lat="47.19941" lon="-1.81989">
        <ele>64</ele>
        <time>2021-02-07T08:46:05.000Z</time>
      </trkpt>
      <trkpt lat="47.19944" lon="-1.82003">
        <ele>65</ele>
        <time>2021-02-07T08:46:07.000Z</time>
      </trkpt>
      <trkpt lat="47.19946" lon="-1.82018">
        <ele>65</ele>
        <time>2021-02-07T08:46:09.000Z</time>
      </trkpt>
      <trkpt lat="47.19949" lon="-1.82032">
        <ele>65</ele>
        <time>2021-02-07T08:46:11.000Z</time>
      </trkpt>
      <trkpt lat="47.19951" lon="-1.82046">
        <ele>65</ele>
        <time>2021-02-07T08:46:13.000Z</time>
      </trkpt>
      <trkpt lat="47.19953" lon="-1.82061">
        <ele>66</ele>
        <time>2021-02-07T08:46:15.000Z</time>
      </trkpt>
      <trkpt lat="47.19956" lon="-1.82076">
        <ele>66</ele>
        <time>2021-02-07T08:46:17.000Z</time>
      </trkpt>
      <trkpt lat="47.19958" lon="-1.82091">
        <ele>66</ele>
        <time>2021-02-07T08:46:19.000Z</time>
      </trkpt>
      <trkpt lat="47.19959" lon="-1.82105">
        <ele>66</ele>
        <time>2021-02-07T08:46:21.000Z</time>
      </trkpt>
      <trkpt lat="47.19959" lon="-1.8212">
        <ele>66</ele>
        <time>2021-02-07T08:46:23.000Z</time>
      </trkpt>
      <trkpt lat="47.19958" lon="-1.82135">
        <ele>67</ele>
        <time>2021-02-07T08:46:25.000Z</time>
      </trkpt>
      <trkpt lat="47.19955" lon="-1.82149">
        <ele>67</ele>
        <time>2021-02-07T08:46:27.000Z</time>
      </trkpt>
      <trkpt lat="47.19951" lon="-1.82162">
        <ele>67</ele>
        <time>2021-02-07T08:46:29.000Z</time>
      </trkpt>
      <trkpt lat="47.19946" lon="-1.82176">
        <ele>67</ele>
        <time>2021-02-07T08:46:31.000Z</time>
      </trkpt>
      <trkpt lat="47.19941" lon="-1.82189">
        <ele>67</ele>
        <time>2021-02-07T08:46:33.000Z</time>
      </trkpt>
      <trkpt lat="47.19935" lon="-1.82202">
        <ele>67</ele>
        <time>2021-02-07T08:46:35.000Z</time>
      </trkpt>
      <trkpt lat="47.1993" lon="-1.82215">
        <ele>68</ele>
        <time>2021-02-07T08:46:37.000Z</time>
      </trkpt>
      <trkpt lat="47.19925" lon="-1.82227">
        <ele>68</ele>
        <time>2021-02-07T08:46:39.000Z</time>
      </trkpt>
      <trkpt lat="47.1992" lon="-1.82239">
        <ele>68</ele>
        <time>2021-02-07T08:46:41.000Z</time>
      </trkpt>
      <trkpt lat="47.19914" lon="-1.82253">
        <ele>68</ele>
        <time>2021-02-07T08:46:43.000Z</time>
      </trkpt>
      <trkpt lat="47.19909" lon="-1.82265">
        <ele>69</ele>
        <time>2021-02-07T08:46:45.000Z</time>
      </trkpt>
      <trkpt lat="47.19904" lon="-1.82278">
        <ele>68</ele>
        <time>2021-02-07T08:46:47.000Z</time>
      </trkpt>
      <trkpt lat="47.19899" lon="-1.82291">
        <ele>68</ele>
        <time>2021-02-07T08:46:49.000Z</time>
      </trkpt>
      <trkpt lat="47.19893" lon="-1.82303">
        <ele>68</ele>
        <time>2021-02-07T08:46:51.000Z</time>
      </trkpt>
      <trkpt lat="47.19888" lon="-1.82316">
        <ele>68</ele>
        <time>2021-02-07T08:46:53.000Z</time>
      </trkpt>
      <trkpt lat="47.19882" lon="-1.82329">
        <ele>68</ele>
        <time>2021-02-07T08:46:55.000Z</time>
      </trkpt>
      <trkpt lat="47.19876" lon="-1.82343">
        <ele>67</ele>
        <time>2021-02-07T08:46:57.000Z</time>
      </trkpt>
      <trkpt lat="47.19872" lon="-1.82356">
        <ele>67</ele>
        <time>2021-02-07T08:46:59.000Z</time>
      </trkpt>
      <trkpt lat="47.19867" lon="-1.8237">
        <ele>67</ele>
        <time>2021-02-07T08:47:01.000Z</time>
      </trkpt>
      <trkpt lat="47.19862" lon="-1.82384">
        <ele>67</ele>
        <time>2021-02-07T08:47:03.000Z</time>
      </trkpt>
      <trkpt lat="47.19858" lon="-1.82398">
        <ele>67</ele>
        <time>2021-02-07T08:47:05.000Z</time>
      </trkpt>
      <trkpt lat="47.19853" lon="-1.82412">
        <ele>68</ele>
        <time>2021-02-07T08:47:07.000Z</time>
      </trkpt>
      <trkpt lat="47.19848" lon="-1.82425">
        <ele>68</ele>
        <time>2021-02-07T08:47:09.000Z</time>
      </trkpt>
      <trkpt lat="47.19844" lon="-1.82438">
        <ele>68</ele>
        <time>2021-02-07T08:47:11.000Z</time>
      </trkpt>
      <trkpt lat="47.19838" lon="-1.82449">
        <ele>69</ele>
        <time>2021-02-07T08:47:13.000Z</time>
      </trkpt>
      <trkpt lat="47.19832" lon="-1.82461">
        <ele>69</ele>
        <time>2021-02-07T08:47:15.000Z</time>
      </trkpt>
      <trkpt lat="47.19825" lon="-1.82473">
        <ele>69</ele>
        <time>2021-02-07T08:47:17.000Z</time>
      </trkpt>
      <trkpt lat="47.19818" lon="-1.82485">
        <ele>69</ele>
        <time>2021-02-07T08:47:19.000Z</time>
      </trkpt>
      <trkpt lat="47.19812" lon="-1.82497">
        <ele>69</ele>
        <time>2021-02-07T08:47:21.000Z</time>
      </trkpt>
      <trkpt lat="47.19804" lon="-1.82509">
        <ele>69</ele>
        <time>2021-02-07T08:47:23.000Z</time>
      </trkpt>
      <trkpt lat="47.19797" lon="-1.82521">
        <ele>69</ele>
        <time>2021-02-07T08:47:25.000Z</time>
      </trkpt>
      <trkpt lat="47.19789" lon="-1.82532">
        <ele>69</ele>
        <time>2021-02-07T08:47:27.000Z</time>
      </trkpt>
      <trkpt lat="47.19782" lon="-1.82544">
        <ele>70</ele>
        <time>2021-02-07T08:47:29.000Z</time>
      </trkpt>
      <trkpt lat="47.19775" lon="-1.82556">
        <ele>70</ele>
        <time>2021-02-07T08:47:31.000Z</time>
      </trkpt>
      <trkpt lat="47.19768" lon="-1.82567">
        <ele>70</ele>
        <time>2021-02-07T08:47:33.000Z</time>
      </trkpt>
      <trkpt lat="47.1976" lon="-1.8258">
        <ele>71</ele>
        <time>2021-02-07T08:47:35.000Z</time>
      </trkpt>
      <trkpt lat="47.19753" lon="-1.82592">
        <ele>71</ele>
        <time>2021-02-07T08:47:37.000Z</time>
      </trkpt>
      <trkpt lat="47.19745" lon="-1.82604">
        <ele>71</ele>
        <time>2021-02-07T08:47:39.000Z</time>
      </trkpt>
      <trkpt lat="47.19739" lon="-1.82617">
        <ele>71</ele>
        <time>2021-02-07T08:47:41.000Z</time>
      </trkpt>
      <trkpt lat="47.19733" lon="-1.8263">
        <ele>71</ele>
        <time>2021-02-07T08:47:43.000Z</time>
      </trkpt>
      <trkpt lat="47.19729" lon="-1.82646">
        <ele>71</ele>
        <time>2021-02-07T08:47:45.000Z</time>
      </trkpt>
      <trkpt lat="47.19725" lon="-1.82661">
        <ele>70</ele>
        <time>2021-02-07T08:47:47.000Z</time>
      </trkpt>
      <trkpt lat="47.1972" lon="-1.82677">
        <ele>69</ele>
        <time>2021-02-07T08:47:49.000Z</time>
      </trkpt>
      <trkpt lat="47.19716" lon="-1.82692">
        <ele>69</ele>
        <time>2021-02-07T08:47:51.000Z</time>
      </trkpt>
      <trkpt lat="47.19712" lon="-1.82707">
        <ele>69</ele>
        <time>2021-02-07T08:47:53.000Z</time>
      </trkpt>
      <trkpt lat="47.19708" lon="-1.82722">
        <ele>69</ele>
        <time>2021-02-07T08:47:55.000Z</time>
      </trkpt>
      <trkpt lat="47.19704" lon="-1.82739">
        <ele>69</ele>
        <time>2021-02-07T08:47:57.000Z</time>
      </trkpt>
      <trkpt lat="47.19701" lon="-1.82755">
        <ele>69</ele>
        <time>2021-02-07T08:47:59.000Z</time>
      </trkpt>
      <trkpt lat="47.19697" lon="-1.82771">
        <ele>69</ele>
        <time>2021-02-07T08:48:01.000Z</time>
      </trkpt>
      <trkpt lat="47.19695" lon="-1.82787">
        <ele>69</ele>
        <time>2021-02-07T08:48:03.000Z</time>
      </trkpt>
      <trkpt lat="47.19691" lon="-1.82802">
        <ele>69</ele>
        <time>2021-02-07T08:48:05.000Z</time>
      </trkpt>
      <trkpt lat="47.19689" lon="-1.82818">
        <ele>69</ele>
        <time>2021-02-07T08:48:07.000Z</time>
      </trkpt>
      <trkpt lat="47.19685" lon="-1.82834">
        <ele>69</ele>
        <time>2021-02-07T08:48:09.000Z</time>
      </trkpt>
      <trkpt lat="47.19682" lon="-1.8285">
        <ele>69</ele>
        <time>2021-02-07T08:48:11.000Z</time>
      </trkpt>
      <trkpt lat="47.19679" lon="-1.82866">
        <ele>68</ele>
        <time>2021-02-07T08:48:13.000Z</time>
      </trkpt>
      <trkpt lat="47.19677" lon="-1.82881">
        <ele>68</ele>
        <time>2021-02-07T08:48:15.000Z</time>
      </trkpt>
      <trkpt lat="47.19674" lon="-1.82897">
        <ele>68</ele>
        <time>2021-02-07T08:48:17.000Z</time>
      </trkpt>
      <trkpt lat="47.19671" lon="-1.82913">
        <ele>68</ele>
        <time>2021-02-07T08:48:19.000Z</time>
      </trkpt>
      <trkpt lat="47.19669" lon="-1.82929">
        <ele>68</ele>
        <time>2021-02-07T08:48:21.000Z</time>
      </trkpt>
      <trkpt lat="47.19665" lon="-1.82944">
        <ele>68</ele>
        <time>2021-02-07T08:48:23.000Z</time>
      </trkpt>
      <trkpt lat="47.19662" lon="-1.82959">
        <ele>68</ele>
        <time>2021-02-07T08:48:25.000Z</time>
      </trkpt>
      <trkpt lat="47.19659" lon="-1.82975">
        <ele>68</ele>
        <time>2021-02-07T08:48:27.000Z</time>
      </trkpt>
      <trkpt lat="47.19656" lon="-1.8299">
        <ele>68</ele>
        <time>2021-02-07T08:48:29.000Z</time>
      </trkpt>
      <trkpt lat="47.19654" lon="-1.83006">
        <ele>68</ele>
        <time>2021-02-07T08:48:31.000Z</time>
      </trkpt>
      <trkpt lat="47.19651" lon="-1.83022">
        <ele>68</ele>
        <time>2021-02-07T08:48:33.000Z</time>
      </trkpt>
      <trkpt lat="47.19648" lon="-1.83037">
        <ele>68</ele>
        <time>2021-02-07T08:48:35.000Z</time>
      </trkpt>
      <trkpt lat="47.19644" lon="-1.83053">
        <ele>68</ele>
        <time>2021-02-07T08:48:37.000Z</time>
      </trkpt>
      <trkpt lat="47.19641" lon="-1.83069">
        <ele>68</ele>
        <time>2021-02-07T08:48:39.000Z</time>
      </trkpt>
      <trkpt lat="47.19638" lon="-1.83084">
        <ele>68</ele>
        <time>2021-02-07T08:48:41.000Z</time>
      </trkpt>
      <trkpt lat="47.19635" lon="-1.83099">
        <ele>67</ele>
        <time>2021-02-07T08:48:43.000Z</time>
      </trkpt>
      <trkpt lat="47.19632" lon="-1.83115">
        <ele>67</ele>
        <time>2021-02-07T08:48:45.000Z</time>
      </trkpt>
      <trkpt lat="47.19629" lon="-1.83131">
        <ele>67</ele>
        <time>2021-02-07T08:48:47.000Z</time>
      </trkpt>
      <trkpt lat="47.19627" lon="-1.83147">
        <ele>67</ele>
        <time>2021-02-07T08:48:49.000Z</time>
      </trkpt>
      <trkpt lat="47.19625" lon="-1.83163">
        <ele>66</ele>
        <time>2021-02-07T08:48:51.000Z</time>
      </trkpt>
      <trkpt lat="47.19624" lon="-1.8318">
        <ele>66</ele>
        <time>2021-02-07T08:48:53.000Z</time>
      </trkpt>
      <trkpt lat="47.19624" lon="-1.83195">
        <ele>66</ele>
        <time>2021-02-07T08:48:55.000Z</time>
      </trkpt>
      <trkpt lat="47.19624" lon="-1.83211">
        <ele>66</ele>
        <time>2021-02-07T08:48:57.000Z</time>
      </trkpt>
      <trkpt lat="47.19625" lon="-1.83227">
        <ele>66</ele>
        <time>2021-02-07T08:48:59.000Z</time>
      </trkpt>
      <trkpt lat="47.19626" lon="-1.83243">
        <ele>67</ele>
        <time>2021-02-07T08:49:01.000Z</time>
      </trkpt>
      <trkpt lat="47.19627" lon="-1.8326">
        <ele>66</ele>
        <time>2021-02-07T08:49:03.000Z</time>
      </trkpt>
      <trkpt lat="47.19628" lon="-1.83277">
        <ele>66</ele>
        <time>2021-02-07T08:49:05.000Z</time>
      </trkpt>
      <trkpt lat="47.19628" lon="-1.83294">
        <ele>66</ele>
        <time>2021-02-07T08:49:07.000Z</time>
      </trkpt>
      <trkpt lat="47.19628" lon="-1.83312">
        <ele>66</ele>
        <time>2021-02-07T08:49:09.000Z</time>
      </trkpt>
      <trkpt lat="47.19629" lon="-1.83328">
        <ele>66</ele>
        <time>2021-02-07T08:49:11.000Z</time>
      </trkpt>
      <trkpt lat="47.1963" lon="-1.83344">
        <ele>66</ele>
        <time>2021-02-07T08:49:13.000Z</time>
      </trkpt>
      <trkpt lat="47.19631" lon="-1.8336">
        <ele>66</ele>
        <time>2021-02-07T08:49:15.000Z</time>
      </trkpt>
      <trkpt lat="47.19632" lon="-1.83376">
        <ele>66</ele>
        <time>2021-02-07T08:49:17.000Z</time>
      </trkpt>
      <trkpt lat="47.19633" lon="-1.83393">
        <ele>66</ele>
        <time>2021-02-07T08:49:19.000Z</time>
      </trkpt>
      <trkpt lat="47.19634" lon="-1.83409">
        <ele>66</ele>
        <time>2021-02-07T08:49:21.000Z</time>
      </trkpt>
      <trkpt lat="47.19635" lon="-1.83425">
        <ele>66</ele>
        <time>2021-02-07T08:49:23.000Z</time>
      </trkpt>
      <trkpt lat="47.19635" lon="-1.83441">
        <ele>66</ele>
        <time>2021-02-07T08:49:25.000Z</time>
      </trkpt>
      <trkpt lat="47.19636" lon="-1.83458">
        <ele>67</ele>
        <time>2021-02-07T08:49:27.000Z</time>
      </trkpt>
      <trkpt lat="47.19637" lon="-1.83474">
        <ele>67</ele>
        <time>2021-02-07T08:49:29.000Z</time>
      </trkpt>
      <trkpt lat="47.19638" lon="-1.8349">
        <ele>67</ele>
        <time>2021-02-07T08:49:31.000Z</time>
      </trkpt>
      <trkpt lat="47.19639" lon="-1.83506">
        <ele>66</ele>
        <time>2021-02-07T08:49:33.000Z</time>
      </trkpt>
      <trkpt lat="47.19639" lon="-1.83521">
        <ele>66</ele>
        <time>2021-02-07T08:49:35.000Z</time>
      </trkpt>
      <trkpt lat="47.19638" lon="-1.83538">
        <ele>65</ele>
        <time>2021-02-07T08:49:37.000Z</time>
      </trkpt>
      <trkpt lat="47.19638" lon="-1.83553">
        <ele>66</ele>
        <time>2021-02-07T08:49:39.000Z</time>
      </trkpt>
      <trkpt lat="47.19636" lon="-1.8357">
        <ele>66</ele>
        <time>2021-02-07T08:49:41.000Z</time>
      </trkpt>
      <trkpt lat="47.19633" lon="-1.83585">
        <ele>66</ele>
        <time>2021-02-07T08:49:43.000Z</time>
      </trkpt>
      <trkpt lat="47.19629" lon="-1.83601">
        <ele>66</ele>
        <time>2021-02-07T08:49:45.000Z</time>
      </trkpt>
      <trkpt lat="47.19626" lon="-1.83617">
        <ele>66</ele>
        <time>2021-02-07T08:49:47.000Z</time>
      </trkpt>
      <trkpt lat="47.19621" lon="-1.83633">
        <ele>66</ele>
        <time>2021-02-07T08:49:49.000Z</time>
      </trkpt>
      <trkpt lat="47.19618" lon="-1.8365">
        <ele>65</ele>
        <time>2021-02-07T08:49:51.000Z</time>
      </trkpt>
      <trkpt lat="47.19615" lon="-1.83666">
        <ele>65</ele>
        <time>2021-02-07T08:49:53.000Z</time>
      </trkpt>
      <trkpt lat="47.19614" lon="-1.83683">
        <ele>65</ele>
        <time>2021-02-07T08:49:55.000Z</time>
      </trkpt>
      <trkpt lat="47.19614" lon="-1.837">
        <ele>65</ele>
        <time>2021-02-07T08:49:57.000Z</time>
      </trkpt>
      <trkpt lat="47.19615" lon="-1.83716">
        <ele>65</ele>
        <time>2021-02-07T08:49:59.000Z</time>
      </trkpt>
      <trkpt lat="47.19617" lon="-1.83731">
        <ele>65</ele>
        <time>2021-02-07T08:50:01.000Z</time>
      </trkpt>
      <trkpt lat="47.19619" lon="-1.83747">
        <ele>64</ele>
        <time>2021-02-07T08:50:03.000Z</time>
      </trkpt>
      <trkpt lat="47.19622" lon="-1.83762">
        <ele>64</ele>
        <time>2021-02-07T08:50:05.000Z</time>
      </trkpt>
      <trkpt lat="47.19625" lon="-1.83779">
        <ele>65</ele>
        <time>2021-02-07T08:50:07.000Z</time>
      </trkpt>
      <trkpt lat="47.19628" lon="-1.83794">
        <ele>65</ele>
        <time>2021-02-07T08:50:09.000Z</time>
      </trkpt>
      <trkpt lat="47.19631" lon="-1.8381">
        <ele>65</ele>
        <time>2021-02-07T08:50:11.000Z</time>
      </trkpt>
      <trkpt lat="47.19634" lon="-1.83826">
        <ele>65</ele>
        <time>2021-02-07T08:50:13.000Z</time>
      </trkpt>
      <trkpt lat="47.19636" lon="-1.83842">
        <ele>65</ele>
        <time>2021-02-07T08:50:15.000Z</time>
      </trkpt>
      <trkpt lat="47.19639" lon="-1.83857">
        <ele>65</ele>
        <time>2021-02-07T08:50:17.000Z</time>
      </trkpt>
      <trkpt lat="47.19642" lon="-1.83873">
        <ele>64</ele>
        <time>2021-02-07T08:50:19.000Z</time>
      </trkpt>
      <trkpt lat="47.19645" lon="-1.83888">
        <ele>64</ele>
        <time>2021-02-07T08:50:21.000Z</time>
      </trkpt>
      <trkpt lat="47.19648" lon="-1.83903">
        <ele>65</ele>
        <time>2021-02-07T08:50:23.000Z</time>
      </trkpt>
      <trkpt lat="47.19651" lon="-1.83919">
        <ele>65</ele>
        <time>2021-02-07T08:50:25.000Z</time>
      </trkpt>
      <trkpt lat="47.19654" lon="-1.83935">
        <ele>65</ele>
        <time>2021-02-07T08:50:27.000Z</time>
      </trkpt>
      <trkpt lat="47.19656" lon="-1.8395">
        <ele>65</ele>
        <time>2021-02-07T08:50:29.000Z</time>
      </trkpt>
      <trkpt lat="47.19659" lon="-1.83965">
        <ele>65</ele>
        <time>2021-02-07T08:50:31.000Z</time>
      </trkpt>
      <trkpt lat="47.19662" lon="-1.8398">
        <ele>65</ele>
        <time>2021-02-07T08:50:33.000Z</time>
      </trkpt>
      <trkpt lat="47.19665" lon="-1.83995">
        <ele>65</ele>
        <time>2021-02-07T08:50:35.000Z</time>
      </trkpt>
      <trkpt lat="47.19667" lon="-1.84011">
        <ele>66</ele>
        <time>2021-02-07T08:50:37.000Z</time>
      </trkpt>
      <trkpt lat="47.19668" lon="-1.84027">
        <ele>66</ele>
        <time>2021-02-07T08:50:39.000Z</time>
      </trkpt>
      <trkpt lat="47.19667" lon="-1.84043">
        <ele>65</ele>
        <time>2021-02-07T08:50:41.000Z</time>
      </trkpt>
      <trkpt lat="47.19666" lon="-1.84059">
        <ele>65</ele>
        <time>2021-02-07T08:50:43.000Z</time>
      </trkpt>
      <trkpt lat="47.19662" lon="-1.84075">
        <ele>66</ele>
        <time>2021-02-07T08:50:45.000Z</time>
      </trkpt>
      <trkpt lat="47.19659" lon="-1.84092">
        <ele>66</ele>
        <time>2021-02-07T08:50:47.000Z</time>
      </trkpt>
      <trkpt lat="47.19654" lon="-1.84107">
        <ele>66</ele>
        <time>2021-02-07T08:50:49.000Z</time>
      </trkpt>
      <trkpt lat="47.19647" lon="-1.84121">
        <ele>66</ele>
        <time>2021-02-07T08:50:51.000Z</time>
      </trkpt>
      <trkpt lat="47.19639" lon="-1.84134">
        <ele>66</ele>
        <time>2021-02-07T08:50:53.000Z</time>
      </trkpt>
      <trkpt lat="47.19632" lon="-1.84148">
        <ele>66</ele>
        <time>2021-02-07T08:50:55.000Z</time>
      </trkpt>
      <trkpt lat="47.19624" lon="-1.84162">
        <ele>66</ele>
        <time>2021-02-07T08:50:57.000Z</time>
      </trkpt>
      <trkpt lat="47.19616" lon="-1.84175">
        <ele>66</ele>
        <time>2021-02-07T08:50:59.000Z</time>
      </trkpt>
      <trkpt lat="47.19609" lon="-1.84189">
        <ele>66</ele>
        <time>2021-02-07T08:51:01.000Z</time>
      </trkpt>
      <trkpt lat="47.19601" lon="-1.84203">
        <ele>66</ele>
        <time>2021-02-07T08:51:03.000Z</time>
      </trkpt>
      <trkpt lat="47.19592" lon="-1.84217">
        <ele>66</ele>
        <time>2021-02-07T08:51:05.000Z</time>
      </trkpt>
      <trkpt lat="47.19585" lon="-1.84232">
        <ele>66</ele>
        <time>2021-02-07T08:51:07.000Z</time>
      </trkpt>
      <trkpt lat="47.19577" lon="-1.84246">
        <ele>66</ele>
        <time>2021-02-07T08:51:09.000Z</time>
      </trkpt>
      <trkpt lat="47.19569" lon="-1.8426">
        <ele>66</ele>
        <time>2021-02-07T08:51:11.000Z</time>
      </trkpt>
      <trkpt lat="47.19562" lon="-1.84275">
        <ele>66</ele>
        <time>2021-02-07T08:51:13.000Z</time>
      </trkpt>
      <trkpt lat="47.19554" lon="-1.84289">
        <ele>66</ele>
        <time>2021-02-07T08:51:15.000Z</time>
      </trkpt>
      <trkpt lat="47.19546" lon="-1.84302">
        <ele>66</ele>
        <time>2021-02-07T08:51:17.000Z</time>
      </trkpt>
      <trkpt lat="47.19538" lon="-1.84316">
        <ele>65</ele>
        <time>2021-02-07T08:51:19.000Z</time>
      </trkpt>
      <trkpt lat="47.1953" lon="-1.84331">
        <ele>65</ele>
        <time>2021-02-07T08:51:21.000Z</time>
      </trkpt>
      <trkpt lat="47.19522" lon="-1.84344">
        <ele>66</ele>
        <time>2021-02-07T08:51:23.000Z</time>
      </trkpt>
      <trkpt lat="47.19514" lon="-1.84357">
        <ele>65</ele>
        <time>2021-02-07T08:51:25.000Z</time>
      </trkpt>
      <trkpt lat="47.19506" lon="-1.8437">
        <ele>65</ele>
        <time>2021-02-07T08:51:27.000Z</time>
      </trkpt>
      <trkpt lat="47.19497" lon="-1.84384">
        <ele>65</ele>
        <time>2021-02-07T08:51:29.000Z</time>
      </trkpt>
      <trkpt lat="47.1949" lon="-1.84398">
        <ele>64</ele>
        <time>2021-02-07T08:51:31.000Z</time>
      </trkpt>
      <trkpt lat="47.19482" lon="-1.84412">
        <ele>64</ele>
        <time>2021-02-07T08:51:33.000Z</time>
      </trkpt>
      <trkpt lat="47.19474" lon="-1.84426">
        <ele>64</ele>
        <time>2021-02-07T08:51:35.000Z</time>
      </trkpt>
      <trkpt lat="47.19466" lon="-1.8444">
        <ele>64</ele>
        <time>2021-02-07T08:51:37.000Z</time>
      </trkpt>
      <trkpt lat="47.19459" lon="-1.84453">
        <ele>63</ele>
        <time>2021-02-07T08:51:39.000Z</time>
      </trkpt>
      <trkpt lat="47.19452" lon="-1.84467">
        <ele>63</ele>
        <time>2021-02-07T08:51:41.000Z</time>
      </trkpt>
      <trkpt lat="47.19444" lon="-1.84481">
        <ele>63</ele>
        <time>2021-02-07T08:51:43.000Z</time>
      </trkpt>
      <trkpt lat="47.19436" lon="-1.84494">
        <ele>63</ele>
        <time>2021-02-07T08:51:45.000Z</time>
      </trkpt>
      <trkpt lat="47.19428" lon="-1.84508">
        <ele>63</ele>
        <time>2021-02-07T08:51:47.000Z</time>
      </trkpt>
      <trkpt lat="47.19421" lon="-1.84521">
        <ele>63</ele>
        <time>2021-02-07T08:51:49.000Z</time>
      </trkpt>
      <trkpt lat="47.19413" lon="-1.84534">
        <ele>64</ele>
        <time>2021-02-07T08:51:51.000Z</time>
      </trkpt>
      <trkpt lat="47.19405" lon="-1.84545">
        <ele>64</ele>
        <time>2021-02-07T08:51:53.000Z</time>
      </trkpt>
      <trkpt lat="47.19396" lon="-1.84556">
        <ele>64</ele>
        <time>2021-02-07T08:51:55.000Z</time>
      </trkpt>
      <trkpt lat="47.19388" lon="-1.84564">
        <ele>64</ele>
        <time>2021-02-07T08:51:57.000Z</time>
      </trkpt>
      <trkpt lat="47.19379" lon="-1.84571">
        <ele>64</ele>
        <time>2021-02-07T08:51:59.000Z</time>
      </trkpt>
      <trkpt lat="47.1937" lon="-1.84577">
        <ele>65</ele>
        <time>2021-02-07T08:52:01.000Z</time>
      </trkpt>
      <trkpt lat="47.19359" lon="-1.84577">
        <ele>64</ele>
        <time>2021-02-07T08:52:03.000Z</time>
      </trkpt>
      <trkpt lat="47.19347" lon="-1.84581">
        <ele>63</ele>
        <time>2021-02-07T08:52:05.000Z</time>
      </trkpt>
      <trkpt lat="47.19338" lon="-1.84593">
        <ele>63</ele>
        <time>2021-02-07T08:52:07.000Z</time>
      </trkpt>
      <trkpt lat="47.19335" lon="-1.8461">
        <ele>63</ele>
        <time>2021-02-07T08:52:09.000Z</time>
      </trkpt>
      <trkpt lat="47.19334" lon="-1.84629">
        <ele>62</ele>
        <time>2021-02-07T08:52:11.000Z</time>
      </trkpt>
      <trkpt lat="47.19334" lon="-1.84648">
        <ele>62</ele>
        <time>2021-02-07T08:52:13.000Z</time>
      </trkpt>
      <trkpt lat="47.19334" lon="-1.84668">
        <ele>62</ele>
        <time>2021-02-07T08:52:15.000Z</time>
      </trkpt>
      <trkpt lat="47.19333" lon="-1.84687">
        <ele>62</ele>
        <time>2021-02-07T08:52:17.000Z</time>
      </trkpt>
      <trkpt lat="47.19334" lon="-1.84705">
        <ele>62</ele>
        <time>2021-02-07T08:52:19.000Z</time>
      </trkpt>
      <trkpt lat="47.19333" lon="-1.84723">
        <ele>62</ele>
        <time>2021-02-07T08:52:21.000Z</time>
      </trkpt>
      <trkpt lat="47.19332" lon="-1.8474">
        <ele>62</ele>
        <time>2021-02-07T08:52:23.000Z</time>
      </trkpt>
      <trkpt lat="47.19331" lon="-1.84759">
        <ele>62</ele>
        <time>2021-02-07T08:52:25.000Z</time>
      </trkpt>
      <trkpt lat="47.1933" lon="-1.84777">
        <ele>62</ele>
        <time>2021-02-07T08:52:27.000Z</time>
      </trkpt>
      <trkpt lat="47.19329" lon="-1.84794">
        <ele>61</ele>
        <time>2021-02-07T08:52:29.000Z</time>
      </trkpt>
      <trkpt lat="47.19327" lon="-1.84812">
        <ele>61</ele>
        <time>2021-02-07T08:52:31.000Z</time>
      </trkpt>
      <trkpt lat="47.19325" lon="-1.8483">
        <ele>61</ele>
        <time>2021-02-07T08:52:33.000Z</time>
      </trkpt>
      <trkpt lat="47.19322" lon="-1.84848">
        <ele>61</ele>
        <time>2021-02-07T08:52:35.000Z</time>
      </trkpt>
      <trkpt lat="47.19317" lon="-1.84866">
        <ele>61</ele>
        <time>2021-02-07T08:52:37.000Z</time>
      </trkpt>
      <trkpt lat="47.19313" lon="-1.84883">
        <ele>61</ele>
        <time>2021-02-07T08:52:39.000Z</time>
      </trkpt>
      <trkpt lat="47.19307" lon="-1.849">
        <ele>61</ele>
        <time>2021-02-07T08:52:41.000Z</time>
      </trkpt>
      <trkpt lat="47.19302" lon="-1.84915">
        <ele>62</ele>
        <time>2021-02-07T08:52:43.000Z</time>
      </trkpt>
      <trkpt lat="47.19297" lon="-1.84931">
        <ele>61</ele>
        <time>2021-02-07T08:52:45.000Z</time>
      </trkpt>
      <trkpt lat="47.19291" lon="-1.84947">
        <ele>61</ele>
        <time>2021-02-07T08:52:47.000Z</time>
      </trkpt>
      <trkpt lat="47.19286" lon="-1.84964">
        <ele>61</ele>
        <time>2021-02-07T08:52:49.000Z</time>
      </trkpt>
      <trkpt lat="47.19281" lon="-1.8498">
        <ele>61</ele>
        <time>2021-02-07T08:52:51.000Z</time>
      </trkpt>
      <trkpt lat="47.19277" lon="-1.84997">
        <ele>61</ele>
        <time>2021-02-07T08:52:53.000Z</time>
      </trkpt>
      <trkpt lat="47.19273" lon="-1.85013">
        <ele>61</ele>
        <time>2021-02-07T08:52:55.000Z</time>
      </trkpt>
      <trkpt lat="47.19269" lon="-1.8503">
        <ele>61</ele>
        <time>2021-02-07T08:52:57.000Z</time>
      </trkpt>
      <trkpt lat="47.19267" lon="-1.85046">
        <ele>60</ele>
        <time>2021-02-07T08:52:59.000Z</time>
      </trkpt>
      <trkpt lat="47.19266" lon="-1.85064">
        <ele>60</ele>
        <time>2021-02-07T08:53:01.000Z</time>
      </trkpt>
      <trkpt lat="47.19265" lon="-1.85082">
        <ele>60</ele>
        <time>2021-02-07T08:53:03.000Z</time>
      </trkpt>
      <trkpt lat="47.19267" lon="-1.85098">
        <ele>60</ele>
        <time>2021-02-07T08:53:05.000Z</time>
      </trkpt>
      <trkpt lat="47.19269" lon="-1.85114">
        <ele>60</ele>
        <time>2021-02-07T08:53:07.000Z</time>
      </trkpt>
      <trkpt lat="47.19271" lon="-1.85132">
        <ele>59</ele>
        <time>2021-02-07T08:53:09.000Z</time>
      </trkpt>
      <trkpt lat="47.19273" lon="-1.8515">
        <ele>58</ele>
        <time>2021-02-07T08:53:11.000Z</time>
      </trkpt>
      <trkpt lat="47.19274" lon="-1.85171">
        <ele>57</ele>
        <time>2021-02-07T08:53:13.000Z</time>
      </trkpt>
      <trkpt lat="47.19275" lon="-1.8519">
        <ele>56</ele>
        <time>2021-02-07T08:53:15.000Z</time>
      </trkpt>
      <trkpt lat="47.19275" lon="-1.85209">
        <ele>56</ele>
        <time>2021-02-07T08:53:17.000Z</time>
      </trkpt>
      <trkpt lat="47.19277" lon="-1.85226">
        <ele>56</ele>
        <time>2021-02-07T08:53:19.000Z</time>
      </trkpt>
      <trkpt lat="47.19281" lon="-1.8524">
        <ele>55</ele>
        <time>2021-02-07T08:53:23.000Z</time>
      </trkpt>
      <trkpt lat="47.19279" lon="-1.85256">
        <ele>55</ele>
        <time>2021-02-07T08:53:26.000Z</time>
      </trkpt>
      <trkpt lat="47.19274" lon="-1.85269">
        <ele>55</ele>
        <time>2021-02-07T08:53:28.000Z</time>
      </trkpt>
      <trkpt lat="47.1927" lon="-1.85285">
        <ele>54</ele>
        <time>2021-02-07T08:53:30.000Z</time>
      </trkpt>
      <trkpt lat="47.19265" lon="-1.85301">
        <ele>54</ele>
        <time>2021-02-07T08:53:32.000Z</time>
      </trkpt>
      <trkpt lat="47.1926" lon="-1.85315">
        <ele>54</ele>
        <time>2021-02-07T08:53:34.000Z</time>
      </trkpt>
      <trkpt lat="47.19256" lon="-1.85331">
        <ele>55</ele>
        <time>2021-02-07T08:53:36.000Z</time>
      </trkpt>
      <trkpt lat="47.19249" lon="-1.85344">
        <ele>55</ele>
        <time>2021-02-07T08:53:38.000Z</time>
      </trkpt>
      <trkpt lat="47.19242" lon="-1.85358">
        <ele>55</ele>
        <time>2021-02-07T08:53:40.000Z</time>
      </trkpt>
      <trkpt lat="47.19236" lon="-1.85372">
        <ele>55</ele>
        <time>2021-02-07T08:53:42.000Z</time>
      </trkpt>
      <trkpt lat="47.1923" lon="-1.85386">
        <ele>55</ele>
        <time>2021-02-07T08:53:44.000Z</time>
      </trkpt>
      <trkpt lat="47.19221" lon="-1.85399">
        <ele>55</ele>
        <time>2021-02-07T08:53:46.000Z</time>
      </trkpt>
      <trkpt lat="47.19211" lon="-1.8541">
        <ele>55</ele>
        <time>2021-02-07T08:53:48.000Z</time>
      </trkpt>
      <trkpt lat="47.19201" lon="-1.85422">
        <ele>55</ele>
        <time>2021-02-07T08:53:50.000Z</time>
      </trkpt>
      <trkpt lat="47.19191" lon="-1.85434">
        <ele>55</ele>
        <time>2021-02-07T08:53:52.000Z</time>
      </trkpt>
      <trkpt lat="47.19182" lon="-1.85444">
        <ele>56</ele>
        <time>2021-02-07T08:53:54.000Z</time>
      </trkpt>
      <trkpt lat="47.19173" lon="-1.85457">
        <ele>56</ele>
        <time>2021-02-07T08:53:56.000Z</time>
      </trkpt>
      <trkpt lat="47.19164" lon="-1.8547">
        <ele>56</ele>
        <time>2021-02-07T08:53:58.000Z</time>
      </trkpt>
      <trkpt lat="47.19155" lon="-1.85482">
        <ele>56</ele>
        <time>2021-02-07T08:54:00.000Z</time>
      </trkpt>
      <trkpt lat="47.19146" lon="-1.85496">
        <ele>56</ele>
        <time>2021-02-07T08:54:02.000Z</time>
      </trkpt>
      <trkpt lat="47.19137" lon="-1.85509">
        <ele>57</ele>
        <time>2021-02-07T08:54:04.000Z</time>
      </trkpt>
      <trkpt lat="47.19127" lon="-1.85521">
        <ele>56</ele>
        <time>2021-02-07T08:54:06.000Z</time>
      </trkpt>
      <trkpt lat="47.19117" lon="-1.85532">
        <ele>56</ele>
        <time>2021-02-07T08:54:08.000Z</time>
      </trkpt>
      <trkpt lat="47.19107" lon="-1.85543">
        <ele>56</ele>
        <time>2021-02-07T08:54:10.000Z</time>
      </trkpt>
      <trkpt lat="47.19097" lon="-1.85552">
        <ele>56</ele>
        <time>2021-02-07T08:54:12.000Z</time>
      </trkpt>
      <trkpt lat="47.19086" lon="-1.85562">
        <ele>56</ele>
        <time>2021-02-07T08:54:14.000Z</time>
      </trkpt>
      <trkpt lat="47.19076" lon="-1.85571">
        <ele>56</ele>
        <time>2021-02-07T08:54:16.000Z</time>
      </trkpt>
      <trkpt lat="47.19065" lon="-1.85581">
        <ele>56</ele>
        <time>2021-02-07T08:54:18.000Z</time>
      </trkpt>
      <trkpt lat="47.19054" lon="-1.8559">
        <ele>55</ele>
        <time>2021-02-07T08:54:20.000Z</time>
      </trkpt>
      <trkpt lat="47.19043" lon="-1.856">
        <ele>54</ele>
        <time>2021-02-07T08:54:22.000Z</time>
      </trkpt>
      <trkpt lat="47.19033" lon="-1.85609">
        <ele>54</ele>
        <time>2021-02-07T08:54:24.000Z</time>
      </trkpt>
      <trkpt lat="47.19022" lon="-1.85619">
        <ele>54</ele>
        <time>2021-02-07T08:54:26.000Z</time>
      </trkpt>
      <trkpt lat="47.19012" lon="-1.85627">
        <ele>54</ele>
        <time>2021-02-07T08:54:28.000Z</time>
      </trkpt>
      <trkpt lat="47.19001" lon="-1.85636">
        <ele>54</ele>
        <time>2021-02-07T08:54:30.000Z</time>
      </trkpt>
      <trkpt lat="47.18991" lon="-1.85644">
        <ele>54</ele>
        <time>2021-02-07T08:54:32.000Z</time>
      </trkpt>
      <trkpt lat="47.18979" lon="-1.85651">
        <ele>53</ele>
        <time>2021-02-07T08:54:34.000Z</time>
      </trkpt>
      <trkpt lat="47.18968" lon="-1.85659">
        <ele>53</ele>
        <time>2021-02-07T08:54:36.000Z</time>
      </trkpt>
      <trkpt lat="47.18956" lon="-1.85668">
        <ele>53</ele>
        <time>2021-02-07T08:54:38.000Z</time>
      </trkpt>
      <trkpt lat="47.18944" lon="-1.85676">
        <ele>53</ele>
        <time>2021-02-07T08:54:40.000Z</time>
      </trkpt>
      <trkpt lat="47.18933" lon="-1.85684">
        <ele>53</ele>
        <time>2021-02-07T08:54:42.000Z</time>
      </trkpt>
      <trkpt lat="47.18922" lon="-1.85692">
        <ele>52</ele>
        <time>2021-02-07T08:54:44.000Z</time>
      </trkpt>
      <trkpt lat="47.18911" lon="-1.857">
        <ele>52</ele>
        <time>2021-02-07T08:54:46.000Z</time>
      </trkpt>
      <trkpt lat="47.18899" lon="-1.85708">
        <ele>52</ele>
        <time>2021-02-07T08:54:48.000Z</time>
      </trkpt>
      <trkpt lat="47.18887" lon="-1.85717">
        <ele>52</ele>
        <time>2021-02-07T08:54:50.000Z</time>
      </trkpt>
      <trkpt lat="47.18876" lon="-1.85724">
        <ele>52</ele>
        <time>2021-02-07T08:54:52.000Z</time>
      </trkpt>
      <trkpt lat="47.18865" lon="-1.85732">
        <ele>52</ele>
        <time>2021-02-07T08:54:54.000Z</time>
      </trkpt>
      <trkpt lat="47.18854" lon="-1.8574">
        <ele>52</ele>
        <time>2021-02-07T08:54:56.000Z</time>
      </trkpt>
      <trkpt lat="47.18842" lon="-1.85748">
        <ele>52</ele>
        <time>2021-02-07T08:54:58.000Z</time>
      </trkpt>
      <trkpt lat="47.18831" lon="-1.85756">
        <ele>52</ele>
        <time>2021-02-07T08:55:00.000Z</time>
      </trkpt>
      <trkpt lat="47.1882" lon="-1.85764">
        <ele>52</ele>
        <time>2021-02-07T08:55:02.000Z</time>
      </trkpt>
      <trkpt lat="47.18809" lon="-1.85772">
        <ele>52</ele>
        <time>2021-02-07T08:55:04.000Z</time>
      </trkpt>
      <trkpt lat="47.18798" lon="-1.8578">
        <ele>52</ele>
        <time>2021-02-07T08:55:06.000Z</time>
      </trkpt>
      <trkpt lat="47.18787" lon="-1.85789">
        <ele>51</ele>
        <time>2021-02-07T08:55:08.000Z</time>
      </trkpt>
      <trkpt lat="47.18776" lon="-1.85796">
        <ele>52</ele>
        <time>2021-02-07T08:55:10.000Z</time>
      </trkpt>
      <trkpt lat="47.18765" lon="-1.85804">
        <ele>52</ele>
        <time>2021-02-07T08:55:12.000Z</time>
      </trkpt>
      <trkpt lat="47.18755" lon="-1.85812">
        <ele>52</ele>
        <time>2021-02-07T08:55:14.000Z</time>
      </trkpt>
      <trkpt lat="47.18744" lon="-1.85819">
        <ele>52</ele>
        <time>2021-02-07T08:55:16.000Z</time>
      </trkpt>
      <trkpt lat="47.18733" lon="-1.85827">
        <ele>51</ele>
        <time>2021-02-07T08:55:18.000Z</time>
      </trkpt>
      <trkpt lat="47.18723" lon="-1.85835">
        <ele>51</ele>
        <time>2021-02-07T08:55:20.000Z</time>
      </trkpt>
      <trkpt lat="47.18713" lon="-1.85842">
        <ele>51</ele>
        <time>2021-02-07T08:55:22.000Z</time>
      </trkpt>
      <trkpt lat="47.18703" lon="-1.85849">
        <ele>51</ele>
        <time>2021-02-07T08:55:24.000Z</time>
      </trkpt>
      <trkpt lat="47.18695" lon="-1.85856">
        <ele>51</ele>
        <time>2021-02-07T08:55:26.000Z</time>
      </trkpt>
      <trkpt lat="47.18687" lon="-1.85862">
        <ele>52</ele>
        <time>2021-02-07T08:55:28.000Z</time>
      </trkpt>
      <trkpt lat="47.18675" lon="-1.85871">
        <ele>53</ele>
        <time>2021-02-07T08:55:31.000Z</time>
      </trkpt>
      <trkpt lat="47.18663" lon="-1.8588">
        <ele>53</ele>
        <time>2021-02-07T08:55:34.000Z</time>
      </trkpt>
      <trkpt lat="47.1865" lon="-1.8589">
        <ele>54</ele>
        <time>2021-02-07T08:55:37.000Z</time>
      </trkpt>
      <trkpt lat="47.18641" lon="-1.85902">
        <ele>55</ele>
        <time>2021-02-07T08:55:40.000Z</time>
      </trkpt>
      <trkpt lat="47.18633" lon="-1.85915">
        <ele>56</ele>
        <time>2021-02-07T08:55:43.000Z</time>
      </trkpt>
      <trkpt lat="47.18623" lon="-1.85925">
        <ele>57</ele>
        <time>2021-02-07T08:55:46.000Z</time>
      </trkpt>
      <trkpt lat="47.18615" lon="-1.85934">
        <ele>59</ele>
        <time>2021-02-07T08:55:49.000Z</time>
      </trkpt>
      <trkpt lat="47.18607" lon="-1.85944">
        <ele>59</ele>
        <time>2021-02-07T08:55:52.000Z</time>
      </trkpt>
      <trkpt lat="47.18599" lon="-1.85953">
        <ele>59</ele>
        <time>2021-02-07T08:55:55.000Z</time>
      </trkpt>
      <trkpt lat="47.18593" lon="-1.85964">
        <ele>60</ele>
        <time>2021-02-07T08:55:58.000Z</time>
      </trkpt>
      <trkpt lat="47.18588" lon="-1.85977">
        <ele>60</ele>
        <time>2021-02-07T08:56:01.000Z</time>
      </trkpt>
      <trkpt lat="47.18583" lon="-1.85989">
        <ele>61</ele>
        <time>2021-02-07T08:56:04.000Z</time>
      </trkpt>
      <trkpt lat="47.18578" lon="-1.86002">
        <ele>62</ele>
        <time>2021-02-07T08:56:07.000Z</time>
      </trkpt>
      <trkpt lat="47.18572" lon="-1.86014">
        <ele>62</ele>
        <time>2021-02-07T08:56:10.000Z</time>
      </trkpt>
      <trkpt lat="47.18566" lon="-1.86024">
        <ele>63</ele>
        <time>2021-02-07T08:56:13.000Z</time>
      </trkpt>
      <trkpt lat="47.18561" lon="-1.86036">
        <ele>65</ele>
        <time>2021-02-07T08:56:16.000Z</time>
      </trkpt>
      <trkpt lat="47.18555" lon="-1.86047">
        <ele>66</ele>
        <time>2021-02-07T08:56:19.000Z</time>
      </trkpt>
      <trkpt lat="47.1855" lon="-1.86059">
        <ele>66</ele>
        <time>2021-02-07T08:56:22.000Z</time>
      </trkpt>
      <trkpt lat="47.18544" lon="-1.86075">
        <ele>67</ele>
        <time>2021-02-07T08:56:25.000Z</time>
      </trkpt>
      <trkpt lat="47.18538" lon="-1.86089">
        <ele>68</ele>
        <time>2021-02-07T08:56:28.000Z</time>
      </trkpt>
      <trkpt lat="47.18532" lon="-1.86101">
        <ele>68</ele>
        <time>2021-02-07T08:56:31.000Z</time>
      </trkpt>
      <trkpt lat="47.18524" lon="-1.86112">
        <ele>68</ele>
        <time>2021-02-07T08:56:34.000Z</time>
      </trkpt>
      <trkpt lat="47.18518" lon="-1.86123">
        <ele>69</ele>
        <time>2021-02-07T08:56:37.000Z</time>
      </trkpt>
      <trkpt lat="47.18516" lon="-1.86138">
        <ele>69</ele>
        <time>2021-02-07T08:56:40.000Z</time>
      </trkpt>
      <trkpt lat="47.18512" lon="-1.86156">
        <ele>69</ele>
        <time>2021-02-07T08:56:43.000Z</time>
      </trkpt>
      <trkpt lat="47.18506" lon="-1.86174">
        <ele>68</ele>
        <time>2021-02-07T08:56:46.000Z</time>
      </trkpt>
      <trkpt lat="47.18501" lon="-1.86187">
        <ele>69</ele>
        <time>2021-02-07T08:56:48.000Z</time>
      </trkpt>
      <trkpt lat="47.18497" lon="-1.86199">
        <ele>68</ele>
        <time>2021-02-07T08:56:50.000Z</time>
      </trkpt>
      <trkpt lat="47.18493" lon="-1.86212">
        <ele>68</ele>
        <time>2021-02-07T08:56:52.000Z</time>
      </trkpt>
      <trkpt lat="47.1849" lon="-1.86224">
        <ele>68</ele>
        <time>2021-02-07T08:56:54.000Z</time>
      </trkpt>
      <trkpt lat="47.18486" lon="-1.86238">
        <ele>68</ele>
        <time>2021-02-07T08:56:56.000Z</time>
      </trkpt>
      <trkpt lat="47.18482" lon="-1.86252">
        <ele>67</ele>
        <time>2021-02-07T08:56:58.000Z</time>
      </trkpt>
      <trkpt lat="47.1848" lon="-1.86267">
        <ele>67</ele>
        <time>2021-02-07T08:57:00.000Z</time>
      </trkpt>
      <trkpt lat="47.1848" lon="-1.86284">
        <ele>67</ele>
        <time>2021-02-07T08:57:02.000Z</time>
      </trkpt>
      <trkpt lat="47.18481" lon="-1.86302">
        <ele>66</ele>
        <time>2021-02-07T08:57:04.000Z</time>
      </trkpt>
      <trkpt lat="47.18479" lon="-1.86322">
        <ele>64</ele>
        <time>2021-02-07T08:57:06.000Z</time>
      </trkpt>
      <trkpt lat="47.18475" lon="-1.86345">
        <ele>62</ele>
        <time>2021-02-07T08:57:08.000Z</time>
      </trkpt>
      <trkpt lat="47.18469" lon="-1.86369">
        <ele>61</ele>
        <time>2021-02-07T08:57:10.000Z</time>
      </trkpt>
      <trkpt lat="47.18465" lon="-1.86381">
        <ele>60</ele>
        <time>2021-02-07T08:57:11.000Z</time>
      </trkpt>
      <trkpt lat="47.18453" lon="-1.864">
        <ele>60</ele>
        <time>2021-02-07T08:57:13.000Z</time>
      </trkpt>
      <trkpt lat="47.1844" lon="-1.86415">
        <ele>60</ele>
        <time>2021-02-07T08:57:15.000Z</time>
      </trkpt>
      <trkpt lat="47.18427" lon="-1.86427">
        <ele>60</ele>
        <time>2021-02-07T08:57:17.000Z</time>
      </trkpt>
      <trkpt lat="47.18416" lon="-1.8644">
        <ele>60</ele>
        <time>2021-02-07T08:57:19.000Z</time>
      </trkpt>
      <trkpt lat="47.1841" lon="-1.8646">
        <ele>60</ele>
        <time>2021-02-07T08:57:21.000Z</time>
      </trkpt>
      <trkpt lat="47.18411" lon="-1.86478">
        <ele>59</ele>
        <time>2021-02-07T08:57:23.000Z</time>
      </trkpt>
      <trkpt lat="47.18413" lon="-1.86493">
        <ele>58</ele>
        <time>2021-02-07T08:57:25.000Z</time>
      </trkpt>
      <trkpt lat="47.18415" lon="-1.86508">
        <ele>58</ele>
        <time>2021-02-07T08:57:27.000Z</time>
      </trkpt>
      <trkpt lat="47.18417" lon="-1.86523">
        <ele>58</ele>
        <time>2021-02-07T08:57:29.000Z</time>
      </trkpt>
      <trkpt lat="47.18419" lon="-1.86538">
        <ele>58</ele>
        <time>2021-02-07T08:57:31.000Z</time>
      </trkpt>
      <trkpt lat="47.18422" lon="-1.86553">
        <ele>58</ele>
        <time>2021-02-07T08:57:33.000Z</time>
      </trkpt>
      <trkpt lat="47.18423" lon="-1.86568">
        <ele>59</ele>
        <time>2021-02-07T08:57:35.000Z</time>
      </trkpt>
      <trkpt lat="47.18425" lon="-1.86581">
        <ele>59</ele>
        <time>2021-02-07T08:57:37.000Z</time>
      </trkpt>
      <trkpt lat="47.18426" lon="-1.86595">
        <ele>59</ele>
        <time>2021-02-07T08:57:39.000Z</time>
      </trkpt>
      <trkpt lat="47.18427" lon="-1.86609">
        <ele>58</ele>
        <time>2021-02-07T08:57:41.000Z</time>
      </trkpt>
      <trkpt lat="47.18428" lon="-1.86622">
        <ele>59</ele>
        <time>2021-02-07T08:57:43.000Z</time>
      </trkpt>
      <trkpt lat="47.18428" lon="-1.86639">
        <ele>60</ele>
        <time>2021-02-07T08:57:46.000Z</time>
      </trkpt>
      <trkpt lat="47.18426" lon="-1.86657">
        <ele>59</ele>
        <time>2021-02-07T08:57:49.000Z</time>
      </trkpt>
      <trkpt lat="47.18425" lon="-1.86673">
        <ele>60</ele>
        <time>2021-02-07T08:57:52.000Z</time>
      </trkpt>
      <trkpt lat="47.18423" lon="-1.8669">
        <ele>61</ele>
        <time>2021-02-07T08:57:55.000Z</time>
      </trkpt>
      <trkpt lat="47.18422" lon="-1.86706">
        <ele>61</ele>
        <time>2021-02-07T08:57:58.000Z</time>
      </trkpt>
      <trkpt lat="47.1842" lon="-1.86723">
        <ele>62</ele>
        <time>2021-02-07T08:58:01.000Z</time>
      </trkpt>
      <trkpt lat="47.18416" lon="-1.86741">
        <ele>63</ele>
        <time>2021-02-07T08:58:04.000Z</time>
      </trkpt>
      <trkpt lat="47.18414" lon="-1.86754">
        <ele>64</ele>
        <time>2021-02-07T08:58:06.000Z</time>
      </trkpt>
      <trkpt lat="47.1841" lon="-1.86772">
        <ele>64</ele>
        <time>2021-02-07T08:58:09.000Z</time>
      </trkpt>
      <trkpt lat="47.18407" lon="-1.8679">
        <ele>64</ele>
        <time>2021-02-07T08:58:12.000Z</time>
      </trkpt>
      <trkpt lat="47.18405" lon="-1.86803">
        <ele>65</ele>
        <time>2021-02-07T08:58:14.000Z</time>
      </trkpt>
      <trkpt lat="47.18404" lon="-1.86822">
        <ele>67</ele>
        <time>2021-02-07T08:58:17.000Z</time>
      </trkpt>
      <trkpt lat="47.18403" lon="-1.86839">
        <ele>68</ele>
        <time>2021-02-07T08:58:20.000Z</time>
      </trkpt>
      <trkpt lat="47.18404" lon="-1.86856">
        <ele>69</ele>
        <time>2021-02-07T08:58:23.000Z</time>
      </trkpt>
      <trkpt lat="47.18404" lon="-1.86874">
        <ele>70</ele>
        <time>2021-02-07T08:58:26.000Z</time>
      </trkpt>
      <trkpt lat="47.18406" lon="-1.86891">
        <ele>70</ele>
        <time>2021-02-07T08:58:29.000Z</time>
      </trkpt>
      <trkpt lat="47.18407" lon="-1.86909">
        <ele>71</ele>
        <time>2021-02-07T08:58:32.000Z</time>
      </trkpt>
      <trkpt lat="47.18408" lon="-1.86928">
        <ele>71</ele>
        <time>2021-02-07T08:58:35.000Z</time>
      </trkpt>
      <trkpt lat="47.18409" lon="-1.86947">
        <ele>71</ele>
        <time>2021-02-07T08:58:38.000Z</time>
      </trkpt>
      <trkpt lat="47.1841" lon="-1.86965">
        <ele>72</ele>
        <time>2021-02-07T08:58:41.000Z</time>
      </trkpt>
      <trkpt lat="47.18414" lon="-1.86982">
        <ele>73</ele>
        <time>2021-02-07T08:58:44.000Z</time>
      </trkpt>
      <trkpt lat="47.18417" lon="-1.87001">
        <ele>72</ele>
        <time>2021-02-07T08:58:47.000Z</time>
      </trkpt>
      <trkpt lat="47.18418" lon="-1.87016">
        <ele>72</ele>
        <time>2021-02-07T08:58:49.000Z</time>
      </trkpt>
      <trkpt lat="47.1842" lon="-1.87032">
        <ele>71</ele>
        <time>2021-02-07T08:58:51.000Z</time>
      </trkpt>
      <trkpt lat="47.18422" lon="-1.87048">
        <ele>70</ele>
        <time>2021-02-07T08:58:53.000Z</time>
      </trkpt>
      <trkpt lat="47.18425" lon="-1.87066">
        <ele>69</ele>
        <time>2021-02-07T08:58:55.000Z</time>
      </trkpt>
      <trkpt lat="47.18428" lon="-1.87085">
        <ele>69</ele>
        <time>2021-02-07T08:58:57.000Z</time>
      </trkpt>
      <trkpt lat="47.18433" lon="-1.87105">
        <ele>69</ele>
        <time>2021-02-07T08:58:59.000Z</time>
      </trkpt>
      <trkpt lat="47.1844" lon="-1.87125">
        <ele>68</ele>
        <time>2021-02-07T08:59:01.000Z</time>
      </trkpt>
      <trkpt lat="47.18446" lon="-1.87147">
        <ele>67</ele>
        <time>2021-02-07T08:59:03.000Z</time>
      </trkpt>
      <trkpt lat="47.18452" lon="-1.87168">
        <ele>66</ele>
        <time>2021-02-07T08:59:05.000Z</time>
      </trkpt>
      <trkpt lat="47.18459" lon="-1.87189">
        <ele>64</ele>
        <time>2021-02-07T08:59:07.000Z</time>
      </trkpt>
      <trkpt lat="47.18465" lon="-1.87211">
        <ele>63</ele>
        <time>2021-02-07T08:59:09.000Z</time>
      </trkpt>
      <trkpt lat="47.1847" lon="-1.87231">
        <ele>63</ele>
        <time>2021-02-07T08:59:11.000Z</time>
      </trkpt>
      <trkpt lat="47.18473" lon="-1.87249">
        <ele>64</ele>
        <time>2021-02-07T08:59:13.000Z</time>
      </trkpt>
      <trkpt lat="47.18475" lon="-1.87264">
        <ele>65</ele>
        <time>2021-02-07T08:59:15.000Z</time>
      </trkpt>
      <trkpt lat="47.18477" lon="-1.87278">
        <ele>65</ele>
        <time>2021-02-07T08:59:17.000Z</time>
      </trkpt>
      <trkpt lat="47.18478" lon="-1.87297">
        <ele>66</ele>
        <time>2021-02-07T08:59:20.000Z</time>
      </trkpt>
      <trkpt lat="47.1848" lon="-1.87316">
        <ele>67</ele>
        <time>2021-02-07T08:59:23.000Z</time>
      </trkpt>
      <trkpt lat="47.18482" lon="-1.87333">
        <ele>67</ele>
        <time>2021-02-07T08:59:26.000Z</time>
      </trkpt>
      <trkpt lat="47.18485" lon="-1.87351">
        <ele>68</ele>
        <time>2021-02-07T08:59:29.000Z</time>
      </trkpt>
      <trkpt lat="47.18488" lon="-1.8737">
        <ele>69</ele>
        <time>2021-02-07T08:59:32.000Z</time>
      </trkpt>
      <trkpt lat="47.18491" lon="-1.87387">
        <ele>70</ele>
        <time>2021-02-07T08:59:35.000Z</time>
      </trkpt>
      <trkpt lat="47.18493" lon="-1.87403">
        <ele>70</ele>
        <time>2021-02-07T08:59:38.000Z</time>
      </trkpt>
      <trkpt lat="47.18495" lon="-1.8742">
        <ele>71</ele>
        <time>2021-02-07T08:59:41.000Z</time>
      </trkpt>
      <trkpt lat="47.18495" lon="-1.87438">
        <ele>72</ele>
        <time>2021-02-07T08:59:44.000Z</time>
      </trkpt>
      <trkpt lat="47.18489" lon="-1.87452">
        <ele>73</ele>
        <time>2021-02-07T08:59:47.000Z</time>
      </trkpt>
      <trkpt lat="47.1848" lon="-1.87462">
        <ele>74</ele>
        <time>2021-02-07T08:59:50.000Z</time>
      </trkpt>
      <trkpt lat="47.18468" lon="-1.87472">
        <ele>75</ele>
        <time>2021-02-07T08:59:53.000Z</time>
      </trkpt>
      <trkpt lat="47.18457" lon="-1.87482">
        <ele>76</ele>
        <time>2021-02-07T08:59:56.000Z</time>
      </trkpt>
      <trkpt lat="47.18447" lon="-1.8749">
        <ele>76</ele>
        <time>2021-02-07T08:59:59.000Z</time>
      </trkpt>
      <trkpt lat="47.18436" lon="-1.87497">
        <ele>77</ele>
        <time>2021-02-07T09:00:02.000Z</time>
      </trkpt>
      <trkpt lat="47.18424" lon="-1.87503">
        <ele>77</ele>
        <time>2021-02-07T09:00:05.000Z</time>
      </trkpt>
      <trkpt lat="47.18411" lon="-1.87507">
        <ele>78</ele>
        <time>2021-02-07T09:00:08.000Z</time>
      </trkpt>
      <trkpt lat="47.18399" lon="-1.87511">
        <ele>78</ele>
        <time>2021-02-07T09:00:11.000Z</time>
      </trkpt>
      <trkpt lat="47.18386" lon="-1.87513">
        <ele>79</ele>
        <time>2021-02-07T09:00:14.000Z</time>
      </trkpt>
      <trkpt lat="47.18373" lon="-1.87515">
        <ele>79</ele>
        <time>2021-02-07T09:00:17.000Z</time>
      </trkpt>
      <trkpt lat="47.18357" lon="-1.87518">
        <ele>79</ele>
        <time>2021-02-07T09:00:21.000Z</time>
      </trkpt>
      <trkpt lat="47.18346" lon="-1.8752">
        <ele>80</ele>
        <time>2021-02-07T09:00:24.000Z</time>
      </trkpt>
      <trkpt lat="47.18334" lon="-1.87522">
        <ele>79</ele>
        <time>2021-02-07T09:00:27.000Z</time>
      </trkpt>
      <trkpt lat="47.18321" lon="-1.87524">
        <ele>79</ele>
        <time>2021-02-07T09:00:30.000Z</time>
      </trkpt>
      <trkpt lat="47.18309" lon="-1.87528">
        <ele>79</ele>
        <time>2021-02-07T09:00:33.000Z</time>
      </trkpt>
      <trkpt lat="47.18297" lon="-1.8753">
        <ele>80</ele>
        <time>2021-02-07T09:00:36.000Z</time>
      </trkpt>
      <trkpt lat="47.18284" lon="-1.87533">
        <ele>80</ele>
        <time>2021-02-07T09:00:39.000Z</time>
      </trkpt>
      <trkpt lat="47.18273" lon="-1.87537">
        <ele>80</ele>
        <time>2021-02-07T09:00:42.000Z</time>
      </trkpt>
      <trkpt lat="47.18257" lon="-1.87548">
        <ele>79</ele>
        <time>2021-02-07T09:00:46.000Z</time>
      </trkpt>
      <trkpt lat="47.18245" lon="-1.87558">
        <ele>79</ele>
        <time>2021-02-07T09:00:49.000Z</time>
      </trkpt>
      <trkpt lat="47.18237" lon="-1.87566">
        <ele>79</ele>
        <time>2021-02-07T09:00:51.000Z</time>
      </trkpt>
      <trkpt lat="47.18229" lon="-1.87573">
        <ele>79</ele>
        <time>2021-02-07T09:00:53.000Z</time>
      </trkpt>
      <trkpt lat="47.1822" lon="-1.87581">
        <ele>79</ele>
        <time>2021-02-07T09:00:55.000Z</time>
      </trkpt>
      <trkpt lat="47.18211" lon="-1.87589">
        <ele>78</ele>
        <time>2021-02-07T09:00:57.000Z</time>
      </trkpt>
      <trkpt lat="47.18198" lon="-1.87602">
        <ele>78</ele>
        <time>2021-02-07T09:01:00.000Z</time>
      </trkpt>
      <trkpt lat="47.18185" lon="-1.87615">
        <ele>79</ele>
        <time>2021-02-07T09:01:03.000Z</time>
      </trkpt>
      <trkpt lat="47.18171" lon="-1.87627">
        <ele>79</ele>
        <time>2021-02-07T09:01:06.000Z</time>
      </trkpt>
      <trkpt lat="47.18162" lon="-1.87634">
        <ele>79</ele>
        <time>2021-02-07T09:01:08.000Z</time>
      </trkpt>
      <trkpt lat="47.18153" lon="-1.8764">
        <ele>79</ele>
        <time>2021-02-07T09:01:10.000Z</time>
      </trkpt>
      <trkpt lat="47.18145" lon="-1.87646">
        <ele>80</ele>
        <time>2021-02-07T09:01:12.000Z</time>
      </trkpt>
      <trkpt lat="47.18136" lon="-1.87651">
        <ele>80</ele>
        <time>2021-02-07T09:01:14.000Z</time>
      </trkpt>
      <trkpt lat="47.18128" lon="-1.87656">
        <ele>81</ele>
        <time>2021-02-07T09:01:16.000Z</time>
      </trkpt>
      <trkpt lat="47.18116" lon="-1.87662">
        <ele>81</ele>
        <time>2021-02-07T09:01:19.000Z</time>
      </trkpt>
      <trkpt lat="47.18108" lon="-1.87668">
        <ele>81</ele>
        <time>2021-02-07T09:01:21.000Z</time>
      </trkpt>
      <trkpt lat="47.18095" lon="-1.87675">
        <ele>82</ele>
        <time>2021-02-07T09:01:24.000Z</time>
      </trkpt>
      <trkpt lat="47.18084" lon="-1.87684">
        <ele>82</ele>
        <time>2021-02-07T09:01:27.000Z</time>
      </trkpt>
      <trkpt lat="47.18072" lon="-1.87693">
        <ele>82</ele>
        <time>2021-02-07T09:01:30.000Z</time>
      </trkpt>
      <trkpt lat="47.18061" lon="-1.87703">
        <ele>82</ele>
        <time>2021-02-07T09:01:33.000Z</time>
      </trkpt>
      <trkpt lat="47.18047" lon="-1.87717">
        <ele>83</ele>
        <time>2021-02-07T09:01:37.000Z</time>
      </trkpt>
      <trkpt lat="47.18032" lon="-1.87732">
        <ele>83</ele>
        <time>2021-02-07T09:01:41.000Z</time>
      </trkpt>
      <trkpt lat="47.18021" lon="-1.87742">
        <ele>84</ele>
        <time>2021-02-07T09:01:44.000Z</time>
      </trkpt>
      <trkpt lat="47.18009" lon="-1.8775">
        <ele>85</ele>
        <time>2021-02-07T09:01:47.000Z</time>
      </trkpt>
      <trkpt lat="47.17998" lon="-1.87757">
        <ele>85</ele>
        <time>2021-02-07T09:01:50.000Z</time>
      </trkpt>
      <trkpt lat="47.17987" lon="-1.87763">
        <ele>85</ele>
        <time>2021-02-07T09:01:53.000Z</time>
      </trkpt>
      <trkpt lat="47.17976" lon="-1.87769">
        <ele>86</ele>
        <time>2021-02-07T09:01:56.000Z</time>
      </trkpt>
      <trkpt lat="47.17966" lon="-1.87775">
        <ele>86</ele>
        <time>2021-02-07T09:01:59.000Z</time>
      </trkpt>
      <trkpt lat="47.17955" lon="-1.8778">
        <ele>87</ele>
        <time>2021-02-07T09:02:02.000Z</time>
      </trkpt>
      <trkpt lat="47.17944" lon="-1.87786">
        <ele>87</ele>
        <time>2021-02-07T09:02:05.000Z</time>
      </trkpt>
      <trkpt lat="47.17934" lon="-1.87791">
        <ele>88</ele>
        <time>2021-02-07T09:02:08.000Z</time>
      </trkpt>
      <trkpt lat="47.17923" lon="-1.87797">
        <ele>88</ele>
        <time>2021-02-07T09:02:11.000Z</time>
      </trkpt>
      <trkpt lat="47.17913" lon="-1.87803">
        <ele>88</ele>
        <time>2021-02-07T09:02:14.000Z</time>
      </trkpt>
      <trkpt lat="47.17902" lon="-1.87807">
        <ele>89</ele>
        <time>2021-02-07T09:02:17.000Z</time>
      </trkpt>
      <trkpt lat="47.17893" lon="-1.87813">
        <ele>89</ele>
        <time>2021-02-07T09:02:20.000Z</time>
      </trkpt>
      <trkpt lat="47.17882" lon="-1.87818">
        <ele>89</ele>
        <time>2021-02-07T09:02:23.000Z</time>
      </trkpt>
      <trkpt lat="47.17872" lon="-1.87824">
        <ele>90</ele>
        <time>2021-02-07T09:02:26.000Z</time>
      </trkpt>
      <trkpt lat="47.17862" lon="-1.87829">
        <ele>91</ele>
        <time>2021-02-07T09:02:29.000Z</time>
      </trkpt>
      <trkpt lat="47.17852" lon="-1.87834">
        <ele>91</ele>
        <time>2021-02-07T09:02:32.000Z</time>
      </trkpt>
      <trkpt lat="47.17842" lon="-1.8784">
        <ele>92</ele>
        <time>2021-02-07T09:02:35.000Z</time>
      </trkpt>
      <trkpt lat="47.17832" lon="-1.87846">
        <ele>93</ele>
        <time>2021-02-07T09:02:38.000Z</time>
      </trkpt>
      <trkpt lat="47.17822" lon="-1.8785">
        <ele>94</ele>
        <time>2021-02-07T09:02:41.000Z</time>
      </trkpt>
      <trkpt lat="47.17813" lon="-1.87855">
        <ele>95</ele>
        <time>2021-02-07T09:02:44.000Z</time>
      </trkpt>
      <trkpt lat="47.17804" lon="-1.8786">
        <ele>95</ele>
        <time>2021-02-07T09:02:47.000Z</time>
      </trkpt>
      <trkpt lat="47.17792" lon="-1.87865">
        <ele>95</ele>
        <time>2021-02-07T09:02:50.000Z</time>
      </trkpt>
      <trkpt lat="47.17782" lon="-1.87871">
        <ele>96</ele>
        <time>2021-02-07T09:02:53.000Z</time>
      </trkpt>
      <trkpt lat="47.1777" lon="-1.87877">
        <ele>96</ele>
        <time>2021-02-07T09:02:56.000Z</time>
      </trkpt>
      <trkpt lat="47.17758" lon="-1.87882">
        <ele>96</ele>
        <time>2021-02-07T09:02:59.000Z</time>
      </trkpt>
      <trkpt lat="47.17747" lon="-1.87889">
        <ele>97</ele>
        <time>2021-02-07T09:03:02.000Z</time>
      </trkpt>
      <trkpt lat="47.17736" lon="-1.87897">
        <ele>96</ele>
        <time>2021-02-07T09:03:05.000Z</time>
      </trkpt>
      <trkpt lat="47.17725" lon="-1.87904">
        <ele>97</ele>
        <time>2021-02-07T09:03:08.000Z</time>
      </trkpt>
      <trkpt lat="47.17714" lon="-1.87911">
        <ele>98</ele>
        <time>2021-02-07T09:03:11.000Z</time>
      </trkpt>
      <trkpt lat="47.17703" lon="-1.87918">
        <ele>98</ele>
        <time>2021-02-07T09:03:14.000Z</time>
      </trkpt>
      <trkpt lat="47.1769" lon="-1.87922">
        <ele>99</ele>
        <time>2021-02-07T09:03:17.000Z</time>
      </trkpt>
      <trkpt lat="47.17681" lon="-1.87921">
        <ele>98</ele>
        <time>2021-02-07T09:03:19.000Z</time>
      </trkpt>
      <trkpt lat="47.17669" lon="-1.87924">
        <ele>98</ele>
        <time>2021-02-07T09:03:22.000Z</time>
      </trkpt>
      <trkpt lat="47.17657" lon="-1.87927">
        <ele>99</ele>
        <time>2021-02-07T09:03:25.000Z</time>
      </trkpt>
      <trkpt lat="47.17644" lon="-1.87931">
        <ele>99</ele>
        <time>2021-02-07T09:03:28.000Z</time>
      </trkpt>
      <trkpt lat="47.17633" lon="-1.87936">
        <ele>99</ele>
        <time>2021-02-07T09:03:31.000Z</time>
      </trkpt>
      <trkpt lat="47.17622" lon="-1.87941">
        <ele>100</ele>
        <time>2021-02-07T09:03:34.000Z</time>
      </trkpt>
      <trkpt lat="47.17612" lon="-1.87947">
        <ele>100</ele>
        <time>2021-02-07T09:03:37.000Z</time>
      </trkpt>
      <trkpt lat="47.17601" lon="-1.87953">
        <ele>100</ele>
        <time>2021-02-07T09:03:40.000Z</time>
      </trkpt>
      <trkpt lat="47.1759" lon="-1.8796">
        <ele>101</ele>
        <time>2021-02-07T09:03:43.000Z</time>
      </trkpt>
      <trkpt lat="47.17579" lon="-1.87967">
        <ele>101</ele>
        <time>2021-02-07T09:03:46.000Z</time>
      </trkpt>
      <trkpt lat="47.17569" lon="-1.87973">
        <ele>101</ele>
        <time>2021-02-07T09:03:49.000Z</time>
      </trkpt>
      <trkpt lat="47.17558" lon="-1.8798">
        <ele>101</ele>
        <time>2021-02-07T09:03:52.000Z</time>
      </trkpt>
      <trkpt lat="47.17549" lon="-1.87986">
        <ele>101</ele>
        <time>2021-02-07T09:03:55.000Z</time>
      </trkpt>
      <trkpt lat="47.1754" lon="-1.87993">
        <ele>102</ele>
        <time>2021-02-07T09:03:58.000Z</time>
      </trkpt>
      <trkpt lat="47.17531" lon="-1.87999">
        <ele>103</ele>
        <time>2021-02-07T09:04:01.000Z</time>
      </trkpt>
      <trkpt lat="47.17522" lon="-1.88005">
        <ele>103</ele>
        <time>2021-02-07T09:04:04.000Z</time>
      </trkpt>
      <trkpt lat="47.17513" lon="-1.88012">
        <ele>103</ele>
        <time>2021-02-07T09:04:07.000Z</time>
      </trkpt>
      <trkpt lat="47.17503" lon="-1.88018">
        <ele>104</ele>
        <time>2021-02-07T09:04:10.000Z</time>
      </trkpt>
      <trkpt lat="47.17494" lon="-1.88024">
        <ele>105</ele>
        <time>2021-02-07T09:04:13.000Z</time>
      </trkpt>
      <trkpt lat="47.17484" lon="-1.8803">
        <ele>105</ele>
        <time>2021-02-07T09:04:16.000Z</time>
      </trkpt>
      <trkpt lat="47.17474" lon="-1.88036">
        <ele>105</ele>
        <time>2021-02-07T09:04:19.000Z</time>
      </trkpt>
      <trkpt lat="47.17463" lon="-1.88043">
        <ele>106</ele>
        <time>2021-02-07T09:04:22.000Z</time>
      </trkpt>
      <trkpt lat="47.17454" lon="-1.88049">
        <ele>107</ele>
        <time>2021-02-07T09:04:25.000Z</time>
      </trkpt>
      <trkpt lat="47.17444" lon="-1.88055">
        <ele>107</ele>
        <time>2021-02-07T09:04:28.000Z</time>
      </trkpt>
      <trkpt lat="47.17435" lon="-1.88061">
        <ele>107</ele>
        <time>2021-02-07T09:04:31.000Z</time>
      </trkpt>
      <trkpt lat="47.17425" lon="-1.88066">
        <ele>108</ele>
        <time>2021-02-07T09:04:34.000Z</time>
      </trkpt>
      <trkpt lat="47.17414" lon="-1.88068">
        <ele>109</ele>
        <time>2021-02-07T09:04:37.000Z</time>
      </trkpt>
      <trkpt lat="47.17404" lon="-1.88072">
        <ele>109</ele>
        <time>2021-02-07T09:04:40.000Z</time>
      </trkpt>
      <trkpt lat="47.17393" lon="-1.88079">
        <ele>108</ele>
        <time>2021-02-07T09:04:43.000Z</time>
      </trkpt>
      <trkpt lat="47.17382" lon="-1.88086">
        <ele>108</ele>
        <time>2021-02-07T09:04:46.000Z</time>
      </trkpt>
      <trkpt lat="47.17371" lon="-1.88093">
        <ele>108</ele>
        <time>2021-02-07T09:04:49.000Z</time>
      </trkpt>
      <trkpt lat="47.1736" lon="-1.88101">
        <ele>108</ele>
        <time>2021-02-07T09:04:52.000Z</time>
      </trkpt>
      <trkpt lat="47.17349" lon="-1.88112">
        <ele>108</ele>
        <time>2021-02-07T09:04:55.000Z</time>
      </trkpt>
      <trkpt lat="47.17344" lon="-1.88123">
        <ele>108</ele>
        <time>2021-02-07T09:04:57.000Z</time>
      </trkpt>
      <trkpt lat="47.17343" lon="-1.88141">
        <ele>107</ele>
        <time>2021-02-07T09:05:00.000Z</time>
      </trkpt>
      <trkpt lat="47.17347" lon="-1.8816">
        <ele>107</ele>
        <time>2021-02-07T09:05:03.000Z</time>
      </trkpt>
      <trkpt lat="47.17352" lon="-1.88177">
        <ele>106</ele>
        <time>2021-02-07T09:05:06.000Z</time>
      </trkpt>
      <trkpt lat="47.17356" lon="-1.8819">
        <ele>105</ele>
        <time>2021-02-07T09:05:08.000Z</time>
      </trkpt>
      <trkpt lat="47.1736" lon="-1.88205">
        <ele>105</ele>
        <time>2021-02-07T09:05:10.000Z</time>
      </trkpt>
      <trkpt lat="47.17364" lon="-1.8822">
        <ele>105</ele>
        <time>2021-02-07T09:05:12.000Z</time>
      </trkpt>
      <trkpt lat="47.17367" lon="-1.88236">
        <ele>105</ele>
        <time>2021-02-07T09:05:14.000Z</time>
      </trkpt>
      <trkpt lat="47.17368" lon="-1.88252">
        <ele>105</ele>
        <time>2021-02-07T09:05:16.000Z</time>
      </trkpt>
      <trkpt lat="47.1737" lon="-1.88268">
        <ele>105</ele>
        <time>2021-02-07T09:05:18.000Z</time>
      </trkpt>
      <trkpt lat="47.17371" lon="-1.88284">
        <ele>104</ele>
        <time>2021-02-07T09:05:20.000Z</time>
      </trkpt>
      <trkpt lat="47.17372" lon="-1.88301">
        <ele>105</ele>
        <time>2021-02-07T09:05:22.000Z</time>
      </trkpt>
      <trkpt lat="47.17373" lon="-1.88317">
        <ele>104</ele>
        <time>2021-02-07T09:05:24.000Z</time>
      </trkpt>
      <trkpt lat="47.17373" lon="-1.88333">
        <ele>104</ele>
        <time>2021-02-07T09:05:26.000Z</time>
      </trkpt>
      <trkpt lat="47.17374" lon="-1.8835">
        <ele>104</ele>
        <time>2021-02-07T09:05:28.000Z</time>
      </trkpt>
      <trkpt lat="47.17375" lon="-1.88365">
        <ele>104</ele>
        <time>2021-02-07T09:05:30.000Z</time>
      </trkpt>
      <trkpt lat="47.17376" lon="-1.88381">
        <ele>103</ele>
        <time>2021-02-07T09:05:32.000Z</time>
      </trkpt>
      <trkpt lat="47.17378" lon="-1.88397">
        <ele>103</ele>
        <time>2021-02-07T09:05:34.000Z</time>
      </trkpt>
      <trkpt lat="47.17379" lon="-1.88413">
        <ele>103</ele>
        <time>2021-02-07T09:05:36.000Z</time>
      </trkpt>
      <trkpt lat="47.17379" lon="-1.88429">
        <ele>103</ele>
        <time>2021-02-07T09:05:38.000Z</time>
      </trkpt>
      <trkpt lat="47.1738" lon="-1.88444">
        <ele>103</ele>
        <time>2021-02-07T09:05:40.000Z</time>
      </trkpt>
      <trkpt lat="47.17381" lon="-1.8846">
        <ele>103</ele>
        <time>2021-02-07T09:05:42.000Z</time>
      </trkpt>
      <trkpt lat="47.17382" lon="-1.88475">
        <ele>103</ele>
        <time>2021-02-07T09:05:44.000Z</time>
      </trkpt>
      <trkpt lat="47.17382" lon="-1.88491">
        <ele>103</ele>
        <time>2021-02-07T09:05:46.000Z</time>
      </trkpt>
      <trkpt lat="47.17383" lon="-1.88506">
        <ele>104</ele>
        <time>2021-02-07T09:05:48.000Z</time>
      </trkpt>
      <trkpt lat="47.17384" lon="-1.88521">
        <ele>103</ele>
        <time>2021-02-07T09:05:50.000Z</time>
      </trkpt>
      <trkpt lat="47.17384" lon="-1.88536">
        <ele>103</ele>
        <time>2021-02-07T09:05:52.000Z</time>
      </trkpt>
      <trkpt lat="47.17385" lon="-1.88551">
        <ele>103</ele>
        <time>2021-02-07T09:05:54.000Z</time>
      </trkpt>
      <trkpt lat="47.17386" lon="-1.88567">
        <ele>103</ele>
        <time>2021-02-07T09:05:56.000Z</time>
      </trkpt>
      <trkpt lat="47.17387" lon="-1.88582">
        <ele>103</ele>
        <time>2021-02-07T09:05:58.000Z</time>
      </trkpt>
      <trkpt lat="47.17388" lon="-1.88597">
        <ele>103</ele>
        <time>2021-02-07T09:06:00.000Z</time>
      </trkpt>
      <trkpt lat="47.17389" lon="-1.88612">
        <ele>103</ele>
        <time>2021-02-07T09:06:02.000Z</time>
      </trkpt>
      <trkpt lat="47.1739" lon="-1.88627">
        <ele>103</ele>
        <time>2021-02-07T09:06:04.000Z</time>
      </trkpt>
      <trkpt lat="47.1739" lon="-1.88642">
        <ele>104</ele>
        <time>2021-02-07T09:06:06.000Z</time>
      </trkpt>
      <trkpt lat="47.17391" lon="-1.88657">
        <ele>104</ele>
        <time>2021-02-07T09:06:08.000Z</time>
      </trkpt>
      <trkpt lat="47.17393" lon="-1.88671">
        <ele>104</ele>
        <time>2021-02-07T09:06:10.000Z</time>
      </trkpt>
      <trkpt lat="47.17393" lon="-1.88686">
        <ele>104</ele>
        <time>2021-02-07T09:06:12.000Z</time>
      </trkpt>
      <trkpt lat="47.17394" lon="-1.88701">
        <ele>104</ele>
        <time>2021-02-07T09:06:14.000Z</time>
      </trkpt>
      <trkpt lat="47.17395" lon="-1.88715">
        <ele>104</ele>
        <time>2021-02-07T09:06:16.000Z</time>
      </trkpt>
      <trkpt lat="47.17395" lon="-1.8873">
        <ele>104</ele>
        <time>2021-02-07T09:06:18.000Z</time>
      </trkpt>
      <trkpt lat="47.17396" lon="-1.88744">
        <ele>104</ele>
        <time>2021-02-07T09:06:20.000Z</time>
      </trkpt>
      <trkpt lat="47.17397" lon="-1.88758">
        <ele>105</ele>
        <time>2021-02-07T09:06:22.000Z</time>
      </trkpt>
      <trkpt lat="47.17398" lon="-1.88772">
        <ele>105</ele>
        <time>2021-02-07T09:06:24.000Z</time>
      </trkpt>
      <trkpt lat="47.17399" lon="-1.88787">
        <ele>105</ele>
        <time>2021-02-07T09:06:26.000Z</time>
      </trkpt>
      <trkpt lat="47.174" lon="-1.88801">
        <ele>104</ele>
        <time>2021-02-07T09:06:28.000Z</time>
      </trkpt>
      <trkpt lat="47.17403" lon="-1.88816">
        <ele>104</ele>
        <time>2021-02-07T09:06:30.000Z</time>
      </trkpt>
      <trkpt lat="47.17405" lon="-1.88831">
        <ele>104</ele>
        <time>2021-02-07T09:06:32.000Z</time>
      </trkpt>
      <trkpt lat="47.17408" lon="-1.88846">
        <ele>104</ele>
        <time>2021-02-07T09:06:34.000Z</time>
      </trkpt>
      <trkpt lat="47.17411" lon="-1.88862">
        <ele>104</ele>
        <time>2021-02-07T09:06:36.000Z</time>
      </trkpt>
      <trkpt lat="47.17415" lon="-1.88877">
        <ele>104</ele>
        <time>2021-02-07T09:06:38.000Z</time>
      </trkpt>
      <trkpt lat="47.17418" lon="-1.88892">
        <ele>104</ele>
        <time>2021-02-07T09:06:40.000Z</time>
      </trkpt>
      <trkpt lat="47.17422" lon="-1.88907">
        <ele>103</ele>
        <time>2021-02-07T09:06:42.000Z</time>
      </trkpt>
      <trkpt lat="47.17425" lon="-1.88921">
        <ele>103</ele>
        <time>2021-02-07T09:06:44.000Z</time>
      </trkpt>
      <trkpt lat="47.17428" lon="-1.88936">
        <ele>103</ele>
        <time>2021-02-07T09:06:46.000Z</time>
      </trkpt>
      <trkpt lat="47.17432" lon="-1.8895">
        <ele>103</ele>
        <time>2021-02-07T09:06:48.000Z</time>
      </trkpt>
      <trkpt lat="47.17435" lon="-1.88965">
        <ele>103</ele>
        <time>2021-02-07T09:06:50.000Z</time>
      </trkpt>
      <trkpt lat="47.17438" lon="-1.8898">
        <ele>103</ele>
        <time>2021-02-07T09:06:52.000Z</time>
      </trkpt>
      <trkpt lat="47.17441" lon="-1.88994">
        <ele>103</ele>
        <time>2021-02-07T09:06:54.000Z</time>
      </trkpt>
      <trkpt lat="47.17445" lon="-1.89008">
        <ele>103</ele>
        <time>2021-02-07T09:06:56.000Z</time>
      </trkpt>
      <trkpt lat="47.17447" lon="-1.89021">
        <ele>103</ele>
        <time>2021-02-07T09:06:58.000Z</time>
      </trkpt>
      <trkpt lat="47.1745" lon="-1.89036">
        <ele>103</ele>
        <time>2021-02-07T09:07:00.000Z</time>
      </trkpt>
      <trkpt lat="47.17453" lon="-1.8905">
        <ele>103</ele>
        <time>2021-02-07T09:07:02.000Z</time>
      </trkpt>
      <trkpt lat="47.17455" lon="-1.89065">
        <ele>103</ele>
        <time>2021-02-07T09:07:04.000Z</time>
      </trkpt>
      <trkpt lat="47.17459" lon="-1.89079">
        <ele>103</ele>
        <time>2021-02-07T09:07:06.000Z</time>
      </trkpt>
      <trkpt lat="47.17462" lon="-1.89093">
        <ele>103</ele>
        <time>2021-02-07T09:07:08.000Z</time>
      </trkpt>
      <trkpt lat="47.17465" lon="-1.89107">
        <ele>103</ele>
        <time>2021-02-07T09:07:10.000Z</time>
      </trkpt>
      <trkpt lat="47.17468" lon="-1.89121">
        <ele>103</ele>
        <time>2021-02-07T09:07:12.000Z</time>
      </trkpt>
      <trkpt lat="47.17472" lon="-1.89135">
        <ele>104</ele>
        <time>2021-02-07T09:07:14.000Z</time>
      </trkpt>
      <trkpt lat="47.17475" lon="-1.89149">
        <ele>104</ele>
        <time>2021-02-07T09:07:16.000Z</time>
      </trkpt>
      <trkpt lat="47.17478" lon="-1.89164">
        <ele>104</ele>
        <time>2021-02-07T09:07:18.000Z</time>
      </trkpt>
      <trkpt lat="47.1748" lon="-1.89178">
        <ele>104</ele>
        <time>2021-02-07T09:07:20.000Z</time>
      </trkpt>
      <trkpt lat="47.17481" lon="-1.89193">
        <ele>104</ele>
        <time>2021-02-07T09:07:22.000Z</time>
      </trkpt>
      <trkpt lat="47.17482" lon="-1.89208">
        <ele>104</ele>
        <time>2021-02-07T09:07:24.000Z</time>
      </trkpt>
      <trkpt lat="47.17483" lon="-1.89222">
        <ele>104</ele>
        <time>2021-02-07T09:07:26.000Z</time>
      </trkpt>
      <trkpt lat="47.17482" lon="-1.89238">
        <ele>104</ele>
        <time>2021-02-07T09:07:28.000Z</time>
      </trkpt>
      <trkpt lat="47.17481" lon="-1.89253">
        <ele>104</ele>
        <time>2021-02-07T09:07:30.000Z</time>
      </trkpt>
      <trkpt lat="47.17481" lon="-1.89269">
        <ele>104</ele>
        <time>2021-02-07T09:07:32.000Z</time>
      </trkpt>
      <trkpt lat="47.17479" lon="-1.89284">
        <ele>104</ele>
        <time>2021-02-07T09:07:34.000Z</time>
      </trkpt>
      <trkpt lat="47.17478" lon="-1.89299">
        <ele>104</ele>
        <time>2021-02-07T09:07:36.000Z</time>
      </trkpt>
      <trkpt lat="47.17477" lon="-1.89314">
        <ele>104</ele>
        <time>2021-02-07T09:07:38.000Z</time>
      </trkpt>
      <trkpt lat="47.17476" lon="-1.89329">
        <ele>104</ele>
        <time>2021-02-07T09:07:40.000Z</time>
      </trkpt>
      <trkpt lat="47.17475" lon="-1.89344">
        <ele>104</ele>
        <time>2021-02-07T09:07:42.000Z</time>
      </trkpt>
      <trkpt lat="47.17476" lon="-1.89359">
        <ele>104</ele>
        <time>2021-02-07T09:07:44.000Z</time>
      </trkpt>
      <trkpt lat="47.17476" lon="-1.89373">
        <ele>104</ele>
        <time>2021-02-07T09:07:46.000Z</time>
      </trkpt>
      <trkpt lat="47.17477" lon="-1.89388">
        <ele>104</ele>
        <time>2021-02-07T09:07:48.000Z</time>
      </trkpt>
      <trkpt lat="47.17479" lon="-1.89402">
        <ele>105</ele>
        <time>2021-02-07T09:07:50.000Z</time>
      </trkpt>
      <trkpt lat="47.17481" lon="-1.89417">
        <ele>105</ele>
        <time>2021-02-07T09:07:52.000Z</time>
      </trkpt>
      <trkpt lat="47.17482" lon="-1.89432">
        <ele>105</ele>
        <time>2021-02-07T09:07:54.000Z</time>
      </trkpt>
      <trkpt lat="47.17483" lon="-1.89448">
        <ele>105</ele>
        <time>2021-02-07T09:07:56.000Z</time>
      </trkpt>
      <trkpt lat="47.17484" lon="-1.89463">
        <ele>106</ele>
        <time>2021-02-07T09:07:58.000Z</time>
      </trkpt>
      <trkpt lat="47.17486" lon="-1.89479">
        <ele>106</ele>
        <time>2021-02-07T09:08:00.000Z</time>
      </trkpt>
      <trkpt lat="47.17488" lon="-1.89494">
        <ele>106</ele>
        <time>2021-02-07T09:08:02.000Z</time>
      </trkpt>
      <trkpt lat="47.17489" lon="-1.8951">
        <ele>106</ele>
        <time>2021-02-07T09:08:04.000Z</time>
      </trkpt>
      <trkpt lat="47.1749" lon="-1.89526">
        <ele>106</ele>
        <time>2021-02-07T09:08:06.000Z</time>
      </trkpt>
      <trkpt lat="47.17491" lon="-1.89542">
        <ele>106</ele>
        <time>2021-02-07T09:08:08.000Z</time>
      </trkpt>
      <trkpt lat="47.17491" lon="-1.89558">
        <ele>107</ele>
        <time>2021-02-07T09:08:10.000Z</time>
      </trkpt>
      <trkpt lat="47.17491" lon="-1.89574">
        <ele>106</ele>
        <time>2021-02-07T09:08:12.000Z</time>
      </trkpt>
      <trkpt lat="47.1749" lon="-1.8959">
        <ele>106</ele>
        <time>2021-02-07T09:08:14.000Z</time>
      </trkpt>
      <trkpt lat="47.17488" lon="-1.89605">
        <ele>107</ele>
        <time>2021-02-07T09:08:16.000Z</time>
      </trkpt>
      <trkpt lat="47.17485" lon="-1.89619">
        <ele>107</ele>
        <time>2021-02-07T09:08:18.000Z</time>
      </trkpt>
      <trkpt lat="47.17483" lon="-1.89634">
        <ele>107</ele>
        <time>2021-02-07T09:08:20.000Z</time>
      </trkpt>
      <trkpt lat="47.1748" lon="-1.89649">
        <ele>107</ele>
        <time>2021-02-07T09:08:22.000Z</time>
      </trkpt>
      <trkpt lat="47.17476" lon="-1.89663">
        <ele>107</ele>
        <time>2021-02-07T09:08:24.000Z</time>
      </trkpt>
      <trkpt lat="47.17473" lon="-1.89678">
        <ele>108</ele>
        <time>2021-02-07T09:08:26.000Z</time>
      </trkpt>
      <trkpt lat="47.17469" lon="-1.89693">
        <ele>108</ele>
        <time>2021-02-07T09:08:28.000Z</time>
      </trkpt>
      <trkpt lat="47.17466" lon="-1.89708">
        <ele>108</ele>
        <time>2021-02-07T09:08:30.000Z</time>
      </trkpt>
      <trkpt lat="47.17463" lon="-1.89722">
        <ele>108</ele>
        <time>2021-02-07T09:08:32.000Z</time>
      </trkpt>
      <trkpt lat="47.1746" lon="-1.89737">
        <ele>108</ele>
        <time>2021-02-07T09:08:34.000Z</time>
      </trkpt>
      <trkpt lat="47.17457" lon="-1.89751">
        <ele>108</ele>
        <time>2021-02-07T09:08:36.000Z</time>
      </trkpt>
      <trkpt lat="47.17454" lon="-1.89765">
        <ele>108</ele>
        <time>2021-02-07T09:08:38.000Z</time>
      </trkpt>
      <trkpt lat="47.17451" lon="-1.89779">
        <ele>108</ele>
        <time>2021-02-07T09:08:40.000Z</time>
      </trkpt>
      <trkpt lat="47.17448" lon="-1.89792">
        <ele>108</ele>
        <time>2021-02-07T09:08:42.000Z</time>
      </trkpt>
      <trkpt lat="47.17445" lon="-1.89807">
        <ele>108</ele>
        <time>2021-02-07T09:08:44.000Z</time>
      </trkpt>
      <trkpt lat="47.17442" lon="-1.89821">
        <ele>108</ele>
        <time>2021-02-07T09:08:46.000Z</time>
      </trkpt>
      <trkpt lat="47.17439" lon="-1.89835">
        <ele>108</ele>
        <time>2021-02-07T09:08:48.000Z</time>
      </trkpt>
      <trkpt lat="47.17436" lon="-1.89849">
        <ele>107</ele>
        <time>2021-02-07T09:08:50.000Z</time>
      </trkpt>
      <trkpt lat="47.17432" lon="-1.89863">
        <ele>107</ele>
        <time>2021-02-07T09:08:52.000Z</time>
      </trkpt>
      <trkpt lat="47.17429" lon="-1.89877">
        <ele>107</ele>
        <time>2021-02-07T09:08:54.000Z</time>
      </trkpt>
      <trkpt lat="47.17426" lon="-1.89891">
        <ele>107</ele>
        <time>2021-02-07T09:08:56.000Z</time>
      </trkpt>
      <trkpt lat="47.17423" lon="-1.89905">
        <ele>107</ele>
        <time>2021-02-07T09:08:58.000Z</time>
      </trkpt>
      <trkpt lat="47.17419" lon="-1.89919">
        <ele>107</ele>
        <time>2021-02-07T09:09:00.000Z</time>
      </trkpt>
      <trkpt lat="47.17417" lon="-1.89933">
        <ele>107</ele>
        <time>2021-02-07T09:09:02.000Z</time>
      </trkpt>
      <trkpt lat="47.17413" lon="-1.89951">
        <ele>107</ele>
        <time>2021-02-07T09:09:05.000Z</time>
      </trkpt>
      <trkpt lat="47.17409" lon="-1.89966">
        <ele>107</ele>
        <time>2021-02-07T09:09:08.000Z</time>
      </trkpt>
      <trkpt lat="47.174" lon="-1.8997">
        <ele>107</ele>
        <time>2021-02-07T09:09:10.000Z</time>
      </trkpt>
      <trkpt lat="47.17389" lon="-1.89971">
        <ele>106</ele>
        <time>2021-02-07T09:09:12.000Z</time>
      </trkpt>
      <trkpt lat="47.17378" lon="-1.89971">
        <ele>106</ele>
        <time>2021-02-07T09:09:14.000Z</time>
      </trkpt>
      <trkpt lat="47.17367" lon="-1.89971">
        <ele>107</ele>
        <time>2021-02-07T09:09:16.000Z</time>
      </trkpt>
      <trkpt lat="47.17356" lon="-1.89971">
        <ele>106</ele>
        <time>2021-02-07T09:09:18.000Z</time>
      </trkpt>
      <trkpt lat="47.17345" lon="-1.89971">
        <ele>106</ele>
        <time>2021-02-07T09:09:20.000Z</time>
      </trkpt>
      <trkpt lat="47.17334" lon="-1.89971">
        <ele>106</ele>
        <time>2021-02-07T09:09:22.000Z</time>
      </trkpt>
      <trkpt lat="47.17322" lon="-1.8997">
        <ele>106</ele>
        <time>2021-02-07T09:09:24.000Z</time>
      </trkpt>
      <trkpt lat="47.17311" lon="-1.89971">
        <ele>106</ele>
        <time>2021-02-07T09:09:26.000Z</time>
      </trkpt>
      <trkpt lat="47.173" lon="-1.89972">
        <ele>106</ele>
        <time>2021-02-07T09:09:28.000Z</time>
      </trkpt>
      <trkpt lat="47.17288" lon="-1.89971">
        <ele>106</ele>
        <time>2021-02-07T09:09:30.000Z</time>
      </trkpt>
      <trkpt lat="47.17276" lon="-1.89972">
        <ele>106</ele>
        <time>2021-02-07T09:09:32.000Z</time>
      </trkpt>
      <trkpt lat="47.17265" lon="-1.89972">
        <ele>106</ele>
        <time>2021-02-07T09:09:34.000Z</time>
      </trkpt>
      <trkpt lat="47.17254" lon="-1.89972">
        <ele>106</ele>
        <time>2021-02-07T09:09:36.000Z</time>
      </trkpt>
      <trkpt lat="47.17242" lon="-1.89972">
        <ele>106</ele>
        <time>2021-02-07T09:09:38.000Z</time>
      </trkpt>
      <trkpt lat="47.1723" lon="-1.89972">
        <ele>106</ele>
        <time>2021-02-07T09:09:40.000Z</time>
      </trkpt>
      <trkpt lat="47.17219" lon="-1.89974">
        <ele>106</ele>
        <time>2021-02-07T09:09:42.000Z</time>
      </trkpt>
      <trkpt lat="47.17208" lon="-1.89974">
        <ele>106</ele>
        <time>2021-02-07T09:09:44.000Z</time>
      </trkpt>
      <trkpt lat="47.17197" lon="-1.89975">
        <ele>106</ele>
        <time>2021-02-07T09:09:46.000Z</time>
      </trkpt>
      <trkpt lat="47.17185" lon="-1.89976">
        <ele>106</ele>
        <time>2021-02-07T09:09:48.000Z</time>
      </trkpt>
      <trkpt lat="47.17173" lon="-1.89976">
        <ele>106</ele>
        <time>2021-02-07T09:09:50.000Z</time>
      </trkpt>
      <trkpt lat="47.17161" lon="-1.89976">
        <ele>106</ele>
        <time>2021-02-07T09:09:52.000Z</time>
      </trkpt>
      <trkpt lat="47.17149" lon="-1.89976">
        <ele>106</ele>
        <time>2021-02-07T09:09:54.000Z</time>
      </trkpt>
      <trkpt lat="47.17138" lon="-1.89976">
        <ele>105</ele>
        <time>2021-02-07T09:09:56.000Z</time>
      </trkpt>
      <trkpt lat="47.17127" lon="-1.89977">
        <ele>106</ele>
        <time>2021-02-07T09:09:58.000Z</time>
      </trkpt>
      <trkpt lat="47.17116" lon="-1.89976">
        <ele>105</ele>
        <time>2021-02-07T09:10:00.000Z</time>
      </trkpt>
      <trkpt lat="47.17104" lon="-1.89977">
        <ele>105</ele>
        <time>2021-02-07T09:10:02.000Z</time>
      </trkpt>
      <trkpt lat="47.17092" lon="-1.89977">
        <ele>105</ele>
        <time>2021-02-07T09:10:04.000Z</time>
      </trkpt>
      <trkpt lat="47.1708" lon="-1.89978">
        <ele>105</ele>
        <time>2021-02-07T09:10:06.000Z</time>
      </trkpt>
      <trkpt lat="47.1707" lon="-1.89979">
        <ele>106</ele>
        <time>2021-02-07T09:10:08.000Z</time>
      </trkpt>
      <trkpt lat="47.17059" lon="-1.89979">
        <ele>106</ele>
        <time>2021-02-07T09:10:10.000Z</time>
      </trkpt>
      <trkpt lat="47.17047" lon="-1.8998">
        <ele>106</ele>
        <time>2021-02-07T09:10:12.000Z</time>
      </trkpt>
      <trkpt lat="47.17036" lon="-1.89981">
        <ele>106</ele>
        <time>2021-02-07T09:10:14.000Z</time>
      </trkpt>
      <trkpt lat="47.17024" lon="-1.89982">
        <ele>105</ele>
        <time>2021-02-07T09:10:16.000Z</time>
      </trkpt>
      <trkpt lat="47.17012" lon="-1.89982">
        <ele>105</ele>
        <time>2021-02-07T09:10:18.000Z</time>
      </trkpt>
      <trkpt lat="47.16999" lon="-1.89983">
        <ele>105</ele>
        <time>2021-02-07T09:10:20.000Z</time>
      </trkpt>
      <trkpt lat="47.16988" lon="-1.89985">
        <ele>105</ele>
        <time>2021-02-07T09:10:22.000Z</time>
      </trkpt>
      <trkpt lat="47.16977" lon="-1.89988">
        <ele>105</ele>
        <time>2021-02-07T09:10:24.000Z</time>
      </trkpt>
      <trkpt lat="47.16966" lon="-1.8999">
        <ele>105</ele>
        <time>2021-02-07T09:10:26.000Z</time>
      </trkpt>
      <trkpt lat="47.16955" lon="-1.89993">
        <ele>105</ele>
        <time>2021-02-07T09:10:28.000Z</time>
      </trkpt>
      <trkpt lat="47.16943" lon="-1.89995">
        <ele>104</ele>
        <time>2021-02-07T09:10:30.000Z</time>
      </trkpt>
      <trkpt lat="47.16933" lon="-1.89999">
        <ele>104</ele>
        <time>2021-02-07T09:10:32.000Z</time>
      </trkpt>
      <trkpt lat="47.16922" lon="-1.90001">
        <ele>104</ele>
        <time>2021-02-07T09:10:34.000Z</time>
      </trkpt>
      <trkpt lat="47.16911" lon="-1.90003">
        <ele>103</ele>
        <time>2021-02-07T09:10:36.000Z</time>
      </trkpt>
      <trkpt lat="47.16899" lon="-1.90005">
        <ele>103</ele>
        <time>2021-02-07T09:10:38.000Z</time>
      </trkpt>
      <trkpt lat="47.16888" lon="-1.90007">
        <ele>103</ele>
        <time>2021-02-07T09:10:40.000Z</time>
      </trkpt>
      <trkpt lat="47.16876" lon="-1.90009">
        <ele>104</ele>
        <time>2021-02-07T09:10:42.000Z</time>
      </trkpt>
      <trkpt lat="47.16865" lon="-1.90012">
        <ele>104</ele>
        <time>2021-02-07T09:10:44.000Z</time>
      </trkpt>
      <trkpt lat="47.16853" lon="-1.90014">
        <ele>104</ele>
        <time>2021-02-07T09:10:46.000Z</time>
      </trkpt>
      <trkpt lat="47.16841" lon="-1.90016">
        <ele>104</ele>
        <time>2021-02-07T09:10:48.000Z</time>
      </trkpt>
      <trkpt lat="47.1683" lon="-1.90017">
        <ele>104</ele>
        <time>2021-02-07T09:10:50.000Z</time>
      </trkpt>
      <trkpt lat="47.16818" lon="-1.9002">
        <ele>104</ele>
        <time>2021-02-07T09:10:52.000Z</time>
      </trkpt>
      <trkpt lat="47.16807" lon="-1.90022">
        <ele>104</ele>
        <time>2021-02-07T09:10:54.000Z</time>
      </trkpt>
      <trkpt lat="47.16796" lon="-1.90024">
        <ele>103</ele>
        <time>2021-02-07T09:10:56.000Z</time>
      </trkpt>
      <trkpt lat="47.16784" lon="-1.90026">
        <ele>104</ele>
        <time>2021-02-07T09:10:58.000Z</time>
      </trkpt>
      <trkpt lat="47.16773" lon="-1.90028">
        <ele>103</ele>
        <time>2021-02-07T09:11:00.000Z</time>
      </trkpt>
      <trkpt lat="47.16762" lon="-1.90031">
        <ele>103</ele>
        <time>2021-02-07T09:11:02.000Z</time>
      </trkpt>
      <trkpt lat="47.16752" lon="-1.90033">
        <ele>104</ele>
        <time>2021-02-07T09:11:04.000Z</time>
      </trkpt>
      <trkpt lat="47.16741" lon="-1.90035">
        <ele>104</ele>
        <time>2021-02-07T09:11:06.000Z</time>
      </trkpt>
      <trkpt lat="47.1673" lon="-1.90037">
        <ele>104</ele>
        <time>2021-02-07T09:11:08.000Z</time>
      </trkpt>
      <trkpt lat="47.16719" lon="-1.9004">
        <ele>104</ele>
        <time>2021-02-07T09:11:10.000Z</time>
      </trkpt>
      <trkpt lat="47.16709" lon="-1.90042">
        <ele>105</ele>
        <time>2021-02-07T09:11:12.000Z</time>
      </trkpt>
      <trkpt lat="47.16697" lon="-1.90045">
        <ele>105</ele>
        <time>2021-02-07T09:11:14.000Z</time>
      </trkpt>
      <trkpt lat="47.16686" lon="-1.90049">
        <ele>106</ele>
        <time>2021-02-07T09:11:16.000Z</time>
      </trkpt>
      <trkpt lat="47.16676" lon="-1.90052">
        <ele>106</ele>
        <time>2021-02-07T09:11:18.000Z</time>
      </trkpt>
      <trkpt lat="47.16664" lon="-1.90055">
        <ele>106</ele>
        <time>2021-02-07T09:11:20.000Z</time>
      </trkpt>
      <trkpt lat="47.16653" lon="-1.90057">
        <ele>105</ele>
        <time>2021-02-07T09:11:22.000Z</time>
      </trkpt>
      <trkpt lat="47.1664" lon="-1.90059">
        <ele>104</ele>
        <time>2021-02-07T09:11:24.000Z</time>
      </trkpt>
      <trkpt lat="47.16629" lon="-1.90061">
        <ele>104</ele>
        <time>2021-02-07T09:11:26.000Z</time>
      </trkpt>
      <trkpt lat="47.16617" lon="-1.90063">
        <ele>103</ele>
        <time>2021-02-07T09:11:28.000Z</time>
      </trkpt>
      <trkpt lat="47.16605" lon="-1.90066">
        <ele>103</ele>
        <time>2021-02-07T09:11:30.000Z</time>
      </trkpt>
      <trkpt lat="47.16594" lon="-1.90068">
        <ele>103</ele>
        <time>2021-02-07T09:11:32.000Z</time>
      </trkpt>
      <trkpt lat="47.16583" lon="-1.90069">
        <ele>103</ele>
        <time>2021-02-07T09:11:34.000Z</time>
      </trkpt>
      <trkpt lat="47.16572" lon="-1.90071">
        <ele>102</ele>
        <time>2021-02-07T09:11:36.000Z</time>
      </trkpt>
      <trkpt lat="47.1656" lon="-1.90073">
        <ele>103</ele>
        <time>2021-02-07T09:11:38.000Z</time>
      </trkpt>
      <trkpt lat="47.16549" lon="-1.90076">
        <ele>103</ele>
        <time>2021-02-07T09:11:40.000Z</time>
      </trkpt>
      <trkpt lat="47.16537" lon="-1.90081">
        <ele>103</ele>
        <time>2021-02-07T09:11:42.000Z</time>
      </trkpt>
      <trkpt lat="47.16526" lon="-1.90083">
        <ele>104</ele>
        <time>2021-02-07T09:11:44.000Z</time>
      </trkpt>
      <trkpt lat="47.16515" lon="-1.90086">
        <ele>104</ele>
        <time>2021-02-07T09:11:46.000Z</time>
      </trkpt>
      <trkpt lat="47.16505" lon="-1.9009">
        <ele>105</ele>
        <time>2021-02-07T09:11:48.000Z</time>
      </trkpt>
      <trkpt lat="47.16494" lon="-1.90094">
        <ele>105</ele>
        <time>2021-02-07T09:11:50.000Z</time>
      </trkpt>
      <trkpt lat="47.16483" lon="-1.90097">
        <ele>105</ele>
        <time>2021-02-07T09:11:52.000Z</time>
      </trkpt>
      <trkpt lat="47.16473" lon="-1.901">
        <ele>105</ele>
        <time>2021-02-07T09:11:54.000Z</time>
      </trkpt>
      <trkpt lat="47.16462" lon="-1.90102">
        <ele>105</ele>
        <time>2021-02-07T09:11:56.000Z</time>
      </trkpt>
      <trkpt lat="47.16452" lon="-1.90104">
        <ele>104</ele>
        <time>2021-02-07T09:11:58.000Z</time>
      </trkpt>
      <trkpt lat="47.16441" lon="-1.90105">
        <ele>105</ele>
        <time>2021-02-07T09:12:00.000Z</time>
      </trkpt>
      <trkpt lat="47.1643" lon="-1.90108">
        <ele>106</ele>
        <time>2021-02-07T09:12:02.000Z</time>
      </trkpt>
      <trkpt lat="47.16418" lon="-1.90108">
        <ele>106</ele>
        <time>2021-02-07T09:12:04.000Z</time>
      </trkpt>
      <trkpt lat="47.16408" lon="-1.90109">
        <ele>106</ele>
        <time>2021-02-07T09:12:06.000Z</time>
      </trkpt>
      <trkpt lat="47.16396" lon="-1.90112">
        <ele>105</ele>
        <time>2021-02-07T09:12:08.000Z</time>
      </trkpt>
      <trkpt lat="47.16385" lon="-1.90114">
        <ele>106</ele>
        <time>2021-02-07T09:12:10.000Z</time>
      </trkpt>
      <trkpt lat="47.16372" lon="-1.90117">
        <ele>106</ele>
        <time>2021-02-07T09:12:12.000Z</time>
      </trkpt>
      <trkpt lat="47.1636" lon="-1.90118">
        <ele>106</ele>
        <time>2021-02-07T09:12:14.000Z</time>
      </trkpt>
      <trkpt lat="47.16349" lon="-1.90121">
        <ele>105</ele>
        <time>2021-02-07T09:12:16.000Z</time>
      </trkpt>
      <trkpt lat="47.16338" lon="-1.90124">
        <ele>105</ele>
        <time>2021-02-07T09:12:18.000Z</time>
      </trkpt>
      <trkpt lat="47.16328" lon="-1.90127">
        <ele>104</ele>
        <time>2021-02-07T09:12:20.000Z</time>
      </trkpt>
      <trkpt lat="47.16317" lon="-1.9013">
        <ele>104</ele>
        <time>2021-02-07T09:12:22.000Z</time>
      </trkpt>
      <trkpt lat="47.16306" lon="-1.90132">
        <ele>104</ele>
        <time>2021-02-07T09:12:24.000Z</time>
      </trkpt>
      <trkpt lat="47.16295" lon="-1.90134">
        <ele>104</ele>
        <time>2021-02-07T09:12:26.000Z</time>
      </trkpt>
      <trkpt lat="47.16283" lon="-1.90136">
        <ele>103</ele>
        <time>2021-02-07T09:12:28.000Z</time>
      </trkpt>
      <trkpt lat="47.16272" lon="-1.90138">
        <ele>104</ele>
        <time>2021-02-07T09:12:30.000Z</time>
      </trkpt>
      <trkpt lat="47.16261" lon="-1.9014">
        <ele>104</ele>
        <time>2021-02-07T09:12:32.000Z</time>
      </trkpt>
      <trkpt lat="47.16249" lon="-1.90142">
        <ele>104</ele>
        <time>2021-02-07T09:12:34.000Z</time>
      </trkpt>
      <trkpt lat="47.16239" lon="-1.90144">
        <ele>104</ele>
        <time>2021-02-07T09:12:36.000Z</time>
      </trkpt>
      <trkpt lat="47.16227" lon="-1.90146">
        <ele>105</ele>
        <time>2021-02-07T09:12:38.000Z</time>
      </trkpt>
      <trkpt lat="47.16215" lon="-1.90149">
        <ele>105</ele>
        <time>2021-02-07T09:12:40.000Z</time>
      </trkpt>
      <trkpt lat="47.16203" lon="-1.90153">
        <ele>105</ele>
        <time>2021-02-07T09:12:42.000Z</time>
      </trkpt>
      <trkpt lat="47.16191" lon="-1.90156">
        <ele>104</ele>
        <time>2021-02-07T09:12:44.000Z</time>
      </trkpt>
      <trkpt lat="47.16178" lon="-1.90159">
        <ele>104</ele>
        <time>2021-02-07T09:12:46.000Z</time>
      </trkpt>
      <trkpt lat="47.16164" lon="-1.90162">
        <ele>104</ele>
        <time>2021-02-07T09:12:48.000Z</time>
      </trkpt>
      <trkpt lat="47.16152" lon="-1.90166">
        <ele>104</ele>
        <time>2021-02-07T09:12:50.000Z</time>
      </trkpt>
      <trkpt lat="47.16139" lon="-1.9017">
        <ele>104</ele>
        <time>2021-02-07T09:12:52.000Z</time>
      </trkpt>
      <trkpt lat="47.16127" lon="-1.90174">
        <ele>104</ele>
        <time>2021-02-07T09:12:54.000Z</time>
      </trkpt>
      <trkpt lat="47.16114" lon="-1.90176">
        <ele>103</ele>
        <time>2021-02-07T09:12:56.000Z</time>
      </trkpt>
      <trkpt lat="47.16101" lon="-1.90179">
        <ele>103</ele>
        <time>2021-02-07T09:12:58.000Z</time>
      </trkpt>
      <trkpt lat="47.16088" lon="-1.90182">
        <ele>103</ele>
        <time>2021-02-07T09:13:00.000Z</time>
      </trkpt>
      <trkpt lat="47.16075" lon="-1.90184">
        <ele>103</ele>
        <time>2021-02-07T09:13:02.000Z</time>
      </trkpt>
      <trkpt lat="47.16062" lon="-1.90186">
        <ele>102</ele>
        <time>2021-02-07T09:13:04.000Z</time>
      </trkpt>
      <trkpt lat="47.16049" lon="-1.90189">
        <ele>102</ele>
        <time>2021-02-07T09:13:06.000Z</time>
      </trkpt>
      <trkpt lat="47.16035" lon="-1.90192">
        <ele>102</ele>
        <time>2021-02-07T09:13:08.000Z</time>
      </trkpt>
      <trkpt lat="47.16019" lon="-1.90195">
        <ele>102</ele>
        <time>2021-02-07T09:13:10.000Z</time>
      </trkpt>
      <trkpt lat="47.16005" lon="-1.90196">
        <ele>101</ele>
        <time>2021-02-07T09:13:12.000Z</time>
      </trkpt>
      <trkpt lat="47.15992" lon="-1.902">
        <ele>100</ele>
        <time>2021-02-07T09:13:14.000Z</time>
      </trkpt>
      <trkpt lat="47.15979" lon="-1.90203">
        <ele>99</ele>
        <time>2021-02-07T09:13:16.000Z</time>
      </trkpt>
      <trkpt lat="47.15963" lon="-1.90205">
        <ele>98</ele>
        <time>2021-02-07T09:13:18.000Z</time>
      </trkpt>
      <trkpt lat="47.15948" lon="-1.90209">
        <ele>98</ele>
        <time>2021-02-07T09:13:20.000Z</time>
      </trkpt>
      <trkpt lat="47.15936" lon="-1.90211">
        <ele>97</ele>
        <time>2021-02-07T09:13:22.000Z</time>
      </trkpt>
      <trkpt lat="47.15922" lon="-1.90213">
        <ele>97</ele>
        <time>2021-02-07T09:13:24.000Z</time>
      </trkpt>
      <trkpt lat="47.15907" lon="-1.90214">
        <ele>97</ele>
        <time>2021-02-07T09:13:26.000Z</time>
      </trkpt>
      <trkpt lat="47.15894" lon="-1.90213">
        <ele>97</ele>
        <time>2021-02-07T09:13:28.000Z</time>
      </trkpt>
      <trkpt lat="47.15881" lon="-1.90211">
        <ele>97</ele>
        <time>2021-02-07T09:13:30.000Z</time>
      </trkpt>
      <trkpt lat="47.15868" lon="-1.9021">
        <ele>97</ele>
        <time>2021-02-07T09:13:32.000Z</time>
      </trkpt>
      <trkpt lat="47.15855" lon="-1.90208">
        <ele>96</ele>
        <time>2021-02-07T09:13:34.000Z</time>
      </trkpt>
      <trkpt lat="47.15842" lon="-1.90207">
        <ele>96</ele>
        <time>2021-02-07T09:13:36.000Z</time>
      </trkpt>
      <trkpt lat="47.15829" lon="-1.90208">
        <ele>97</ele>
        <time>2021-02-07T09:13:38.000Z</time>
      </trkpt>
      <trkpt lat="47.15817" lon="-1.9021">
        <ele>97</ele>
        <time>2021-02-07T09:13:40.000Z</time>
      </trkpt>
      <trkpt lat="47.15804" lon="-1.90214">
        <ele>97</ele>
        <time>2021-02-07T09:13:42.000Z</time>
      </trkpt>
      <trkpt lat="47.15792" lon="-1.90221">
        <ele>96</ele>
        <time>2021-02-07T09:13:44.000Z</time>
      </trkpt>
      <trkpt lat="47.15779" lon="-1.90228">
        <ele>96</ele>
        <time>2021-02-07T09:13:46.000Z</time>
      </trkpt>
      <trkpt lat="47.15767" lon="-1.90234">
        <ele>95</ele>
        <time>2021-02-07T09:13:48.000Z</time>
      </trkpt>
      <trkpt lat="47.15754" lon="-1.90239">
        <ele>94</ele>
        <time>2021-02-07T09:13:50.000Z</time>
      </trkpt>
      <trkpt lat="47.15741" lon="-1.90243">
        <ele>93</ele>
        <time>2021-02-07T09:13:52.000Z</time>
      </trkpt>
      <trkpt lat="47.15727" lon="-1.90247">
        <ele>92</ele>
        <time>2021-02-07T09:13:54.000Z</time>
      </trkpt>
      <trkpt lat="47.15714" lon="-1.9025">
        <ele>92</ele>
        <time>2021-02-07T09:13:56.000Z</time>
      </trkpt>
      <trkpt lat="47.15701" lon="-1.90254">
        <ele>92</ele>
        <time>2021-02-07T09:13:58.000Z</time>
      </trkpt>
      <trkpt lat="47.15688" lon="-1.90257">
        <ele>92</ele>
        <time>2021-02-07T09:14:00.000Z</time>
      </trkpt>
      <trkpt lat="47.15675" lon="-1.90259">
        <ele>92</ele>
        <time>2021-02-07T09:14:02.000Z</time>
      </trkpt>
      <trkpt lat="47.1566" lon="-1.90262">
        <ele>91</ele>
        <time>2021-02-07T09:14:04.000Z</time>
      </trkpt>
      <trkpt lat="47.15646" lon="-1.90265">
        <ele>92</ele>
        <time>2021-02-07T09:14:06.000Z</time>
      </trkpt>
      <trkpt lat="47.15635" lon="-1.90267">
        <ele>91</ele>
        <time>2021-02-07T09:14:08.000Z</time>
      </trkpt>
      <trkpt lat="47.15625" lon="-1.90271">
        <ele>90</ele>
        <time>2021-02-07T09:14:11.000Z</time>
      </trkpt>
      <trkpt lat="47.15614" lon="-1.90272">
        <ele>90</ele>
        <time>2021-02-07T09:14:14.000Z</time>
      </trkpt>
      <trkpt lat="47.156" lon="-1.90275">
        <ele>90</ele>
        <time>2021-02-07T09:14:17.000Z</time>
      </trkpt>
      <trkpt lat="47.15589" lon="-1.90278">
        <ele>89</ele>
        <time>2021-02-07T09:14:19.000Z</time>
      </trkpt>
      <trkpt lat="47.15576" lon="-1.90281">
        <ele>88</ele>
        <time>2021-02-07T09:14:21.000Z</time>
      </trkpt>
      <trkpt lat="47.15562" lon="-1.90283">
        <ele>88</ele>
        <time>2021-02-07T09:14:23.000Z</time>
      </trkpt>
      <trkpt lat="47.15549" lon="-1.90288">
        <ele>88</ele>
        <time>2021-02-07T09:14:25.000Z</time>
      </trkpt>
      <trkpt lat="47.15535" lon="-1.90291">
        <ele>88</ele>
        <time>2021-02-07T09:14:27.000Z</time>
      </trkpt>
      <trkpt lat="47.15521" lon="-1.90295">
        <ele>88</ele>
        <time>2021-02-07T09:14:29.000Z</time>
      </trkpt>
      <trkpt lat="47.15508" lon="-1.90298">
        <ele>87</ele>
        <time>2021-02-07T09:14:31.000Z</time>
      </trkpt>
      <trkpt lat="47.15495" lon="-1.90301">
        <ele>87</ele>
        <time>2021-02-07T09:14:33.000Z</time>
      </trkpt>
      <trkpt lat="47.15481" lon="-1.90303">
        <ele>86</ele>
        <time>2021-02-07T09:14:35.000Z</time>
      </trkpt>
      <trkpt lat="47.15468" lon="-1.90306">
        <ele>86</ele>
        <time>2021-02-07T09:14:37.000Z</time>
      </trkpt>
      <trkpt lat="47.15455" lon="-1.9031">
        <ele>86</ele>
        <time>2021-02-07T09:14:39.000Z</time>
      </trkpt>
      <trkpt lat="47.15442" lon="-1.90317">
        <ele>85</ele>
        <time>2021-02-07T09:14:41.000Z</time>
      </trkpt>
      <trkpt lat="47.15429" lon="-1.90324">
        <ele>85</ele>
        <time>2021-02-07T09:14:43.000Z</time>
      </trkpt>
      <trkpt lat="47.15416" lon="-1.90329">
        <ele>84</ele>
        <time>2021-02-07T09:14:45.000Z</time>
      </trkpt>
      <trkpt lat="47.15403" lon="-1.90333">
        <ele>84</ele>
        <time>2021-02-07T09:14:47.000Z</time>
      </trkpt>
      <trkpt lat="47.1539" lon="-1.90337">
        <ele>85</ele>
        <time>2021-02-07T09:14:49.000Z</time>
      </trkpt>
      <trkpt lat="47.15377" lon="-1.9034">
        <ele>84</ele>
        <time>2021-02-07T09:14:51.000Z</time>
      </trkpt>
      <trkpt lat="47.15363" lon="-1.90342">
        <ele>84</ele>
        <time>2021-02-07T09:14:53.000Z</time>
      </trkpt>
      <trkpt lat="47.1535" lon="-1.90345">
        <ele>83</ele>
        <time>2021-02-07T09:14:55.000Z</time>
      </trkpt>
      <trkpt lat="47.15337" lon="-1.90347">
        <ele>83</ele>
        <time>2021-02-07T09:14:57.000Z</time>
      </trkpt>
      <trkpt lat="47.15324" lon="-1.9035">
        <ele>82</ele>
        <time>2021-02-07T09:14:59.000Z</time>
      </trkpt>
      <trkpt lat="47.1531" lon="-1.90353">
        <ele>82</ele>
        <time>2021-02-07T09:15:01.000Z</time>
      </trkpt>
      <trkpt lat="47.15296" lon="-1.90356">
        <ele>82</ele>
        <time>2021-02-07T09:15:03.000Z</time>
      </trkpt>
      <trkpt lat="47.15282" lon="-1.9036">
        <ele>82</ele>
        <time>2021-02-07T09:15:05.000Z</time>
      </trkpt>
      <trkpt lat="47.15268" lon="-1.90363">
        <ele>82</ele>
        <time>2021-02-07T09:15:07.000Z</time>
      </trkpt>
      <trkpt lat="47.15255" lon="-1.90366">
        <ele>81</ele>
        <time>2021-02-07T09:15:09.000Z</time>
      </trkpt>
      <trkpt lat="47.15241" lon="-1.9037">
        <ele>81</ele>
        <time>2021-02-07T09:15:11.000Z</time>
      </trkpt>
      <trkpt lat="47.15226" lon="-1.90373">
        <ele>81</ele>
        <time>2021-02-07T09:15:13.000Z</time>
      </trkpt>
      <trkpt lat="47.15213" lon="-1.90375">
        <ele>81</ele>
        <time>2021-02-07T09:15:15.000Z</time>
      </trkpt>
      <trkpt lat="47.15199" lon="-1.90378">
        <ele>80</ele>
        <time>2021-02-07T09:15:17.000Z</time>
      </trkpt>
      <trkpt lat="47.15185" lon="-1.90381">
        <ele>80</ele>
        <time>2021-02-07T09:15:19.000Z</time>
      </trkpt>
      <trkpt lat="47.15171" lon="-1.90385">
        <ele>80</ele>
        <time>2021-02-07T09:15:21.000Z</time>
      </trkpt>
      <trkpt lat="47.15158" lon="-1.90388">
        <ele>79</ele>
        <time>2021-02-07T09:15:23.000Z</time>
      </trkpt>
      <trkpt lat="47.15144" lon="-1.90392">
        <ele>79</ele>
        <time>2021-02-07T09:15:25.000Z</time>
      </trkpt>
      <trkpt lat="47.1513" lon="-1.90395">
        <ele>79</ele>
        <time>2021-02-07T09:15:27.000Z</time>
      </trkpt>
      <trkpt lat="47.15117" lon="-1.90399">
        <ele>79</ele>
        <time>2021-02-07T09:15:29.000Z</time>
      </trkpt>
      <trkpt lat="47.15103" lon="-1.90402">
        <ele>78</ele>
        <time>2021-02-07T09:15:31.000Z</time>
      </trkpt>
      <trkpt lat="47.15089" lon="-1.90406">
        <ele>78</ele>
        <time>2021-02-07T09:15:33.000Z</time>
      </trkpt>
      <trkpt lat="47.15076" lon="-1.90409">
        <ele>78</ele>
        <time>2021-02-07T09:15:35.000Z</time>
      </trkpt>
      <trkpt lat="47.15062" lon="-1.90412">
        <ele>78</ele>
        <time>2021-02-07T09:15:37.000Z</time>
      </trkpt>
      <trkpt lat="47.15049" lon="-1.90414">
        <ele>78</ele>
        <time>2021-02-07T09:15:39.000Z</time>
      </trkpt>
      <trkpt lat="47.15036" lon="-1.90417">
        <ele>78</ele>
        <time>2021-02-07T09:15:41.000Z</time>
      </trkpt>
      <trkpt lat="47.15022" lon="-1.90421">
        <ele>78</ele>
        <time>2021-02-07T09:15:43.000Z</time>
      </trkpt>
      <trkpt lat="47.15009" lon="-1.90424">
        <ele>78</ele>
        <time>2021-02-07T09:15:45.000Z</time>
      </trkpt>
      <trkpt lat="47.14996" lon="-1.90428">
        <ele>78</ele>
        <time>2021-02-07T09:15:47.000Z</time>
      </trkpt>
      <trkpt lat="47.14983" lon="-1.9043">
        <ele>78</ele>
        <time>2021-02-07T09:15:49.000Z</time>
      </trkpt>
      <trkpt lat="47.1497" lon="-1.90434">
        <ele>78</ele>
        <time>2021-02-07T09:15:51.000Z</time>
      </trkpt>
      <trkpt lat="47.14957" lon="-1.90435">
        <ele>77</ele>
        <time>2021-02-07T09:15:53.000Z</time>
      </trkpt>
      <trkpt lat="47.14944" lon="-1.90438">
        <ele>77</ele>
        <time>2021-02-07T09:15:55.000Z</time>
      </trkpt>
      <trkpt lat="47.14931" lon="-1.90441">
        <ele>77</ele>
        <time>2021-02-07T09:15:57.000Z</time>
      </trkpt>
      <trkpt lat="47.14918" lon="-1.90444">
        <ele>77</ele>
        <time>2021-02-07T09:15:59.000Z</time>
      </trkpt>
      <trkpt lat="47.14906" lon="-1.90447">
        <ele>77</ele>
        <time>2021-02-07T09:16:01.000Z</time>
      </trkpt>
      <trkpt lat="47.14893" lon="-1.9045">
        <ele>76</ele>
        <time>2021-02-07T09:16:03.000Z</time>
      </trkpt>
      <trkpt lat="47.1488" lon="-1.90453">
        <ele>76</ele>
        <time>2021-02-07T09:16:05.000Z</time>
      </trkpt>
      <trkpt lat="47.14867" lon="-1.90456">
        <ele>76</ele>
        <time>2021-02-07T09:16:07.000Z</time>
      </trkpt>
      <trkpt lat="47.14854" lon="-1.90459">
        <ele>77</ele>
        <time>2021-02-07T09:16:09.000Z</time>
      </trkpt>
      <trkpt lat="47.1484" lon="-1.90462">
        <ele>77</ele>
        <time>2021-02-07T09:16:11.000Z</time>
      </trkpt>
      <trkpt lat="47.14827" lon="-1.90465">
        <ele>76</ele>
        <time>2021-02-07T09:16:13.000Z</time>
      </trkpt>
      <trkpt lat="47.14814" lon="-1.90467">
        <ele>77</ele>
        <time>2021-02-07T09:16:15.000Z</time>
      </trkpt>
      <trkpt lat="47.14801" lon="-1.9047">
        <ele>76</ele>
        <time>2021-02-07T09:16:17.000Z</time>
      </trkpt>
      <trkpt lat="47.14789" lon="-1.90473">
        <ele>76</ele>
        <time>2021-02-07T09:16:19.000Z</time>
      </trkpt>
      <trkpt lat="47.14776" lon="-1.90476">
        <ele>76</ele>
        <time>2021-02-07T09:16:21.000Z</time>
      </trkpt>
      <trkpt lat="47.14763" lon="-1.90479">
        <ele>76</ele>
        <time>2021-02-07T09:16:23.000Z</time>
      </trkpt>
      <trkpt lat="47.1475" lon="-1.90481">
        <ele>75</ele>
        <time>2021-02-07T09:16:25.000Z</time>
      </trkpt>
      <trkpt lat="47.14736" lon="-1.90485">
        <ele>75</ele>
        <time>2021-02-07T09:16:27.000Z</time>
      </trkpt>
      <trkpt lat="47.14724" lon="-1.90488">
        <ele>76</ele>
        <time>2021-02-07T09:16:29.000Z</time>
      </trkpt>
      <trkpt lat="47.14711" lon="-1.90491">
        <ele>75</ele>
        <time>2021-02-07T09:16:31.000Z</time>
      </trkpt>
      <trkpt lat="47.14698" lon="-1.90494">
        <ele>75</ele>
        <time>2021-02-07T09:16:33.000Z</time>
      </trkpt>
      <trkpt lat="47.14685" lon="-1.90497">
        <ele>75</ele>
        <time>2021-02-07T09:16:35.000Z</time>
      </trkpt>
      <trkpt lat="47.14672" lon="-1.905">
        <ele>75</ele>
        <time>2021-02-07T09:16:37.000Z</time>
      </trkpt>
      <trkpt lat="47.14659" lon="-1.90503">
        <ele>75</ele>
        <time>2021-02-07T09:16:39.000Z</time>
      </trkpt>
      <trkpt lat="47.14646" lon="-1.90506">
        <ele>75</ele>
        <time>2021-02-07T09:16:41.000Z</time>
      </trkpt>
      <trkpt lat="47.14633" lon="-1.90509">
        <ele>75</ele>
        <time>2021-02-07T09:16:43.000Z</time>
      </trkpt>
      <trkpt lat="47.1462" lon="-1.90513">
        <ele>75</ele>
        <time>2021-02-07T09:16:45.000Z</time>
      </trkpt>
      <trkpt lat="47.14607" lon="-1.90515">
        <ele>75</ele>
        <time>2021-02-07T09:16:47.000Z</time>
      </trkpt>
      <trkpt lat="47.14595" lon="-1.90518">
        <ele>75</ele>
        <time>2021-02-07T09:16:49.000Z</time>
      </trkpt>
      <trkpt lat="47.14582" lon="-1.90521">
        <ele>75</ele>
        <time>2021-02-07T09:16:51.000Z</time>
      </trkpt>
      <trkpt lat="47.14569" lon="-1.90524">
        <ele>76</ele>
        <time>2021-02-07T09:16:53.000Z</time>
      </trkpt>
      <trkpt lat="47.14557" lon="-1.90526">
        <ele>75</ele>
        <time>2021-02-07T09:16:55.000Z</time>
      </trkpt>
      <trkpt lat="47.14544" lon="-1.90528">
        <ele>75</ele>
        <time>2021-02-07T09:16:57.000Z</time>
      </trkpt>
      <trkpt lat="47.14531" lon="-1.90532">
        <ele>75</ele>
        <time>2021-02-07T09:16:59.000Z</time>
      </trkpt>
      <trkpt lat="47.14518" lon="-1.90535">
        <ele>74</ele>
        <time>2021-02-07T09:17:01.000Z</time>
      </trkpt>
      <trkpt lat="47.14505" lon="-1.90538">
        <ele>74</ele>
        <time>2021-02-07T09:17:03.000Z</time>
      </trkpt>
      <trkpt lat="47.14491" lon="-1.9054">
        <ele>74</ele>
        <time>2021-02-07T09:17:05.000Z</time>
      </trkpt>
      <trkpt lat="47.14478" lon="-1.90543">
        <ele>74</ele>
        <time>2021-02-07T09:17:07.000Z</time>
      </trkpt>
      <trkpt lat="47.14464" lon="-1.90546">
        <ele>73</ele>
        <time>2021-02-07T09:17:09.000Z</time>
      </trkpt>
      <trkpt lat="47.14451" lon="-1.90549">
        <ele>73</ele>
        <time>2021-02-07T09:17:11.000Z</time>
      </trkpt>
      <trkpt lat="47.14438" lon="-1.90553">
        <ele>73</ele>
        <time>2021-02-07T09:17:13.000Z</time>
      </trkpt>
      <trkpt lat="47.14424" lon="-1.90555">
        <ele>73</ele>
        <time>2021-02-07T09:17:15.000Z</time>
      </trkpt>
      <trkpt lat="47.14411" lon="-1.90558">
        <ele>73</ele>
        <time>2021-02-07T09:17:17.000Z</time>
      </trkpt>
      <trkpt lat="47.14398" lon="-1.90561">
        <ele>73</ele>
        <time>2021-02-07T09:17:19.000Z</time>
      </trkpt>
      <trkpt lat="47.14385" lon="-1.90564">
        <ele>72</ele>
        <time>2021-02-07T09:17:21.000Z</time>
      </trkpt>
      <trkpt lat="47.14373" lon="-1.90567">
        <ele>72</ele>
        <time>2021-02-07T09:17:23.000Z</time>
      </trkpt>
      <trkpt lat="47.1436" lon="-1.9057">
        <ele>72</ele>
        <time>2021-02-07T09:17:25.000Z</time>
      </trkpt>
      <trkpt lat="47.14347" lon="-1.90573">
        <ele>71</ele>
        <time>2021-02-07T09:17:27.000Z</time>
      </trkpt>
      <trkpt lat="47.14334" lon="-1.90576">
        <ele>71</ele>
        <time>2021-02-07T09:17:29.000Z</time>
      </trkpt>
      <trkpt lat="47.14321" lon="-1.90579">
        <ele>71</ele>
        <time>2021-02-07T09:17:31.000Z</time>
      </trkpt>
      <trkpt lat="47.14309" lon="-1.90582">
        <ele>71</ele>
        <time>2021-02-07T09:17:33.000Z</time>
      </trkpt>
      <trkpt lat="47.14296" lon="-1.90585">
        <ele>70</ele>
        <time>2021-02-07T09:17:35.000Z</time>
      </trkpt>
      <trkpt lat="47.14283" lon="-1.90588">
        <ele>71</ele>
        <time>2021-02-07T09:17:37.000Z</time>
      </trkpt>
      <trkpt lat="47.14271" lon="-1.9059">
        <ele>71</ele>
        <time>2021-02-07T09:17:39.000Z</time>
      </trkpt>
      <trkpt lat="47.14258" lon="-1.90593">
        <ele>71</ele>
        <time>2021-02-07T09:17:41.000Z</time>
      </trkpt>
      <trkpt lat="47.14246" lon="-1.90596">
        <ele>71</ele>
        <time>2021-02-07T09:17:43.000Z</time>
      </trkpt>
      <trkpt lat="47.14234" lon="-1.90598">
        <ele>71</ele>
        <time>2021-02-07T09:17:45.000Z</time>
      </trkpt>
      <trkpt lat="47.14223" lon="-1.906">
        <ele>71</ele>
        <time>2021-02-07T09:17:47.000Z</time>
      </trkpt>
      <trkpt lat="47.14212" lon="-1.90602">
        <ele>70</ele>
        <time>2021-02-07T09:17:49.000Z</time>
      </trkpt>
      <trkpt lat="47.14202" lon="-1.90605">
        <ele>69</ele>
        <time>2021-02-07T09:17:51.000Z</time>
      </trkpt>
      <trkpt lat="47.14191" lon="-1.90607">
        <ele>69</ele>
        <time>2021-02-07T09:17:53.000Z</time>
      </trkpt>
      <trkpt lat="47.14181" lon="-1.90609">
        <ele>69</ele>
        <time>2021-02-07T09:17:55.000Z</time>
      </trkpt>
      <trkpt lat="47.14171" lon="-1.90611">
        <ele>69</ele>
        <time>2021-02-07T09:17:57.000Z</time>
      </trkpt>
      <trkpt lat="47.1416" lon="-1.90613">
        <ele>68</ele>
        <time>2021-02-07T09:17:59.000Z</time>
      </trkpt>
      <trkpt lat="47.14148" lon="-1.90617">
        <ele>68</ele>
        <time>2021-02-07T09:18:01.000Z</time>
      </trkpt>
      <trkpt lat="47.14136" lon="-1.90619">
        <ele>68</ele>
        <time>2021-02-07T09:18:03.000Z</time>
      </trkpt>
      <trkpt lat="47.14123" lon="-1.9062">
        <ele>68</ele>
        <time>2021-02-07T09:18:05.000Z</time>
      </trkpt>
      <trkpt lat="47.1411" lon="-1.90621">
        <ele>68</ele>
        <time>2021-02-07T09:18:07.000Z</time>
      </trkpt>
      <trkpt lat="47.14097" lon="-1.90622">
        <ele>68</ele>
        <time>2021-02-07T09:18:09.000Z</time>
      </trkpt>
      <trkpt lat="47.14084" lon="-1.90623">
        <ele>68</ele>
        <time>2021-02-07T09:18:11.000Z</time>
      </trkpt>
      <trkpt lat="47.14071" lon="-1.90624">
        <ele>68</ele>
        <time>2021-02-07T09:18:13.000Z</time>
      </trkpt>
      <trkpt lat="47.14058" lon="-1.90626">
        <ele>68</ele>
        <time>2021-02-07T09:18:15.000Z</time>
      </trkpt>
      <trkpt lat="47.14046" lon="-1.90628">
        <ele>68</ele>
        <time>2021-02-07T09:18:17.000Z</time>
      </trkpt>
      <trkpt lat="47.14033" lon="-1.90629">
        <ele>68</ele>
        <time>2021-02-07T09:18:19.000Z</time>
      </trkpt>
      <trkpt lat="47.1402" lon="-1.90632">
        <ele>68</ele>
        <time>2021-02-07T09:18:21.000Z</time>
      </trkpt>
      <trkpt lat="47.14007" lon="-1.90634">
        <ele>68</ele>
        <time>2021-02-07T09:18:23.000Z</time>
      </trkpt>
      <trkpt lat="47.13995" lon="-1.90636">
        <ele>67</ele>
        <time>2021-02-07T09:18:25.000Z</time>
      </trkpt>
      <trkpt lat="47.13982" lon="-1.90639">
        <ele>67</ele>
        <time>2021-02-07T09:18:27.000Z</time>
      </trkpt>
      <trkpt lat="47.13969" lon="-1.90642">
        <ele>67</ele>
        <time>2021-02-07T09:18:29.000Z</time>
      </trkpt>
      <trkpt lat="47.13956" lon="-1.90645">
        <ele>67</ele>
        <time>2021-02-07T09:18:31.000Z</time>
      </trkpt>
      <trkpt lat="47.13943" lon="-1.90648">
        <ele>67</ele>
        <time>2021-02-07T09:18:33.000Z</time>
      </trkpt>
      <trkpt lat="47.1393" lon="-1.90651">
        <ele>67</ele>
        <time>2021-02-07T09:18:35.000Z</time>
      </trkpt>
      <trkpt lat="47.13917" lon="-1.90654">
        <ele>67</ele>
        <time>2021-02-07T09:18:37.000Z</time>
      </trkpt>
      <trkpt lat="47.13905" lon="-1.90657">
        <ele>67</ele>
        <time>2021-02-07T09:18:39.000Z</time>
      </trkpt>
      <trkpt lat="47.13892" lon="-1.90662">
        <ele>68</ele>
        <time>2021-02-07T09:18:41.000Z</time>
      </trkpt>
      <trkpt lat="47.1388" lon="-1.90665">
        <ele>68</ele>
        <time>2021-02-07T09:18:43.000Z</time>
      </trkpt>
      <trkpt lat="47.13867" lon="-1.90668">
        <ele>68</ele>
        <time>2021-02-07T09:18:45.000Z</time>
      </trkpt>
      <trkpt lat="47.13855" lon="-1.90672">
        <ele>68</ele>
        <time>2021-02-07T09:18:47.000Z</time>
      </trkpt>
      <trkpt lat="47.13844" lon="-1.90675">
        <ele>68</ele>
        <time>2021-02-07T09:18:49.000Z</time>
      </trkpt>
      <trkpt lat="47.13831" lon="-1.90679">
        <ele>68</ele>
        <time>2021-02-07T09:18:51.000Z</time>
      </trkpt>
      <trkpt lat="47.13818" lon="-1.90681">
        <ele>67</ele>
        <time>2021-02-07T09:18:53.000Z</time>
      </trkpt>
      <trkpt lat="47.13804" lon="-1.90684">
        <ele>66</ele>
        <time>2021-02-07T09:18:55.000Z</time>
      </trkpt>
      <trkpt lat="47.1379" lon="-1.90688">
        <ele>65</ele>
        <time>2021-02-07T09:18:57.000Z</time>
      </trkpt>
      <trkpt lat="47.13775" lon="-1.90693">
        <ele>65</ele>
        <time>2021-02-07T09:18:59.000Z</time>
      </trkpt>
      <trkpt lat="47.13762" lon="-1.90701">
        <ele>63</ele>
        <time>2021-02-07T09:19:01.000Z</time>
      </trkpt>
      <trkpt lat="47.1375" lon="-1.90713">
        <ele>63</ele>
        <time>2021-02-07T09:19:03.000Z</time>
      </trkpt>
      <trkpt lat="47.1374" lon="-1.90729">
        <ele>62</ele>
        <time>2021-02-07T09:19:05.000Z</time>
      </trkpt>
      <trkpt lat="47.13732" lon="-1.90747">
        <ele>62</ele>
        <time>2021-02-07T09:19:07.000Z</time>
      </trkpt>
      <trkpt lat="47.13726" lon="-1.90765">
        <ele>62</ele>
        <time>2021-02-07T09:19:09.000Z</time>
      </trkpt>
      <trkpt lat="47.13719" lon="-1.90782">
        <ele>62</ele>
        <time>2021-02-07T09:19:11.000Z</time>
      </trkpt>
      <trkpt lat="47.13712" lon="-1.90799">
        <ele>62</ele>
        <time>2021-02-07T09:19:13.000Z</time>
      </trkpt>
      <trkpt lat="47.13705" lon="-1.90816">
        <ele>62</ele>
        <time>2021-02-07T09:19:15.000Z</time>
      </trkpt>
      <trkpt lat="47.13698" lon="-1.90833">
        <ele>62</ele>
        <time>2021-02-07T09:19:17.000Z</time>
      </trkpt>
      <trkpt lat="47.13691" lon="-1.9085">
        <ele>62</ele>
        <time>2021-02-07T09:19:19.000Z</time>
      </trkpt>
      <trkpt lat="47.13683" lon="-1.90867">
        <ele>61</ele>
        <time>2021-02-07T09:19:21.000Z</time>
      </trkpt>
      <trkpt lat="47.13676" lon="-1.90883">
        <ele>61</ele>
        <time>2021-02-07T09:19:23.000Z</time>
      </trkpt>
      <trkpt lat="47.13669" lon="-1.909">
        <ele>61</ele>
        <time>2021-02-07T09:19:25.000Z</time>
      </trkpt>
      <trkpt lat="47.13662" lon="-1.90916">
        <ele>61</ele>
        <time>2021-02-07T09:19:27.000Z</time>
      </trkpt>
      <trkpt lat="47.13656" lon="-1.90932">
        <ele>61</ele>
        <time>2021-02-07T09:19:29.000Z</time>
      </trkpt>
      <trkpt lat="47.1365" lon="-1.90948">
        <ele>61</ele>
        <time>2021-02-07T09:19:31.000Z</time>
      </trkpt>
      <trkpt lat="47.13644" lon="-1.90963">
        <ele>61</ele>
        <time>2021-02-07T09:19:33.000Z</time>
      </trkpt>
      <trkpt lat="47.13638" lon="-1.90978">
        <ele>61</ele>
        <time>2021-02-07T09:19:35.000Z</time>
      </trkpt>
      <trkpt lat="47.13631" lon="-1.90992">
        <ele>61</ele>
        <time>2021-02-07T09:19:37.000Z</time>
      </trkpt>
      <trkpt lat="47.13624" lon="-1.91006">
        <ele>61</ele>
        <time>2021-02-07T09:19:39.000Z</time>
      </trkpt>
      <trkpt lat="47.13616" lon="-1.9102">
        <ele>61</ele>
        <time>2021-02-07T09:19:41.000Z</time>
      </trkpt>
      <trkpt lat="47.13606" lon="-1.91033">
        <ele>60</ele>
        <time>2021-02-07T09:19:43.000Z</time>
      </trkpt>
      <trkpt lat="47.13594" lon="-1.91043">
        <ele>60</ele>
        <time>2021-02-07T09:19:45.000Z</time>
      </trkpt>
      <trkpt lat="47.13582" lon="-1.91047">
        <ele>59</ele>
        <time>2021-02-07T09:19:47.000Z</time>
      </trkpt>
      <trkpt lat="47.1357" lon="-1.9105">
        <ele>59</ele>
        <time>2021-02-07T09:19:49.000Z</time>
      </trkpt>
      <trkpt lat="47.13557" lon="-1.91052">
        <ele>59</ele>
        <time>2021-02-07T09:19:51.000Z</time>
      </trkpt>
      <trkpt lat="47.13544" lon="-1.91054">
        <ele>59</ele>
        <time>2021-02-07T09:19:53.000Z</time>
      </trkpt>
      <trkpt lat="47.13532" lon="-1.91056">
        <ele>58</ele>
        <time>2021-02-07T09:19:55.000Z</time>
      </trkpt>
      <trkpt lat="47.13519" lon="-1.91057">
        <ele>58</ele>
        <time>2021-02-07T09:19:57.000Z</time>
      </trkpt>
      <trkpt lat="47.13506" lon="-1.91058">
        <ele>58</ele>
        <time>2021-02-07T09:19:59.000Z</time>
      </trkpt>
      <trkpt lat="47.13493" lon="-1.91059">
        <ele>58</ele>
        <time>2021-02-07T09:20:01.000Z</time>
      </trkpt>
      <trkpt lat="47.13479" lon="-1.91059">
        <ele>58</ele>
        <time>2021-02-07T09:20:03.000Z</time>
      </trkpt>
      <trkpt lat="47.13466" lon="-1.9106">
        <ele>59</ele>
        <time>2021-02-07T09:20:05.000Z</time>
      </trkpt>
      <trkpt lat="47.13454" lon="-1.91061">
        <ele>59</ele>
        <time>2021-02-07T09:20:07.000Z</time>
      </trkpt>
      <trkpt lat="47.13442" lon="-1.91062">
        <ele>59</ele>
        <time>2021-02-07T09:20:09.000Z</time>
      </trkpt>
      <trkpt lat="47.1343" lon="-1.9106">
        <ele>59</ele>
        <time>2021-02-07T09:20:11.000Z</time>
      </trkpt>
      <trkpt lat="47.13418" lon="-1.91058">
        <ele>59</ele>
        <time>2021-02-07T09:20:13.000Z</time>
      </trkpt>
      <trkpt lat="47.13407" lon="-1.91052">
        <ele>58</ele>
        <time>2021-02-07T09:20:15.000Z</time>
      </trkpt>
      <trkpt lat="47.13396" lon="-1.91045">
        <ele>58</ele>
        <time>2021-02-07T09:20:17.000Z</time>
      </trkpt>
      <trkpt lat="47.13386" lon="-1.91035">
        <ele>59</ele>
        <time>2021-02-07T09:20:19.000Z</time>
      </trkpt>
      <trkpt lat="47.13377" lon="-1.91025">
        <ele>59</ele>
        <time>2021-02-07T09:20:21.000Z</time>
      </trkpt>
      <trkpt lat="47.13366" lon="-1.91014">
        <ele>58</ele>
        <time>2021-02-07T09:20:23.000Z</time>
      </trkpt>
      <trkpt lat="47.13355" lon="-1.91006">
        <ele>58</ele>
        <time>2021-02-07T09:20:25.000Z</time>
      </trkpt>
      <trkpt lat="47.13343" lon="-1.91">
        <ele>58</ele>
        <time>2021-02-07T09:20:27.000Z</time>
      </trkpt>
      <trkpt lat="47.13331" lon="-1.90999">
        <ele>59</ele>
        <time>2021-02-07T09:20:29.000Z</time>
      </trkpt>
      <trkpt lat="47.13318" lon="-1.91">
        <ele>58</ele>
        <time>2021-02-07T09:20:31.000Z</time>
      </trkpt>
      <trkpt lat="47.13306" lon="-1.91003">
        <ele>58</ele>
        <time>2021-02-07T09:20:33.000Z</time>
      </trkpt>
      <trkpt lat="47.13294" lon="-1.91007">
        <ele>58</ele>
        <time>2021-02-07T09:20:35.000Z</time>
      </trkpt>
      <trkpt lat="47.13282" lon="-1.9101">
        <ele>57</ele>
        <time>2021-02-07T09:20:37.000Z</time>
      </trkpt>
      <trkpt lat="47.1327" lon="-1.91013">
        <ele>57</ele>
        <time>2021-02-07T09:20:39.000Z</time>
      </trkpt>
      <trkpt lat="47.13258" lon="-1.91017">
        <ele>58</ele>
        <time>2021-02-07T09:20:41.000Z</time>
      </trkpt>
      <trkpt lat="47.13246" lon="-1.9102">
        <ele>58</ele>
        <time>2021-02-07T09:20:43.000Z</time>
      </trkpt>
      <trkpt lat="47.13235" lon="-1.91023">
        <ele>58</ele>
        <time>2021-02-07T09:20:45.000Z</time>
      </trkpt>
      <trkpt lat="47.13224" lon="-1.91026">
        <ele>58</ele>
        <time>2021-02-07T09:20:47.000Z</time>
      </trkpt>
      <trkpt lat="47.13212" lon="-1.9103">
        <ele>58</ele>
        <time>2021-02-07T09:20:49.000Z</time>
      </trkpt>
      <trkpt lat="47.13201" lon="-1.91033">
        <ele>58</ele>
        <time>2021-02-07T09:20:51.000Z</time>
      </trkpt>
      <trkpt lat="47.13189" lon="-1.91036">
        <ele>58</ele>
        <time>2021-02-07T09:20:53.000Z</time>
      </trkpt>
      <trkpt lat="47.13178" lon="-1.9104">
        <ele>58</ele>
        <time>2021-02-07T09:20:55.000Z</time>
      </trkpt>
      <trkpt lat="47.13167" lon="-1.91043">
        <ele>58</ele>
        <time>2021-02-07T09:20:57.000Z</time>
      </trkpt>
      <trkpt lat="47.13155" lon="-1.91046">
        <ele>58</ele>
        <time>2021-02-07T09:20:59.000Z</time>
      </trkpt>
      <trkpt lat="47.13143" lon="-1.9105">
        <ele>57</ele>
        <time>2021-02-07T09:21:01.000Z</time>
      </trkpt>
      <trkpt lat="47.13132" lon="-1.91052">
        <ele>57</ele>
        <time>2021-02-07T09:21:03.000Z</time>
      </trkpt>
      <trkpt lat="47.1312" lon="-1.91055">
        <ele>57</ele>
        <time>2021-02-07T09:21:05.000Z</time>
      </trkpt>
      <trkpt lat="47.13109" lon="-1.91057">
        <ele>58</ele>
        <time>2021-02-07T09:21:07.000Z</time>
      </trkpt>
      <trkpt lat="47.13097" lon="-1.91059">
        <ele>58</ele>
        <time>2021-02-07T09:21:09.000Z</time>
      </trkpt>
      <trkpt lat="47.13085" lon="-1.91059">
        <ele>58</ele>
        <time>2021-02-07T09:21:11.000Z</time>
      </trkpt>
      <trkpt lat="47.13073" lon="-1.9106">
        <ele>58</ele>
        <time>2021-02-07T09:21:13.000Z</time>
      </trkpt>
      <trkpt lat="47.1306" lon="-1.9106">
        <ele>58</ele>
        <time>2021-02-07T09:21:15.000Z</time>
      </trkpt>
      <trkpt lat="47.13048" lon="-1.9106">
        <ele>58</ele>
        <time>2021-02-07T09:21:17.000Z</time>
      </trkpt>
      <trkpt lat="47.13036" lon="-1.9106">
        <ele>58</ele>
        <time>2021-02-07T09:21:19.000Z</time>
      </trkpt>
      <trkpt lat="47.13024" lon="-1.91061">
        <ele>58</ele>
        <time>2021-02-07T09:21:21.000Z</time>
      </trkpt>
      <trkpt lat="47.13012" lon="-1.9106">
        <ele>57</ele>
        <time>2021-02-07T09:21:23.000Z</time>
      </trkpt>
      <trkpt lat="47.13" lon="-1.9106">
        <ele>58</ele>
        <time>2021-02-07T09:21:25.000Z</time>
      </trkpt>
      <trkpt lat="47.12988" lon="-1.9106">
        <ele>58</ele>
        <time>2021-02-07T09:21:27.000Z</time>
      </trkpt>
      <trkpt lat="47.12976" lon="-1.91059">
        <ele>58</ele>
        <time>2021-02-07T09:21:29.000Z</time>
      </trkpt>
      <trkpt lat="47.12964" lon="-1.91058">
        <ele>58</ele>
        <time>2021-02-07T09:21:31.000Z</time>
      </trkpt>
      <trkpt lat="47.12952" lon="-1.91058">
        <ele>58</ele>
        <time>2021-02-07T09:21:33.000Z</time>
      </trkpt>
      <trkpt lat="47.12939" lon="-1.91059">
        <ele>58</ele>
        <time>2021-02-07T09:21:35.000Z</time>
      </trkpt>
      <trkpt lat="47.12927" lon="-1.9106">
        <ele>58</ele>
        <time>2021-02-07T09:21:37.000Z</time>
      </trkpt>
      <trkpt lat="47.12915" lon="-1.91059">
        <ele>58</ele>
        <time>2021-02-07T09:21:39.000Z</time>
      </trkpt>
      <trkpt lat="47.12903" lon="-1.91059">
        <ele>58</ele>
        <time>2021-02-07T09:21:41.000Z</time>
      </trkpt>
      <trkpt lat="47.12891" lon="-1.91059">
        <ele>58</ele>
        <time>2021-02-07T09:21:43.000Z</time>
      </trkpt>
      <trkpt lat="47.12879" lon="-1.91059">
        <ele>58</ele>
        <time>2021-02-07T09:21:45.000Z</time>
      </trkpt>
      <trkpt lat="47.12868" lon="-1.91058">
        <ele>58</ele>
        <time>2021-02-07T09:21:47.000Z</time>
      </trkpt>
      <trkpt lat="47.12856" lon="-1.91059">
        <ele>58</ele>
        <time>2021-02-07T09:21:49.000Z</time>
      </trkpt>
      <trkpt lat="47.12843" lon="-1.9106">
        <ele>58</ele>
        <time>2021-02-07T09:21:51.000Z</time>
      </trkpt>
      <trkpt lat="47.12832" lon="-1.91062">
        <ele>57</ele>
        <time>2021-02-07T09:21:53.000Z</time>
      </trkpt>
      <trkpt lat="47.12822" lon="-1.9107">
        <ele>57</ele>
        <time>2021-02-07T09:21:55.000Z</time>
      </trkpt>
      <trkpt lat="47.12811" lon="-1.91079">
        <ele>57</ele>
        <time>2021-02-07T09:21:57.000Z</time>
      </trkpt>
      <trkpt lat="47.12802" lon="-1.91087">
        <ele>57</ele>
        <time>2021-02-07T09:21:59.000Z</time>
      </trkpt>
      <trkpt lat="47.12793" lon="-1.91093">
        <ele>56</ele>
        <time>2021-02-07T09:22:01.000Z</time>
      </trkpt>
      <trkpt lat="47.12783" lon="-1.91088">
        <ele>57</ele>
        <time>2021-02-07T09:22:03.000Z</time>
      </trkpt>
      <trkpt lat="47.12774" lon="-1.9108">
        <ele>57</ele>
        <time>2021-02-07T09:22:05.000Z</time>
      </trkpt>
      <trkpt lat="47.12765" lon="-1.91074">
        <ele>57</ele>
        <time>2021-02-07T09:22:07.000Z</time>
      </trkpt>
      <trkpt lat="47.12757" lon="-1.91068">
        <ele>57</ele>
        <time>2021-02-07T09:22:09.000Z</time>
      </trkpt>
      <trkpt lat="47.12747" lon="-1.91066">
        <ele>57</ele>
        <time>2021-02-07T09:22:11.000Z</time>
      </trkpt>
      <trkpt lat="47.12734" lon="-1.91063">
        <ele>57</ele>
        <time>2021-02-07T09:22:13.000Z</time>
      </trkpt>
      <trkpt lat="47.12723" lon="-1.91062">
        <ele>57</ele>
        <time>2021-02-07T09:22:15.000Z</time>
      </trkpt>
      <trkpt lat="47.12711" lon="-1.91062">
        <ele>56</ele>
        <time>2021-02-07T09:22:17.000Z</time>
      </trkpt>
      <trkpt lat="47.127" lon="-1.91063">
        <ele>56</ele>
        <time>2021-02-07T09:22:19.000Z</time>
      </trkpt>
      <trkpt lat="47.12689" lon="-1.91066">
        <ele>55</ele>
        <time>2021-02-07T09:22:21.000Z</time>
      </trkpt>
      <trkpt lat="47.12676" lon="-1.91067">
        <ele>56</ele>
        <time>2021-02-07T09:22:23.000Z</time>
      </trkpt>
      <trkpt lat="47.12663" lon="-1.91068">
        <ele>56</ele>
        <time>2021-02-07T09:22:25.000Z</time>
      </trkpt>
      <trkpt lat="47.12651" lon="-1.91067">
        <ele>56</ele>
        <time>2021-02-07T09:22:27.000Z</time>
      </trkpt>
      <trkpt lat="47.12639" lon="-1.91066">
        <ele>56</ele>
        <time>2021-02-07T09:22:29.000Z</time>
      </trkpt>
      <trkpt lat="47.12627" lon="-1.91066">
        <ele>55</ele>
        <time>2021-02-07T09:22:31.000Z</time>
      </trkpt>
      <trkpt lat="47.12615" lon="-1.91066">
        <ele>55</ele>
        <time>2021-02-07T09:22:33.000Z</time>
      </trkpt>
      <trkpt lat="47.12603" lon="-1.91065">
        <ele>55</ele>
        <time>2021-02-07T09:22:35.000Z</time>
      </trkpt>
      <trkpt lat="47.12592" lon="-1.91065">
        <ele>55</ele>
        <time>2021-02-07T09:22:37.000Z</time>
      </trkpt>
      <trkpt lat="47.1258" lon="-1.91064">
        <ele>55</ele>
        <time>2021-02-07T09:22:39.000Z</time>
      </trkpt>
      <trkpt lat="47.12569" lon="-1.91065">
        <ele>56</ele>
        <time>2021-02-07T09:22:41.000Z</time>
      </trkpt>
      <trkpt lat="47.12557" lon="-1.91065">
        <ele>56</ele>
        <time>2021-02-07T09:22:43.000Z</time>
      </trkpt>
      <trkpt lat="47.12545" lon="-1.91065">
        <ele>56</ele>
        <time>2021-02-07T09:22:45.000Z</time>
      </trkpt>
      <trkpt lat="47.12532" lon="-1.91066">
        <ele>57</ele>
        <time>2021-02-07T09:22:47.000Z</time>
      </trkpt>
      <trkpt lat="47.1252" lon="-1.91065">
        <ele>57</ele>
        <time>2021-02-07T09:22:49.000Z</time>
      </trkpt>
      <trkpt lat="47.12509" lon="-1.91065">
        <ele>56</ele>
        <time>2021-02-07T09:22:51.000Z</time>
      </trkpt>
      <trkpt lat="47.12497" lon="-1.91069">
        <ele>56</ele>
        <time>2021-02-07T09:22:53.000Z</time>
      </trkpt>
      <trkpt lat="47.12486" lon="-1.91071">
        <ele>56</ele>
        <time>2021-02-07T09:22:55.000Z</time>
      </trkpt>
      <trkpt lat="47.12476" lon="-1.91074">
        <ele>55</ele>
        <time>2021-02-07T09:22:57.000Z</time>
      </trkpt>
      <trkpt lat="47.12467" lon="-1.91078">
        <ele>55</ele>
        <time>2021-02-07T09:22:59.000Z</time>
      </trkpt>
      <trkpt lat="47.12457" lon="-1.91078">
        <ele>55</ele>
        <time>2021-02-07T09:23:01.000Z</time>
      </trkpt>
      <trkpt lat="47.12446" lon="-1.91081">
        <ele>55</ele>
        <time>2021-02-07T09:23:03.000Z</time>
      </trkpt>
      <trkpt lat="47.12434" lon="-1.91085">
        <ele>55</ele>
        <time>2021-02-07T09:23:05.000Z</time>
      </trkpt>
      <trkpt lat="47.12425" lon="-1.9109">
        <ele>55</ele>
        <time>2021-02-07T09:23:07.000Z</time>
      </trkpt>
      <trkpt lat="47.12417" lon="-1.91097">
        <ele>55</ele>
        <time>2021-02-07T09:23:09.000Z</time>
      </trkpt>
      <trkpt lat="47.1241" lon="-1.91108">
        <ele>55</ele>
        <time>2021-02-07T09:23:12.000Z</time>
      </trkpt>
      <trkpt lat="47.12402" lon="-1.91117">
        <ele>56</ele>
        <time>2021-02-07T09:23:16.000Z</time>
      </trkpt>
      <trkpt lat="47.12393" lon="-1.91123">
        <ele>57</ele>
        <time>2021-02-07T09:25:25.000Z</time>
      </trkpt>
      <trkpt lat="47.12386" lon="-1.91132">
        <ele>57</ele>
        <time>2021-02-07T09:25:29.000Z</time>
      </trkpt>
      <trkpt lat="47.12379" lon="-1.91143">
        <ele>57</ele>
        <time>2021-02-07T09:25:32.000Z</time>
      </trkpt>
      <trkpt lat="47.12372" lon="-1.91157">
        <ele>58</ele>
        <time>2021-02-07T09:25:35.000Z</time>
      </trkpt>
      <trkpt lat="47.12364" lon="-1.91172">
        <ele>58</ele>
        <time>2021-02-07T09:25:38.000Z</time>
      </trkpt>
      <trkpt lat="47.12356" lon="-1.91187">
        <ele>58</ele>
        <time>2021-02-07T09:25:41.000Z</time>
      </trkpt>
      <trkpt lat="47.12351" lon="-1.91198">
        <ele>58</ele>
        <time>2021-02-07T09:25:43.000Z</time>
      </trkpt>
      <trkpt lat="47.12345" lon="-1.9121">
        <ele>57</ele>
        <time>2021-02-07T09:25:45.000Z</time>
      </trkpt>
      <trkpt lat="47.12337" lon="-1.91226">
        <ele>58</ele>
        <time>2021-02-07T09:25:48.000Z</time>
      </trkpt>
      <trkpt lat="47.12332" lon="-1.91237">
        <ele>58</ele>
        <time>2021-02-07T09:25:50.000Z</time>
      </trkpt>
      <trkpt lat="47.12324" lon="-1.91252">
        <ele>58</ele>
        <time>2021-02-07T09:25:53.000Z</time>
      </trkpt>
      <trkpt lat="47.12317" lon="-1.91268">
        <ele>58</ele>
        <time>2021-02-07T09:25:56.000Z</time>
      </trkpt>
      <trkpt lat="47.1231" lon="-1.91283">
        <ele>57</ele>
        <time>2021-02-07T09:25:59.000Z</time>
      </trkpt>
      <trkpt lat="47.12304" lon="-1.91294">
        <ele>57</ele>
        <time>2021-02-07T09:26:01.000Z</time>
      </trkpt>
      <trkpt lat="47.12298" lon="-1.91304">
        <ele>58</ele>
        <time>2021-02-07T09:26:03.000Z</time>
      </trkpt>
      <trkpt lat="47.12293" lon="-1.91316">
        <ele>58</ele>
        <time>2021-02-07T09:26:05.000Z</time>
      </trkpt>
      <trkpt lat="47.12286" lon="-1.91329">
        <ele>58</ele>
        <time>2021-02-07T09:26:07.000Z</time>
      </trkpt>
      <trkpt lat="47.12279" lon="-1.91341">
        <ele>58</ele>
        <time>2021-02-07T09:26:09.000Z</time>
      </trkpt>
      <trkpt lat="47.12273" lon="-1.91353">
        <ele>59</ele>
        <time>2021-02-07T09:26:11.000Z</time>
      </trkpt>
      <trkpt lat="47.12266" lon="-1.91363">
        <ele>59</ele>
        <time>2021-02-07T09:26:13.000Z</time>
      </trkpt>
      <trkpt lat="47.1226" lon="-1.91375">
        <ele>59</ele>
        <time>2021-02-07T09:26:15.000Z</time>
      </trkpt>
      <trkpt lat="47.12253" lon="-1.91386">
        <ele>59</ele>
        <time>2021-02-07T09:26:17.000Z</time>
      </trkpt>
      <trkpt lat="47.12246" lon="-1.91396">
        <ele>58</ele>
        <time>2021-02-07T09:26:19.000Z</time>
      </trkpt>
      <trkpt lat="47.12241" lon="-1.91408">
        <ele>57</ele>
        <time>2021-02-07T09:26:21.000Z</time>
      </trkpt>
      <trkpt lat="47.12232" lon="-1.91419">
        <ele>58</ele>
        <time>2021-02-07T09:26:24.000Z</time>
      </trkpt>
      <trkpt lat="47.12224" lon="-1.9141">
        <ele>58</ele>
        <time>2021-02-07T09:26:26.000Z</time>
      </trkpt>
      <trkpt lat="47.12217" lon="-1.91398">
        <ele>58</ele>
        <time>2021-02-07T09:26:28.000Z</time>
      </trkpt>
      <trkpt lat="47.12209" lon="-1.91388">
        <ele>59</ele>
        <time>2021-02-07T09:26:30.000Z</time>
      </trkpt>
      <trkpt lat="47.122" lon="-1.91379">
        <ele>59</ele>
        <time>2021-02-07T09:26:32.000Z</time>
      </trkpt>
      <trkpt lat="47.12191" lon="-1.9137">
        <ele>59</ele>
        <time>2021-02-07T09:26:34.000Z</time>
      </trkpt>
      <trkpt lat="47.12183" lon="-1.91359">
        <ele>59</ele>
        <time>2021-02-07T09:26:36.000Z</time>
      </trkpt>
      <trkpt lat="47.12174" lon="-1.91349">
        <ele>60</ele>
        <time>2021-02-07T09:26:38.000Z</time>
      </trkpt>
      <trkpt lat="47.12165" lon="-1.91338">
        <ele>59</ele>
        <time>2021-02-07T09:26:40.000Z</time>
      </trkpt>
      <trkpt lat="47.12157" lon="-1.91327">
        <ele>60</ele>
        <time>2021-02-07T09:26:42.000Z</time>
      </trkpt>
      <trkpt lat="47.12148" lon="-1.91316">
        <ele>60</ele>
        <time>2021-02-07T09:26:44.000Z</time>
      </trkpt>
      <trkpt lat="47.12138" lon="-1.91305">
        <ele>60</ele>
        <time>2021-02-07T09:26:46.000Z</time>
      </trkpt>
      <trkpt lat="47.12129" lon="-1.91294">
        <ele>60</ele>
        <time>2021-02-07T09:26:48.000Z</time>
      </trkpt>
      <trkpt lat="47.12121" lon="-1.91282">
        <ele>61</ele>
        <time>2021-02-07T09:26:50.000Z</time>
      </trkpt>
      <trkpt lat="47.12112" lon="-1.91271">
        <ele>60</ele>
        <time>2021-02-07T09:26:52.000Z</time>
      </trkpt>
      <trkpt lat="47.12103" lon="-1.9126">
        <ele>60</ele>
        <time>2021-02-07T09:26:54.000Z</time>
      </trkpt>
      <trkpt lat="47.12093" lon="-1.9125">
        <ele>59</ele>
        <time>2021-02-07T09:26:56.000Z</time>
      </trkpt>
      <trkpt lat="47.12083" lon="-1.9124">
        <ele>58</ele>
        <time>2021-02-07T09:26:58.000Z</time>
      </trkpt>
      <trkpt lat="47.12073" lon="-1.91231">
        <ele>58</ele>
        <time>2021-02-07T09:27:00.000Z</time>
      </trkpt>
      <trkpt lat="47.12064" lon="-1.91222">
        <ele>58</ele>
        <time>2021-02-07T09:27:02.000Z</time>
      </trkpt>
      <trkpt lat="47.12054" lon="-1.91213">
        <ele>58</ele>
        <time>2021-02-07T09:27:04.000Z</time>
      </trkpt>
      <trkpt lat="47.12044" lon="-1.91202">
        <ele>58</ele>
        <time>2021-02-07T09:27:06.000Z</time>
      </trkpt>
      <trkpt lat="47.12033" lon="-1.91192">
        <ele>58</ele>
        <time>2021-02-07T09:27:08.000Z</time>
      </trkpt>
      <trkpt lat="47.12024" lon="-1.9118">
        <ele>58</ele>
        <time>2021-02-07T09:27:10.000Z</time>
      </trkpt>
      <trkpt lat="47.12015" lon="-1.91167">
        <ele>58</ele>
        <time>2021-02-07T09:27:12.000Z</time>
      </trkpt>
      <trkpt lat="47.12007" lon="-1.91153">
        <ele>58</ele>
        <time>2021-02-07T09:27:14.000Z</time>
      </trkpt>
      <trkpt lat="47.11999" lon="-1.91139">
        <ele>57</ele>
        <time>2021-02-07T09:27:16.000Z</time>
      </trkpt>
      <trkpt lat="47.11992" lon="-1.91124">
        <ele>58</ele>
        <time>2021-02-07T09:27:18.000Z</time>
      </trkpt>
      <trkpt lat="47.11985" lon="-1.9111">
        <ele>58</ele>
        <time>2021-02-07T09:27:20.000Z</time>
      </trkpt>
      <trkpt lat="47.11977" lon="-1.91096">
        <ele>58</ele>
        <time>2021-02-07T09:27:22.000Z</time>
      </trkpt>
      <trkpt lat="47.11969" lon="-1.91082">
        <ele>57</ele>
        <time>2021-02-07T09:27:24.000Z</time>
      </trkpt>
      <trkpt lat="47.11962" lon="-1.91067">
        <ele>57</ele>
        <time>2021-02-07T09:27:26.000Z</time>
      </trkpt>
      <trkpt lat="47.11954" lon="-1.91052">
        <ele>58</ele>
        <time>2021-02-07T09:27:28.000Z</time>
      </trkpt>
      <trkpt lat="47.11946" lon="-1.91038">
        <ele>57</ele>
        <time>2021-02-07T09:27:30.000Z</time>
      </trkpt>
      <trkpt lat="47.11938" lon="-1.91022">
        <ele>57</ele>
        <time>2021-02-07T09:27:32.000Z</time>
      </trkpt>
      <trkpt lat="47.1193" lon="-1.91007">
        <ele>57</ele>
        <time>2021-02-07T09:27:34.000Z</time>
      </trkpt>
      <trkpt lat="47.11923" lon="-1.90993">
        <ele>58</ele>
        <time>2021-02-07T09:27:36.000Z</time>
      </trkpt>
      <trkpt lat="47.11915" lon="-1.90979">
        <ele>57</ele>
        <time>2021-02-07T09:27:38.000Z</time>
      </trkpt>
      <trkpt lat="47.11908" lon="-1.90964">
        <ele>58</ele>
        <time>2021-02-07T09:27:40.000Z</time>
      </trkpt>
      <trkpt lat="47.119" lon="-1.90949">
        <ele>57</ele>
        <time>2021-02-07T09:27:42.000Z</time>
      </trkpt>
      <trkpt lat="47.11892" lon="-1.90934">
        <ele>57</ele>
        <time>2021-02-07T09:27:44.000Z</time>
      </trkpt>
      <trkpt lat="47.11885" lon="-1.90919">
        <ele>57</ele>
        <time>2021-02-07T09:27:46.000Z</time>
      </trkpt>
      <trkpt lat="47.11877" lon="-1.90904">
        <ele>57</ele>
        <time>2021-02-07T09:27:48.000Z</time>
      </trkpt>
      <trkpt lat="47.11869" lon="-1.90889">
        <ele>57</ele>
        <time>2021-02-07T09:27:50.000Z</time>
      </trkpt>
      <trkpt lat="47.11861" lon="-1.90873">
        <ele>57</ele>
        <time>2021-02-07T09:27:52.000Z</time>
      </trkpt>
      <trkpt lat="47.11853" lon="-1.90858">
        <ele>57</ele>
        <time>2021-02-07T09:27:54.000Z</time>
      </trkpt>
      <trkpt lat="47.11845" lon="-1.90842">
        <ele>57</ele>
        <time>2021-02-07T09:27:56.000Z</time>
      </trkpt>
      <trkpt lat="47.11837" lon="-1.90827">
        <ele>57</ele>
        <time>2021-02-07T09:27:58.000Z</time>
      </trkpt>
      <trkpt lat="47.11829" lon="-1.90812">
        <ele>57</ele>
        <time>2021-02-07T09:28:00.000Z</time>
      </trkpt>
      <trkpt lat="47.11821" lon="-1.90796">
        <ele>57</ele>
        <time>2021-02-07T09:28:02.000Z</time>
      </trkpt>
      <trkpt lat="47.11814" lon="-1.90781">
        <ele>56</ele>
        <time>2021-02-07T09:28:04.000Z</time>
      </trkpt>
      <trkpt lat="47.11806" lon="-1.90766">
        <ele>56</ele>
        <time>2021-02-07T09:28:06.000Z</time>
      </trkpt>
      <trkpt lat="47.11798" lon="-1.9075">
        <ele>57</ele>
        <time>2021-02-07T09:28:08.000Z</time>
      </trkpt>
      <trkpt lat="47.11789" lon="-1.90734">
        <ele>57</ele>
        <time>2021-02-07T09:28:10.000Z</time>
      </trkpt>
      <trkpt lat="47.11781" lon="-1.90718">
        <ele>56</ele>
        <time>2021-02-07T09:28:12.000Z</time>
      </trkpt>
      <trkpt lat="47.11772" lon="-1.90701">
        <ele>56</ele>
        <time>2021-02-07T09:28:14.000Z</time>
      </trkpt>
      <trkpt lat="47.11764" lon="-1.90685">
        <ele>56</ele>
        <time>2021-02-07T09:28:16.000Z</time>
      </trkpt>
      <trkpt lat="47.11755" lon="-1.9067">
        <ele>56</ele>
        <time>2021-02-07T09:28:18.000Z</time>
      </trkpt>
      <trkpt lat="47.11747" lon="-1.90654">
        <ele>56</ele>
        <time>2021-02-07T09:28:20.000Z</time>
      </trkpt>
      <trkpt lat="47.11739" lon="-1.90638">
        <ele>56</ele>
        <time>2021-02-07T09:28:22.000Z</time>
      </trkpt>
      <trkpt lat="47.1173" lon="-1.90623">
        <ele>56</ele>
        <time>2021-02-07T09:28:24.000Z</time>
      </trkpt>
      <trkpt lat="47.11722" lon="-1.90607">
        <ele>56</ele>
        <time>2021-02-07T09:28:26.000Z</time>
      </trkpt>
      <trkpt lat="47.11714" lon="-1.9059">
        <ele>57</ele>
        <time>2021-02-07T09:28:28.000Z</time>
      </trkpt>
      <trkpt lat="47.11707" lon="-1.90574">
        <ele>57</ele>
        <time>2021-02-07T09:28:30.000Z</time>
      </trkpt>
      <trkpt lat="47.117" lon="-1.90557">
        <ele>57</ele>
        <time>2021-02-07T09:28:32.000Z</time>
      </trkpt>
      <trkpt lat="47.11694" lon="-1.9054">
        <ele>56</ele>
        <time>2021-02-07T09:28:34.000Z</time>
      </trkpt>
      <trkpt lat="47.11688" lon="-1.90522">
        <ele>56</ele>
        <time>2021-02-07T09:28:36.000Z</time>
      </trkpt>
      <trkpt lat="47.11682" lon="-1.90504">
        <ele>56</ele>
        <time>2021-02-07T09:28:38.000Z</time>
      </trkpt>
      <trkpt lat="47.11677" lon="-1.90486">
        <ele>57</ele>
        <time>2021-02-07T09:28:40.000Z</time>
      </trkpt>
      <trkpt lat="47.11671" lon="-1.90469">
        <ele>57</ele>
        <time>2021-02-07T09:28:42.000Z</time>
      </trkpt>
      <trkpt lat="47.11666" lon="-1.90452">
        <ele>57</ele>
        <time>2021-02-07T09:28:44.000Z</time>
      </trkpt>
      <trkpt lat="47.1166" lon="-1.90434">
        <ele>57</ele>
        <time>2021-02-07T09:28:46.000Z</time>
      </trkpt>
      <trkpt lat="47.11655" lon="-1.90416">
        <ele>57</ele>
        <time>2021-02-07T09:28:48.000Z</time>
      </trkpt>
      <trkpt lat="47.11649" lon="-1.90398">
        <ele>57</ele>
        <time>2021-02-07T09:28:50.000Z</time>
      </trkpt>
      <trkpt lat="47.11644" lon="-1.90381">
        <ele>56</ele>
        <time>2021-02-07T09:28:52.000Z</time>
      </trkpt>
      <trkpt lat="47.11638" lon="-1.90363">
        <ele>56</ele>
        <time>2021-02-07T09:28:54.000Z</time>
      </trkpt>
      <trkpt lat="47.11633" lon="-1.90345">
        <ele>56</ele>
        <time>2021-02-07T09:28:56.000Z</time>
      </trkpt>
      <trkpt lat="47.11628" lon="-1.90327">
        <ele>57</ele>
        <time>2021-02-07T09:28:58.000Z</time>
      </trkpt>
      <trkpt lat="47.11622" lon="-1.9031">
        <ele>56</ele>
        <time>2021-02-07T09:29:00.000Z</time>
      </trkpt>
      <trkpt lat="47.11617" lon="-1.90292">
        <ele>57</ele>
        <time>2021-02-07T09:29:02.000Z</time>
      </trkpt>
      <trkpt lat="47.11611" lon="-1.90275">
        <ele>57</ele>
        <time>2021-02-07T09:29:04.000Z</time>
      </trkpt>
      <trkpt lat="47.11606" lon="-1.90257">
        <ele>57</ele>
        <time>2021-02-07T09:29:06.000Z</time>
      </trkpt>
      <trkpt lat="47.116" lon="-1.90239">
        <ele>56</ele>
        <time>2021-02-07T09:29:08.000Z</time>
      </trkpt>
      <trkpt lat="47.11594" lon="-1.90221">
        <ele>57</ele>
        <time>2021-02-07T09:29:10.000Z</time>
      </trkpt>
      <trkpt lat="47.11588" lon="-1.90204">
        <ele>57</ele>
        <time>2021-02-07T09:29:12.000Z</time>
      </trkpt>
      <trkpt lat="47.11583" lon="-1.90186">
        <ele>57</ele>
        <time>2021-02-07T09:29:14.000Z</time>
      </trkpt>
      <trkpt lat="47.11577" lon="-1.90169">
        <ele>57</ele>
        <time>2021-02-07T09:29:16.000Z</time>
      </trkpt>
      <trkpt lat="47.11572" lon="-1.90152">
        <ele>57</ele>
        <time>2021-02-07T09:29:18.000Z</time>
      </trkpt>
      <trkpt lat="47.11566" lon="-1.90135">
        <ele>57</ele>
        <time>2021-02-07T09:29:20.000Z</time>
      </trkpt>
      <trkpt lat="47.11562" lon="-1.90117">
        <ele>57</ele>
        <time>2021-02-07T09:29:22.000Z</time>
      </trkpt>
      <trkpt lat="47.11556" lon="-1.90101">
        <ele>57</ele>
        <time>2021-02-07T09:29:24.000Z</time>
      </trkpt>
      <trkpt lat="47.11551" lon="-1.90085">
        <ele>57</ele>
        <time>2021-02-07T09:29:26.000Z</time>
      </trkpt>
      <trkpt lat="47.11546" lon="-1.90068">
        <ele>57</ele>
        <time>2021-02-07T09:29:28.000Z</time>
      </trkpt>
      <trkpt lat="47.11541" lon="-1.90051">
        <ele>57</ele>
        <time>2021-02-07T09:29:30.000Z</time>
      </trkpt>
      <trkpt lat="47.11535" lon="-1.90034">
        <ele>57</ele>
        <time>2021-02-07T09:29:32.000Z</time>
      </trkpt>
      <trkpt lat="47.1153" lon="-1.90017">
        <ele>56</ele>
        <time>2021-02-07T09:29:34.000Z</time>
      </trkpt>
      <trkpt lat="47.11525" lon="-1.90001">
        <ele>56</ele>
        <time>2021-02-07T09:29:36.000Z</time>
      </trkpt>
      <trkpt lat="47.1152" lon="-1.89984">
        <ele>56</ele>
        <time>2021-02-07T09:29:38.000Z</time>
      </trkpt>
      <trkpt lat="47.11514" lon="-1.89968">
        <ele>57</ele>
        <time>2021-02-07T09:29:40.000Z</time>
      </trkpt>
      <trkpt lat="47.11507" lon="-1.89951">
        <ele>57</ele>
        <time>2021-02-07T09:29:42.000Z</time>
      </trkpt>
      <trkpt lat="47.11499" lon="-1.89936">
        <ele>57</ele>
        <time>2021-02-07T09:29:44.000Z</time>
      </trkpt>
      <trkpt lat="47.1149" lon="-1.89922">
        <ele>57</ele>
        <time>2021-02-07T09:29:46.000Z</time>
      </trkpt>
      <trkpt lat="47.11481" lon="-1.89908">
        <ele>57</ele>
        <time>2021-02-07T09:29:48.000Z</time>
      </trkpt>
      <trkpt lat="47.11472" lon="-1.89896">
        <ele>57</ele>
        <time>2021-02-07T09:29:50.000Z</time>
      </trkpt>
      <trkpt lat="47.11463" lon="-1.89884">
        <ele>57</ele>
        <time>2021-02-07T09:29:52.000Z</time>
      </trkpt>
      <trkpt lat="47.11454" lon="-1.89872">
        <ele>56</ele>
        <time>2021-02-07T09:29:54.000Z</time>
      </trkpt>
      <trkpt lat="47.11445" lon="-1.8986">
        <ele>57</ele>
        <time>2021-02-07T09:29:56.000Z</time>
      </trkpt>
      <trkpt lat="47.11436" lon="-1.89848">
        <ele>57</ele>
        <time>2021-02-07T09:29:58.000Z</time>
      </trkpt>
      <trkpt lat="47.11427" lon="-1.89837">
        <ele>57</ele>
        <time>2021-02-07T09:30:00.000Z</time>
      </trkpt>
      <trkpt lat="47.11419" lon="-1.89827">
        <ele>57</ele>
        <time>2021-02-07T09:30:02.000Z</time>
      </trkpt>
      <trkpt lat="47.1141" lon="-1.89816">
        <ele>57</ele>
        <time>2021-02-07T09:30:04.000Z</time>
      </trkpt>
      <trkpt lat="47.11402" lon="-1.89805">
        <ele>57</ele>
        <time>2021-02-07T09:30:06.000Z</time>
      </trkpt>
      <trkpt lat="47.11395" lon="-1.89794">
        <ele>57</ele>
        <time>2021-02-07T09:30:08.000Z</time>
      </trkpt>
      <trkpt lat="47.11386" lon="-1.89784">
        <ele>57</ele>
        <time>2021-02-07T09:30:10.000Z</time>
      </trkpt>
      <trkpt lat="47.11378" lon="-1.89774">
        <ele>57</ele>
        <time>2021-02-07T09:30:12.000Z</time>
      </trkpt>
      <trkpt lat="47.1137" lon="-1.89763">
        <ele>57</ele>
        <time>2021-02-07T09:30:14.000Z</time>
      </trkpt>
      <trkpt lat="47.11361" lon="-1.89752">
        <ele>57</ele>
        <time>2021-02-07T09:30:16.000Z</time>
      </trkpt>
      <trkpt lat="47.11352" lon="-1.89741">
        <ele>57</ele>
        <time>2021-02-07T09:30:18.000Z</time>
      </trkpt>
      <trkpt lat="47.11344" lon="-1.8973">
        <ele>58</ele>
        <time>2021-02-07T09:30:20.000Z</time>
      </trkpt>
      <trkpt lat="47.11335" lon="-1.8972">
        <ele>58</ele>
        <time>2021-02-07T09:30:22.000Z</time>
      </trkpt>
      <trkpt lat="47.11327" lon="-1.89709">
        <ele>58</ele>
        <time>2021-02-07T09:30:24.000Z</time>
      </trkpt>
      <trkpt lat="47.11318" lon="-1.89698">
        <ele>58</ele>
        <time>2021-02-07T09:30:26.000Z</time>
      </trkpt>
      <trkpt lat="47.1131" lon="-1.89687">
        <ele>58</ele>
        <time>2021-02-07T09:30:28.000Z</time>
      </trkpt>
      <trkpt lat="47.11301" lon="-1.89675">
        <ele>59</ele>
        <time>2021-02-07T09:30:30.000Z</time>
      </trkpt>
      <trkpt lat="47.11293" lon="-1.89665">
        <ele>59</ele>
        <time>2021-02-07T09:30:32.000Z</time>
      </trkpt>
      <trkpt lat="47.11285" lon="-1.89654">
        <ele>59</ele>
        <time>2021-02-07T09:30:34.000Z</time>
      </trkpt>
      <trkpt lat="47.11277" lon="-1.89643">
        <ele>59</ele>
        <time>2021-02-07T09:30:36.000Z</time>
      </trkpt>
      <trkpt lat="47.11268" lon="-1.89633">
        <ele>59</ele>
        <time>2021-02-07T09:30:38.000Z</time>
      </trkpt>
      <trkpt lat="47.1126" lon="-1.89622">
        <ele>59</ele>
        <time>2021-02-07T09:30:40.000Z</time>
      </trkpt>
      <trkpt lat="47.11251" lon="-1.8961">
        <ele>59</ele>
        <time>2021-02-07T09:30:42.000Z</time>
      </trkpt>
      <trkpt lat="47.11243" lon="-1.896">
        <ele>59</ele>
        <time>2021-02-07T09:30:44.000Z</time>
      </trkpt>
      <trkpt lat="47.11235" lon="-1.8959">
        <ele>59</ele>
        <time>2021-02-07T09:30:46.000Z</time>
      </trkpt>
      <trkpt lat="47.11227" lon="-1.8958">
        <ele>60</ele>
        <time>2021-02-07T09:30:48.000Z</time>
      </trkpt>
      <trkpt lat="47.11219" lon="-1.8957">
        <ele>60</ele>
        <time>2021-02-07T09:30:50.000Z</time>
      </trkpt>
      <trkpt lat="47.11211" lon="-1.89558">
        <ele>60</ele>
        <time>2021-02-07T09:30:52.000Z</time>
      </trkpt>
      <trkpt lat="47.11202" lon="-1.89547">
        <ele>61</ele>
        <time>2021-02-07T09:30:54.000Z</time>
      </trkpt>
      <trkpt lat="47.11194" lon="-1.89536">
        <ele>60</ele>
        <time>2021-02-07T09:30:56.000Z</time>
      </trkpt>
      <trkpt lat="47.11186" lon="-1.89525">
        <ele>61</ele>
        <time>2021-02-07T09:30:58.000Z</time>
      </trkpt>
      <trkpt lat="47.11177" lon="-1.89514">
        <ele>61</ele>
        <time>2021-02-07T09:31:00.000Z</time>
      </trkpt>
      <trkpt lat="47.11169" lon="-1.89503">
        <ele>61</ele>
        <time>2021-02-07T09:31:02.000Z</time>
      </trkpt>
      <trkpt lat="47.11161" lon="-1.89492">
        <ele>61</ele>
        <time>2021-02-07T09:31:04.000Z</time>
      </trkpt>
      <trkpt lat="47.11152" lon="-1.89481">
        <ele>61</ele>
        <time>2021-02-07T09:31:06.000Z</time>
      </trkpt>
      <trkpt lat="47.11144" lon="-1.89471">
        <ele>61</ele>
        <time>2021-02-07T09:31:08.000Z</time>
      </trkpt>
      <trkpt lat="47.11136" lon="-1.89461">
        <ele>61</ele>
        <time>2021-02-07T09:31:10.000Z</time>
      </trkpt>
      <trkpt lat="47.11127" lon="-1.89449">
        <ele>62</ele>
        <time>2021-02-07T09:31:12.000Z</time>
      </trkpt>
      <trkpt lat="47.11119" lon="-1.89438">
        <ele>62</ele>
        <time>2021-02-07T09:31:14.000Z</time>
      </trkpt>
      <trkpt lat="47.11112" lon="-1.89427">
        <ele>62</ele>
        <time>2021-02-07T09:31:16.000Z</time>
      </trkpt>
      <trkpt lat="47.11104" lon="-1.89416">
        <ele>62</ele>
        <time>2021-02-07T09:31:18.000Z</time>
      </trkpt>
      <trkpt lat="47.11097" lon="-1.89405">
        <ele>63</ele>
        <time>2021-02-07T09:31:20.000Z</time>
      </trkpt>
      <trkpt lat="47.1109" lon="-1.89393">
        <ele>63</ele>
        <time>2021-02-07T09:31:22.000Z</time>
      </trkpt>
      <trkpt lat="47.11083" lon="-1.89381">
        <ele>63</ele>
        <time>2021-02-07T09:31:24.000Z</time>
      </trkpt>
      <trkpt lat="47.11076" lon="-1.89368">
        <ele>62</ele>
        <time>2021-02-07T09:31:26.000Z</time>
      </trkpt>
      <trkpt lat="47.11071" lon="-1.89355">
        <ele>63</ele>
        <time>2021-02-07T09:31:28.000Z</time>
      </trkpt>
      <trkpt lat="47.11065" lon="-1.89341">
        <ele>63</ele>
        <time>2021-02-07T09:31:30.000Z</time>
      </trkpt>
      <trkpt lat="47.1106" lon="-1.89326">
        <ele>63</ele>
        <time>2021-02-07T09:31:32.000Z</time>
      </trkpt>
      <trkpt lat="47.11055" lon="-1.89311">
        <ele>64</ele>
        <time>2021-02-07T09:31:34.000Z</time>
      </trkpt>
      <trkpt lat="47.11051" lon="-1.89296">
        <ele>64</ele>
        <time>2021-02-07T09:31:36.000Z</time>
      </trkpt>
      <trkpt lat="47.11046" lon="-1.89282">
        <ele>64</ele>
        <time>2021-02-07T09:31:38.000Z</time>
      </trkpt>
      <trkpt lat="47.11042" lon="-1.89266">
        <ele>65</ele>
        <time>2021-02-07T09:31:40.000Z</time>
      </trkpt>
      <trkpt lat="47.11037" lon="-1.89251">
        <ele>65</ele>
        <time>2021-02-07T09:31:42.000Z</time>
      </trkpt>
      <trkpt lat="47.11033" lon="-1.89236">
        <ele>65</ele>
        <time>2021-02-07T09:31:44.000Z</time>
      </trkpt>
      <trkpt lat="47.11028" lon="-1.89222">
        <ele>65</ele>
        <time>2021-02-07T09:31:46.000Z</time>
      </trkpt>
      <trkpt lat="47.11024" lon="-1.89207">
        <ele>65</ele>
        <time>2021-02-07T09:31:48.000Z</time>
      </trkpt>
      <trkpt lat="47.11019" lon="-1.89192">
        <ele>65</ele>
        <time>2021-02-07T09:31:50.000Z</time>
      </trkpt>
      <trkpt lat="47.11015" lon="-1.89177">
        <ele>65</ele>
        <time>2021-02-07T09:31:52.000Z</time>
      </trkpt>
      <trkpt lat="47.1101" lon="-1.89162">
        <ele>65</ele>
        <time>2021-02-07T09:31:54.000Z</time>
      </trkpt>
      <trkpt lat="47.11006" lon="-1.89147">
        <ele>65</ele>
        <time>2021-02-07T09:31:56.000Z</time>
      </trkpt>
      <trkpt lat="47.11001" lon="-1.89131">
        <ele>65</ele>
        <time>2021-02-07T09:31:58.000Z</time>
      </trkpt>
      <trkpt lat="47.10996" lon="-1.89114">
        <ele>64</ele>
        <time>2021-02-07T09:32:00.000Z</time>
      </trkpt>
      <trkpt lat="47.10991" lon="-1.89099">
        <ele>64</ele>
        <time>2021-02-07T09:32:02.000Z</time>
      </trkpt>
      <trkpt lat="47.10986" lon="-1.89082">
        <ele>64</ele>
        <time>2021-02-07T09:32:04.000Z</time>
      </trkpt>
      <trkpt lat="47.10981" lon="-1.89066">
        <ele>64</ele>
        <time>2021-02-07T09:32:06.000Z</time>
      </trkpt>
      <trkpt lat="47.10976" lon="-1.89049">
        <ele>64</ele>
        <time>2021-02-07T09:32:08.000Z</time>
      </trkpt>
      <trkpt lat="47.10972" lon="-1.89032">
        <ele>64</ele>
        <time>2021-02-07T09:32:10.000Z</time>
      </trkpt>
      <trkpt lat="47.10967" lon="-1.89015">
        <ele>63</ele>
        <time>2021-02-07T09:32:12.000Z</time>
      </trkpt>
      <trkpt lat="47.10962" lon="-1.88997">
        <ele>63</ele>
        <time>2021-02-07T09:32:14.000Z</time>
      </trkpt>
      <trkpt lat="47.10957" lon="-1.8898">
        <ele>63</ele>
        <time>2021-02-07T09:32:16.000Z</time>
      </trkpt>
      <trkpt lat="47.10952" lon="-1.88963">
        <ele>63</ele>
        <time>2021-02-07T09:32:18.000Z</time>
      </trkpt>
      <trkpt lat="47.10946" lon="-1.88945">
        <ele>62</ele>
        <time>2021-02-07T09:32:20.000Z</time>
      </trkpt>
      <trkpt lat="47.10941" lon="-1.88927">
        <ele>62</ele>
        <time>2021-02-07T09:32:22.000Z</time>
      </trkpt>
      <trkpt lat="47.10936" lon="-1.8891">
        <ele>62</ele>
        <time>2021-02-07T09:32:24.000Z</time>
      </trkpt>
      <trkpt lat="47.1093" lon="-1.88893">
        <ele>63</ele>
        <time>2021-02-07T09:32:26.000Z</time>
      </trkpt>
      <trkpt lat="47.10925" lon="-1.88875">
        <ele>63</ele>
        <time>2021-02-07T09:32:28.000Z</time>
      </trkpt>
      <trkpt lat="47.1092" lon="-1.88857">
        <ele>62</ele>
        <time>2021-02-07T09:32:30.000Z</time>
      </trkpt>
      <trkpt lat="47.10914" lon="-1.88839">
        <ele>62</ele>
        <time>2021-02-07T09:32:32.000Z</time>
      </trkpt>
      <trkpt lat="47.10907" lon="-1.88822">
        <ele>61</ele>
        <time>2021-02-07T09:32:34.000Z</time>
      </trkpt>
      <trkpt lat="47.109" lon="-1.88805">
        <ele>61</ele>
        <time>2021-02-07T09:32:36.000Z</time>
      </trkpt>
      <trkpt lat="47.10893" lon="-1.88789">
        <ele>61</ele>
        <time>2021-02-07T09:32:38.000Z</time>
      </trkpt>
      <trkpt lat="47.10886" lon="-1.88771">
        <ele>61</ele>
        <time>2021-02-07T09:32:40.000Z</time>
      </trkpt>
      <trkpt lat="47.10879" lon="-1.88754">
        <ele>61</ele>
        <time>2021-02-07T09:32:42.000Z</time>
      </trkpt>
      <trkpt lat="47.10871" lon="-1.88737">
        <ele>60</ele>
        <time>2021-02-07T09:32:44.000Z</time>
      </trkpt>
      <trkpt lat="47.10864" lon="-1.88719">
        <ele>60</ele>
        <time>2021-02-07T09:32:46.000Z</time>
      </trkpt>
      <trkpt lat="47.10856" lon="-1.88702">
        <ele>60</ele>
        <time>2021-02-07T09:32:48.000Z</time>
      </trkpt>
      <trkpt lat="47.10849" lon="-1.88684">
        <ele>60</ele>
        <time>2021-02-07T09:32:50.000Z</time>
      </trkpt>
      <trkpt lat="47.10842" lon="-1.88667">
        <ele>59</ele>
        <time>2021-02-07T09:32:52.000Z</time>
      </trkpt>
      <trkpt lat="47.10834" lon="-1.8865">
        <ele>59</ele>
        <time>2021-02-07T09:32:54.000Z</time>
      </trkpt>
      <trkpt lat="47.10827" lon="-1.88632">
        <ele>59</ele>
        <time>2021-02-07T09:32:56.000Z</time>
      </trkpt>
      <trkpt lat="47.1082" lon="-1.88615">
        <ele>59</ele>
        <time>2021-02-07T09:32:58.000Z</time>
      </trkpt>
      <trkpt lat="47.10813" lon="-1.88598">
        <ele>59</ele>
        <time>2021-02-07T09:33:00.000Z</time>
      </trkpt>
      <trkpt lat="47.10805" lon="-1.88581">
        <ele>59</ele>
        <time>2021-02-07T09:33:02.000Z</time>
      </trkpt>
      <trkpt lat="47.10798" lon="-1.88565">
        <ele>59</ele>
        <time>2021-02-07T09:33:04.000Z</time>
      </trkpt>
      <trkpt lat="47.10791" lon="-1.88548">
        <ele>59</ele>
        <time>2021-02-07T09:33:06.000Z</time>
      </trkpt>
      <trkpt lat="47.10783" lon="-1.88531">
        <ele>59</ele>
        <time>2021-02-07T09:33:08.000Z</time>
      </trkpt>
      <trkpt lat="47.10776" lon="-1.88513">
        <ele>59</ele>
        <time>2021-02-07T09:33:10.000Z</time>
      </trkpt>
      <trkpt lat="47.1077" lon="-1.88496">
        <ele>59</ele>
        <time>2021-02-07T09:33:12.000Z</time>
      </trkpt>
      <trkpt lat="47.10764" lon="-1.88479">
        <ele>59</ele>
        <time>2021-02-07T09:33:14.000Z</time>
      </trkpt>
      <trkpt lat="47.10759" lon="-1.88461">
        <ele>59</ele>
        <time>2021-02-07T09:33:16.000Z</time>
      </trkpt>
      <trkpt lat="47.10754" lon="-1.88443">
        <ele>59</ele>
        <time>2021-02-07T09:33:18.000Z</time>
      </trkpt>
      <trkpt lat="47.1075" lon="-1.88426">
        <ele>59</ele>
        <time>2021-02-07T09:33:20.000Z</time>
      </trkpt>
      <trkpt lat="47.10745" lon="-1.88408">
        <ele>59</ele>
        <time>2021-02-07T09:33:22.000Z</time>
      </trkpt>
      <trkpt lat="47.10741" lon="-1.8839">
        <ele>59</ele>
        <time>2021-02-07T09:33:24.000Z</time>
      </trkpt>
      <trkpt lat="47.10737" lon="-1.88372">
        <ele>59</ele>
        <time>2021-02-07T09:33:26.000Z</time>
      </trkpt>
      <trkpt lat="47.10734" lon="-1.88354">
        <ele>59</ele>
        <time>2021-02-07T09:33:28.000Z</time>
      </trkpt>
      <trkpt lat="47.10731" lon="-1.88335">
        <ele>59</ele>
        <time>2021-02-07T09:33:30.000Z</time>
      </trkpt>
      <trkpt lat="47.10728" lon="-1.88316">
        <ele>59</ele>
        <time>2021-02-07T09:33:32.000Z</time>
      </trkpt>
      <trkpt lat="47.10726" lon="-1.88298">
        <ele>59</ele>
        <time>2021-02-07T09:33:34.000Z</time>
      </trkpt>
      <trkpt lat="47.10724" lon="-1.88279">
        <ele>59</ele>
        <time>2021-02-07T09:33:36.000Z</time>
      </trkpt>
      <trkpt lat="47.10722" lon="-1.88259">
        <ele>58</ele>
        <time>2021-02-07T09:33:38.000Z</time>
      </trkpt>
      <trkpt lat="47.1072" lon="-1.8824">
        <ele>58</ele>
        <time>2021-02-07T09:33:40.000Z</time>
      </trkpt>
      <trkpt lat="47.10718" lon="-1.88221">
        <ele>58</ele>
        <time>2021-02-07T09:33:42.000Z</time>
      </trkpt>
      <trkpt lat="47.10716" lon="-1.88202">
        <ele>59</ele>
        <time>2021-02-07T09:33:44.000Z</time>
      </trkpt>
      <trkpt lat="47.10714" lon="-1.88183">
        <ele>59</ele>
        <time>2021-02-07T09:33:46.000Z</time>
      </trkpt>
      <trkpt lat="47.10712" lon="-1.88164">
        <ele>59</ele>
        <time>2021-02-07T09:33:48.000Z</time>
      </trkpt>
      <trkpt lat="47.1071" lon="-1.88145">
        <ele>58</ele>
        <time>2021-02-07T09:33:50.000Z</time>
      </trkpt>
      <trkpt lat="47.10708" lon="-1.88126">
        <ele>59</ele>
        <time>2021-02-07T09:33:52.000Z</time>
      </trkpt>
      <trkpt lat="47.10706" lon="-1.88107">
        <ele>58</ele>
        <time>2021-02-07T09:33:54.000Z</time>
      </trkpt>
      <trkpt lat="47.10704" lon="-1.88089">
        <ele>58</ele>
        <time>2021-02-07T09:33:56.000Z</time>
      </trkpt>
      <trkpt lat="47.10703" lon="-1.8807">
        <ele>58</ele>
        <time>2021-02-07T09:33:58.000Z</time>
      </trkpt>
      <trkpt lat="47.10701" lon="-1.88052">
        <ele>58</ele>
        <time>2021-02-07T09:34:00.000Z</time>
      </trkpt>
      <trkpt lat="47.10699" lon="-1.88035">
        <ele>57</ele>
        <time>2021-02-07T09:34:02.000Z</time>
      </trkpt>
      <trkpt lat="47.10698" lon="-1.88017">
        <ele>56</ele>
        <time>2021-02-07T09:34:04.000Z</time>
      </trkpt>
      <trkpt lat="47.10696" lon="-1.87998">
        <ele>56</ele>
        <time>2021-02-07T09:34:06.000Z</time>
      </trkpt>
      <trkpt lat="47.10694" lon="-1.8798">
        <ele>57</ele>
        <time>2021-02-07T09:34:08.000Z</time>
      </trkpt>
      <trkpt lat="47.10691" lon="-1.87964">
        <ele>57</ele>
        <time>2021-02-07T09:34:10.000Z</time>
      </trkpt>
      <trkpt lat="47.10688" lon="-1.87946">
        <ele>57</ele>
        <time>2021-02-07T09:34:12.000Z</time>
      </trkpt>
      <trkpt lat="47.10683" lon="-1.87929">
        <ele>57</ele>
        <time>2021-02-07T09:34:14.000Z</time>
      </trkpt>
      <trkpt lat="47.10677" lon="-1.87913">
        <ele>57</ele>
        <time>2021-02-07T09:34:16.000Z</time>
      </trkpt>
      <trkpt lat="47.10672" lon="-1.87898">
        <ele>57</ele>
        <time>2021-02-07T09:34:18.000Z</time>
      </trkpt>
      <trkpt lat="47.10667" lon="-1.87882">
        <ele>58</ele>
        <time>2021-02-07T09:34:20.000Z</time>
      </trkpt>
      <trkpt lat="47.10661" lon="-1.87866">
        <ele>58</ele>
        <time>2021-02-07T09:34:22.000Z</time>
      </trkpt>
      <trkpt lat="47.10655" lon="-1.87851">
        <ele>59</ele>
        <time>2021-02-07T09:34:24.000Z</time>
      </trkpt>
      <trkpt lat="47.10649" lon="-1.87836">
        <ele>59</ele>
        <time>2021-02-07T09:34:26.000Z</time>
      </trkpt>
      <trkpt lat="47.10644" lon="-1.87821">
        <ele>60</ele>
        <time>2021-02-07T09:34:28.000Z</time>
      </trkpt>
      <trkpt lat="47.10638" lon="-1.87805">
        <ele>60</ele>
        <time>2021-02-07T09:34:30.000Z</time>
      </trkpt>
      <trkpt lat="47.10632" lon="-1.87789">
        <ele>60</ele>
        <time>2021-02-07T09:34:32.000Z</time>
      </trkpt>
      <trkpt lat="47.10627" lon="-1.87772">
        <ele>61</ele>
        <time>2021-02-07T09:34:34.000Z</time>
      </trkpt>
      <trkpt lat="47.10621" lon="-1.87756">
        <ele>61</ele>
        <time>2021-02-07T09:34:36.000Z</time>
      </trkpt>
      <trkpt lat="47.10616" lon="-1.8774">
        <ele>62</ele>
        <time>2021-02-07T09:34:38.000Z</time>
      </trkpt>
      <trkpt lat="47.1061" lon="-1.87724">
        <ele>61</ele>
        <time>2021-02-07T09:34:40.000Z</time>
      </trkpt>
      <trkpt lat="47.10604" lon="-1.87708">
        <ele>61</ele>
        <time>2021-02-07T09:34:42.000Z</time>
      </trkpt>
      <trkpt lat="47.10598" lon="-1.87692">
        <ele>62</ele>
        <time>2021-02-07T09:34:44.000Z</time>
      </trkpt>
      <trkpt lat="47.10593" lon="-1.87676">
        <ele>62</ele>
        <time>2021-02-07T09:34:46.000Z</time>
      </trkpt>
      <trkpt lat="47.10587" lon="-1.87661">
        <ele>62</ele>
        <time>2021-02-07T09:34:48.000Z</time>
      </trkpt>
      <trkpt lat="47.10582" lon="-1.87644">
        <ele>62</ele>
        <time>2021-02-07T09:34:50.000Z</time>
      </trkpt>
      <trkpt lat="47.10578" lon="-1.87628">
        <ele>62</ele>
        <time>2021-02-07T09:34:52.000Z</time>
      </trkpt>
      <trkpt lat="47.10573" lon="-1.87612">
        <ele>62</ele>
        <time>2021-02-07T09:34:54.000Z</time>
      </trkpt>
      <trkpt lat="47.1057" lon="-1.87596">
        <ele>62</ele>
        <time>2021-02-07T09:34:56.000Z</time>
      </trkpt>
      <trkpt lat="47.10566" lon="-1.87579">
        <ele>62</ele>
        <time>2021-02-07T09:34:58.000Z</time>
      </trkpt>
      <trkpt lat="47.10563" lon="-1.87563">
        <ele>62</ele>
        <time>2021-02-07T09:35:00.000Z</time>
      </trkpt>
      <trkpt lat="47.10559" lon="-1.87546">
        <ele>62</ele>
        <time>2021-02-07T09:35:02.000Z</time>
      </trkpt>
      <trkpt lat="47.10556" lon="-1.87529">
        <ele>62</ele>
        <time>2021-02-07T09:35:04.000Z</time>
      </trkpt>
      <trkpt lat="47.10553" lon="-1.87512">
        <ele>62</ele>
        <time>2021-02-07T09:35:06.000Z</time>
      </trkpt>
      <trkpt lat="47.1055" lon="-1.87495">
        <ele>62</ele>
        <time>2021-02-07T09:35:08.000Z</time>
      </trkpt>
      <trkpt lat="47.10547" lon="-1.87478">
        <ele>62</ele>
        <time>2021-02-07T09:35:10.000Z</time>
      </trkpt>
      <trkpt lat="47.10544" lon="-1.87461">
        <ele>62</ele>
        <time>2021-02-07T09:35:12.000Z</time>
      </trkpt>
      <trkpt lat="47.10541" lon="-1.87445">
        <ele>62</ele>
        <time>2021-02-07T09:35:14.000Z</time>
      </trkpt>
      <trkpt lat="47.10537" lon="-1.87428">
        <ele>62</ele>
        <time>2021-02-07T09:35:16.000Z</time>
      </trkpt>
      <trkpt lat="47.10534" lon="-1.87411">
        <ele>63</ele>
        <time>2021-02-07T09:35:18.000Z</time>
      </trkpt>
      <trkpt lat="47.1053" lon="-1.87395">
        <ele>62</ele>
        <time>2021-02-07T09:35:20.000Z</time>
      </trkpt>
      <trkpt lat="47.10527" lon="-1.87378">
        <ele>63</ele>
        <time>2021-02-07T09:35:22.000Z</time>
      </trkpt>
      <trkpt lat="47.10524" lon="-1.87362">
        <ele>63</ele>
        <time>2021-02-07T09:35:24.000Z</time>
      </trkpt>
      <trkpt lat="47.10521" lon="-1.87345">
        <ele>64</ele>
        <time>2021-02-07T09:35:26.000Z</time>
      </trkpt>
      <trkpt lat="47.10517" lon="-1.8733">
        <ele>63</ele>
        <time>2021-02-07T09:35:28.000Z</time>
      </trkpt>
      <trkpt lat="47.10514" lon="-1.87314">
        <ele>64</ele>
        <time>2021-02-07T09:35:30.000Z</time>
      </trkpt>
      <trkpt lat="47.10511" lon="-1.873">
        <ele>64</ele>
        <time>2021-02-07T09:35:32.000Z</time>
      </trkpt>
      <trkpt lat="47.10506" lon="-1.87285">
        <ele>64</ele>
        <time>2021-02-07T09:35:34.000Z</time>
      </trkpt>
      <trkpt lat="47.10502" lon="-1.87269">
        <ele>64</ele>
        <time>2021-02-07T09:35:36.000Z</time>
      </trkpt>
      <trkpt lat="47.10497" lon="-1.87255">
        <ele>64</ele>
        <time>2021-02-07T09:35:38.000Z</time>
      </trkpt>
      <trkpt lat="47.10487" lon="-1.87238">
        <ele>65</ele>
        <time>2021-02-07T09:35:41.000Z</time>
      </trkpt>
      <trkpt lat="47.10482" lon="-1.87225">
        <ele>65</ele>
        <time>2021-02-07T09:35:43.000Z</time>
      </trkpt>
      <trkpt lat="47.1048" lon="-1.87209">
        <ele>66</ele>
        <time>2021-02-07T09:35:45.000Z</time>
      </trkpt>
      <trkpt lat="47.10478" lon="-1.87193">
        <ele>66</ele>
        <time>2021-02-07T09:35:47.000Z</time>
      </trkpt>
      <trkpt lat="47.10475" lon="-1.87179">
        <ele>66</ele>
        <time>2021-02-07T09:35:49.000Z</time>
      </trkpt>
      <trkpt lat="47.10471" lon="-1.87165">
        <ele>66</ele>
        <time>2021-02-07T09:35:51.000Z</time>
      </trkpt>
      <trkpt lat="47.10468" lon="-1.87151">
        <ele>66</ele>
        <time>2021-02-07T09:35:53.000Z</time>
      </trkpt>
      <trkpt lat="47.10464" lon="-1.87136">
        <ele>66</ele>
        <time>2021-02-07T09:35:55.000Z</time>
      </trkpt>
      <trkpt lat="47.10461" lon="-1.87122">
        <ele>67</ele>
        <time>2021-02-07T09:35:57.000Z</time>
      </trkpt>
      <trkpt lat="47.10459" lon="-1.87107">
        <ele>66</ele>
        <time>2021-02-07T09:35:59.000Z</time>
      </trkpt>
      <trkpt lat="47.10456" lon="-1.87093">
        <ele>66</ele>
        <time>2021-02-07T09:36:01.000Z</time>
      </trkpt>
      <trkpt lat="47.10453" lon="-1.87078">
        <ele>66</ele>
        <time>2021-02-07T09:36:03.000Z</time>
      </trkpt>
      <trkpt lat="47.1045" lon="-1.87064">
        <ele>67</ele>
        <time>2021-02-07T09:36:05.000Z</time>
      </trkpt>
      <trkpt lat="47.10447" lon="-1.87049">
        <ele>66</ele>
        <time>2021-02-07T09:36:07.000Z</time>
      </trkpt>
      <trkpt lat="47.10444" lon="-1.87034">
        <ele>67</ele>
        <time>2021-02-07T09:36:09.000Z</time>
      </trkpt>
      <trkpt lat="47.10441" lon="-1.87019">
        <ele>67</ele>
        <time>2021-02-07T09:36:11.000Z</time>
      </trkpt>
      <trkpt lat="47.10438" lon="-1.87004">
        <ele>67</ele>
        <time>2021-02-07T09:36:13.000Z</time>
      </trkpt>
      <trkpt lat="47.10435" lon="-1.8699">
        <ele>67</ele>
        <time>2021-02-07T09:36:15.000Z</time>
      </trkpt>
      <trkpt lat="47.10432" lon="-1.86975">
        <ele>67</ele>
        <time>2021-02-07T09:36:17.000Z</time>
      </trkpt>
      <trkpt lat="47.10429" lon="-1.8696">
        <ele>67</ele>
        <time>2021-02-07T09:36:19.000Z</time>
      </trkpt>
      <trkpt lat="47.10426" lon="-1.86944">
        <ele>67</ele>
        <time>2021-02-07T09:36:21.000Z</time>
      </trkpt>
      <trkpt lat="47.10423" lon="-1.86929">
        <ele>67</ele>
        <time>2021-02-07T09:36:23.000Z</time>
      </trkpt>
      <trkpt lat="47.1042" lon="-1.86914">
        <ele>67</ele>
        <time>2021-02-07T09:36:25.000Z</time>
      </trkpt>
      <trkpt lat="47.10417" lon="-1.86899">
        <ele>67</ele>
        <time>2021-02-07T09:36:27.000Z</time>
      </trkpt>
      <trkpt lat="47.10414" lon="-1.86883">
        <ele>67</ele>
        <time>2021-02-07T09:36:29.000Z</time>
      </trkpt>
      <trkpt lat="47.10411" lon="-1.86867">
        <ele>68</ele>
        <time>2021-02-07T09:36:31.000Z</time>
      </trkpt>
      <trkpt lat="47.10408" lon="-1.86852">
        <ele>68</ele>
        <time>2021-02-07T09:36:33.000Z</time>
      </trkpt>
      <trkpt lat="47.10404" lon="-1.86829">
        <ele>68</ele>
        <time>2021-02-07T09:36:36.000Z</time>
      </trkpt>
      <trkpt lat="47.10401" lon="-1.86813">
        <ele>67</ele>
        <time>2021-02-07T09:36:38.000Z</time>
      </trkpt>
      <trkpt lat="47.10396" lon="-1.86789">
        <ele>67</ele>
        <time>2021-02-07T09:36:41.000Z</time>
      </trkpt>
      <trkpt lat="47.10393" lon="-1.86773">
        <ele>67</ele>
        <time>2021-02-07T09:36:43.000Z</time>
      </trkpt>
      <trkpt lat="47.10389" lon="-1.86757">
        <ele>66</ele>
        <time>2021-02-07T09:36:45.000Z</time>
      </trkpt>
      <trkpt lat="47.10387" lon="-1.8674">
        <ele>66</ele>
        <time>2021-02-07T09:36:47.000Z</time>
      </trkpt>
      <trkpt lat="47.10384" lon="-1.86725">
        <ele>67</ele>
        <time>2021-02-07T09:36:49.000Z</time>
      </trkpt>
      <trkpt lat="47.10381" lon="-1.8671">
        <ele>67</ele>
        <time>2021-02-07T09:36:51.000Z</time>
      </trkpt>
      <trkpt lat="47.10377" lon="-1.86686">
        <ele>67</ele>
        <time>2021-02-07T09:36:54.000Z</time>
      </trkpt>
      <trkpt lat="47.10374" lon="-1.8667">
        <ele>67</ele>
        <time>2021-02-07T09:36:56.000Z</time>
      </trkpt>
      <trkpt lat="47.10371" lon="-1.86645">
        <ele>66</ele>
        <time>2021-02-07T09:36:59.000Z</time>
      </trkpt>
      <trkpt lat="47.1037" lon="-1.8662">
        <ele>66</ele>
        <time>2021-02-07T09:37:02.000Z</time>
      </trkpt>
      <trkpt lat="47.1037" lon="-1.86604">
        <ele>66</ele>
        <time>2021-02-07T09:37:04.000Z</time>
      </trkpt>
      <trkpt lat="47.10369" lon="-1.86588">
        <ele>65</ele>
        <time>2021-02-07T09:37:06.000Z</time>
      </trkpt>
      <trkpt lat="47.10367" lon="-1.86571">
        <ele>65</ele>
        <time>2021-02-07T09:37:08.000Z</time>
      </trkpt>
      <trkpt lat="47.10364" lon="-1.86555">
        <ele>65</ele>
        <time>2021-02-07T09:37:10.000Z</time>
      </trkpt>
      <trkpt lat="47.10355" lon="-1.86531">
        <ele>64</ele>
        <time>2021-02-07T09:37:13.000Z</time>
      </trkpt>
      <trkpt lat="47.10349" lon="-1.86514">
        <ele>64</ele>
        <time>2021-02-07T09:37:15.000Z</time>
      </trkpt>
      <trkpt lat="47.10341" lon="-1.86498">
        <ele>64</ele>
        <time>2021-02-07T09:37:17.000Z</time>
      </trkpt>
      <trkpt lat="47.10334" lon="-1.86483">
        <ele>64</ele>
        <time>2021-02-07T09:37:19.000Z</time>
      </trkpt>
      <trkpt lat="47.10327" lon="-1.86467">
        <ele>63</ele>
        <time>2021-02-07T09:37:21.000Z</time>
      </trkpt>
      <trkpt lat="47.1032" lon="-1.86452">
        <ele>62</ele>
        <time>2021-02-07T09:37:23.000Z</time>
      </trkpt>
      <trkpt lat="47.10313" lon="-1.86434">
        <ele>62</ele>
        <time>2021-02-07T09:37:25.000Z</time>
      </trkpt>
      <trkpt lat="47.10309" lon="-1.86416">
        <ele>62</ele>
        <time>2021-02-07T09:37:27.000Z</time>
      </trkpt>
      <trkpt lat="47.10307" lon="-1.86396">
        <ele>61</ele>
        <time>2021-02-07T09:37:29.000Z</time>
      </trkpt>
      <trkpt lat="47.10305" lon="-1.86377">
        <ele>61</ele>
        <time>2021-02-07T09:37:31.000Z</time>
      </trkpt>
      <trkpt lat="47.10302" lon="-1.86357">
        <ele>62</ele>
        <time>2021-02-07T09:37:33.000Z</time>
      </trkpt>
      <trkpt lat="47.10296" lon="-1.8633">
        <ele>61</ele>
        <time>2021-02-07T09:37:36.000Z</time>
      </trkpt>
      <trkpt lat="47.10292" lon="-1.86312">
        <ele>61</ele>
        <time>2021-02-07T09:37:38.000Z</time>
      </trkpt>
      <trkpt lat="47.10288" lon="-1.86295">
        <ele>61</ele>
        <time>2021-02-07T09:37:40.000Z</time>
      </trkpt>
      <trkpt lat="47.10283" lon="-1.8628">
        <ele>61</ele>
        <time>2021-02-07T09:37:42.000Z</time>
      </trkpt>
      <trkpt lat="47.10277" lon="-1.86265">
        <ele>61</ele>
        <time>2021-02-07T09:37:44.000Z</time>
      </trkpt>
      <trkpt lat="47.10271" lon="-1.8625">
        <ele>61</ele>
        <time>2021-02-07T09:37:46.000Z</time>
      </trkpt>
      <trkpt lat="47.10265" lon="-1.86237">
        <ele>62</ele>
        <time>2021-02-07T09:37:48.000Z</time>
      </trkpt>
      <trkpt lat="47.10259" lon="-1.86224">
        <ele>62</ele>
        <time>2021-02-07T09:37:50.000Z</time>
      </trkpt>
      <trkpt lat="47.10251" lon="-1.86203">
        <ele>62</ele>
        <time>2021-02-07T09:37:53.000Z</time>
      </trkpt>
      <trkpt lat="47.10246" lon="-1.86191">
        <ele>63</ele>
        <time>2021-02-07T09:37:55.000Z</time>
      </trkpt>
      <trkpt lat="47.1024" lon="-1.86177">
        <ele>63</ele>
        <time>2021-02-07T09:37:57.000Z</time>
      </trkpt>
      <trkpt lat="47.10235" lon="-1.86164">
        <ele>63</ele>
        <time>2021-02-07T09:37:59.000Z</time>
      </trkpt>
      <trkpt lat="47.1023" lon="-1.8615">
        <ele>63</ele>
        <time>2021-02-07T09:38:01.000Z</time>
      </trkpt>
      <trkpt lat="47.10225" lon="-1.86136">
        <ele>63</ele>
        <time>2021-02-07T09:38:03.000Z</time>
      </trkpt>
      <trkpt lat="47.1022" lon="-1.86122">
        <ele>63</ele>
        <time>2021-02-07T09:38:05.000Z</time>
      </trkpt>
      <trkpt lat="47.10215" lon="-1.86107">
        <ele>63</ele>
        <time>2021-02-07T09:38:07.000Z</time>
      </trkpt>
      <trkpt lat="47.10209" lon="-1.86092">
        <ele>63</ele>
        <time>2021-02-07T09:38:09.000Z</time>
      </trkpt>
      <trkpt lat="47.10204" lon="-1.86078">
        <ele>63</ele>
        <time>2021-02-07T09:38:11.000Z</time>
      </trkpt>
      <trkpt lat="47.10199" lon="-1.86064">
        <ele>63</ele>
        <time>2021-02-07T09:38:13.000Z</time>
      </trkpt>
      <trkpt lat="47.10194" lon="-1.86051">
        <ele>63</ele>
        <time>2021-02-07T09:38:15.000Z</time>
      </trkpt>
      <trkpt lat="47.10189" lon="-1.86037">
        <ele>64</ele>
        <time>2021-02-07T09:38:17.000Z</time>
      </trkpt>
      <trkpt lat="47.10183" lon="-1.86024">
        <ele>64</ele>
        <time>2021-02-07T09:38:19.000Z</time>
      </trkpt>
      <trkpt lat="47.10179" lon="-1.86011">
        <ele>64</ele>
        <time>2021-02-07T09:38:21.000Z</time>
      </trkpt>
      <trkpt lat="47.10174" lon="-1.85998">
        <ele>65</ele>
        <time>2021-02-07T09:38:23.000Z</time>
      </trkpt>
      <trkpt lat="47.10169" lon="-1.85986">
        <ele>65</ele>
        <time>2021-02-07T09:38:25.000Z</time>
      </trkpt>
      <trkpt lat="47.10165" lon="-1.85973">
        <ele>66</ele>
        <time>2021-02-07T09:38:27.000Z</time>
      </trkpt>
      <trkpt lat="47.10159" lon="-1.85959">
        <ele>66</ele>
        <time>2021-02-07T09:38:29.000Z</time>
      </trkpt>
      <trkpt lat="47.10154" lon="-1.85946">
        <ele>66</ele>
        <time>2021-02-07T09:38:31.000Z</time>
      </trkpt>
      <trkpt lat="47.10148" lon="-1.85933">
        <ele>67</ele>
        <time>2021-02-07T09:38:33.000Z</time>
      </trkpt>
      <trkpt lat="47.10142" lon="-1.85921">
        <ele>67</ele>
        <time>2021-02-07T09:38:35.000Z</time>
      </trkpt>
      <trkpt lat="47.10137" lon="-1.85908">
        <ele>67</ele>
        <time>2021-02-07T09:38:37.000Z</time>
      </trkpt>
      <trkpt lat="47.10131" lon="-1.85895">
        <ele>67</ele>
        <time>2021-02-07T09:38:39.000Z</time>
      </trkpt>
      <trkpt lat="47.10125" lon="-1.85883">
        <ele>67</ele>
        <time>2021-02-07T09:38:41.000Z</time>
      </trkpt>
      <trkpt lat="47.10119" lon="-1.8587">
        <ele>67</ele>
        <time>2021-02-07T09:38:43.000Z</time>
      </trkpt>
      <trkpt lat="47.10113" lon="-1.85858">
        <ele>67</ele>
        <time>2021-02-07T09:38:45.000Z</time>
      </trkpt>
      <trkpt lat="47.10104" lon="-1.8585">
        <ele>68</ele>
        <time>2021-02-07T09:38:47.000Z</time>
      </trkpt>
      <trkpt lat="47.10095" lon="-1.85844">
        <ele>68</ele>
        <time>2021-02-07T09:38:49.000Z</time>
      </trkpt>
      <trkpt lat="47.10092" lon="-1.85825">
        <ele>68</ele>
        <time>2021-02-07T09:38:52.000Z</time>
      </trkpt>
      <trkpt lat="47.10097" lon="-1.8581">
        <ele>68</ele>
        <time>2021-02-07T09:38:54.000Z</time>
      </trkpt>
      <trkpt lat="47.10096" lon="-1.85795">
        <ele>68</ele>
        <time>2021-02-07T09:38:56.000Z</time>
      </trkpt>
      <trkpt lat="47.10094" lon="-1.85779">
        <ele>68</ele>
        <time>2021-02-07T09:38:58.000Z</time>
      </trkpt>
      <trkpt lat="47.10092" lon="-1.85762">
        <ele>68</ele>
        <time>2021-02-07T09:39:00.000Z</time>
      </trkpt>
      <trkpt lat="47.10091" lon="-1.85745">
        <ele>68</ele>
        <time>2021-02-07T09:39:02.000Z</time>
      </trkpt>
      <trkpt lat="47.1009" lon="-1.85727">
        <ele>67</ele>
        <time>2021-02-07T09:39:04.000Z</time>
      </trkpt>
      <trkpt lat="47.10088" lon="-1.8571">
        <ele>67</ele>
        <time>2021-02-07T09:39:06.000Z</time>
      </trkpt>
      <trkpt lat="47.10087" lon="-1.85692">
        <ele>67</ele>
        <time>2021-02-07T09:39:08.000Z</time>
      </trkpt>
      <trkpt lat="47.10085" lon="-1.85675">
        <ele>67</ele>
        <time>2021-02-07T09:39:10.000Z</time>
      </trkpt>
      <trkpt lat="47.10083" lon="-1.85658">
        <ele>67</ele>
        <time>2021-02-07T09:39:12.000Z</time>
      </trkpt>
      <trkpt lat="47.10082" lon="-1.85641">
        <ele>67</ele>
        <time>2021-02-07T09:39:14.000Z</time>
      </trkpt>
      <trkpt lat="47.10081" lon="-1.85623">
        <ele>66</ele>
        <time>2021-02-07T09:39:16.000Z</time>
      </trkpt>
      <trkpt lat="47.10079" lon="-1.85607">
        <ele>66</ele>
        <time>2021-02-07T09:39:18.000Z</time>
      </trkpt>
      <trkpt lat="47.10077" lon="-1.85589">
        <ele>66</ele>
        <time>2021-02-07T09:39:20.000Z</time>
      </trkpt>
      <trkpt lat="47.10073" lon="-1.85571">
        <ele>65</ele>
        <time>2021-02-07T09:39:22.000Z</time>
      </trkpt>
      <trkpt lat="47.10066" lon="-1.85554">
        <ele>65</ele>
        <time>2021-02-07T09:39:24.000Z</time>
      </trkpt>
      <trkpt lat="47.10058" lon="-1.85538">
        <ele>64</ele>
        <time>2021-02-07T09:39:26.000Z</time>
      </trkpt>
      <trkpt lat="47.10049" lon="-1.85523">
        <ele>64</ele>
        <time>2021-02-07T09:39:28.000Z</time>
      </trkpt>
      <trkpt lat="47.10038" lon="-1.85508">
        <ele>63</ele>
        <time>2021-02-07T09:39:30.000Z</time>
      </trkpt>
      <trkpt lat="47.10026" lon="-1.85492">
        <ele>62</ele>
        <time>2021-02-07T09:39:32.000Z</time>
      </trkpt>
      <trkpt lat="47.10014" lon="-1.85476">
        <ele>61</ele>
        <time>2021-02-07T09:39:34.000Z</time>
      </trkpt>
      <trkpt lat="47.10003" lon="-1.85461">
        <ele>61</ele>
        <time>2021-02-07T09:39:36.000Z</time>
      </trkpt>
      <trkpt lat="47.09992" lon="-1.85446">
        <ele>60</ele>
        <time>2021-02-07T09:39:38.000Z</time>
      </trkpt>
      <trkpt lat="47.09982" lon="-1.85432">
        <ele>60</ele>
        <time>2021-02-07T09:39:40.000Z</time>
      </trkpt>
      <trkpt lat="47.09971" lon="-1.85418">
        <ele>60</ele>
        <time>2021-02-07T09:39:42.000Z</time>
      </trkpt>
      <trkpt lat="47.09962" lon="-1.85404">
        <ele>60</ele>
        <time>2021-02-07T09:39:44.000Z</time>
      </trkpt>
      <trkpt lat="47.09953" lon="-1.85389">
        <ele>61</ele>
        <time>2021-02-07T09:39:46.000Z</time>
      </trkpt>
      <trkpt lat="47.09945" lon="-1.85374">
        <ele>60</ele>
        <time>2021-02-07T09:39:48.000Z</time>
      </trkpt>
      <trkpt lat="47.09939" lon="-1.85357">
        <ele>61</ele>
        <time>2021-02-07T09:39:50.000Z</time>
      </trkpt>
      <trkpt lat="47.09934" lon="-1.8534">
        <ele>61</ele>
        <time>2021-02-07T09:39:52.000Z</time>
      </trkpt>
      <trkpt lat="47.09931" lon="-1.85321">
        <ele>62</ele>
        <time>2021-02-07T09:39:54.000Z</time>
      </trkpt>
      <trkpt lat="47.09931" lon="-1.85302">
        <ele>62</ele>
        <time>2021-02-07T09:39:56.000Z</time>
      </trkpt>
      <trkpt lat="47.09931" lon="-1.85285">
        <ele>63</ele>
        <time>2021-02-07T09:39:58.000Z</time>
      </trkpt>
      <trkpt lat="47.0993" lon="-1.85268">
        <ele>63</ele>
        <time>2021-02-07T09:40:00.000Z</time>
      </trkpt>
      <trkpt lat="47.09929" lon="-1.85252">
        <ele>63</ele>
        <time>2021-02-07T09:40:02.000Z</time>
      </trkpt>
      <trkpt lat="47.09927" lon="-1.85236">
        <ele>63</ele>
        <time>2021-02-07T09:40:04.000Z</time>
      </trkpt>
      <trkpt lat="47.09926" lon="-1.85222">
        <ele>63</ele>
        <time>2021-02-07T09:40:06.000Z</time>
      </trkpt>
      <trkpt lat="47.09924" lon="-1.85207">
        <ele>63</ele>
        <time>2021-02-07T09:40:08.000Z</time>
      </trkpt>
      <trkpt lat="47.09922" lon="-1.85192">
        <ele>64</ele>
        <time>2021-02-07T09:40:10.000Z</time>
      </trkpt>
      <trkpt lat="47.0992" lon="-1.85179">
        <ele>65</ele>
        <time>2021-02-07T09:40:12.000Z</time>
      </trkpt>
      <trkpt lat="47.09919" lon="-1.85165">
        <ele>65</ele>
        <time>2021-02-07T09:40:14.000Z</time>
      </trkpt>
      <trkpt lat="47.09918" lon="-1.8515">
        <ele>65</ele>
        <time>2021-02-07T09:40:16.000Z</time>
      </trkpt>
      <trkpt lat="47.09918" lon="-1.85134">
        <ele>65</ele>
        <time>2021-02-07T09:40:18.000Z</time>
      </trkpt>
      <trkpt lat="47.09918" lon="-1.85118">
        <ele>65</ele>
        <time>2021-02-07T09:40:20.000Z</time>
      </trkpt>
      <trkpt lat="47.09918" lon="-1.85101">
        <ele>65</ele>
        <time>2021-02-07T09:40:22.000Z</time>
      </trkpt>
      <trkpt lat="47.09919" lon="-1.85085">
        <ele>65</ele>
        <time>2021-02-07T09:40:24.000Z</time>
      </trkpt>
      <trkpt lat="47.09919" lon="-1.85068">
        <ele>65</ele>
        <time>2021-02-07T09:40:26.000Z</time>
      </trkpt>
      <trkpt lat="47.0992" lon="-1.85051">
        <ele>65</ele>
        <time>2021-02-07T09:40:28.000Z</time>
      </trkpt>
      <trkpt lat="47.0992" lon="-1.85036">
        <ele>65</ele>
        <time>2021-02-07T09:40:30.000Z</time>
      </trkpt>
      <trkpt lat="47.09921" lon="-1.85019">
        <ele>65</ele>
        <time>2021-02-07T09:40:32.000Z</time>
      </trkpt>
      <trkpt lat="47.09922" lon="-1.85003">
        <ele>64</ele>
        <time>2021-02-07T09:40:34.000Z</time>
      </trkpt>
      <trkpt lat="47.09922" lon="-1.84987">
        <ele>65</ele>
        <time>2021-02-07T09:40:36.000Z</time>
      </trkpt>
      <trkpt lat="47.09923" lon="-1.8497">
        <ele>65</ele>
        <time>2021-02-07T09:40:38.000Z</time>
      </trkpt>
      <trkpt lat="47.09923" lon="-1.84952">
        <ele>65</ele>
        <time>2021-02-07T09:40:40.000Z</time>
      </trkpt>
      <trkpt lat="47.09922" lon="-1.84935">
        <ele>65</ele>
        <time>2021-02-07T09:40:42.000Z</time>
      </trkpt>
      <trkpt lat="47.09921" lon="-1.84919">
        <ele>65</ele>
        <time>2021-02-07T09:40:44.000Z</time>
      </trkpt>
      <trkpt lat="47.0992" lon="-1.84901">
        <ele>65</ele>
        <time>2021-02-07T09:40:46.000Z</time>
      </trkpt>
      <trkpt lat="47.09919" lon="-1.84884">
        <ele>65</ele>
        <time>2021-02-07T09:40:48.000Z</time>
      </trkpt>
      <trkpt lat="47.09918" lon="-1.84867">
        <ele>65</ele>
        <time>2021-02-07T09:40:50.000Z</time>
      </trkpt>
      <trkpt lat="47.09917" lon="-1.84851">
        <ele>66</ele>
        <time>2021-02-07T09:40:52.000Z</time>
      </trkpt>
      <trkpt lat="47.09916" lon="-1.84835">
        <ele>66</ele>
        <time>2021-02-07T09:40:54.000Z</time>
      </trkpt>
      <trkpt lat="47.09915" lon="-1.84819">
        <ele>66</ele>
        <time>2021-02-07T09:40:56.000Z</time>
      </trkpt>
      <trkpt lat="47.09914" lon="-1.84803">
        <ele>66</ele>
        <time>2021-02-07T09:40:58.000Z</time>
      </trkpt>
      <trkpt lat="47.09913" lon="-1.84786">
        <ele>66</ele>
        <time>2021-02-07T09:41:00.000Z</time>
      </trkpt>
      <trkpt lat="47.09912" lon="-1.84771">
        <ele>66</ele>
        <time>2021-02-07T09:41:02.000Z</time>
      </trkpt>
      <trkpt lat="47.09911" lon="-1.84755">
        <ele>67</ele>
        <time>2021-02-07T09:41:04.000Z</time>
      </trkpt>
      <trkpt lat="47.0991" lon="-1.84739">
        <ele>67</ele>
        <time>2021-02-07T09:41:06.000Z</time>
      </trkpt>
      <trkpt lat="47.09909" lon="-1.84723">
        <ele>68</ele>
        <time>2021-02-07T09:41:08.000Z</time>
      </trkpt>
      <trkpt lat="47.09908" lon="-1.84708">
        <ele>68</ele>
        <time>2021-02-07T09:41:10.000Z</time>
      </trkpt>
      <trkpt lat="47.09907" lon="-1.84692">
        <ele>68</ele>
        <time>2021-02-07T09:41:12.000Z</time>
      </trkpt>
      <trkpt lat="47.09906" lon="-1.84677">
        <ele>68</ele>
        <time>2021-02-07T09:41:14.000Z</time>
      </trkpt>
      <trkpt lat="47.09906" lon="-1.84661">
        <ele>68</ele>
        <time>2021-02-07T09:41:16.000Z</time>
      </trkpt>
      <trkpt lat="47.09905" lon="-1.84645">
        <ele>68</ele>
        <time>2021-02-07T09:41:18.000Z</time>
      </trkpt>
      <trkpt lat="47.09904" lon="-1.8463">
        <ele>68</ele>
        <time>2021-02-07T09:41:20.000Z</time>
      </trkpt>
      <trkpt lat="47.09904" lon="-1.84613">
        <ele>68</ele>
        <time>2021-02-07T09:41:22.000Z</time>
      </trkpt>
      <trkpt lat="47.09903" lon="-1.84598">
        <ele>69</ele>
        <time>2021-02-07T09:41:24.000Z</time>
      </trkpt>
      <trkpt lat="47.09902" lon="-1.84582">
        <ele>69</ele>
        <time>2021-02-07T09:41:26.000Z</time>
      </trkpt>
      <trkpt lat="47.09901" lon="-1.84567">
        <ele>69</ele>
        <time>2021-02-07T09:41:28.000Z</time>
      </trkpt>
      <trkpt lat="47.09899" lon="-1.84551">
        <ele>69</ele>
        <time>2021-02-07T09:41:30.000Z</time>
      </trkpt>
      <trkpt lat="47.09897" lon="-1.84535">
        <ele>69</ele>
        <time>2021-02-07T09:41:32.000Z</time>
      </trkpt>
      <trkpt lat="47.09896" lon="-1.84518">
        <ele>69</ele>
        <time>2021-02-07T09:41:34.000Z</time>
      </trkpt>
      <trkpt lat="47.09894" lon="-1.84502">
        <ele>70</ele>
        <time>2021-02-07T09:41:36.000Z</time>
      </trkpt>
      <trkpt lat="47.09892" lon="-1.84486">
        <ele>69</ele>
        <time>2021-02-07T09:41:38.000Z</time>
      </trkpt>
      <trkpt lat="47.0989" lon="-1.84468">
        <ele>69</ele>
        <time>2021-02-07T09:41:40.000Z</time>
      </trkpt>
      <trkpt lat="47.09889" lon="-1.84451">
        <ele>70</ele>
        <time>2021-02-07T09:41:42.000Z</time>
      </trkpt>
      <trkpt lat="47.09888" lon="-1.84434">
        <ele>70</ele>
        <time>2021-02-07T09:41:44.000Z</time>
      </trkpt>
      <trkpt lat="47.09888" lon="-1.84417">
        <ele>70</ele>
        <time>2021-02-07T09:41:46.000Z</time>
      </trkpt>
      <trkpt lat="47.09888" lon="-1.844">
        <ele>70</ele>
        <time>2021-02-07T09:41:48.000Z</time>
      </trkpt>
      <trkpt lat="47.09889" lon="-1.84383">
        <ele>69</ele>
        <time>2021-02-07T09:41:50.000Z</time>
      </trkpt>
      <trkpt lat="47.09889" lon="-1.84366">
        <ele>69</ele>
        <time>2021-02-07T09:41:52.000Z</time>
      </trkpt>
      <trkpt lat="47.09889" lon="-1.84349">
        <ele>69</ele>
        <time>2021-02-07T09:41:54.000Z</time>
      </trkpt>
      <trkpt lat="47.0989" lon="-1.84331">
        <ele>69</ele>
        <time>2021-02-07T09:41:56.000Z</time>
      </trkpt>
      <trkpt lat="47.09889" lon="-1.84313">
        <ele>68</ele>
        <time>2021-02-07T09:41:58.000Z</time>
      </trkpt>
      <trkpt lat="47.09889" lon="-1.84296">
        <ele>69</ele>
        <time>2021-02-07T09:42:00.000Z</time>
      </trkpt>
      <trkpt lat="47.09889" lon="-1.84278">
        <ele>68</ele>
        <time>2021-02-07T09:42:02.000Z</time>
      </trkpt>
      <trkpt lat="47.09888" lon="-1.8426">
        <ele>68</ele>
        <time>2021-02-07T09:42:04.000Z</time>
      </trkpt>
      <trkpt lat="47.09887" lon="-1.84242">
        <ele>67</ele>
        <time>2021-02-07T09:42:06.000Z</time>
      </trkpt>
      <trkpt lat="47.09886" lon="-1.84224">
        <ele>67</ele>
        <time>2021-02-07T09:42:08.000Z</time>
      </trkpt>
      <trkpt lat="47.09884" lon="-1.84205">
        <ele>66</ele>
        <time>2021-02-07T09:42:10.000Z</time>
      </trkpt>
      <trkpt lat="47.09881" lon="-1.84186">
        <ele>66</ele>
        <time>2021-02-07T09:42:12.000Z</time>
      </trkpt>
      <trkpt lat="47.09878" lon="-1.84168">
        <ele>66</ele>
        <time>2021-02-07T09:42:14.000Z</time>
      </trkpt>
      <trkpt lat="47.09875" lon="-1.84149">
        <ele>66</ele>
        <time>2021-02-07T09:42:16.000Z</time>
      </trkpt>
      <trkpt lat="47.09871" lon="-1.84129">
        <ele>65</ele>
        <time>2021-02-07T09:42:18.000Z</time>
      </trkpt>
      <trkpt lat="47.09868" lon="-1.8411">
        <ele>66</ele>
        <time>2021-02-07T09:42:20.000Z</time>
      </trkpt>
      <trkpt lat="47.09864" lon="-1.84089">
        <ele>66</ele>
        <time>2021-02-07T09:42:22.000Z</time>
      </trkpt>
      <trkpt lat="47.09861" lon="-1.84069">
        <ele>66</ele>
        <time>2021-02-07T09:42:24.000Z</time>
      </trkpt>
      <trkpt lat="47.09858" lon="-1.84048">
        <ele>66</ele>
        <time>2021-02-07T09:42:26.000Z</time>
      </trkpt>
      <trkpt lat="47.09855" lon="-1.84027">
        <ele>65</ele>
        <time>2021-02-07T09:42:28.000Z</time>
      </trkpt>
      <trkpt lat="47.09852" lon="-1.84007">
        <ele>65</ele>
        <time>2021-02-07T09:42:30.000Z</time>
      </trkpt>
      <trkpt lat="47.0985" lon="-1.83985">
        <ele>65</ele>
        <time>2021-02-07T09:42:32.000Z</time>
      </trkpt>
      <trkpt lat="47.0985" lon="-1.83964">
        <ele>65</ele>
        <time>2021-02-07T09:42:34.000Z</time>
      </trkpt>
      <trkpt lat="47.09851" lon="-1.83941">
        <ele>64</ele>
        <time>2021-02-07T09:42:36.000Z</time>
      </trkpt>
      <trkpt lat="47.09852" lon="-1.8392">
        <ele>63</ele>
        <time>2021-02-07T09:42:38.000Z</time>
      </trkpt>
      <trkpt lat="47.09853" lon="-1.83899">
        <ele>63</ele>
        <time>2021-02-07T09:42:40.000Z</time>
      </trkpt>
      <trkpt lat="47.09855" lon="-1.83879">
        <ele>63</ele>
        <time>2021-02-07T09:42:42.000Z</time>
      </trkpt>
      <trkpt lat="47.09857" lon="-1.83858">
        <ele>63</ele>
        <time>2021-02-07T09:42:44.000Z</time>
      </trkpt>
      <trkpt lat="47.09858" lon="-1.83837">
        <ele>63</ele>
        <time>2021-02-07T09:42:46.000Z</time>
      </trkpt>
      <trkpt lat="47.09858" lon="-1.83817">
        <ele>63</ele>
        <time>2021-02-07T09:42:48.000Z</time>
      </trkpt>
      <trkpt lat="47.09859" lon="-1.83797">
        <ele>63</ele>
        <time>2021-02-07T09:42:50.000Z</time>
      </trkpt>
      <trkpt lat="47.09859" lon="-1.83775">
        <ele>63</ele>
        <time>2021-02-07T09:42:52.000Z</time>
      </trkpt>
      <trkpt lat="47.09859" lon="-1.83754">
        <ele>63</ele>
        <time>2021-02-07T09:42:54.000Z</time>
      </trkpt>
      <trkpt lat="47.0986" lon="-1.83733">
        <ele>63</ele>
        <time>2021-02-07T09:42:56.000Z</time>
      </trkpt>
      <trkpt lat="47.0986" lon="-1.83712">
        <ele>63</ele>
        <time>2021-02-07T09:42:58.000Z</time>
      </trkpt>
      <trkpt lat="47.0986" lon="-1.83691">
        <ele>63</ele>
        <time>2021-02-07T09:43:00.000Z</time>
      </trkpt>
      <trkpt lat="47.09861" lon="-1.8367">
        <ele>63</ele>
        <time>2021-02-07T09:43:02.000Z</time>
      </trkpt>
      <trkpt lat="47.09861" lon="-1.83648">
        <ele>62</ele>
        <time>2021-02-07T09:43:04.000Z</time>
      </trkpt>
      <trkpt lat="47.09861" lon="-1.83627">
        <ele>62</ele>
        <time>2021-02-07T09:43:06.000Z</time>
      </trkpt>
      <trkpt lat="47.0986" lon="-1.83607">
        <ele>62</ele>
        <time>2021-02-07T09:43:08.000Z</time>
      </trkpt>
      <trkpt lat="47.09859" lon="-1.83587">
        <ele>62</ele>
        <time>2021-02-07T09:43:10.000Z</time>
      </trkpt>
      <trkpt lat="47.09857" lon="-1.83567">
        <ele>62</ele>
        <time>2021-02-07T09:43:12.000Z</time>
      </trkpt>
      <trkpt lat="47.09855" lon="-1.83548">
        <ele>62</ele>
        <time>2021-02-07T09:43:14.000Z</time>
      </trkpt>
      <trkpt lat="47.09854" lon="-1.8353">
        <ele>62</ele>
        <time>2021-02-07T09:43:16.000Z</time>
      </trkpt>
      <trkpt lat="47.09853" lon="-1.83511">
        <ele>62</ele>
        <time>2021-02-07T09:43:18.000Z</time>
      </trkpt>
      <trkpt lat="47.09852" lon="-1.83492">
        <ele>62</ele>
        <time>2021-02-07T09:43:20.000Z</time>
      </trkpt>
      <trkpt lat="47.09852" lon="-1.83474">
        <ele>62</ele>
        <time>2021-02-07T09:43:22.000Z</time>
      </trkpt>
      <trkpt lat="47.09853" lon="-1.83456">
        <ele>62</ele>
        <time>2021-02-07T09:43:24.000Z</time>
      </trkpt>
      <trkpt lat="47.09854" lon="-1.83438">
        <ele>62</ele>
        <time>2021-02-07T09:43:26.000Z</time>
      </trkpt>
      <trkpt lat="47.09856" lon="-1.8342">
        <ele>62</ele>
        <time>2021-02-07T09:43:28.000Z</time>
      </trkpt>
      <trkpt lat="47.09859" lon="-1.83403">
        <ele>62</ele>
        <time>2021-02-07T09:43:30.000Z</time>
      </trkpt>
      <trkpt lat="47.09863" lon="-1.83387">
        <ele>61</ele>
        <time>2021-02-07T09:43:32.000Z</time>
      </trkpt>
      <trkpt lat="47.09867" lon="-1.8337">
        <ele>60</ele>
        <time>2021-02-07T09:43:34.000Z</time>
      </trkpt>
      <trkpt lat="47.09871" lon="-1.83353">
        <ele>60</ele>
        <time>2021-02-07T09:43:36.000Z</time>
      </trkpt>
      <trkpt lat="47.09875" lon="-1.83336">
        <ele>59</ele>
        <time>2021-02-07T09:43:38.000Z</time>
      </trkpt>
      <trkpt lat="47.09878" lon="-1.83319">
        <ele>60</ele>
        <time>2021-02-07T09:43:40.000Z</time>
      </trkpt>
      <trkpt lat="47.09879" lon="-1.83301">
        <ele>60</ele>
        <time>2021-02-07T09:43:42.000Z</time>
      </trkpt>
      <trkpt lat="47.0988" lon="-1.83283">
        <ele>61</ele>
        <time>2021-02-07T09:43:44.000Z</time>
      </trkpt>
      <trkpt lat="47.09881" lon="-1.83265">
        <ele>62</ele>
        <time>2021-02-07T09:43:46.000Z</time>
      </trkpt>
      <trkpt lat="47.09882" lon="-1.83248">
        <ele>62</ele>
        <time>2021-02-07T09:43:48.000Z</time>
      </trkpt>
      <trkpt lat="47.09882" lon="-1.83231">
        <ele>62</ele>
        <time>2021-02-07T09:43:50.000Z</time>
      </trkpt>
      <trkpt lat="47.09881" lon="-1.83215">
        <ele>63</ele>
        <time>2021-02-07T09:43:52.000Z</time>
      </trkpt>
      <trkpt lat="47.0988" lon="-1.83199">
        <ele>63</ele>
        <time>2021-02-07T09:43:54.000Z</time>
      </trkpt>
      <trkpt lat="47.09878" lon="-1.83183">
        <ele>63</ele>
        <time>2021-02-07T09:43:56.000Z</time>
      </trkpt>
      <trkpt lat="47.09876" lon="-1.83167">
        <ele>63</ele>
        <time>2021-02-07T09:43:58.000Z</time>
      </trkpt>
      <trkpt lat="47.09875" lon="-1.83151">
        <ele>64</ele>
        <time>2021-02-07T09:44:00.000Z</time>
      </trkpt>
      <trkpt lat="47.09873" lon="-1.83135">
        <ele>64</ele>
        <time>2021-02-07T09:44:02.000Z</time>
      </trkpt>
      <trkpt lat="47.09872" lon="-1.83119">
        <ele>64</ele>
        <time>2021-02-07T09:44:04.000Z</time>
      </trkpt>
      <trkpt lat="47.0987" lon="-1.83104">
        <ele>64</ele>
        <time>2021-02-07T09:44:06.000Z</time>
      </trkpt>
      <trkpt lat="47.09869" lon="-1.83088">
        <ele>64</ele>
        <time>2021-02-07T09:44:08.000Z</time>
      </trkpt>
      <trkpt lat="47.09867" lon="-1.83072">
        <ele>65</ele>
        <time>2021-02-07T09:44:10.000Z</time>
      </trkpt>
      <trkpt lat="47.09865" lon="-1.83057">
        <ele>65</ele>
        <time>2021-02-07T09:44:12.000Z</time>
      </trkpt>
      <trkpt lat="47.09864" lon="-1.83041">
        <ele>66</ele>
        <time>2021-02-07T09:44:14.000Z</time>
      </trkpt>
      <trkpt lat="47.09862" lon="-1.83025">
        <ele>66</ele>
        <time>2021-02-07T09:44:16.000Z</time>
      </trkpt>
      <trkpt lat="47.09861" lon="-1.8301">
        <ele>66</ele>
        <time>2021-02-07T09:44:18.000Z</time>
      </trkpt>
      <trkpt lat="47.09859" lon="-1.82995">
        <ele>67</ele>
        <time>2021-02-07T09:44:20.000Z</time>
      </trkpt>
      <trkpt lat="47.09858" lon="-1.8298">
        <ele>67</ele>
        <time>2021-02-07T09:44:22.000Z</time>
      </trkpt>
      <trkpt lat="47.09856" lon="-1.82965">
        <ele>67</ele>
        <time>2021-02-07T09:44:24.000Z</time>
      </trkpt>
      <trkpt lat="47.09855" lon="-1.82949">
        <ele>67</ele>
        <time>2021-02-07T09:44:26.000Z</time>
      </trkpt>
      <trkpt lat="47.09853" lon="-1.82934">
        <ele>67</ele>
        <time>2021-02-07T09:44:28.000Z</time>
      </trkpt>
      <trkpt lat="47.09852" lon="-1.82918">
        <ele>67</ele>
        <time>2021-02-07T09:44:30.000Z</time>
      </trkpt>
      <trkpt lat="47.09851" lon="-1.82902">
        <ele>68</ele>
        <time>2021-02-07T09:44:32.000Z</time>
      </trkpt>
      <trkpt lat="47.0985" lon="-1.82886">
        <ele>68</ele>
        <time>2021-02-07T09:44:34.000Z</time>
      </trkpt>
      <trkpt lat="47.09849" lon="-1.82871">
        <ele>68</ele>
        <time>2021-02-07T09:44:36.000Z</time>
      </trkpt>
      <trkpt lat="47.09848" lon="-1.82855">
        <ele>68</ele>
        <time>2021-02-07T09:44:38.000Z</time>
      </trkpt>
      <trkpt lat="47.09848" lon="-1.82839">
        <ele>68</ele>
        <time>2021-02-07T09:44:40.000Z</time>
      </trkpt>
      <trkpt lat="47.09848" lon="-1.82823">
        <ele>68</ele>
        <time>2021-02-07T09:44:42.000Z</time>
      </trkpt>
      <trkpt lat="47.09849" lon="-1.82807">
        <ele>68</ele>
        <time>2021-02-07T09:44:44.000Z</time>
      </trkpt>
      <trkpt lat="47.09849" lon="-1.82791">
        <ele>68</ele>
        <time>2021-02-07T09:44:46.000Z</time>
      </trkpt>
      <trkpt lat="47.09849" lon="-1.82775">
        <ele>68</ele>
        <time>2021-02-07T09:44:48.000Z</time>
      </trkpt>
      <trkpt lat="47.09847" lon="-1.8276">
        <ele>68</ele>
        <time>2021-02-07T09:44:50.000Z</time>
      </trkpt>
      <trkpt lat="47.09845" lon="-1.82745">
        <ele>69</ele>
        <time>2021-02-07T09:44:52.000Z</time>
      </trkpt>
      <trkpt lat="47.09841" lon="-1.8273">
        <ele>69</ele>
        <time>2021-02-07T09:44:54.000Z</time>
      </trkpt>
      <trkpt lat="47.09837" lon="-1.82714">
        <ele>69</ele>
        <time>2021-02-07T09:44:56.000Z</time>
      </trkpt>
      <trkpt lat="47.09833" lon="-1.82698">
        <ele>68</ele>
        <time>2021-02-07T09:44:58.000Z</time>
      </trkpt>
      <trkpt lat="47.0983" lon="-1.82682">
        <ele>69</ele>
        <time>2021-02-07T09:45:00.000Z</time>
      </trkpt>
      <trkpt lat="47.09826" lon="-1.82666">
        <ele>68</ele>
        <time>2021-02-07T09:45:02.000Z</time>
      </trkpt>
      <trkpt lat="47.09823" lon="-1.82649">
        <ele>69</ele>
        <time>2021-02-07T09:45:04.000Z</time>
      </trkpt>
      <trkpt lat="47.0982" lon="-1.82632">
        <ele>69</ele>
        <time>2021-02-07T09:45:06.000Z</time>
      </trkpt>
      <trkpt lat="47.09816" lon="-1.82615">
        <ele>68</ele>
        <time>2021-02-07T09:45:08.000Z</time>
      </trkpt>
      <trkpt lat="47.09814" lon="-1.82599">
        <ele>68</ele>
        <time>2021-02-07T09:45:10.000Z</time>
      </trkpt>
      <trkpt lat="47.09811" lon="-1.82583">
        <ele>68</ele>
        <time>2021-02-07T09:45:12.000Z</time>
      </trkpt>
      <trkpt lat="47.09808" lon="-1.82565">
        <ele>68</ele>
        <time>2021-02-07T09:45:14.000Z</time>
      </trkpt>
      <trkpt lat="47.09806" lon="-1.82548">
        <ele>68</ele>
        <time>2021-02-07T09:45:16.000Z</time>
      </trkpt>
      <trkpt lat="47.09804" lon="-1.82531">
        <ele>68</ele>
        <time>2021-02-07T09:45:18.000Z</time>
      </trkpt>
      <trkpt lat="47.09802" lon="-1.82515">
        <ele>68</ele>
        <time>2021-02-07T09:45:20.000Z</time>
      </trkpt>
      <trkpt lat="47.098" lon="-1.82498">
        <ele>68</ele>
        <time>2021-02-07T09:45:22.000Z</time>
      </trkpt>
      <trkpt lat="47.09798" lon="-1.8248">
        <ele>68</ele>
        <time>2021-02-07T09:45:24.000Z</time>
      </trkpt>
      <trkpt lat="47.09796" lon="-1.82463">
        <ele>68</ele>
        <time>2021-02-07T09:45:26.000Z</time>
      </trkpt>
      <trkpt lat="47.09794" lon="-1.82445">
        <ele>68</ele>
        <time>2021-02-07T09:45:28.000Z</time>
      </trkpt>
      <trkpt lat="47.09792" lon="-1.82427">
        <ele>68</ele>
        <time>2021-02-07T09:45:30.000Z</time>
      </trkpt>
      <trkpt lat="47.09789" lon="-1.82409">
        <ele>68</ele>
        <time>2021-02-07T09:45:32.000Z</time>
      </trkpt>
      <trkpt lat="47.09785" lon="-1.82392">
        <ele>68</ele>
        <time>2021-02-07T09:45:34.000Z</time>
      </trkpt>
      <trkpt lat="47.09781" lon="-1.82375">
        <ele>68</ele>
        <time>2021-02-07T09:45:36.000Z</time>
      </trkpt>
      <trkpt lat="47.09776" lon="-1.82359">
        <ele>68</ele>
        <time>2021-02-07T09:45:38.000Z</time>
      </trkpt>
      <trkpt lat="47.09771" lon="-1.82343">
        <ele>68</ele>
        <time>2021-02-07T09:45:40.000Z</time>
      </trkpt>
      <trkpt lat="47.09765" lon="-1.82328">
        <ele>68</ele>
        <time>2021-02-07T09:45:42.000Z</time>
      </trkpt>
      <trkpt lat="47.0976" lon="-1.82313">
        <ele>68</ele>
        <time>2021-02-07T09:45:44.000Z</time>
      </trkpt>
      <trkpt lat="47.09754" lon="-1.82298">
        <ele>68</ele>
        <time>2021-02-07T09:45:46.000Z</time>
      </trkpt>
      <trkpt lat="47.09748" lon="-1.82284">
        <ele>68</ele>
        <time>2021-02-07T09:45:48.000Z</time>
      </trkpt>
      <trkpt lat="47.09742" lon="-1.8227">
        <ele>68</ele>
        <time>2021-02-07T09:45:50.000Z</time>
      </trkpt>
      <trkpt lat="47.09736" lon="-1.82255">
        <ele>68</ele>
        <time>2021-02-07T09:45:52.000Z</time>
      </trkpt>
      <trkpt lat="47.0973" lon="-1.82241">
        <ele>68</ele>
        <time>2021-02-07T09:45:54.000Z</time>
      </trkpt>
      <trkpt lat="47.09724" lon="-1.82227">
        <ele>68</ele>
        <time>2021-02-07T09:45:56.000Z</time>
      </trkpt>
      <trkpt lat="47.09717" lon="-1.82215">
        <ele>68</ele>
        <time>2021-02-07T09:45:58.000Z</time>
      </trkpt>
      <trkpt lat="47.09712" lon="-1.82203">
        <ele>68</ele>
        <time>2021-02-07T09:46:00.000Z</time>
      </trkpt>
      <trkpt lat="47.09706" lon="-1.82191">
        <ele>68</ele>
        <time>2021-02-07T09:46:02.000Z</time>
      </trkpt>
      <trkpt lat="47.09701" lon="-1.82179">
        <ele>69</ele>
        <time>2021-02-07T09:46:04.000Z</time>
      </trkpt>
      <trkpt lat="47.09695" lon="-1.82164">
        <ele>69</ele>
        <time>2021-02-07T09:46:07.000Z</time>
      </trkpt>
      <trkpt lat="47.09693" lon="-1.8215">
        <ele>69</ele>
        <time>2021-02-07T09:46:09.000Z</time>
      </trkpt>
      <trkpt lat="47.09695" lon="-1.82134">
        <ele>68</ele>
        <time>2021-02-07T09:46:11.000Z</time>
      </trkpt>
      <trkpt lat="47.097" lon="-1.82118">
        <ele>68</ele>
        <time>2021-02-07T09:46:13.000Z</time>
      </trkpt>
      <trkpt lat="47.09705" lon="-1.82102">
        <ele>68</ele>
        <time>2021-02-07T09:46:15.000Z</time>
      </trkpt>
      <trkpt lat="47.0971" lon="-1.82087">
        <ele>68</ele>
        <time>2021-02-07T09:46:17.000Z</time>
      </trkpt>
      <trkpt lat="47.09714" lon="-1.82071">
        <ele>68</ele>
        <time>2021-02-07T09:46:19.000Z</time>
      </trkpt>
      <trkpt lat="47.09719" lon="-1.82055">
        <ele>67</ele>
        <time>2021-02-07T09:46:21.000Z</time>
      </trkpt>
      <trkpt lat="47.09724" lon="-1.82039">
        <ele>68</ele>
        <time>2021-02-07T09:46:23.000Z</time>
      </trkpt>
      <trkpt lat="47.09729" lon="-1.82024">
        <ele>68</ele>
        <time>2021-02-07T09:46:25.000Z</time>
      </trkpt>
      <trkpt lat="47.09734" lon="-1.82008">
        <ele>67</ele>
        <time>2021-02-07T09:46:27.000Z</time>
      </trkpt>
      <trkpt lat="47.09738" lon="-1.81993">
        <ele>68</ele>
        <time>2021-02-07T09:46:29.000Z</time>
      </trkpt>
      <trkpt lat="47.09743" lon="-1.81978">
        <ele>67</ele>
        <time>2021-02-07T09:46:31.000Z</time>
      </trkpt>
      <trkpt lat="47.09748" lon="-1.81962">
        <ele>67</ele>
        <time>2021-02-07T09:46:33.000Z</time>
      </trkpt>
      <trkpt lat="47.09753" lon="-1.81947">
        <ele>67</ele>
        <time>2021-02-07T09:46:35.000Z</time>
      </trkpt>
      <trkpt lat="47.09758" lon="-1.81932">
        <ele>67</ele>
        <time>2021-02-07T09:46:37.000Z</time>
      </trkpt>
      <trkpt lat="47.09764" lon="-1.81918">
        <ele>67</ele>
        <time>2021-02-07T09:46:39.000Z</time>
      </trkpt>
      <trkpt lat="47.0977" lon="-1.81903">
        <ele>67</ele>
        <time>2021-02-07T09:46:41.000Z</time>
      </trkpt>
      <trkpt lat="47.09776" lon="-1.81888">
        <ele>66</ele>
        <time>2021-02-07T09:46:43.000Z</time>
      </trkpt>
      <trkpt lat="47.09782" lon="-1.81874">
        <ele>66</ele>
        <time>2021-02-07T09:46:45.000Z</time>
      </trkpt>
      <trkpt lat="47.09788" lon="-1.8186">
        <ele>67</ele>
        <time>2021-02-07T09:46:47.000Z</time>
      </trkpt>
      <trkpt lat="47.09794" lon="-1.81847">
        <ele>67</ele>
        <time>2021-02-07T09:46:49.000Z</time>
      </trkpt>
      <trkpt lat="47.098" lon="-1.81835">
        <ele>67</ele>
        <time>2021-02-07T09:46:51.000Z</time>
      </trkpt>
      <trkpt lat="47.09805" lon="-1.81822">
        <ele>67</ele>
        <time>2021-02-07T09:46:53.000Z</time>
      </trkpt>
      <trkpt lat="47.09806" lon="-1.81807">
        <ele>66</ele>
        <time>2021-02-07T09:46:55.000Z</time>
      </trkpt>
      <trkpt lat="47.09808" lon="-1.81791">
        <ele>66</ele>
        <time>2021-02-07T09:46:57.000Z</time>
      </trkpt>
      <trkpt lat="47.09817" lon="-1.81778">
        <ele>66</ele>
        <time>2021-02-07T09:46:59.000Z</time>
      </trkpt>
      <trkpt lat="47.09827" lon="-1.81767">
        <ele>66</ele>
        <time>2021-02-07T09:47:01.000Z</time>
      </trkpt>
      <trkpt lat="47.09835" lon="-1.81754">
        <ele>67</ele>
        <time>2021-02-07T09:47:03.000Z</time>
      </trkpt>
      <trkpt lat="47.09841" lon="-1.81739">
        <ele>67</ele>
        <time>2021-02-07T09:47:05.000Z</time>
      </trkpt>
      <trkpt lat="47.09847" lon="-1.81723">
        <ele>66</ele>
        <time>2021-02-07T09:47:07.000Z</time>
      </trkpt>
      <trkpt lat="47.09854" lon="-1.81707">
        <ele>66</ele>
        <time>2021-02-07T09:47:09.000Z</time>
      </trkpt>
      <trkpt lat="47.0986" lon="-1.81692">
        <ele>66</ele>
        <time>2021-02-07T09:47:11.000Z</time>
      </trkpt>
      <trkpt lat="47.09867" lon="-1.81677">
        <ele>66</ele>
        <time>2021-02-07T09:47:13.000Z</time>
      </trkpt>
      <trkpt lat="47.09873" lon="-1.8166">
        <ele>66</ele>
        <time>2021-02-07T09:47:15.000Z</time>
      </trkpt>
      <trkpt lat="47.09879" lon="-1.81643">
        <ele>66</ele>
        <time>2021-02-07T09:47:17.000Z</time>
      </trkpt>
      <trkpt lat="47.09885" lon="-1.81627">
        <ele>66</ele>
        <time>2021-02-07T09:47:19.000Z</time>
      </trkpt>
      <trkpt lat="47.09891" lon="-1.8161">
        <ele>66</ele>
        <time>2021-02-07T09:47:21.000Z</time>
      </trkpt>
      <trkpt lat="47.09897" lon="-1.81595">
        <ele>66</ele>
        <time>2021-02-07T09:47:23.000Z</time>
      </trkpt>
      <trkpt lat="47.09903" lon="-1.81578">
        <ele>65</ele>
        <time>2021-02-07T09:47:25.000Z</time>
      </trkpt>
      <trkpt lat="47.09909" lon="-1.81562">
        <ele>66</ele>
        <time>2021-02-07T09:47:27.000Z</time>
      </trkpt>
      <trkpt lat="47.09916" lon="-1.81545">
        <ele>66</ele>
        <time>2021-02-07T09:47:29.000Z</time>
      </trkpt>
      <trkpt lat="47.09924" lon="-1.81529">
        <ele>65</ele>
        <time>2021-02-07T09:47:31.000Z</time>
      </trkpt>
      <trkpt lat="47.09932" lon="-1.81514">
        <ele>65</ele>
        <time>2021-02-07T09:47:33.000Z</time>
      </trkpt>
      <trkpt lat="47.0994" lon="-1.81499">
        <ele>64</ele>
        <time>2021-02-07T09:47:35.000Z</time>
      </trkpt>
      <trkpt lat="47.09951" lon="-1.81486">
        <ele>64</ele>
        <time>2021-02-07T09:47:37.000Z</time>
      </trkpt>
      <trkpt lat="47.09961" lon="-1.81472">
        <ele>63</ele>
        <time>2021-02-07T09:47:39.000Z</time>
      </trkpt>
      <trkpt lat="47.09971" lon="-1.81458">
        <ele>63</ele>
        <time>2021-02-07T09:47:41.000Z</time>
      </trkpt>
      <trkpt lat="47.0998" lon="-1.81444">
        <ele>63</ele>
        <time>2021-02-07T09:47:43.000Z</time>
      </trkpt>
      <trkpt lat="47.0999" lon="-1.8143">
        <ele>63</ele>
        <time>2021-02-07T09:47:45.000Z</time>
      </trkpt>
      <trkpt lat="47.1" lon="-1.81417">
        <ele>63</ele>
        <time>2021-02-07T09:47:47.000Z</time>
      </trkpt>
      <trkpt lat="47.1001" lon="-1.81403">
        <ele>63</ele>
        <time>2021-02-07T09:47:49.000Z</time>
      </trkpt>
      <trkpt lat="47.1002" lon="-1.81389">
        <ele>62</ele>
        <time>2021-02-07T09:47:51.000Z</time>
      </trkpt>
      <trkpt lat="47.1003" lon="-1.81376">
        <ele>63</ele>
        <time>2021-02-07T09:47:53.000Z</time>
      </trkpt>
      <trkpt lat="47.10039" lon="-1.81362">
        <ele>63</ele>
        <time>2021-02-07T09:47:55.000Z</time>
      </trkpt>
      <trkpt lat="47.10049" lon="-1.81349">
        <ele>62</ele>
        <time>2021-02-07T09:47:57.000Z</time>
      </trkpt>
      <trkpt lat="47.10058" lon="-1.81337">
        <ele>62</ele>
        <time>2021-02-07T09:47:59.000Z</time>
      </trkpt>
      <trkpt lat="47.10068" lon="-1.81325">
        <ele>61</ele>
        <time>2021-02-07T09:48:01.000Z</time>
      </trkpt>
      <trkpt lat="47.10077" lon="-1.81312">
        <ele>61</ele>
        <time>2021-02-07T09:48:03.000Z</time>
      </trkpt>
      <trkpt lat="47.10086" lon="-1.81299">
        <ele>61</ele>
        <time>2021-02-07T09:48:05.000Z</time>
      </trkpt>
      <trkpt lat="47.10095" lon="-1.81287">
        <ele>62</ele>
        <time>2021-02-07T09:48:07.000Z</time>
      </trkpt>
      <trkpt lat="47.10104" lon="-1.81275">
        <ele>61</ele>
        <time>2021-02-07T09:48:09.000Z</time>
      </trkpt>
      <trkpt lat="47.10114" lon="-1.81264">
        <ele>61</ele>
        <time>2021-02-07T09:48:11.000Z</time>
      </trkpt>
      <trkpt lat="47.10125" lon="-1.81255">
        <ele>61</ele>
        <time>2021-02-07T09:48:13.000Z</time>
      </trkpt>
      <trkpt lat="47.10136" lon="-1.81247">
        <ele>61</ele>
        <time>2021-02-07T09:48:15.000Z</time>
      </trkpt>
      <trkpt lat="47.10146" lon="-1.81239">
        <ele>61</ele>
        <time>2021-02-07T09:48:17.000Z</time>
      </trkpt>
      <trkpt lat="47.10157" lon="-1.8123">
        <ele>61</ele>
        <time>2021-02-07T09:48:19.000Z</time>
      </trkpt>
      <trkpt lat="47.10166" lon="-1.81222">
        <ele>61</ele>
        <time>2021-02-07T09:48:21.000Z</time>
      </trkpt>
      <trkpt lat="47.10177" lon="-1.81215">
        <ele>62</ele>
        <time>2021-02-07T09:48:23.000Z</time>
      </trkpt>
      <trkpt lat="47.10186" lon="-1.81208">
        <ele>62</ele>
        <time>2021-02-07T09:48:25.000Z</time>
      </trkpt>
      <trkpt lat="47.10195" lon="-1.812">
        <ele>62</ele>
        <time>2021-02-07T09:48:27.000Z</time>
      </trkpt>
      <trkpt lat="47.10203" lon="-1.81192">
        <ele>63</ele>
        <time>2021-02-07T09:48:29.000Z</time>
      </trkpt>
      <trkpt lat="47.10212" lon="-1.81184">
        <ele>62</ele>
        <time>2021-02-07T09:48:31.000Z</time>
      </trkpt>
      <trkpt lat="47.10221" lon="-1.81176">
        <ele>63</ele>
        <time>2021-02-07T09:48:33.000Z</time>
      </trkpt>
      <trkpt lat="47.10229" lon="-1.81168">
        <ele>62</ele>
        <time>2021-02-07T09:48:35.000Z</time>
      </trkpt>
      <trkpt lat="47.10238" lon="-1.81159">
        <ele>63</ele>
        <time>2021-02-07T09:48:37.000Z</time>
      </trkpt>
      <trkpt lat="47.10246" lon="-1.81151">
        <ele>63</ele>
        <time>2021-02-07T09:48:39.000Z</time>
      </trkpt>
      <trkpt lat="47.10255" lon="-1.81143">
        <ele>64</ele>
        <time>2021-02-07T09:48:41.000Z</time>
      </trkpt>
      <trkpt lat="47.10264" lon="-1.81135">
        <ele>64</ele>
        <time>2021-02-07T09:48:43.000Z</time>
      </trkpt>
      <trkpt lat="47.10273" lon="-1.81127">
        <ele>64</ele>
        <time>2021-02-07T09:48:45.000Z</time>
      </trkpt>
      <trkpt lat="47.10282" lon="-1.81119">
        <ele>64</ele>
        <time>2021-02-07T09:48:47.000Z</time>
      </trkpt>
      <trkpt lat="47.10291" lon="-1.81112">
        <ele>63</ele>
        <time>2021-02-07T09:48:49.000Z</time>
      </trkpt>
      <trkpt lat="47.10303" lon="-1.81101">
        <ele>63</ele>
        <time>2021-02-07T09:48:52.000Z</time>
      </trkpt>
      <trkpt lat="47.10312" lon="-1.81092">
        <ele>63</ele>
        <time>2021-02-07T09:48:54.000Z</time>
      </trkpt>
      <trkpt lat="47.10321" lon="-1.81081">
        <ele>62</ele>
        <time>2021-02-07T09:48:56.000Z</time>
      </trkpt>
      <trkpt lat="47.10329" lon="-1.81073">
        <ele>63</ele>
        <time>2021-02-07T09:48:58.000Z</time>
      </trkpt>
      <trkpt lat="47.10337" lon="-1.81064">
        <ele>63</ele>
        <time>2021-02-07T09:49:00.000Z</time>
      </trkpt>
      <trkpt lat="47.10345" lon="-1.81055">
        <ele>63</ele>
        <time>2021-02-07T09:49:02.000Z</time>
      </trkpt>
      <trkpt lat="47.10352" lon="-1.81045">
        <ele>64</ele>
        <time>2021-02-07T09:49:04.000Z</time>
      </trkpt>
      <trkpt lat="47.10359" lon="-1.81033">
        <ele>64</ele>
        <time>2021-02-07T09:49:06.000Z</time>
      </trkpt>
      <trkpt lat="47.10365" lon="-1.81021">
        <ele>64</ele>
        <time>2021-02-07T09:49:08.000Z</time>
      </trkpt>
      <trkpt lat="47.1037" lon="-1.81006">
        <ele>64</ele>
        <time>2021-02-07T09:49:10.000Z</time>
      </trkpt>
      <trkpt lat="47.10373" lon="-1.8099">
        <ele>65</ele>
        <time>2021-02-07T09:49:12.000Z</time>
      </trkpt>
      <trkpt lat="47.10372" lon="-1.80973">
        <ele>64</ele>
        <time>2021-02-07T09:49:14.000Z</time>
      </trkpt>
      <trkpt lat="47.10368" lon="-1.80956">
        <ele>64</ele>
        <time>2021-02-07T09:49:16.000Z</time>
      </trkpt>
      <trkpt lat="47.10364" lon="-1.80939">
        <ele>63</ele>
        <time>2021-02-07T09:49:18.000Z</time>
      </trkpt>
      <trkpt lat="47.1036" lon="-1.80921">
        <ele>62</ele>
        <time>2021-02-07T09:49:20.000Z</time>
      </trkpt>
      <trkpt lat="47.10357" lon="-1.80902">
        <ele>62</ele>
        <time>2021-02-07T09:49:22.000Z</time>
      </trkpt>
      <trkpt lat="47.10356" lon="-1.80883">
        <ele>62</ele>
        <time>2021-02-07T09:49:24.000Z</time>
      </trkpt>
      <trkpt lat="47.10356" lon="-1.80865">
        <ele>61</ele>
        <time>2021-02-07T09:49:26.000Z</time>
      </trkpt>
      <trkpt lat="47.10355" lon="-1.80846">
        <ele>61</ele>
        <time>2021-02-07T09:49:28.000Z</time>
      </trkpt>
      <trkpt lat="47.10354" lon="-1.80829">
        <ele>62</ele>
        <time>2021-02-07T09:49:30.000Z</time>
      </trkpt>
      <trkpt lat="47.10353" lon="-1.80812">
        <ele>62</ele>
        <time>2021-02-07T09:49:32.000Z</time>
      </trkpt>
      <trkpt lat="47.10354" lon="-1.80796">
        <ele>62</ele>
        <time>2021-02-07T09:49:34.000Z</time>
      </trkpt>
      <trkpt lat="47.10353" lon="-1.80779">
        <ele>62</ele>
        <time>2021-02-07T09:49:36.000Z</time>
      </trkpt>
      <trkpt lat="47.10353" lon="-1.80763">
        <ele>62</ele>
        <time>2021-02-07T09:49:38.000Z</time>
      </trkpt>
      <trkpt lat="47.10352" lon="-1.80749">
        <ele>62</ele>
        <time>2021-02-07T09:49:40.000Z</time>
      </trkpt>
      <trkpt lat="47.10351" lon="-1.80735">
        <ele>61</ele>
        <time>2021-02-07T09:49:42.000Z</time>
      </trkpt>
      <trkpt lat="47.10352" lon="-1.80721">
        <ele>62</ele>
        <time>2021-02-07T09:49:44.000Z</time>
      </trkpt>
      <trkpt lat="47.10351" lon="-1.80702">
        <ele>63</ele>
        <time>2021-02-07T09:49:47.000Z</time>
      </trkpt>
      <trkpt lat="47.10351" lon="-1.80683">
        <ele>63</ele>
        <time>2021-02-07T09:49:50.000Z</time>
      </trkpt>
      <trkpt lat="47.10351" lon="-1.80664">
        <ele>64</ele>
        <time>2021-02-07T09:49:53.000Z</time>
      </trkpt>
      <trkpt lat="47.10351" lon="-1.80646">
        <ele>64</ele>
        <time>2021-02-07T09:49:56.000Z</time>
      </trkpt>
      <trkpt lat="47.1035" lon="-1.80627">
        <ele>66</ele>
        <time>2021-02-07T09:49:59.000Z</time>
      </trkpt>
      <trkpt lat="47.1035" lon="-1.80607">
        <ele>66</ele>
        <time>2021-02-07T09:50:02.000Z</time>
      </trkpt>
      <trkpt lat="47.1035" lon="-1.80588">
        <ele>67</ele>
        <time>2021-02-07T09:50:05.000Z</time>
      </trkpt>
      <trkpt lat="47.10349" lon="-1.80575">
        <ele>68</ele>
        <time>2021-02-07T09:50:07.000Z</time>
      </trkpt>
      <trkpt lat="47.10348" lon="-1.80556">
        <ele>68</ele>
        <time>2021-02-07T09:50:10.000Z</time>
      </trkpt>
      <trkpt lat="47.10346" lon="-1.80537">
        <ele>69</ele>
        <time>2021-02-07T09:50:13.000Z</time>
      </trkpt>
      <trkpt lat="47.10344" lon="-1.80524">
        <ele>68</ele>
        <time>2021-02-07T09:50:15.000Z</time>
      </trkpt>
      <trkpt lat="47.10343" lon="-1.8051">
        <ele>69</ele>
        <time>2021-02-07T09:50:17.000Z</time>
      </trkpt>
      <trkpt lat="47.10341" lon="-1.80495">
        <ele>69</ele>
        <time>2021-02-07T09:50:19.000Z</time>
      </trkpt>
      <trkpt lat="47.10339" lon="-1.80479">
        <ele>69</ele>
        <time>2021-02-07T09:50:21.000Z</time>
      </trkpt>
      <trkpt lat="47.10338" lon="-1.80464">
        <ele>69</ele>
        <time>2021-02-07T09:50:23.000Z</time>
      </trkpt>
      <trkpt lat="47.10336" lon="-1.80448">
        <ele>69</ele>
        <time>2021-02-07T09:50:25.000Z</time>
      </trkpt>
      <trkpt lat="47.10334" lon="-1.80432">
        <ele>69</ele>
        <time>2021-02-07T09:50:27.000Z</time>
      </trkpt>
      <trkpt lat="47.10332" lon="-1.80416">
        <ele>69</ele>
        <time>2021-02-07T09:50:29.000Z</time>
      </trkpt>
      <trkpt lat="47.1033" lon="-1.804">
        <ele>69</ele>
        <time>2021-02-07T09:50:31.000Z</time>
      </trkpt>
      <trkpt lat="47.10328" lon="-1.80385">
        <ele>69</ele>
        <time>2021-02-07T09:50:33.000Z</time>
      </trkpt>
      <trkpt lat="47.10326" lon="-1.8037">
        <ele>69</ele>
        <time>2021-02-07T09:50:35.000Z</time>
      </trkpt>
      <trkpt lat="47.10322" lon="-1.80357">
        <ele>69</ele>
        <time>2021-02-07T09:50:37.000Z</time>
      </trkpt>
      <trkpt lat="47.1032" lon="-1.80342">
        <ele>69</ele>
        <time>2021-02-07T09:50:39.000Z</time>
      </trkpt>
      <trkpt lat="47.10322" lon="-1.80327">
        <ele>69</ele>
        <time>2021-02-07T09:50:41.000Z</time>
      </trkpt>
      <trkpt lat="47.10322" lon="-1.80311">
        <ele>68</ele>
        <time>2021-02-07T09:50:43.000Z</time>
      </trkpt>
      <trkpt lat="47.10321" lon="-1.80295">
        <ele>69</ele>
        <time>2021-02-07T09:50:45.000Z</time>
      </trkpt>
      <trkpt lat="47.10321" lon="-1.80279">
        <ele>69</ele>
        <time>2021-02-07T09:50:47.000Z</time>
      </trkpt>
      <trkpt lat="47.10321" lon="-1.80263">
        <ele>69</ele>
        <time>2021-02-07T09:50:49.000Z</time>
      </trkpt>
      <trkpt lat="47.10321" lon="-1.80247">
        <ele>69</ele>
        <time>2021-02-07T09:50:51.000Z</time>
      </trkpt>
      <trkpt lat="47.1032" lon="-1.80231">
        <ele>69</ele>
        <time>2021-02-07T09:50:53.000Z</time>
      </trkpt>
      <trkpt lat="47.1032" lon="-1.80216">
        <ele>70</ele>
        <time>2021-02-07T09:50:55.000Z</time>
      </trkpt>
      <trkpt lat="47.10319" lon="-1.802">
        <ele>70</ele>
        <time>2021-02-07T09:50:57.000Z</time>
      </trkpt>
      <trkpt lat="47.10319" lon="-1.80184">
        <ele>70</ele>
        <time>2021-02-07T09:50:59.000Z</time>
      </trkpt>
      <trkpt lat="47.10318" lon="-1.80169">
        <ele>70</ele>
        <time>2021-02-07T09:51:01.000Z</time>
      </trkpt>
      <trkpt lat="47.10316" lon="-1.80153">
        <ele>70</ele>
        <time>2021-02-07T09:51:03.000Z</time>
      </trkpt>
      <trkpt lat="47.10315" lon="-1.80136">
        <ele>71</ele>
        <time>2021-02-07T09:51:05.000Z</time>
      </trkpt>
      <trkpt lat="47.10313" lon="-1.80119">
        <ele>70</ele>
        <time>2021-02-07T09:51:07.000Z</time>
      </trkpt>
      <trkpt lat="47.10312" lon="-1.80103">
        <ele>70</ele>
        <time>2021-02-07T09:51:09.000Z</time>
      </trkpt>
      <trkpt lat="47.10311" lon="-1.80087">
        <ele>70</ele>
        <time>2021-02-07T09:51:11.000Z</time>
      </trkpt>
      <trkpt lat="47.1031" lon="-1.80069">
        <ele>69</ele>
        <time>2021-02-07T09:51:13.000Z</time>
      </trkpt>
      <trkpt lat="47.1031" lon="-1.8005">
        <ele>70</ele>
        <time>2021-02-07T09:51:15.000Z</time>
      </trkpt>
      <trkpt lat="47.10311" lon="-1.8003">
        <ele>69</ele>
        <time>2021-02-07T09:51:17.000Z</time>
      </trkpt>
      <trkpt lat="47.10311" lon="-1.80011">
        <ele>69</ele>
        <time>2021-02-07T09:51:19.000Z</time>
      </trkpt>
      <trkpt lat="47.10312" lon="-1.79991">
        <ele>68</ele>
        <time>2021-02-07T09:51:21.000Z</time>
      </trkpt>
      <trkpt lat="47.10315" lon="-1.79972">
        <ele>68</ele>
        <time>2021-02-07T09:51:23.000Z</time>
      </trkpt>
      <trkpt lat="47.10318" lon="-1.79953">
        <ele>68</ele>
        <time>2021-02-07T09:51:25.000Z</time>
      </trkpt>
      <trkpt lat="47.10321" lon="-1.79934">
        <ele>67</ele>
        <time>2021-02-07T09:51:27.000Z</time>
      </trkpt>
      <trkpt lat="47.10324" lon="-1.79916">
        <ele>67</ele>
        <time>2021-02-07T09:51:29.000Z</time>
      </trkpt>
      <trkpt lat="47.10328" lon="-1.79898">
        <ele>67</ele>
        <time>2021-02-07T09:51:31.000Z</time>
      </trkpt>
      <trkpt lat="47.10334" lon="-1.7987">
        <ele>67</ele>
        <time>2021-02-07T09:51:34.000Z</time>
      </trkpt>
      <trkpt lat="47.10338" lon="-1.79851">
        <ele>67</ele>
        <time>2021-02-07T09:51:36.000Z</time>
      </trkpt>
      <trkpt lat="47.10342" lon="-1.79832">
        <ele>66</ele>
        <time>2021-02-07T09:51:38.000Z</time>
      </trkpt>
      <trkpt lat="47.10345" lon="-1.79813">
        <ele>66</ele>
        <time>2021-02-07T09:51:40.000Z</time>
      </trkpt>
      <trkpt lat="47.10349" lon="-1.79794">
        <ele>66</ele>
        <time>2021-02-07T09:51:42.000Z</time>
      </trkpt>
      <trkpt lat="47.10352" lon="-1.79776">
        <ele>65</ele>
        <time>2021-02-07T09:51:44.000Z</time>
      </trkpt>
      <trkpt lat="47.10355" lon="-1.79757">
        <ele>65</ele>
        <time>2021-02-07T09:51:46.000Z</time>
      </trkpt>
      <trkpt lat="47.10359" lon="-1.79738">
        <ele>65</ele>
        <time>2021-02-07T09:51:48.000Z</time>
      </trkpt>
      <trkpt lat="47.10362" lon="-1.7972">
        <ele>65</ele>
        <time>2021-02-07T09:51:50.000Z</time>
      </trkpt>
      <trkpt lat="47.10366" lon="-1.79701">
        <ele>65</ele>
        <time>2021-02-07T09:51:52.000Z</time>
      </trkpt>
      <trkpt lat="47.10369" lon="-1.79683">
        <ele>65</ele>
        <time>2021-02-07T09:51:54.000Z</time>
      </trkpt>
      <trkpt lat="47.10371" lon="-1.79663">
        <ele>65</ele>
        <time>2021-02-07T09:51:56.000Z</time>
      </trkpt>
      <trkpt lat="47.10373" lon="-1.79644">
        <ele>65</ele>
        <time>2021-02-07T09:51:58.000Z</time>
      </trkpt>
      <trkpt lat="47.10375" lon="-1.79624">
        <ele>65</ele>
        <time>2021-02-07T09:52:00.000Z</time>
      </trkpt>
      <trkpt lat="47.10376" lon="-1.79604">
        <ele>65</ele>
        <time>2021-02-07T09:52:02.000Z</time>
      </trkpt>
      <trkpt lat="47.10377" lon="-1.79585">
        <ele>65</ele>
        <time>2021-02-07T09:52:04.000Z</time>
      </trkpt>
      <trkpt lat="47.10378" lon="-1.79565">
        <ele>65</ele>
        <time>2021-02-07T09:52:06.000Z</time>
      </trkpt>
      <trkpt lat="47.10379" lon="-1.79546">
        <ele>65</ele>
        <time>2021-02-07T09:52:08.000Z</time>
      </trkpt>
      <trkpt lat="47.1038" lon="-1.79526">
        <ele>65</ele>
        <time>2021-02-07T09:52:10.000Z</time>
      </trkpt>
      <trkpt lat="47.10382" lon="-1.79508">
        <ele>65</ele>
        <time>2021-02-07T09:52:12.000Z</time>
      </trkpt>
      <trkpt lat="47.10385" lon="-1.79489">
        <ele>65</ele>
        <time>2021-02-07T09:52:14.000Z</time>
      </trkpt>
      <trkpt lat="47.10389" lon="-1.79471">
        <ele>65</ele>
        <time>2021-02-07T09:52:16.000Z</time>
      </trkpt>
      <trkpt lat="47.10393" lon="-1.79452">
        <ele>64</ele>
        <time>2021-02-07T09:52:18.000Z</time>
      </trkpt>
      <trkpt lat="47.10398" lon="-1.79435">
        <ele>64</ele>
        <time>2021-02-07T09:52:20.000Z</time>
      </trkpt>
      <trkpt lat="47.10403" lon="-1.79417">
        <ele>63</ele>
        <time>2021-02-07T09:52:22.000Z</time>
      </trkpt>
      <trkpt lat="47.10409" lon="-1.79399">
        <ele>63</ele>
        <time>2021-02-07T09:52:24.000Z</time>
      </trkpt>
      <trkpt lat="47.10415" lon="-1.79382">
        <ele>62</ele>
        <time>2021-02-07T09:52:26.000Z</time>
      </trkpt>
      <trkpt lat="47.10421" lon="-1.79365">
        <ele>62</ele>
        <time>2021-02-07T09:52:28.000Z</time>
      </trkpt>
      <trkpt lat="47.10428" lon="-1.79348">
        <ele>62</ele>
        <time>2021-02-07T09:52:30.000Z</time>
      </trkpt>
      <trkpt lat="47.10435" lon="-1.79331">
        <ele>62</ele>
        <time>2021-02-07T09:52:32.000Z</time>
      </trkpt>
      <trkpt lat="47.10442" lon="-1.79313">
        <ele>62</ele>
        <time>2021-02-07T09:52:34.000Z</time>
      </trkpt>
      <trkpt lat="47.10446" lon="-1.79295">
        <ele>61</ele>
        <time>2021-02-07T09:52:36.000Z</time>
      </trkpt>
      <trkpt lat="47.10442" lon="-1.79278">
        <ele>60</ele>
        <time>2021-02-07T09:52:38.000Z</time>
      </trkpt>
      <trkpt lat="47.10432" lon="-1.79265">
        <ele>61</ele>
        <time>2021-02-07T09:52:40.000Z</time>
      </trkpt>
      <trkpt lat="47.10422" lon="-1.79253">
        <ele>61</ele>
        <time>2021-02-07T09:52:42.000Z</time>
      </trkpt>
      <trkpt lat="47.10413" lon="-1.79242">
        <ele>61</ele>
        <time>2021-02-07T09:52:44.000Z</time>
      </trkpt>
      <trkpt lat="47.10405" lon="-1.7923">
        <ele>61</ele>
        <time>2021-02-07T09:52:46.000Z</time>
      </trkpt>
      <trkpt lat="47.10395" lon="-1.79219">
        <ele>61</ele>
        <time>2021-02-07T09:52:48.000Z</time>
      </trkpt>
      <trkpt lat="47.10386" lon="-1.79207">
        <ele>62</ele>
        <time>2021-02-07T09:52:50.000Z</time>
      </trkpt>
      <trkpt lat="47.10377" lon="-1.79194">
        <ele>62</ele>
        <time>2021-02-07T09:52:52.000Z</time>
      </trkpt>
      <trkpt lat="47.10368" lon="-1.79182">
        <ele>62</ele>
        <time>2021-02-07T09:52:54.000Z</time>
      </trkpt>
      <trkpt lat="47.10359" lon="-1.79169">
        <ele>62</ele>
        <time>2021-02-07T09:52:56.000Z</time>
      </trkpt>
      <trkpt lat="47.10352" lon="-1.79159">
        <ele>62</ele>
        <time>2021-02-07T09:52:58.000Z</time>
      </trkpt>
      <trkpt lat="47.10344" lon="-1.79148">
        <ele>62</ele>
        <time>2021-02-07T09:53:00.000Z</time>
      </trkpt>
      <trkpt lat="47.10338" lon="-1.79138">
        <ele>62</ele>
        <time>2021-02-07T09:53:02.000Z</time>
      </trkpt>
      <trkpt lat="47.10332" lon="-1.79125">
        <ele>63</ele>
        <time>2021-02-07T09:53:09.000Z</time>
      </trkpt>
      <trkpt lat="47.10334" lon="-1.7911">
        <ele>63</ele>
        <time>2021-02-07T09:53:12.000Z</time>
      </trkpt>
      <trkpt lat="47.10329" lon="-1.79098">
        <ele>63</ele>
        <time>2021-02-07T09:53:14.000Z</time>
      </trkpt>
      <trkpt lat="47.10321" lon="-1.79088">
        <ele>63</ele>
        <time>2021-02-07T09:53:16.000Z</time>
      </trkpt>
      <trkpt lat="47.10313" lon="-1.79077">
        <ele>63</ele>
        <time>2021-02-07T09:53:18.000Z</time>
      </trkpt>
      <trkpt lat="47.10304" lon="-1.79066">
        <ele>63</ele>
        <time>2021-02-07T09:53:20.000Z</time>
      </trkpt>
      <trkpt lat="47.10295" lon="-1.79054">
        <ele>63</ele>
        <time>2021-02-07T09:53:22.000Z</time>
      </trkpt>
      <trkpt lat="47.10286" lon="-1.79042">
        <ele>63</ele>
        <time>2021-02-07T09:53:24.000Z</time>
      </trkpt>
      <trkpt lat="47.10276" lon="-1.7903">
        <ele>64</ele>
        <time>2021-02-07T09:53:26.000Z</time>
      </trkpt>
      <trkpt lat="47.10267" lon="-1.79017">
        <ele>64</ele>
        <time>2021-02-07T09:53:28.000Z</time>
      </trkpt>
      <trkpt lat="47.10258" lon="-1.79005">
        <ele>64</ele>
        <time>2021-02-07T09:53:30.000Z</time>
      </trkpt>
      <trkpt lat="47.10249" lon="-1.78993">
        <ele>64</ele>
        <time>2021-02-07T09:53:32.000Z</time>
      </trkpt>
      <trkpt lat="47.10241" lon="-1.7898">
        <ele>64</ele>
        <time>2021-02-07T09:53:34.000Z</time>
      </trkpt>
      <trkpt lat="47.10237" lon="-1.78961">
        <ele>64</ele>
        <time>2021-02-07T09:53:36.000Z</time>
      </trkpt>
      <trkpt lat="47.10235" lon="-1.78942">
        <ele>65</ele>
        <time>2021-02-07T09:53:38.000Z</time>
      </trkpt>
      <trkpt lat="47.10237" lon="-1.78922">
        <ele>65</ele>
        <time>2021-02-07T09:53:40.000Z</time>
      </trkpt>
      <trkpt lat="47.10241" lon="-1.78904">
        <ele>65</ele>
        <time>2021-02-07T09:53:42.000Z</time>
      </trkpt>
      <trkpt lat="47.10248" lon="-1.78886">
        <ele>66</ele>
        <time>2021-02-07T09:53:44.000Z</time>
      </trkpt>
      <trkpt lat="47.10254" lon="-1.78869">
        <ele>66</ele>
        <time>2021-02-07T09:53:46.000Z</time>
      </trkpt>
      <trkpt lat="47.10262" lon="-1.78852">
        <ele>66</ele>
        <time>2021-02-07T09:53:48.000Z</time>
      </trkpt>
      <trkpt lat="47.10268" lon="-1.78836">
        <ele>66</ele>
        <time>2021-02-07T09:53:50.000Z</time>
      </trkpt>
      <trkpt lat="47.10275" lon="-1.78819">
        <ele>65</ele>
        <time>2021-02-07T09:53:52.000Z</time>
      </trkpt>
      <trkpt lat="47.10282" lon="-1.78801">
        <ele>65</ele>
        <time>2021-02-07T09:53:54.000Z</time>
      </trkpt>
      <trkpt lat="47.10288" lon="-1.78784">
        <ele>64</ele>
        <time>2021-02-07T09:53:56.000Z</time>
      </trkpt>
      <trkpt lat="47.10294" lon="-1.78764">
        <ele>63</ele>
        <time>2021-02-07T09:53:58.000Z</time>
      </trkpt>
      <trkpt lat="47.10298" lon="-1.78742">
        <ele>63</ele>
        <time>2021-02-07T09:54:00.000Z</time>
      </trkpt>
      <trkpt lat="47.10301" lon="-1.78717">
        <ele>62</ele>
        <time>2021-02-07T09:54:02.000Z</time>
      </trkpt>
      <trkpt lat="47.10303" lon="-1.78692">
        <ele>61</ele>
        <time>2021-02-07T09:54:04.000Z</time>
      </trkpt>
      <trkpt lat="47.10303" lon="-1.78668">
        <ele>59</ele>
        <time>2021-02-07T09:54:06.000Z</time>
      </trkpt>
      <trkpt lat="47.10305" lon="-1.78642">
        <ele>58</ele>
        <time>2021-02-07T09:54:08.000Z</time>
      </trkpt>
      <trkpt lat="47.10304" lon="-1.78618">
        <ele>57</ele>
        <time>2021-02-07T09:54:10.000Z</time>
      </trkpt>
      <trkpt lat="47.10305" lon="-1.78593">
        <ele>57</ele>
        <time>2021-02-07T09:54:12.000Z</time>
      </trkpt>
      <trkpt lat="47.10306" lon="-1.78569">
        <ele>56</ele>
        <time>2021-02-07T09:54:14.000Z</time>
      </trkpt>
      <trkpt lat="47.10306" lon="-1.78546">
        <ele>56</ele>
        <time>2021-02-07T09:54:16.000Z</time>
      </trkpt>
      <trkpt lat="47.10308" lon="-1.78525">
        <ele>57</ele>
        <time>2021-02-07T09:54:18.000Z</time>
      </trkpt>
      <trkpt lat="47.1031" lon="-1.78504">
        <ele>57</ele>
        <time>2021-02-07T09:54:20.000Z</time>
      </trkpt>
      <trkpt lat="47.10312" lon="-1.78483">
        <ele>57</ele>
        <time>2021-02-07T09:54:22.000Z</time>
      </trkpt>
      <trkpt lat="47.10314" lon="-1.78465">
        <ele>56</ele>
        <time>2021-02-07T09:54:24.000Z</time>
      </trkpt>
      <trkpt lat="47.10317" lon="-1.78448">
        <ele>56</ele>
        <time>2021-02-07T09:54:26.000Z</time>
      </trkpt>
      <trkpt lat="47.10319" lon="-1.78431">
        <ele>55</ele>
        <time>2021-02-07T09:54:28.000Z</time>
      </trkpt>
      <trkpt lat="47.10321" lon="-1.78416">
        <ele>55</ele>
        <time>2021-02-07T09:54:30.000Z</time>
      </trkpt>
      <trkpt lat="47.10324" lon="-1.78402">
        <ele>55</ele>
        <time>2021-02-07T09:54:32.000Z</time>
      </trkpt>
      <trkpt lat="47.10326" lon="-1.78388">
        <ele>56</ele>
        <time>2021-02-07T09:54:34.000Z</time>
      </trkpt>
      <trkpt lat="47.10328" lon="-1.78375">
        <ele>56</ele>
        <time>2021-02-07T09:54:36.000Z</time>
      </trkpt>
      <trkpt lat="47.10329" lon="-1.78361">
        <ele>56</ele>
        <time>2021-02-07T09:54:38.000Z</time>
      </trkpt>
      <trkpt lat="47.10331" lon="-1.78348">
        <ele>57</ele>
        <time>2021-02-07T09:54:40.000Z</time>
      </trkpt>
      <trkpt lat="47.10332" lon="-1.78335">
        <ele>57</ele>
        <time>2021-02-07T09:54:42.000Z</time>
      </trkpt>
      <trkpt lat="47.10332" lon="-1.7832">
        <ele>58</ele>
        <time>2021-02-07T09:54:44.000Z</time>
      </trkpt>
      <trkpt lat="47.10333" lon="-1.78306">
        <ele>59</ele>
        <time>2021-02-07T09:54:46.000Z</time>
      </trkpt>
      <trkpt lat="47.10332" lon="-1.78292">
        <ele>59</ele>
        <time>2021-02-07T09:54:48.000Z</time>
      </trkpt>
      <trkpt lat="47.10332" lon="-1.78277">
        <ele>59</ele>
        <time>2021-02-07T09:54:50.000Z</time>
      </trkpt>
      <trkpt lat="47.10331" lon="-1.78263">
        <ele>60</ele>
        <time>2021-02-07T09:54:52.000Z</time>
      </trkpt>
      <trkpt lat="47.10331" lon="-1.78249">
        <ele>61</ele>
        <time>2021-02-07T09:54:54.000Z</time>
      </trkpt>
      <trkpt lat="47.10331" lon="-1.78235">
        <ele>61</ele>
        <time>2021-02-07T09:54:56.000Z</time>
      </trkpt>
      <trkpt lat="47.10333" lon="-1.78221">
        <ele>61</ele>
        <time>2021-02-07T09:54:58.000Z</time>
      </trkpt>
      <trkpt lat="47.10334" lon="-1.78207">
        <ele>62</ele>
        <time>2021-02-07T09:55:00.000Z</time>
      </trkpt>
      <trkpt lat="47.10336" lon="-1.78194">
        <ele>63</ele>
        <time>2021-02-07T09:55:02.000Z</time>
      </trkpt>
      <trkpt lat="47.10337" lon="-1.7818">
        <ele>63</ele>
        <time>2021-02-07T09:55:04.000Z</time>
      </trkpt>
      <trkpt lat="47.10339" lon="-1.78167">
        <ele>64</ele>
        <time>2021-02-07T09:55:06.000Z</time>
      </trkpt>
      <trkpt lat="47.10341" lon="-1.78153">
        <ele>64</ele>
        <time>2021-02-07T09:55:08.000Z</time>
      </trkpt>
      <trkpt lat="47.10343" lon="-1.78139">
        <ele>64</ele>
        <time>2021-02-07T09:55:10.000Z</time>
      </trkpt>
      <trkpt lat="47.10343" lon="-1.78125">
        <ele>64</ele>
        <time>2021-02-07T09:55:12.000Z</time>
      </trkpt>
      <trkpt lat="47.10345" lon="-1.78111">
        <ele>64</ele>
        <time>2021-02-07T09:55:14.000Z</time>
      </trkpt>
      <trkpt lat="47.10346" lon="-1.78096">
        <ele>65</ele>
        <time>2021-02-07T09:55:16.000Z</time>
      </trkpt>
      <trkpt lat="47.10347" lon="-1.78082">
        <ele>64</ele>
        <time>2021-02-07T09:55:18.000Z</time>
      </trkpt>
      <trkpt lat="47.10348" lon="-1.78066">
        <ele>64</ele>
        <time>2021-02-07T09:55:20.000Z</time>
      </trkpt>
      <trkpt lat="47.10349" lon="-1.7805">
        <ele>64</ele>
        <time>2021-02-07T09:55:22.000Z</time>
      </trkpt>
      <trkpt lat="47.10352" lon="-1.78033">
        <ele>64</ele>
        <time>2021-02-07T09:55:24.000Z</time>
      </trkpt>
      <trkpt lat="47.10357" lon="-1.78015">
        <ele>63</ele>
        <time>2021-02-07T09:55:26.000Z</time>
      </trkpt>
      <trkpt lat="47.10362" lon="-1.77997">
        <ele>63</ele>
        <time>2021-02-07T09:55:28.000Z</time>
      </trkpt>
      <trkpt lat="47.10367" lon="-1.77979">
        <ele>63</ele>
        <time>2021-02-07T09:55:30.000Z</time>
      </trkpt>
      <trkpt lat="47.10373" lon="-1.77961">
        <ele>62</ele>
        <time>2021-02-07T09:55:32.000Z</time>
      </trkpt>
      <trkpt lat="47.10378" lon="-1.77942">
        <ele>61</ele>
        <time>2021-02-07T09:55:34.000Z</time>
      </trkpt>
      <trkpt lat="47.10383" lon="-1.77924">
        <ele>60</ele>
        <time>2021-02-07T09:55:36.000Z</time>
      </trkpt>
      <trkpt lat="47.10387" lon="-1.77905">
        <ele>60</ele>
        <time>2021-02-07T09:55:38.000Z</time>
      </trkpt>
      <trkpt lat="47.1039" lon="-1.77885">
        <ele>59</ele>
        <time>2021-02-07T09:55:40.000Z</time>
      </trkpt>
      <trkpt lat="47.10393" lon="-1.77865">
        <ele>58</ele>
        <time>2021-02-07T09:55:42.000Z</time>
      </trkpt>
      <trkpt lat="47.10396" lon="-1.77845">
        <ele>58</ele>
        <time>2021-02-07T09:55:44.000Z</time>
      </trkpt>
      <trkpt lat="47.10397" lon="-1.77824">
        <ele>58</ele>
        <time>2021-02-07T09:55:46.000Z</time>
      </trkpt>
      <trkpt lat="47.10397" lon="-1.77803">
        <ele>57</ele>
        <time>2021-02-07T09:55:48.000Z</time>
      </trkpt>
      <trkpt lat="47.10397" lon="-1.77783">
        <ele>57</ele>
        <time>2021-02-07T09:55:50.000Z</time>
      </trkpt>
      <trkpt lat="47.10397" lon="-1.77762">
        <ele>57</ele>
        <time>2021-02-07T09:55:52.000Z</time>
      </trkpt>
      <trkpt lat="47.10397" lon="-1.7774">
        <ele>57</ele>
        <time>2021-02-07T09:55:54.000Z</time>
      </trkpt>
      <trkpt lat="47.10396" lon="-1.77719">
        <ele>57</ele>
        <time>2021-02-07T09:55:56.000Z</time>
      </trkpt>
      <trkpt lat="47.10395" lon="-1.77698">
        <ele>57</ele>
        <time>2021-02-07T09:55:58.000Z</time>
      </trkpt>
      <trkpt lat="47.10395" lon="-1.77677">
        <ele>57</ele>
        <time>2021-02-07T09:56:00.000Z</time>
      </trkpt>
      <trkpt lat="47.10394" lon="-1.77656">
        <ele>57</ele>
        <time>2021-02-07T09:56:02.000Z</time>
      </trkpt>
      <trkpt lat="47.10392" lon="-1.77635">
        <ele>57</ele>
        <time>2021-02-07T09:56:04.000Z</time>
      </trkpt>
      <trkpt lat="47.10391" lon="-1.77614">
        <ele>57</ele>
        <time>2021-02-07T09:56:06.000Z</time>
      </trkpt>
      <trkpt lat="47.1039" lon="-1.77595">
        <ele>57</ele>
        <time>2021-02-07T09:56:08.000Z</time>
      </trkpt>
      <trkpt lat="47.10387" lon="-1.77575">
        <ele>57</ele>
        <time>2021-02-07T09:56:10.000Z</time>
      </trkpt>
      <trkpt lat="47.10386" lon="-1.77556">
        <ele>57</ele>
        <time>2021-02-07T09:56:12.000Z</time>
      </trkpt>
      <trkpt lat="47.10384" lon="-1.77536">
        <ele>58</ele>
        <time>2021-02-07T09:56:14.000Z</time>
      </trkpt>
      <trkpt lat="47.10382" lon="-1.77516">
        <ele>58</ele>
        <time>2021-02-07T09:56:16.000Z</time>
      </trkpt>
      <trkpt lat="47.10381" lon="-1.77496">
        <ele>58</ele>
        <time>2021-02-07T09:56:18.000Z</time>
      </trkpt>
      <trkpt lat="47.10379" lon="-1.77477">
        <ele>59</ele>
        <time>2021-02-07T09:56:20.000Z</time>
      </trkpt>
      <trkpt lat="47.10378" lon="-1.7746">
        <ele>58</ele>
        <time>2021-02-07T09:56:22.000Z</time>
      </trkpt>
      <trkpt lat="47.10381" lon="-1.77444">
        <ele>57</ele>
        <time>2021-02-07T09:56:24.000Z</time>
      </trkpt>
      <trkpt lat="47.1039" lon="-1.77433">
        <ele>58</ele>
        <time>2021-02-07T09:56:26.000Z</time>
      </trkpt>
      <trkpt lat="47.10401" lon="-1.77424">
        <ele>58</ele>
        <time>2021-02-07T09:56:28.000Z</time>
      </trkpt>
      <trkpt lat="47.10411" lon="-1.77413">
        <ele>58</ele>
        <time>2021-02-07T09:56:30.000Z</time>
      </trkpt>
      <trkpt lat="47.10418" lon="-1.77399">
        <ele>58</ele>
        <time>2021-02-07T09:56:32.000Z</time>
      </trkpt>
      <trkpt lat="47.10423" lon="-1.77383">
        <ele>58</ele>
        <time>2021-02-07T09:56:34.000Z</time>
      </trkpt>
      <trkpt lat="47.10425" lon="-1.77365">
        <ele>58</ele>
        <time>2021-02-07T09:56:36.000Z</time>
      </trkpt>
      <trkpt lat="47.10427" lon="-1.77347">
        <ele>58</ele>
        <time>2021-02-07T09:56:38.000Z</time>
      </trkpt>
      <trkpt lat="47.10429" lon="-1.77329">
        <ele>58</ele>
        <time>2021-02-07T09:56:40.000Z</time>
      </trkpt>
      <trkpt lat="47.10431" lon="-1.7731">
        <ele>58</ele>
        <time>2021-02-07T09:56:42.000Z</time>
      </trkpt>
      <trkpt lat="47.10434" lon="-1.77291">
        <ele>57</ele>
        <time>2021-02-07T09:56:44.000Z</time>
      </trkpt>
      <trkpt lat="47.10436" lon="-1.77272">
        <ele>57</ele>
        <time>2021-02-07T09:56:46.000Z</time>
      </trkpt>
      <trkpt lat="47.10439" lon="-1.77254">
        <ele>57</ele>
        <time>2021-02-07T09:56:48.000Z</time>
      </trkpt>
      <trkpt lat="47.10442" lon="-1.77236">
        <ele>57</ele>
        <time>2021-02-07T09:56:50.000Z</time>
      </trkpt>
      <trkpt lat="47.10447" lon="-1.77218">
        <ele>57</ele>
        <time>2021-02-07T09:56:52.000Z</time>
      </trkpt>
      <trkpt lat="47.10451" lon="-1.772">
        <ele>57</ele>
        <time>2021-02-07T09:56:54.000Z</time>
      </trkpt>
      <trkpt lat="47.10457" lon="-1.77182">
        <ele>57</ele>
        <time>2021-02-07T09:56:56.000Z</time>
      </trkpt>
      <trkpt lat="47.10464" lon="-1.77166">
        <ele>57</ele>
        <time>2021-02-07T09:56:58.000Z</time>
      </trkpt>
      <trkpt lat="47.10471" lon="-1.77149">
        <ele>57</ele>
        <time>2021-02-07T09:57:00.000Z</time>
      </trkpt>
      <trkpt lat="47.10479" lon="-1.77134">
        <ele>57</ele>
        <time>2021-02-07T09:57:02.000Z</time>
      </trkpt>
      <trkpt lat="47.10486" lon="-1.77118">
        <ele>57</ele>
        <time>2021-02-07T09:57:04.000Z</time>
      </trkpt>
      <trkpt lat="47.10493" lon="-1.77103">
        <ele>57</ele>
        <time>2021-02-07T09:57:06.000Z</time>
      </trkpt>
      <trkpt lat="47.105" lon="-1.77087">
        <ele>56</ele>
        <time>2021-02-07T09:57:08.000Z</time>
      </trkpt>
      <trkpt lat="47.10507" lon="-1.77071">
        <ele>56</ele>
        <time>2021-02-07T09:57:10.000Z</time>
      </trkpt>
      <trkpt lat="47.10514" lon="-1.77054">
        <ele>56</ele>
        <time>2021-02-07T09:57:12.000Z</time>
      </trkpt>
      <trkpt lat="47.10522" lon="-1.77037">
        <ele>56</ele>
        <time>2021-02-07T09:57:14.000Z</time>
      </trkpt>
      <trkpt lat="47.10529" lon="-1.77021">
        <ele>56</ele>
        <time>2021-02-07T09:57:16.000Z</time>
      </trkpt>
      <trkpt lat="47.10536" lon="-1.77006">
        <ele>56</ele>
        <time>2021-02-07T09:57:18.000Z</time>
      </trkpt>
      <trkpt lat="47.10543" lon="-1.7699">
        <ele>56</ele>
        <time>2021-02-07T09:57:20.000Z</time>
      </trkpt>
      <trkpt lat="47.10551" lon="-1.76973">
        <ele>56</ele>
        <time>2021-02-07T09:57:22.000Z</time>
      </trkpt>
      <trkpt lat="47.10558" lon="-1.76957">
        <ele>55</ele>
        <time>2021-02-07T09:57:24.000Z</time>
      </trkpt>
      <trkpt lat="47.10567" lon="-1.76941">
        <ele>54</ele>
        <time>2021-02-07T09:57:26.000Z</time>
      </trkpt>
      <trkpt lat="47.10577" lon="-1.76927">
        <ele>54</ele>
        <time>2021-02-07T09:57:28.000Z</time>
      </trkpt>
      <trkpt lat="47.10589" lon="-1.76915">
        <ele>53</ele>
        <time>2021-02-07T09:57:30.000Z</time>
      </trkpt>
      <trkpt lat="47.106" lon="-1.76903">
        <ele>54</ele>
        <time>2021-02-07T09:57:32.000Z</time>
      </trkpt>
      <trkpt lat="47.10611" lon="-1.76893">
        <ele>54</ele>
        <time>2021-02-07T09:57:34.000Z</time>
      </trkpt>
      <trkpt lat="47.10622" lon="-1.76882">
        <ele>54</ele>
        <time>2021-02-07T09:57:36.000Z</time>
      </trkpt>
      <trkpt lat="47.10632" lon="-1.7687">
        <ele>54</ele>
        <time>2021-02-07T09:57:38.000Z</time>
      </trkpt>
      <trkpt lat="47.10641" lon="-1.76856">
        <ele>54</ele>
        <time>2021-02-07T09:57:40.000Z</time>
      </trkpt>
      <trkpt lat="47.1065" lon="-1.76841">
        <ele>54</ele>
        <time>2021-02-07T09:57:42.000Z</time>
      </trkpt>
      <trkpt lat="47.10657" lon="-1.76825">
        <ele>54</ele>
        <time>2021-02-07T09:57:44.000Z</time>
      </trkpt>
      <trkpt lat="47.10663" lon="-1.76809">
        <ele>54</ele>
        <time>2021-02-07T09:57:46.000Z</time>
      </trkpt>
      <trkpt lat="47.10668" lon="-1.76793">
        <ele>54</ele>
        <time>2021-02-07T09:57:48.000Z</time>
      </trkpt>
      <trkpt lat="47.10673" lon="-1.76777">
        <ele>54</ele>
        <time>2021-02-07T09:57:50.000Z</time>
      </trkpt>
      <trkpt lat="47.10677" lon="-1.7676">
        <ele>54</ele>
        <time>2021-02-07T09:57:52.000Z</time>
      </trkpt>
      <trkpt lat="47.10682" lon="-1.76745">
        <ele>55</ele>
        <time>2021-02-07T09:57:54.000Z</time>
      </trkpt>
      <trkpt lat="47.10687" lon="-1.7673">
        <ele>55</ele>
        <time>2021-02-07T09:57:56.000Z</time>
      </trkpt>
      <trkpt lat="47.10691" lon="-1.76715">
        <ele>55</ele>
        <time>2021-02-07T09:57:58.000Z</time>
      </trkpt>
      <trkpt lat="47.10696" lon="-1.76701">
        <ele>55</ele>
        <time>2021-02-07T09:58:00.000Z</time>
      </trkpt>
      <trkpt lat="47.10701" lon="-1.76686">
        <ele>56</ele>
        <time>2021-02-07T09:58:02.000Z</time>
      </trkpt>
      <trkpt lat="47.10707" lon="-1.76671">
        <ele>56</ele>
        <time>2021-02-07T09:58:04.000Z</time>
      </trkpt>
      <trkpt lat="47.10712" lon="-1.76657">
        <ele>56</ele>
        <time>2021-02-07T09:58:06.000Z</time>
      </trkpt>
      <trkpt lat="47.10717" lon="-1.76643">
        <ele>56</ele>
        <time>2021-02-07T09:58:08.000Z</time>
      </trkpt>
      <trkpt lat="47.10724" lon="-1.76629">
        <ele>56</ele>
        <time>2021-02-07T09:58:10.000Z</time>
      </trkpt>
      <trkpt lat="47.10729" lon="-1.76615">
        <ele>56</ele>
        <time>2021-02-07T09:58:12.000Z</time>
      </trkpt>
      <trkpt lat="47.10735" lon="-1.76601">
        <ele>56</ele>
        <time>2021-02-07T09:58:14.000Z</time>
      </trkpt>
      <trkpt lat="47.10739" lon="-1.76587">
        <ele>56</ele>
        <time>2021-02-07T09:58:16.000Z</time>
      </trkpt>
      <trkpt lat="47.10743" lon="-1.76572">
        <ele>56</ele>
        <time>2021-02-07T09:58:18.000Z</time>
      </trkpt>
      <trkpt lat="47.10746" lon="-1.76557">
        <ele>57</ele>
        <time>2021-02-07T09:58:20.000Z</time>
      </trkpt>
      <trkpt lat="47.1075" lon="-1.76542">
        <ele>57</ele>
        <time>2021-02-07T09:58:22.000Z</time>
      </trkpt>
      <trkpt lat="47.10752" lon="-1.76525">
        <ele>57</ele>
        <time>2021-02-07T09:58:24.000Z</time>
      </trkpt>
      <trkpt lat="47.10755" lon="-1.7651">
        <ele>57</ele>
        <time>2021-02-07T09:58:26.000Z</time>
      </trkpt>
      <trkpt lat="47.10758" lon="-1.76493">
        <ele>57</ele>
        <time>2021-02-07T09:58:28.000Z</time>
      </trkpt>
      <trkpt lat="47.1076" lon="-1.76476">
        <ele>57</ele>
        <time>2021-02-07T09:58:30.000Z</time>
      </trkpt>
      <trkpt lat="47.10763" lon="-1.76459">
        <ele>57</ele>
        <time>2021-02-07T09:58:32.000Z</time>
      </trkpt>
      <trkpt lat="47.10766" lon="-1.76442">
        <ele>57</ele>
        <time>2021-02-07T09:58:34.000Z</time>
      </trkpt>
      <trkpt lat="47.10769" lon="-1.76426">
        <ele>57</ele>
        <time>2021-02-07T09:58:36.000Z</time>
      </trkpt>
      <trkpt lat="47.10771" lon="-1.76408">
        <ele>57</ele>
        <time>2021-02-07T09:58:38.000Z</time>
      </trkpt>
      <trkpt lat="47.10774" lon="-1.76391">
        <ele>57</ele>
        <time>2021-02-07T09:58:40.000Z</time>
      </trkpt>
      <trkpt lat="47.10778" lon="-1.76375">
        <ele>57</ele>
        <time>2021-02-07T09:58:42.000Z</time>
      </trkpt>
      <trkpt lat="47.10781" lon="-1.76359">
        <ele>57</ele>
        <time>2021-02-07T09:58:44.000Z</time>
      </trkpt>
      <trkpt lat="47.10784" lon="-1.76343">
        <ele>58</ele>
        <time>2021-02-07T09:58:46.000Z</time>
      </trkpt>
      <trkpt lat="47.10788" lon="-1.76326">
        <ele>57</ele>
        <time>2021-02-07T09:58:48.000Z</time>
      </trkpt>
      <trkpt lat="47.10792" lon="-1.76311">
        <ele>57</ele>
        <time>2021-02-07T09:58:50.000Z</time>
      </trkpt>
      <trkpt lat="47.10795" lon="-1.76296">
        <ele>57</ele>
        <time>2021-02-07T09:58:52.000Z</time>
      </trkpt>
      <trkpt lat="47.10798" lon="-1.76281">
        <ele>58</ele>
        <time>2021-02-07T09:58:54.000Z</time>
      </trkpt>
      <trkpt lat="47.10801" lon="-1.76265">
        <ele>57</ele>
        <time>2021-02-07T09:58:56.000Z</time>
      </trkpt>
      <trkpt lat="47.10804" lon="-1.76249">
        <ele>58</ele>
        <time>2021-02-07T09:58:58.000Z</time>
      </trkpt>
      <trkpt lat="47.10807" lon="-1.76233">
        <ele>58</ele>
        <time>2021-02-07T09:59:00.000Z</time>
      </trkpt>
      <trkpt lat="47.10811" lon="-1.76217">
        <ele>59</ele>
        <time>2021-02-07T09:59:02.000Z</time>
      </trkpt>
      <trkpt lat="47.10814" lon="-1.76201">
        <ele>59</ele>
        <time>2021-02-07T09:59:04.000Z</time>
      </trkpt>
      <trkpt lat="47.10818" lon="-1.76186">
        <ele>59</ele>
        <time>2021-02-07T09:59:06.000Z</time>
      </trkpt>
      <trkpt lat="47.10821" lon="-1.7617">
        <ele>59</ele>
        <time>2021-02-07T09:59:08.000Z</time>
      </trkpt>
      <trkpt lat="47.10824" lon="-1.76154">
        <ele>60</ele>
        <time>2021-02-07T09:59:10.000Z</time>
      </trkpt>
      <trkpt lat="47.10826" lon="-1.76138">
        <ele>59</ele>
        <time>2021-02-07T09:59:12.000Z</time>
      </trkpt>
      <trkpt lat="47.10829" lon="-1.7612">
        <ele>59</ele>
        <time>2021-02-07T09:59:14.000Z</time>
      </trkpt>
      <trkpt lat="47.10831" lon="-1.76102">
        <ele>59</ele>
        <time>2021-02-07T09:59:16.000Z</time>
      </trkpt>
      <trkpt lat="47.10834" lon="-1.76085">
        <ele>59</ele>
        <time>2021-02-07T09:59:18.000Z</time>
      </trkpt>
      <trkpt lat="47.10836" lon="-1.76068">
        <ele>58</ele>
        <time>2021-02-07T09:59:20.000Z</time>
      </trkpt>
      <trkpt lat="47.10838" lon="-1.7605">
        <ele>58</ele>
        <time>2021-02-07T09:59:22.000Z</time>
      </trkpt>
      <trkpt lat="47.1084" lon="-1.76031">
        <ele>58</ele>
        <time>2021-02-07T09:59:24.000Z</time>
      </trkpt>
      <trkpt lat="47.10843" lon="-1.76014">
        <ele>57</ele>
        <time>2021-02-07T09:59:26.000Z</time>
      </trkpt>
      <trkpt lat="47.10846" lon="-1.75996">
        <ele>57</ele>
        <time>2021-02-07T09:59:28.000Z</time>
      </trkpt>
      <trkpt lat="47.10849" lon="-1.75978">
        <ele>57</ele>
        <time>2021-02-07T09:59:30.000Z</time>
      </trkpt>
      <trkpt lat="47.10852" lon="-1.75961">
        <ele>57</ele>
        <time>2021-02-07T09:59:32.000Z</time>
      </trkpt>
      <trkpt lat="47.10857" lon="-1.75945">
        <ele>56</ele>
        <time>2021-02-07T09:59:34.000Z</time>
      </trkpt>
      <trkpt lat="47.10862" lon="-1.75929">
        <ele>56</ele>
        <time>2021-02-07T09:59:36.000Z</time>
      </trkpt>
      <trkpt lat="47.10868" lon="-1.75913">
        <ele>56</ele>
        <time>2021-02-07T09:59:38.000Z</time>
      </trkpt>
      <trkpt lat="47.10874" lon="-1.75898">
        <ele>57</ele>
        <time>2021-02-07T09:59:40.000Z</time>
      </trkpt>
      <trkpt lat="47.10881" lon="-1.75884">
        <ele>57</ele>
        <time>2021-02-07T09:59:42.000Z</time>
      </trkpt>
      <trkpt lat="47.10889" lon="-1.75872">
        <ele>57</ele>
        <time>2021-02-07T09:59:44.000Z</time>
      </trkpt>
      <trkpt lat="47.10899" lon="-1.75863">
        <ele>56</ele>
        <time>2021-02-07T09:59:46.000Z</time>
      </trkpt>
      <trkpt lat="47.10909" lon="-1.75857">
        <ele>56</ele>
        <time>2021-02-07T09:59:48.000Z</time>
      </trkpt>
      <trkpt lat="47.10919" lon="-1.75853">
        <ele>57</ele>
        <time>2021-02-07T09:59:50.000Z</time>
      </trkpt>
      <trkpt lat="47.1093" lon="-1.7585">
        <ele>57</ele>
        <time>2021-02-07T09:59:52.000Z</time>
      </trkpt>
      <trkpt lat="47.10941" lon="-1.75848">
        <ele>57</ele>
        <time>2021-02-07T09:59:54.000Z</time>
      </trkpt>
      <trkpt lat="47.10953" lon="-1.75846">
        <ele>58</ele>
        <time>2021-02-07T09:59:56.000Z</time>
      </trkpt>
      <trkpt lat="47.10964" lon="-1.75844">
        <ele>59</ele>
        <time>2021-02-07T09:59:58.000Z</time>
      </trkpt>
      <trkpt lat="47.10976" lon="-1.75842">
        <ele>58</ele>
        <time>2021-02-07T10:00:00.000Z</time>
      </trkpt>
      <trkpt lat="47.10988" lon="-1.75838">
        <ele>58</ele>
        <time>2021-02-07T10:00:02.000Z</time>
      </trkpt>
      <trkpt lat="47.11" lon="-1.75832">
        <ele>57</ele>
        <time>2021-02-07T10:00:04.000Z</time>
      </trkpt>
      <trkpt lat="47.11011" lon="-1.75823">
        <ele>58</ele>
        <time>2021-02-07T10:00:06.000Z</time>
      </trkpt>
      <trkpt lat="47.11021" lon="-1.75812">
        <ele>58</ele>
        <time>2021-02-07T10:00:08.000Z</time>
      </trkpt>
      <trkpt lat="47.1103" lon="-1.758">
        <ele>58</ele>
        <time>2021-02-07T10:00:10.000Z</time>
      </trkpt>
      <trkpt lat="47.11039" lon="-1.75789">
        <ele>58</ele>
        <time>2021-02-07T10:00:12.000Z</time>
      </trkpt>
      <trkpt lat="47.11048" lon="-1.75778">
        <ele>59</ele>
        <time>2021-02-07T10:00:14.000Z</time>
      </trkpt>
      <trkpt lat="47.11056" lon="-1.75766">
        <ele>59</ele>
        <time>2021-02-07T10:00:16.000Z</time>
      </trkpt>
      <trkpt lat="47.11065" lon="-1.75754">
        <ele>59</ele>
        <time>2021-02-07T10:00:18.000Z</time>
      </trkpt>
      <trkpt lat="47.11073" lon="-1.75743">
        <ele>59</ele>
        <time>2021-02-07T10:00:20.000Z</time>
      </trkpt>
      <trkpt lat="47.11081" lon="-1.7573">
        <ele>59</ele>
        <time>2021-02-07T10:00:22.000Z</time>
      </trkpt>
      <trkpt lat="47.11088" lon="-1.75716">
        <ele>58</ele>
        <time>2021-02-07T10:00:24.000Z</time>
      </trkpt>
      <trkpt lat="47.11094" lon="-1.757">
        <ele>57</ele>
        <time>2021-02-07T10:00:26.000Z</time>
      </trkpt>
      <trkpt lat="47.11098" lon="-1.75683">
        <ele>57</ele>
        <time>2021-02-07T10:00:28.000Z</time>
      </trkpt>
      <trkpt lat="47.11102" lon="-1.75666">
        <ele>57</ele>
        <time>2021-02-07T10:00:30.000Z</time>
      </trkpt>
      <trkpt lat="47.11105" lon="-1.75648">
        <ele>57</ele>
        <time>2021-02-07T10:00:32.000Z</time>
      </trkpt>
      <trkpt lat="47.11109" lon="-1.75629">
        <ele>56</ele>
        <time>2021-02-07T10:00:34.000Z</time>
      </trkpt>
      <trkpt lat="47.11115" lon="-1.75611">
        <ele>55</ele>
        <time>2021-02-07T10:00:36.000Z</time>
      </trkpt>
      <trkpt lat="47.11121" lon="-1.75593">
        <ele>55</ele>
        <time>2021-02-07T10:00:38.000Z</time>
      </trkpt>
      <trkpt lat="47.11126" lon="-1.75574">
        <ele>54</ele>
        <time>2021-02-07T10:00:40.000Z</time>
      </trkpt>
      <trkpt lat="47.11134" lon="-1.75556">
        <ele>55</ele>
        <time>2021-02-07T10:00:42.000Z</time>
      </trkpt>
      <trkpt lat="47.11143" lon="-1.75541">
        <ele>55</ele>
        <time>2021-02-07T10:00:44.000Z</time>
      </trkpt>
      <trkpt lat="47.11154" lon="-1.7553">
        <ele>55</ele>
        <time>2021-02-07T10:00:46.000Z</time>
      </trkpt>
      <trkpt lat="47.11166" lon="-1.75525">
        <ele>55</ele>
        <time>2021-02-07T10:00:48.000Z</time>
      </trkpt>
      <trkpt lat="47.11178" lon="-1.75521">
        <ele>54</ele>
        <time>2021-02-07T10:00:50.000Z</time>
      </trkpt>
      <trkpt lat="47.1119" lon="-1.75517">
        <ele>54</ele>
        <time>2021-02-07T10:00:52.000Z</time>
      </trkpt>
      <trkpt lat="47.112" lon="-1.7551">
        <ele>54</ele>
        <time>2021-02-07T10:00:54.000Z</time>
      </trkpt>
      <trkpt lat="47.1121" lon="-1.755">
        <ele>54</ele>
        <time>2021-02-07T10:00:56.000Z</time>
      </trkpt>
      <trkpt lat="47.11217" lon="-1.75489">
        <ele>55</ele>
        <time>2021-02-07T10:00:58.000Z</time>
      </trkpt>
      <trkpt lat="47.11225" lon="-1.75479">
        <ele>55</ele>
        <time>2021-02-07T10:01:00.000Z</time>
      </trkpt>
      <trkpt lat="47.11231" lon="-1.75467">
        <ele>56</ele>
        <time>2021-02-07T10:01:02.000Z</time>
      </trkpt>
      <trkpt lat="47.11237" lon="-1.75455">
        <ele>56</ele>
        <time>2021-02-07T10:01:04.000Z</time>
      </trkpt>
      <trkpt lat="47.11242" lon="-1.75441">
        <ele>56</ele>
        <time>2021-02-07T10:01:06.000Z</time>
      </trkpt>
      <trkpt lat="47.11249" lon="-1.75428">
        <ele>56</ele>
        <time>2021-02-07T10:01:08.000Z</time>
      </trkpt>
      <trkpt lat="47.11255" lon="-1.75415">
        <ele>57</ele>
        <time>2021-02-07T10:01:10.000Z</time>
      </trkpt>
      <trkpt lat="47.11261" lon="-1.75403">
        <ele>58</ele>
        <time>2021-02-07T10:01:12.000Z</time>
      </trkpt>
      <trkpt lat="47.11267" lon="-1.75391">
        <ele>58</ele>
        <time>2021-02-07T10:01:14.000Z</time>
      </trkpt>
      <trkpt lat="47.11273" lon="-1.75379">
        <ele>58</ele>
        <time>2021-02-07T10:01:16.000Z</time>
      </trkpt>
      <trkpt lat="47.1128" lon="-1.75368">
        <ele>58</ele>
        <time>2021-02-07T10:01:18.000Z</time>
      </trkpt>
      <trkpt lat="47.11286" lon="-1.75356">
        <ele>59</ele>
        <time>2021-02-07T10:01:20.000Z</time>
      </trkpt>
      <trkpt lat="47.11292" lon="-1.75344">
        <ele>59</ele>
        <time>2021-02-07T10:01:22.000Z</time>
      </trkpt>
      <trkpt lat="47.11298" lon="-1.75332">
        <ele>59</ele>
        <time>2021-02-07T10:01:24.000Z</time>
      </trkpt>
      <trkpt lat="47.11303" lon="-1.75318">
        <ele>59</ele>
        <time>2021-02-07T10:01:26.000Z</time>
      </trkpt>
      <trkpt lat="47.11307" lon="-1.75303">
        <ele>59</ele>
        <time>2021-02-07T10:01:28.000Z</time>
      </trkpt>
      <trkpt lat="47.11309" lon="-1.75287">
        <ele>59</ele>
        <time>2021-02-07T10:01:30.000Z</time>
      </trkpt>
      <trkpt lat="47.11312" lon="-1.75271">
        <ele>60</ele>
        <time>2021-02-07T10:01:32.000Z</time>
      </trkpt>
      <trkpt lat="47.11314" lon="-1.75255">
        <ele>60</ele>
        <time>2021-02-07T10:01:34.000Z</time>
      </trkpt>
      <trkpt lat="47.11316" lon="-1.75239">
        <ele>61</ele>
        <time>2021-02-07T10:01:36.000Z</time>
      </trkpt>
      <trkpt lat="47.11318" lon="-1.75224">
        <ele>60</ele>
        <time>2021-02-07T10:01:38.000Z</time>
      </trkpt>
      <trkpt lat="47.11321" lon="-1.75209">
        <ele>60</ele>
        <time>2021-02-07T10:01:40.000Z</time>
      </trkpt>
      <trkpt lat="47.11324" lon="-1.75194">
        <ele>60</ele>
        <time>2021-02-07T10:01:42.000Z</time>
      </trkpt>
      <trkpt lat="47.11327" lon="-1.75178">
        <ele>60</ele>
        <time>2021-02-07T10:01:44.000Z</time>
      </trkpt>
      <trkpt lat="47.1133" lon="-1.75162">
        <ele>60</ele>
        <time>2021-02-07T10:01:46.000Z</time>
      </trkpt>
      <trkpt lat="47.11334" lon="-1.75147">
        <ele>60</ele>
        <time>2021-02-07T10:01:48.000Z</time>
      </trkpt>
      <trkpt lat="47.11338" lon="-1.75131">
        <ele>59</ele>
        <time>2021-02-07T10:01:50.000Z</time>
      </trkpt>
      <trkpt lat="47.11343" lon="-1.75116">
        <ele>59</ele>
        <time>2021-02-07T10:01:52.000Z</time>
      </trkpt>
      <trkpt lat="47.11348" lon="-1.751">
        <ele>59</ele>
        <time>2021-02-07T10:01:54.000Z</time>
      </trkpt>
      <trkpt lat="47.11353" lon="-1.75084">
        <ele>59</ele>
        <time>2021-02-07T10:01:56.000Z</time>
      </trkpt>
      <trkpt lat="47.11358" lon="-1.75067">
        <ele>58</ele>
        <time>2021-02-07T10:01:58.000Z</time>
      </trkpt>
      <trkpt lat="47.11363" lon="-1.75051">
        <ele>58</ele>
        <time>2021-02-07T10:02:00.000Z</time>
      </trkpt>
      <trkpt lat="47.11366" lon="-1.75034">
        <ele>58</ele>
        <time>2021-02-07T10:02:02.000Z</time>
      </trkpt>
      <trkpt lat="47.11368" lon="-1.75017">
        <ele>58</ele>
        <time>2021-02-07T10:02:04.000Z</time>
      </trkpt>
      <trkpt lat="47.11369" lon="-1.74998">
        <ele>57</ele>
        <time>2021-02-07T10:02:06.000Z</time>
      </trkpt>
      <trkpt lat="47.11368" lon="-1.74979">
        <ele>57</ele>
        <time>2021-02-07T10:02:08.000Z</time>
      </trkpt>
      <trkpt lat="47.11366" lon="-1.74959">
        <ele>56</ele>
        <time>2021-02-07T10:02:10.000Z</time>
      </trkpt>
      <trkpt lat="47.11363" lon="-1.74939">
        <ele>56</ele>
        <time>2021-02-07T10:02:12.000Z</time>
      </trkpt>
      <trkpt lat="47.11361" lon="-1.74918">
        <ele>56</ele>
        <time>2021-02-07T10:02:14.000Z</time>
      </trkpt>
      <trkpt lat="47.11359" lon="-1.74897">
        <ele>56</ele>
        <time>2021-02-07T10:02:16.000Z</time>
      </trkpt>
      <trkpt lat="47.11358" lon="-1.74877">
        <ele>55</ele>
        <time>2021-02-07T10:02:18.000Z</time>
      </trkpt>
      <trkpt lat="47.11357" lon="-1.74856">
        <ele>56</ele>
        <time>2021-02-07T10:02:20.000Z</time>
      </trkpt>
      <trkpt lat="47.11357" lon="-1.74836">
        <ele>56</ele>
        <time>2021-02-07T10:02:22.000Z</time>
      </trkpt>
      <trkpt lat="47.1136" lon="-1.74817">
        <ele>56</ele>
        <time>2021-02-07T10:02:24.000Z</time>
      </trkpt>
      <trkpt lat="47.11363" lon="-1.74798">
        <ele>56</ele>
        <time>2021-02-07T10:02:26.000Z</time>
      </trkpt>
      <trkpt lat="47.11366" lon="-1.74778">
        <ele>55</ele>
        <time>2021-02-07T10:02:28.000Z</time>
      </trkpt>
      <trkpt lat="47.1137" lon="-1.7476">
        <ele>55</ele>
        <time>2021-02-07T10:02:30.000Z</time>
      </trkpt>
      <trkpt lat="47.11373" lon="-1.74741">
        <ele>54</ele>
        <time>2021-02-07T10:02:32.000Z</time>
      </trkpt>
      <trkpt lat="47.11375" lon="-1.74723">
        <ele>54</ele>
        <time>2021-02-07T10:02:34.000Z</time>
      </trkpt>
      <trkpt lat="47.11375" lon="-1.74703">
        <ele>54</ele>
        <time>2021-02-07T10:02:36.000Z</time>
      </trkpt>
      <trkpt lat="47.11375" lon="-1.74685">
        <ele>56</ele>
        <time>2021-02-07T10:02:38.000Z</time>
      </trkpt>
      <trkpt lat="47.11376" lon="-1.74667">
        <ele>56</ele>
        <time>2021-02-07T10:02:40.000Z</time>
      </trkpt>
      <trkpt lat="47.11376" lon="-1.74649">
        <ele>57</ele>
        <time>2021-02-07T10:02:42.000Z</time>
      </trkpt>
      <trkpt lat="47.11377" lon="-1.7463">
        <ele>57</ele>
        <time>2021-02-07T10:02:44.000Z</time>
      </trkpt>
      <trkpt lat="47.11378" lon="-1.74613">
        <ele>57</ele>
        <time>2021-02-07T10:02:46.000Z</time>
      </trkpt>
      <trkpt lat="47.11379" lon="-1.74597">
        <ele>57</ele>
        <time>2021-02-07T10:02:48.000Z</time>
      </trkpt>
      <trkpt lat="47.11381" lon="-1.74579">
        <ele>57</ele>
        <time>2021-02-07T10:02:50.000Z</time>
      </trkpt>
      <trkpt lat="47.11383" lon="-1.74561">
        <ele>56</ele>
        <time>2021-02-07T10:02:52.000Z</time>
      </trkpt>
      <trkpt lat="47.11386" lon="-1.74543">
        <ele>56</ele>
        <time>2021-02-07T10:02:54.000Z</time>
      </trkpt>
      <trkpt lat="47.11389" lon="-1.74526">
        <ele>57</ele>
        <time>2021-02-07T10:02:56.000Z</time>
      </trkpt>
      <trkpt lat="47.11393" lon="-1.74509">
        <ele>57</ele>
        <time>2021-02-07T10:02:58.000Z</time>
      </trkpt>
      <trkpt lat="47.11396" lon="-1.74493">
        <ele>57</ele>
        <time>2021-02-07T10:03:00.000Z</time>
      </trkpt>
      <trkpt lat="47.114" lon="-1.74476">
        <ele>57</ele>
        <time>2021-02-07T10:03:02.000Z</time>
      </trkpt>
      <trkpt lat="47.11404" lon="-1.74459">
        <ele>57</ele>
        <time>2021-02-07T10:03:04.000Z</time>
      </trkpt>
      <trkpt lat="47.11407" lon="-1.74443">
        <ele>57</ele>
        <time>2021-02-07T10:03:06.000Z</time>
      </trkpt>
      <trkpt lat="47.11408" lon="-1.74426">
        <ele>57</ele>
        <time>2021-02-07T10:03:08.000Z</time>
      </trkpt>
      <trkpt lat="47.11411" lon="-1.7441">
        <ele>57</ele>
        <time>2021-02-07T10:03:10.000Z</time>
      </trkpt>
      <trkpt lat="47.11413" lon="-1.74393">
        <ele>57</ele>
        <time>2021-02-07T10:03:12.000Z</time>
      </trkpt>
      <trkpt lat="47.11417" lon="-1.74377">
        <ele>57</ele>
        <time>2021-02-07T10:03:14.000Z</time>
      </trkpt>
      <trkpt lat="47.11423" lon="-1.74362">
        <ele>57</ele>
        <time>2021-02-07T10:03:16.000Z</time>
      </trkpt>
      <trkpt lat="47.11428" lon="-1.74348">
        <ele>57</ele>
        <time>2021-02-07T10:03:18.000Z</time>
      </trkpt>
      <trkpt lat="47.11433" lon="-1.74333">
        <ele>57</ele>
        <time>2021-02-07T10:03:20.000Z</time>
      </trkpt>
      <trkpt lat="47.11434" lon="-1.74316">
        <ele>57</ele>
        <time>2021-02-07T10:03:22.000Z</time>
      </trkpt>
      <trkpt lat="47.11432" lon="-1.74298">
        <ele>57</ele>
        <time>2021-02-07T10:03:24.000Z</time>
      </trkpt>
      <trkpt lat="47.11429" lon="-1.7428">
        <ele>56</ele>
        <time>2021-02-07T10:03:26.000Z</time>
      </trkpt>
      <trkpt lat="47.11427" lon="-1.74261">
        <ele>55</ele>
        <time>2021-02-07T10:03:28.000Z</time>
      </trkpt>
      <trkpt lat="47.11426" lon="-1.74244">
        <ele>55</ele>
        <time>2021-02-07T10:03:30.000Z</time>
      </trkpt>
      <trkpt lat="47.11426" lon="-1.74226">
        <ele>56</ele>
        <time>2021-02-07T10:03:32.000Z</time>
      </trkpt>
      <trkpt lat="47.11427" lon="-1.74208">
        <ele>55</ele>
        <time>2021-02-07T10:03:34.000Z</time>
      </trkpt>
      <trkpt lat="47.11429" lon="-1.7419">
        <ele>55</ele>
        <time>2021-02-07T10:03:36.000Z</time>
      </trkpt>
      <trkpt lat="47.11432" lon="-1.74171">
        <ele>54</ele>
        <time>2021-02-07T10:03:38.000Z</time>
      </trkpt>
      <trkpt lat="47.11435" lon="-1.74152">
        <ele>54</ele>
        <time>2021-02-07T10:03:40.000Z</time>
      </trkpt>
      <trkpt lat="47.1144" lon="-1.74133">
        <ele>54</ele>
        <time>2021-02-07T10:03:42.000Z</time>
      </trkpt>
      <trkpt lat="47.11445" lon="-1.74117">
        <ele>54</ele>
        <time>2021-02-07T10:03:44.000Z</time>
      </trkpt>
      <trkpt lat="47.11452" lon="-1.74101">
        <ele>54</ele>
        <time>2021-02-07T10:03:46.000Z</time>
      </trkpt>
      <trkpt lat="47.11461" lon="-1.74088">
        <ele>54</ele>
        <time>2021-02-07T10:03:48.000Z</time>
      </trkpt>
      <trkpt lat="47.11471" lon="-1.74074">
        <ele>54</ele>
        <time>2021-02-07T10:03:50.000Z</time>
      </trkpt>
      <trkpt lat="47.1148" lon="-1.74061">
        <ele>54</ele>
        <time>2021-02-07T10:03:52.000Z</time>
      </trkpt>
      <trkpt lat="47.1149" lon="-1.74048">
        <ele>54</ele>
        <time>2021-02-07T10:03:54.000Z</time>
      </trkpt>
      <trkpt lat="47.11498" lon="-1.74035">
        <ele>54</ele>
        <time>2021-02-07T10:03:56.000Z</time>
      </trkpt>
      <trkpt lat="47.11504" lon="-1.74023">
        <ele>54</ele>
        <time>2021-02-07T10:03:58.000Z</time>
      </trkpt>
      <trkpt lat="47.11504" lon="-1.74009">
        <ele>54</ele>
        <time>2021-02-07T10:04:00.000Z</time>
      </trkpt>
      <trkpt lat="47.11498" lon="-1.74">
        <ele>53</ele>
        <time>2021-02-07T10:04:02.000Z</time>
      </trkpt>
      <trkpt lat="47.11489" lon="-1.73996">
        <ele>53</ele>
        <time>2021-02-07T10:04:04.000Z</time>
      </trkpt>
      <trkpt lat="47.11478" lon="-1.73993">
        <ele>52</ele>
        <time>2021-02-07T10:04:06.000Z</time>
      </trkpt>
      <trkpt lat="47.11468" lon="-1.73987">
        <ele>52</ele>
        <time>2021-02-07T10:04:08.000Z</time>
      </trkpt>
      <trkpt lat="47.11458" lon="-1.73979">
        <ele>52</ele>
        <time>2021-02-07T10:04:10.000Z</time>
      </trkpt>
      <trkpt lat="47.1145" lon="-1.73968">
        <ele>51</ele>
        <time>2021-02-07T10:04:12.000Z</time>
      </trkpt>
      <trkpt lat="47.11442" lon="-1.73957">
        <ele>51</ele>
        <time>2021-02-07T10:04:14.000Z</time>
      </trkpt>
      <trkpt lat="47.11436" lon="-1.73944">
        <ele>51</ele>
        <time>2021-02-07T10:04:16.000Z</time>
      </trkpt>
      <trkpt lat="47.11431" lon="-1.73931">
        <ele>52</ele>
        <time>2021-02-07T10:04:18.000Z</time>
      </trkpt>
      <trkpt lat="47.11426" lon="-1.73917">
        <ele>52</ele>
        <time>2021-02-07T10:04:20.000Z</time>
      </trkpt>
      <trkpt lat="47.11422" lon="-1.73904">
        <ele>53</ele>
        <time>2021-02-07T10:04:22.000Z</time>
      </trkpt>
      <trkpt lat="47.11418" lon="-1.73891">
        <ele>54</ele>
        <time>2021-02-07T10:04:24.000Z</time>
      </trkpt>
      <trkpt lat="47.11413" lon="-1.73877">
        <ele>54</ele>
        <time>2021-02-07T10:04:26.000Z</time>
      </trkpt>
      <trkpt lat="47.11409" lon="-1.73863">
        <ele>55</ele>
        <time>2021-02-07T10:04:28.000Z</time>
      </trkpt>
      <trkpt lat="47.11404" lon="-1.73849">
        <ele>55</ele>
        <time>2021-02-07T10:04:30.000Z</time>
      </trkpt>
      <trkpt lat="47.114" lon="-1.73834">
        <ele>55</ele>
        <time>2021-02-07T10:04:32.000Z</time>
      </trkpt>
      <trkpt lat="47.11396" lon="-1.7382">
        <ele>55</ele>
        <time>2021-02-07T10:04:34.000Z</time>
      </trkpt>
      <trkpt lat="47.11391" lon="-1.73806">
        <ele>54</ele>
        <time>2021-02-07T10:04:36.000Z</time>
      </trkpt>
      <trkpt lat="47.11387" lon="-1.73792">
        <ele>54</ele>
        <time>2021-02-07T10:04:38.000Z</time>
      </trkpt>
      <trkpt lat="47.11383" lon="-1.73778">
        <ele>54</ele>
        <time>2021-02-07T10:04:40.000Z</time>
      </trkpt>
      <trkpt lat="47.11378" lon="-1.73763">
        <ele>54</ele>
        <time>2021-02-07T10:04:42.000Z</time>
      </trkpt>
      <trkpt lat="47.11373" lon="-1.73749">
        <ele>54</ele>
        <time>2021-02-07T10:04:44.000Z</time>
      </trkpt>
      <trkpt lat="47.11368" lon="-1.73736">
        <ele>55</ele>
        <time>2021-02-07T10:04:46.000Z</time>
      </trkpt>
      <trkpt lat="47.11362" lon="-1.73722">
        <ele>54</ele>
        <time>2021-02-07T10:04:48.000Z</time>
      </trkpt>
      <trkpt lat="47.11356" lon="-1.73711">
        <ele>54</ele>
        <time>2021-02-07T10:04:50.000Z</time>
      </trkpt>
      <trkpt lat="47.1135" lon="-1.73699">
        <ele>54</ele>
        <time>2021-02-07T10:04:52.000Z</time>
      </trkpt>
      <trkpt lat="47.11343" lon="-1.73687">
        <ele>54</ele>
        <time>2021-02-07T10:04:54.000Z</time>
      </trkpt>
      <trkpt lat="47.11337" lon="-1.73675">
        <ele>54</ele>
        <time>2021-02-07T10:04:56.000Z</time>
      </trkpt>
      <trkpt lat="47.11331" lon="-1.73662">
        <ele>54</ele>
        <time>2021-02-07T10:04:58.000Z</time>
      </trkpt>
      <trkpt lat="47.11325" lon="-1.7365">
        <ele>54</ele>
        <time>2021-02-07T10:05:00.000Z</time>
      </trkpt>
      <trkpt lat="47.11318" lon="-1.73637">
        <ele>55</ele>
        <time>2021-02-07T10:05:02.000Z</time>
      </trkpt>
      <trkpt lat="47.11312" lon="-1.73626">
        <ele>56</ele>
        <time>2021-02-07T10:05:04.000Z</time>
      </trkpt>
      <trkpt lat="47.11305" lon="-1.73613">
        <ele>56</ele>
        <time>2021-02-07T10:05:06.000Z</time>
      </trkpt>
      <trkpt lat="47.11299" lon="-1.73599">
        <ele>57</ele>
        <time>2021-02-07T10:05:08.000Z</time>
      </trkpt>
      <trkpt lat="47.11293" lon="-1.73587">
        <ele>57</ele>
        <time>2021-02-07T10:05:10.000Z</time>
      </trkpt>
      <trkpt lat="47.11287" lon="-1.73574">
        <ele>57</ele>
        <time>2021-02-07T10:05:12.000Z</time>
      </trkpt>
      <trkpt lat="47.1128" lon="-1.73565">
        <ele>57</ele>
        <time>2021-02-07T10:05:14.000Z</time>
      </trkpt>
      <trkpt lat="47.1127" lon="-1.73551">
        <ele>56</ele>
        <time>2021-02-07T10:05:17.000Z</time>
      </trkpt>
      <trkpt lat="47.11268" lon="-1.73536">
        <ele>57</ele>
        <time>2021-02-07T10:05:19.000Z</time>
      </trkpt>
      <trkpt lat="47.11267" lon="-1.7352">
        <ele>57</ele>
        <time>2021-02-07T10:05:21.000Z</time>
      </trkpt>
      <trkpt lat="47.11265" lon="-1.73505">
        <ele>57</ele>
        <time>2021-02-07T10:05:23.000Z</time>
      </trkpt>
      <trkpt lat="47.11266" lon="-1.73489">
        <ele>58</ele>
        <time>2021-02-07T10:05:25.000Z</time>
      </trkpt>
      <trkpt lat="47.11266" lon="-1.73473">
        <ele>58</ele>
        <time>2021-02-07T10:05:27.000Z</time>
      </trkpt>
      <trkpt lat="47.11264" lon="-1.73459">
        <ele>59</ele>
        <time>2021-02-07T10:05:29.000Z</time>
      </trkpt>
      <trkpt lat="47.11262" lon="-1.73445">
        <ele>59</ele>
        <time>2021-02-07T10:05:31.000Z</time>
      </trkpt>
      <trkpt lat="47.1126" lon="-1.7343">
        <ele>59</ele>
        <time>2021-02-07T10:05:33.000Z</time>
      </trkpt>
      <trkpt lat="47.11258" lon="-1.73415">
        <ele>59</ele>
        <time>2021-02-07T10:05:35.000Z</time>
      </trkpt>
      <trkpt lat="47.11258" lon="-1.73401">
        <ele>59</ele>
        <time>2021-02-07T10:05:37.000Z</time>
      </trkpt>
      <trkpt lat="47.11256" lon="-1.73386">
        <ele>60</ele>
        <time>2021-02-07T10:05:39.000Z</time>
      </trkpt>
      <trkpt lat="47.11256" lon="-1.73371">
        <ele>60</ele>
        <time>2021-02-07T10:05:41.000Z</time>
      </trkpt>
      <trkpt lat="47.11255" lon="-1.73356">
        <ele>60</ele>
        <time>2021-02-07T10:05:43.000Z</time>
      </trkpt>
      <trkpt lat="47.11254" lon="-1.73342">
        <ele>60</ele>
        <time>2021-02-07T10:05:45.000Z</time>
      </trkpt>
      <trkpt lat="47.11253" lon="-1.73327">
        <ele>60</ele>
        <time>2021-02-07T10:05:47.000Z</time>
      </trkpt>
      <trkpt lat="47.11252" lon="-1.73312">
        <ele>61</ele>
        <time>2021-02-07T10:05:49.000Z</time>
      </trkpt>
      <trkpt lat="47.1125" lon="-1.73297">
        <ele>61</ele>
        <time>2021-02-07T10:05:51.000Z</time>
      </trkpt>
      <trkpt lat="47.11248" lon="-1.73283">
        <ele>60</ele>
        <time>2021-02-07T10:05:53.000Z</time>
      </trkpt>
      <trkpt lat="47.11246" lon="-1.73268">
        <ele>60</ele>
        <time>2021-02-07T10:05:55.000Z</time>
      </trkpt>
      <trkpt lat="47.11243" lon="-1.73254">
        <ele>60</ele>
        <time>2021-02-07T10:05:57.000Z</time>
      </trkpt>
      <trkpt lat="47.11239" lon="-1.73239">
        <ele>60</ele>
        <time>2021-02-07T10:05:59.000Z</time>
      </trkpt>
      <trkpt lat="47.11236" lon="-1.73225">
        <ele>60</ele>
        <time>2021-02-07T10:06:01.000Z</time>
      </trkpt>
      <trkpt lat="47.11233" lon="-1.7321">
        <ele>60</ele>
        <time>2021-02-07T10:06:03.000Z</time>
      </trkpt>
      <trkpt lat="47.1123" lon="-1.73195">
        <ele>61</ele>
        <time>2021-02-07T10:06:05.000Z</time>
      </trkpt>
      <trkpt lat="47.11227" lon="-1.73181">
        <ele>60</ele>
        <time>2021-02-07T10:06:07.000Z</time>
      </trkpt>
      <trkpt lat="47.11223" lon="-1.73168">
        <ele>60</ele>
        <time>2021-02-07T10:06:09.000Z</time>
      </trkpt>
      <trkpt lat="47.1122" lon="-1.73154">
        <ele>60</ele>
        <time>2021-02-07T10:06:11.000Z</time>
      </trkpt>
      <trkpt lat="47.11216" lon="-1.7314">
        <ele>61</ele>
        <time>2021-02-07T10:06:13.000Z</time>
      </trkpt>
      <trkpt lat="47.11213" lon="-1.73125">
        <ele>61</ele>
        <time>2021-02-07T10:06:15.000Z</time>
      </trkpt>
      <trkpt lat="47.1121" lon="-1.73111">
        <ele>61</ele>
        <time>2021-02-07T10:06:17.000Z</time>
      </trkpt>
      <trkpt lat="47.11206" lon="-1.73097">
        <ele>61</ele>
        <time>2021-02-07T10:06:19.000Z</time>
      </trkpt>
      <trkpt lat="47.11203" lon="-1.73082">
        <ele>61</ele>
        <time>2021-02-07T10:06:21.000Z</time>
      </trkpt>
      <trkpt lat="47.112" lon="-1.73068">
        <ele>61</ele>
        <time>2021-02-07T10:06:23.000Z</time>
      </trkpt>
      <trkpt lat="47.11197" lon="-1.73053">
        <ele>62</ele>
        <time>2021-02-07T10:06:25.000Z</time>
      </trkpt>
      <trkpt lat="47.11193" lon="-1.73039">
        <ele>62</ele>
        <time>2021-02-07T10:06:27.000Z</time>
      </trkpt>
      <trkpt lat="47.1119" lon="-1.73024">
        <ele>62</ele>
        <time>2021-02-07T10:06:29.000Z</time>
      </trkpt>
      <trkpt lat="47.11186" lon="-1.73009">
        <ele>62</ele>
        <time>2021-02-07T10:06:31.000Z</time>
      </trkpt>
      <trkpt lat="47.11182" lon="-1.72993">
        <ele>62</ele>
        <time>2021-02-07T10:06:33.000Z</time>
      </trkpt>
      <trkpt lat="47.11179" lon="-1.72978">
        <ele>63</ele>
        <time>2021-02-07T10:06:35.000Z</time>
      </trkpt>
      <trkpt lat="47.11175" lon="-1.72962">
        <ele>62</ele>
        <time>2021-02-07T10:06:37.000Z</time>
      </trkpt>
      <trkpt lat="47.11172" lon="-1.72946">
        <ele>62</ele>
        <time>2021-02-07T10:06:39.000Z</time>
      </trkpt>
      <trkpt lat="47.11168" lon="-1.7293">
        <ele>61</ele>
        <time>2021-02-07T10:06:41.000Z</time>
      </trkpt>
      <trkpt lat="47.11164" lon="-1.72914">
        <ele>61</ele>
        <time>2021-02-07T10:06:43.000Z</time>
      </trkpt>
      <trkpt lat="47.1116" lon="-1.72897">
        <ele>61</ele>
        <time>2021-02-07T10:06:45.000Z</time>
      </trkpt>
      <trkpt lat="47.11156" lon="-1.7288">
        <ele>61</ele>
        <time>2021-02-07T10:06:47.000Z</time>
      </trkpt>
      <trkpt lat="47.11152" lon="-1.72863">
        <ele>61</ele>
        <time>2021-02-07T10:06:49.000Z</time>
      </trkpt>
      <trkpt lat="47.11147" lon="-1.72846">
        <ele>61</ele>
        <time>2021-02-07T10:06:51.000Z</time>
      </trkpt>
      <trkpt lat="47.11143" lon="-1.72829">
        <ele>61</ele>
        <time>2021-02-07T10:06:53.000Z</time>
      </trkpt>
      <trkpt lat="47.11139" lon="-1.72812">
        <ele>61</ele>
        <time>2021-02-07T10:06:55.000Z</time>
      </trkpt>
      <trkpt lat="47.11135" lon="-1.72794">
        <ele>61</ele>
        <time>2021-02-07T10:06:57.000Z</time>
      </trkpt>
      <trkpt lat="47.11131" lon="-1.72777">
        <ele>61</ele>
        <time>2021-02-07T10:06:59.000Z</time>
      </trkpt>
      <trkpt lat="47.11126" lon="-1.72758">
        <ele>61</ele>
        <time>2021-02-07T10:07:01.000Z</time>
      </trkpt>
      <trkpt lat="47.11122" lon="-1.7274">
        <ele>61</ele>
        <time>2021-02-07T10:07:03.000Z</time>
      </trkpt>
      <trkpt lat="47.11118" lon="-1.72722">
        <ele>61</ele>
        <time>2021-02-07T10:07:05.000Z</time>
      </trkpt>
      <trkpt lat="47.11114" lon="-1.72704">
        <ele>61</ele>
        <time>2021-02-07T10:07:07.000Z</time>
      </trkpt>
      <trkpt lat="47.1111" lon="-1.72686">
        <ele>61</ele>
        <time>2021-02-07T10:07:09.000Z</time>
      </trkpt>
      <trkpt lat="47.11106" lon="-1.72668">
        <ele>61</ele>
        <time>2021-02-07T10:07:11.000Z</time>
      </trkpt>
      <trkpt lat="47.11102" lon="-1.7265">
        <ele>61</ele>
        <time>2021-02-07T10:07:13.000Z</time>
      </trkpt>
      <trkpt lat="47.11097" lon="-1.72632">
        <ele>61</ele>
        <time>2021-02-07T10:07:15.000Z</time>
      </trkpt>
      <trkpt lat="47.11093" lon="-1.72615">
        <ele>61</ele>
        <time>2021-02-07T10:07:17.000Z</time>
      </trkpt>
      <trkpt lat="47.11089" lon="-1.72597">
        <ele>62</ele>
        <time>2021-02-07T10:07:19.000Z</time>
      </trkpt>
      <trkpt lat="47.11085" lon="-1.7258">
        <ele>62</ele>
        <time>2021-02-07T10:07:21.000Z</time>
      </trkpt>
      <trkpt lat="47.11081" lon="-1.72563">
        <ele>63</ele>
        <time>2021-02-07T10:07:23.000Z</time>
      </trkpt>
      <trkpt lat="47.11079" lon="-1.72546">
        <ele>63</ele>
        <time>2021-02-07T10:07:25.000Z</time>
      </trkpt>
      <trkpt lat="47.1108" lon="-1.72526">
        <ele>63</ele>
        <time>2021-02-07T10:07:27.000Z</time>
      </trkpt>
      <trkpt lat="47.11082" lon="-1.72506">
        <ele>63</ele>
        <time>2021-02-07T10:07:29.000Z</time>
      </trkpt>
      <trkpt lat="47.11086" lon="-1.72487">
        <ele>63</ele>
        <time>2021-02-07T10:07:31.000Z</time>
      </trkpt>
      <trkpt lat="47.1109" lon="-1.72468">
        <ele>63</ele>
        <time>2021-02-07T10:07:33.000Z</time>
      </trkpt>
      <trkpt lat="47.11094" lon="-1.7245">
        <ele>62</ele>
        <time>2021-02-07T10:07:35.000Z</time>
      </trkpt>
      <trkpt lat="47.11099" lon="-1.72432">
        <ele>62</ele>
        <time>2021-02-07T10:07:37.000Z</time>
      </trkpt>
      <trkpt lat="47.11103" lon="-1.72413">
        <ele>62</ele>
        <time>2021-02-07T10:07:39.000Z</time>
      </trkpt>
      <trkpt lat="47.11108" lon="-1.72394">
        <ele>62</ele>
        <time>2021-02-07T10:07:41.000Z</time>
      </trkpt>
      <trkpt lat="47.11112" lon="-1.72375">
        <ele>61</ele>
        <time>2021-02-07T10:07:43.000Z</time>
      </trkpt>
      <trkpt lat="47.11116" lon="-1.72356">
        <ele>61</ele>
        <time>2021-02-07T10:07:45.000Z</time>
      </trkpt>
      <trkpt lat="47.11121" lon="-1.72337">
        <ele>61</ele>
        <time>2021-02-07T10:07:47.000Z</time>
      </trkpt>
      <trkpt lat="47.11126" lon="-1.72318">
        <ele>61</ele>
        <time>2021-02-07T10:07:49.000Z</time>
      </trkpt>
      <trkpt lat="47.11131" lon="-1.723">
        <ele>61</ele>
        <time>2021-02-07T10:07:51.000Z</time>
      </trkpt>
      <trkpt lat="47.11135" lon="-1.72282">
        <ele>61</ele>
        <time>2021-02-07T10:07:53.000Z</time>
      </trkpt>
      <trkpt lat="47.1114" lon="-1.72263">
        <ele>61</ele>
        <time>2021-02-07T10:07:55.000Z</time>
      </trkpt>
      <trkpt lat="47.11143" lon="-1.72245">
        <ele>61</ele>
        <time>2021-02-07T10:07:57.000Z</time>
      </trkpt>
      <trkpt lat="47.11148" lon="-1.72227">
        <ele>61</ele>
        <time>2021-02-07T10:07:59.000Z</time>
      </trkpt>
      <trkpt lat="47.11151" lon="-1.72209">
        <ele>61</ele>
        <time>2021-02-07T10:08:01.000Z</time>
      </trkpt>
      <trkpt lat="47.11156" lon="-1.72192">
        <ele>61</ele>
        <time>2021-02-07T10:08:03.000Z</time>
      </trkpt>
      <trkpt lat="47.1116" lon="-1.72174">
        <ele>61</ele>
        <time>2021-02-07T10:08:05.000Z</time>
      </trkpt>
      <trkpt lat="47.11164" lon="-1.72155">
        <ele>60</ele>
        <time>2021-02-07T10:08:07.000Z</time>
      </trkpt>
      <trkpt lat="47.11169" lon="-1.72136">
        <ele>60</ele>
        <time>2021-02-07T10:08:09.000Z</time>
      </trkpt>
      <trkpt lat="47.11174" lon="-1.72117">
        <ele>61</ele>
        <time>2021-02-07T10:08:11.000Z</time>
      </trkpt>
      <trkpt lat="47.11178" lon="-1.72099">
        <ele>60</ele>
        <time>2021-02-07T10:08:13.000Z</time>
      </trkpt>
      <trkpt lat="47.11183" lon="-1.72081">
        <ele>61</ele>
        <time>2021-02-07T10:08:15.000Z</time>
      </trkpt>
      <trkpt lat="47.11187" lon="-1.72063">
        <ele>61</ele>
        <time>2021-02-07T10:08:17.000Z</time>
      </trkpt>
      <trkpt lat="47.11192" lon="-1.72045">
        <ele>61</ele>
        <time>2021-02-07T10:08:19.000Z</time>
      </trkpt>
      <trkpt lat="47.11196" lon="-1.72027">
        <ele>61</ele>
        <time>2021-02-07T10:08:21.000Z</time>
      </trkpt>
      <trkpt lat="47.11201" lon="-1.72009">
        <ele>61</ele>
        <time>2021-02-07T10:08:23.000Z</time>
      </trkpt>
      <trkpt lat="47.11205" lon="-1.71991">
        <ele>61</ele>
        <time>2021-02-07T10:08:25.000Z</time>
      </trkpt>
      <trkpt lat="47.11209" lon="-1.71972">
        <ele>60</ele>
        <time>2021-02-07T10:08:27.000Z</time>
      </trkpt>
      <trkpt lat="47.11213" lon="-1.71954">
        <ele>60</ele>
        <time>2021-02-07T10:08:29.000Z</time>
      </trkpt>
      <trkpt lat="47.11218" lon="-1.71936">
        <ele>59</ele>
        <time>2021-02-07T10:08:31.000Z</time>
      </trkpt>
      <trkpt lat="47.11223" lon="-1.71918">
        <ele>59</ele>
        <time>2021-02-07T10:08:33.000Z</time>
      </trkpt>
      <trkpt lat="47.11227" lon="-1.719">
        <ele>58</ele>
        <time>2021-02-07T10:08:35.000Z</time>
      </trkpt>
      <trkpt lat="47.11232" lon="-1.7188">
        <ele>57</ele>
        <time>2021-02-07T10:08:37.000Z</time>
      </trkpt>
      <trkpt lat="47.11237" lon="-1.7186">
        <ele>57</ele>
        <time>2021-02-07T10:08:39.000Z</time>
      </trkpt>
      <trkpt lat="47.11243" lon="-1.71841">
        <ele>56</ele>
        <time>2021-02-07T10:08:41.000Z</time>
      </trkpt>
      <trkpt lat="47.1125" lon="-1.71822">
        <ele>56</ele>
        <time>2021-02-07T10:08:43.000Z</time>
      </trkpt>
      <trkpt lat="47.11257" lon="-1.71803">
        <ele>55</ele>
        <time>2021-02-07T10:08:45.000Z</time>
      </trkpt>
      <trkpt lat="47.11266" lon="-1.71784">
        <ele>55</ele>
        <time>2021-02-07T10:08:47.000Z</time>
      </trkpt>
      <trkpt lat="47.11275" lon="-1.71766">
        <ele>55</ele>
        <time>2021-02-07T10:08:49.000Z</time>
      </trkpt>
      <trkpt lat="47.11283" lon="-1.71748">
        <ele>55</ele>
        <time>2021-02-07T10:08:51.000Z</time>
      </trkpt>
      <trkpt lat="47.11292" lon="-1.71731">
        <ele>55</ele>
        <time>2021-02-07T10:08:53.000Z</time>
      </trkpt>
      <trkpt lat="47.113" lon="-1.71714">
        <ele>55</ele>
        <time>2021-02-07T10:08:55.000Z</time>
      </trkpt>
      <trkpt lat="47.11308" lon="-1.71697">
        <ele>55</ele>
        <time>2021-02-07T10:08:57.000Z</time>
      </trkpt>
      <trkpt lat="47.11317" lon="-1.71681">
        <ele>55</ele>
        <time>2021-02-07T10:08:59.000Z</time>
      </trkpt>
      <trkpt lat="47.11325" lon="-1.71664">
        <ele>55</ele>
        <time>2021-02-07T10:09:01.000Z</time>
      </trkpt>
      <trkpt lat="47.11333" lon="-1.71648">
        <ele>55</ele>
        <time>2021-02-07T10:09:03.000Z</time>
      </trkpt>
      <trkpt lat="47.11341" lon="-1.71633">
        <ele>56</ele>
        <time>2021-02-07T10:09:05.000Z</time>
      </trkpt>
      <trkpt lat="47.11348" lon="-1.71618">
        <ele>56</ele>
        <time>2021-02-07T10:09:07.000Z</time>
      </trkpt>
      <trkpt lat="47.11356" lon="-1.71603">
        <ele>56</ele>
        <time>2021-02-07T10:09:09.000Z</time>
      </trkpt>
      <trkpt lat="47.11364" lon="-1.71589">
        <ele>56</ele>
        <time>2021-02-07T10:09:11.000Z</time>
      </trkpt>
      <trkpt lat="47.11371" lon="-1.71575">
        <ele>56</ele>
        <time>2021-02-07T10:09:13.000Z</time>
      </trkpt>
      <trkpt lat="47.11378" lon="-1.7156">
        <ele>56</ele>
        <time>2021-02-07T10:09:15.000Z</time>
      </trkpt>
      <trkpt lat="47.11385" lon="-1.71546">
        <ele>56</ele>
        <time>2021-02-07T10:09:17.000Z</time>
      </trkpt>
      <trkpt lat="47.11392" lon="-1.71531">
        <ele>56</ele>
        <time>2021-02-07T10:09:19.000Z</time>
      </trkpt>
      <trkpt lat="47.114" lon="-1.71516">
        <ele>56</ele>
        <time>2021-02-07T10:09:21.000Z</time>
      </trkpt>
      <trkpt lat="47.11407" lon="-1.71502">
        <ele>56</ele>
        <time>2021-02-07T10:09:23.000Z</time>
      </trkpt>
      <trkpt lat="47.11415" lon="-1.71487">
        <ele>56</ele>
        <time>2021-02-07T10:09:25.000Z</time>
      </trkpt>
      <trkpt lat="47.11423" lon="-1.71472">
        <ele>56</ele>
        <time>2021-02-07T10:09:27.000Z</time>
      </trkpt>
      <trkpt lat="47.1143" lon="-1.71458">
        <ele>56</ele>
        <time>2021-02-07T10:09:29.000Z</time>
      </trkpt>
      <trkpt lat="47.11437" lon="-1.71444">
        <ele>56</ele>
        <time>2021-02-07T10:09:31.000Z</time>
      </trkpt>
      <trkpt lat="47.11445" lon="-1.7143">
        <ele>56</ele>
        <time>2021-02-07T10:09:33.000Z</time>
      </trkpt>
      <trkpt lat="47.11452" lon="-1.71416">
        <ele>56</ele>
        <time>2021-02-07T10:09:35.000Z</time>
      </trkpt>
      <trkpt lat="47.1146" lon="-1.71402">
        <ele>56</ele>
        <time>2021-02-07T10:09:37.000Z</time>
      </trkpt>
      <trkpt lat="47.11467" lon="-1.71389">
        <ele>56</ele>
        <time>2021-02-07T10:09:39.000Z</time>
      </trkpt>
      <trkpt lat="47.11474" lon="-1.71376">
        <ele>56</ele>
        <time>2021-02-07T10:09:41.000Z</time>
      </trkpt>
      <trkpt lat="47.11481" lon="-1.71362">
        <ele>55</ele>
        <time>2021-02-07T10:09:43.000Z</time>
      </trkpt>
      <trkpt lat="47.11488" lon="-1.71348">
        <ele>55</ele>
        <time>2021-02-07T10:09:45.000Z</time>
      </trkpt>
      <trkpt lat="47.11495" lon="-1.71335">
        <ele>55</ele>
        <time>2021-02-07T10:09:47.000Z</time>
      </trkpt>
      <trkpt lat="47.11502" lon="-1.71322">
        <ele>55</ele>
        <time>2021-02-07T10:09:49.000Z</time>
      </trkpt>
      <trkpt lat="47.11509" lon="-1.71309">
        <ele>54</ele>
        <time>2021-02-07T10:09:51.000Z</time>
      </trkpt>
      <trkpt lat="47.11516" lon="-1.71295">
        <ele>54</ele>
        <time>2021-02-07T10:09:53.000Z</time>
      </trkpt>
      <trkpt lat="47.11523" lon="-1.71282">
        <ele>54</ele>
        <time>2021-02-07T10:09:55.000Z</time>
      </trkpt>
      <trkpt lat="47.11529" lon="-1.71268">
        <ele>55</ele>
        <time>2021-02-07T10:09:57.000Z</time>
      </trkpt>
      <trkpt lat="47.11536" lon="-1.71254">
        <ele>55</ele>
        <time>2021-02-07T10:09:59.000Z</time>
      </trkpt>
      <trkpt lat="47.11543" lon="-1.71241">
        <ele>55</ele>
        <time>2021-02-07T10:10:01.000Z</time>
      </trkpt>
      <trkpt lat="47.1155" lon="-1.71229">
        <ele>56</ele>
        <time>2021-02-07T10:10:03.000Z</time>
      </trkpt>
      <trkpt lat="47.11558" lon="-1.71217">
        <ele>56</ele>
        <time>2021-02-07T10:10:05.000Z</time>
      </trkpt>
      <trkpt lat="47.11567" lon="-1.71205">
        <ele>57</ele>
        <time>2021-02-07T10:10:07.000Z</time>
      </trkpt>
      <trkpt lat="47.11575" lon="-1.71193">
        <ele>57</ele>
        <time>2021-02-07T10:10:09.000Z</time>
      </trkpt>
      <trkpt lat="47.11583" lon="-1.71182">
        <ele>57</ele>
        <time>2021-02-07T10:10:11.000Z</time>
      </trkpt>
      <trkpt lat="47.11592" lon="-1.71172">
        <ele>57</ele>
        <time>2021-02-07T10:10:13.000Z</time>
      </trkpt>
      <trkpt lat="47.11601" lon="-1.71161">
        <ele>58</ele>
        <time>2021-02-07T10:10:15.000Z</time>
      </trkpt>
      <trkpt lat="47.11611" lon="-1.7115">
        <ele>58</ele>
        <time>2021-02-07T10:10:17.000Z</time>
      </trkpt>
      <trkpt lat="47.11621" lon="-1.71141">
        <ele>59</ele>
        <time>2021-02-07T10:10:19.000Z</time>
      </trkpt>
      <trkpt lat="47.1163" lon="-1.71131">
        <ele>59</ele>
        <time>2021-02-07T10:10:21.000Z</time>
      </trkpt>
      <trkpt lat="47.11639" lon="-1.71122">
        <ele>59</ele>
        <time>2021-02-07T10:10:23.000Z</time>
      </trkpt>
      <trkpt lat="47.11649" lon="-1.71114">
        <ele>59</ele>
        <time>2021-02-07T10:10:25.000Z</time>
      </trkpt>
      <trkpt lat="47.1166" lon="-1.71107">
        <ele>58</ele>
        <time>2021-02-07T10:10:27.000Z</time>
      </trkpt>
      <trkpt lat="47.11671" lon="-1.711">
        <ele>58</ele>
        <time>2021-02-07T10:10:29.000Z</time>
      </trkpt>
      <trkpt lat="47.11681" lon="-1.71093">
        <ele>58</ele>
        <time>2021-02-07T10:10:31.000Z</time>
      </trkpt>
      <trkpt lat="47.11691" lon="-1.71086">
        <ele>58</ele>
        <time>2021-02-07T10:10:33.000Z</time>
      </trkpt>
      <trkpt lat="47.11702" lon="-1.71078">
        <ele>58</ele>
        <time>2021-02-07T10:10:35.000Z</time>
      </trkpt>
      <trkpt lat="47.11712" lon="-1.71072">
        <ele>57</ele>
        <time>2021-02-07T10:10:37.000Z</time>
      </trkpt>
      <trkpt lat="47.11724" lon="-1.71065">
        <ele>57</ele>
        <time>2021-02-07T10:10:39.000Z</time>
      </trkpt>
      <trkpt lat="47.11735" lon="-1.71059">
        <ele>57</ele>
        <time>2021-02-07T10:10:41.000Z</time>
      </trkpt>
      <trkpt lat="47.11746" lon="-1.71051">
        <ele>57</ele>
        <time>2021-02-07T10:10:43.000Z</time>
      </trkpt>
      <trkpt lat="47.11757" lon="-1.71042">
        <ele>58</ele>
        <time>2021-02-07T10:10:45.000Z</time>
      </trkpt>
      <trkpt lat="47.11768" lon="-1.71035">
        <ele>57</ele>
        <time>2021-02-07T10:10:47.000Z</time>
      </trkpt>
      <trkpt lat="47.11779" lon="-1.71028">
        <ele>57</ele>
        <time>2021-02-07T10:10:49.000Z</time>
      </trkpt>
      <trkpt lat="47.11791" lon="-1.7102">
        <ele>56</ele>
        <time>2021-02-07T10:10:51.000Z</time>
      </trkpt>
      <trkpt lat="47.11802" lon="-1.71014">
        <ele>56</ele>
        <time>2021-02-07T10:10:53.000Z</time>
      </trkpt>
      <trkpt lat="47.11813" lon="-1.71005">
        <ele>56</ele>
        <time>2021-02-07T10:10:55.000Z</time>
      </trkpt>
      <trkpt lat="47.11824" lon="-1.70998">
        <ele>56</ele>
        <time>2021-02-07T10:10:57.000Z</time>
      </trkpt>
      <trkpt lat="47.11835" lon="-1.70991">
        <ele>56</ele>
        <time>2021-02-07T10:10:59.000Z</time>
      </trkpt>
      <trkpt lat="47.11847" lon="-1.70984">
        <ele>56</ele>
        <time>2021-02-07T10:11:01.000Z</time>
      </trkpt>
      <trkpt lat="47.11858" lon="-1.70977">
        <ele>56</ele>
        <time>2021-02-07T10:11:03.000Z</time>
      </trkpt>
      <trkpt lat="47.11868" lon="-1.7097">
        <ele>56</ele>
        <time>2021-02-07T10:11:05.000Z</time>
      </trkpt>
      <trkpt lat="47.11879" lon="-1.70962">
        <ele>55</ele>
        <time>2021-02-07T10:11:07.000Z</time>
      </trkpt>
      <trkpt lat="47.1189" lon="-1.70956">
        <ele>55</ele>
        <time>2021-02-07T10:11:09.000Z</time>
      </trkpt>
      <trkpt lat="47.119" lon="-1.70949">
        <ele>55</ele>
        <time>2021-02-07T10:11:11.000Z</time>
      </trkpt>
      <trkpt lat="47.11911" lon="-1.70941">
        <ele>55</ele>
        <time>2021-02-07T10:11:13.000Z</time>
      </trkpt>
      <trkpt lat="47.11921" lon="-1.70936">
        <ele>56</ele>
        <time>2021-02-07T10:11:15.000Z</time>
      </trkpt>
      <trkpt lat="47.1193" lon="-1.7093">
        <ele>56</ele>
        <time>2021-02-07T10:11:17.000Z</time>
      </trkpt>
      <trkpt lat="47.11939" lon="-1.70924">
        <ele>56</ele>
        <time>2021-02-07T10:11:19.000Z</time>
      </trkpt>
      <trkpt lat="47.11947" lon="-1.70918">
        <ele>56</ele>
        <time>2021-02-07T10:11:21.000Z</time>
      </trkpt>
      <trkpt lat="47.11956" lon="-1.70913">
        <ele>57</ele>
        <time>2021-02-07T10:11:23.000Z</time>
      </trkpt>
      <trkpt lat="47.11965" lon="-1.70907">
        <ele>57</ele>
        <time>2021-02-07T10:11:25.000Z</time>
      </trkpt>
      <trkpt lat="47.11974" lon="-1.70902">
        <ele>58</ele>
        <time>2021-02-07T10:11:27.000Z</time>
      </trkpt>
      <trkpt lat="47.11983" lon="-1.70896">
        <ele>58</ele>
        <time>2021-02-07T10:11:29.000Z</time>
      </trkpt>
      <trkpt lat="47.11992" lon="-1.70891">
        <ele>58</ele>
        <time>2021-02-07T10:11:31.000Z</time>
      </trkpt>
      <trkpt lat="47.12001" lon="-1.70886">
        <ele>58</ele>
        <time>2021-02-07T10:11:33.000Z</time>
      </trkpt>
      <trkpt lat="47.1201" lon="-1.7088">
        <ele>58</ele>
        <time>2021-02-07T10:11:35.000Z</time>
      </trkpt>
      <trkpt lat="47.1202" lon="-1.70874">
        <ele>58</ele>
        <time>2021-02-07T10:11:37.000Z</time>
      </trkpt>
      <trkpt lat="47.12029" lon="-1.70868">
        <ele>59</ele>
        <time>2021-02-07T10:11:39.000Z</time>
      </trkpt>
      <trkpt lat="47.12039" lon="-1.70862">
        <ele>59</ele>
        <time>2021-02-07T10:11:41.000Z</time>
      </trkpt>
      <trkpt lat="47.12048" lon="-1.70856">
        <ele>58</ele>
        <time>2021-02-07T10:11:43.000Z</time>
      </trkpt>
      <trkpt lat="47.12058" lon="-1.7085">
        <ele>59</ele>
        <time>2021-02-07T10:11:45.000Z</time>
      </trkpt>
      <trkpt lat="47.12067" lon="-1.70843">
        <ele>59</ele>
        <time>2021-02-07T10:11:47.000Z</time>
      </trkpt>
      <trkpt lat="47.12076" lon="-1.70837">
        <ele>58</ele>
        <time>2021-02-07T10:11:49.000Z</time>
      </trkpt>
      <trkpt lat="47.12086" lon="-1.70831">
        <ele>58</ele>
        <time>2021-02-07T10:11:51.000Z</time>
      </trkpt>
      <trkpt lat="47.12095" lon="-1.70824">
        <ele>58</ele>
        <time>2021-02-07T10:11:53.000Z</time>
      </trkpt>
      <trkpt lat="47.12105" lon="-1.70817">
        <ele>58</ele>
        <time>2021-02-07T10:11:55.000Z</time>
      </trkpt>
      <trkpt lat="47.12116" lon="-1.7081">
        <ele>58</ele>
        <time>2021-02-07T10:11:57.000Z</time>
      </trkpt>
      <trkpt lat="47.12125" lon="-1.70804">
        <ele>58</ele>
        <time>2021-02-07T10:11:59.000Z</time>
      </trkpt>
      <trkpt lat="47.12136" lon="-1.70797">
        <ele>57</ele>
        <time>2021-02-07T10:12:01.000Z</time>
      </trkpt>
      <trkpt lat="47.12146" lon="-1.7079">
        <ele>57</ele>
        <time>2021-02-07T10:12:03.000Z</time>
      </trkpt>
      <trkpt lat="47.12156" lon="-1.70784">
        <ele>57</ele>
        <time>2021-02-07T10:12:05.000Z</time>
      </trkpt>
      <trkpt lat="47.12166" lon="-1.70776">
        <ele>57</ele>
        <time>2021-02-07T10:12:07.000Z</time>
      </trkpt>
      <trkpt lat="47.12182" lon="-1.70766">
        <ele>57</ele>
        <time>2021-02-07T10:12:10.000Z</time>
      </trkpt>
      <trkpt lat="47.12192" lon="-1.70758">
        <ele>56</ele>
        <time>2021-02-07T10:12:12.000Z</time>
      </trkpt>
      <trkpt lat="47.12207" lon="-1.70745">
        <ele>57</ele>
        <time>2021-02-07T10:12:15.000Z</time>
      </trkpt>
      <trkpt lat="47.12217" lon="-1.70736">
        <ele>56</ele>
        <time>2021-02-07T10:12:17.000Z</time>
      </trkpt>
      <trkpt lat="47.12226" lon="-1.70727">
        <ele>57</ele>
        <time>2021-02-07T10:12:19.000Z</time>
      </trkpt>
      <trkpt lat="47.1224" lon="-1.70713">
        <ele>56</ele>
        <time>2021-02-07T10:12:22.000Z</time>
      </trkpt>
      <trkpt lat="47.12249" lon="-1.70702">
        <ele>56</ele>
        <time>2021-02-07T10:12:24.000Z</time>
      </trkpt>
      <trkpt lat="47.12262" lon="-1.70685">
        <ele>56</ele>
        <time>2021-02-07T10:12:27.000Z</time>
      </trkpt>
      <trkpt lat="47.1227" lon="-1.70673">
        <ele>56</ele>
        <time>2021-02-07T10:12:29.000Z</time>
      </trkpt>
      <trkpt lat="47.12279" lon="-1.70662">
        <ele>56</ele>
        <time>2021-02-07T10:12:31.000Z</time>
      </trkpt>
      <trkpt lat="47.12288" lon="-1.7065">
        <ele>55</ele>
        <time>2021-02-07T10:12:33.000Z</time>
      </trkpt>
      <trkpt lat="47.12296" lon="-1.70639">
        <ele>55</ele>
        <time>2021-02-07T10:12:35.000Z</time>
      </trkpt>
      <trkpt lat="47.12307" lon="-1.70621">
        <ele>55</ele>
        <time>2021-02-07T10:12:38.000Z</time>
      </trkpt>
      <trkpt lat="47.12315" lon="-1.70609">
        <ele>55</ele>
        <time>2021-02-07T10:12:40.000Z</time>
      </trkpt>
      <trkpt lat="47.12323" lon="-1.70597">
        <ele>54</ele>
        <time>2021-02-07T10:12:42.000Z</time>
      </trkpt>
      <trkpt lat="47.12331" lon="-1.70585">
        <ele>54</ele>
        <time>2021-02-07T10:12:44.000Z</time>
      </trkpt>
      <trkpt lat="47.12339" lon="-1.70573">
        <ele>54</ele>
        <time>2021-02-07T10:12:46.000Z</time>
      </trkpt>
      <trkpt lat="47.1235" lon="-1.70555">
        <ele>54</ele>
        <time>2021-02-07T10:12:49.000Z</time>
      </trkpt>
      <trkpt lat="47.12357" lon="-1.70541">
        <ele>54</ele>
        <time>2021-02-07T10:12:51.000Z</time>
      </trkpt>
      <trkpt lat="47.12364" lon="-1.70527">
        <ele>54</ele>
        <time>2021-02-07T10:12:53.000Z</time>
      </trkpt>
      <trkpt lat="47.12374" lon="-1.70505">
        <ele>54</ele>
        <time>2021-02-07T10:12:56.000Z</time>
      </trkpt>
      <trkpt lat="47.12379" lon="-1.7049">
        <ele>53</ele>
        <time>2021-02-07T10:12:58.000Z</time>
      </trkpt>
      <trkpt lat="47.12384" lon="-1.70475">
        <ele>53</ele>
        <time>2021-02-07T10:13:00.000Z</time>
      </trkpt>
      <trkpt lat="47.12389" lon="-1.70452">
        <ele>53</ele>
        <time>2021-02-07T10:13:03.000Z</time>
      </trkpt>
      <trkpt lat="47.12392" lon="-1.70436">
        <ele>54</ele>
        <time>2021-02-07T10:13:05.000Z</time>
      </trkpt>
      <trkpt lat="47.12396" lon="-1.70419">
        <ele>54</ele>
        <time>2021-02-07T10:13:07.000Z</time>
      </trkpt>
      <trkpt lat="47.12399" lon="-1.70402">
        <ele>55</ele>
        <time>2021-02-07T10:13:09.000Z</time>
      </trkpt>
      <trkpt lat="47.12401" lon="-1.70386">
        <ele>55</ele>
        <time>2021-02-07T10:13:11.000Z</time>
      </trkpt>
      <trkpt lat="47.12404" lon="-1.7037">
        <ele>55</ele>
        <time>2021-02-07T10:13:13.000Z</time>
      </trkpt>
      <trkpt lat="47.12408" lon="-1.70354">
        <ele>55</ele>
        <time>2021-02-07T10:13:15.000Z</time>
      </trkpt>
      <trkpt lat="47.12412" lon="-1.70339">
        <ele>55</ele>
        <time>2021-02-07T10:13:17.000Z</time>
      </trkpt>
      <trkpt lat="47.12419" lon="-1.70315">
        <ele>55</ele>
        <time>2021-02-07T10:13:20.000Z</time>
      </trkpt>
      <trkpt lat="47.12425" lon="-1.70301">
        <ele>54</ele>
        <time>2021-02-07T10:13:22.000Z</time>
      </trkpt>
      <trkpt lat="47.12431" lon="-1.70287">
        <ele>54</ele>
        <time>2021-02-07T10:13:24.000Z</time>
      </trkpt>
      <trkpt lat="47.12439" lon="-1.70275">
        <ele>54</ele>
        <time>2021-02-07T10:13:26.000Z</time>
      </trkpt>
      <trkpt lat="47.12449" lon="-1.70265">
        <ele>54</ele>
        <time>2021-02-07T10:13:28.000Z</time>
      </trkpt>
      <trkpt lat="47.12459" lon="-1.70257">
        <ele>54</ele>
        <time>2021-02-07T10:13:30.000Z</time>
      </trkpt>
      <trkpt lat="47.12469" lon="-1.70251">
        <ele>55</ele>
        <time>2021-02-07T10:13:32.000Z</time>
      </trkpt>
      <trkpt lat="47.1248" lon="-1.70244">
        <ele>55</ele>
        <time>2021-02-07T10:13:34.000Z</time>
      </trkpt>
      <trkpt lat="47.12492" lon="-1.70238">
        <ele>55</ele>
        <time>2021-02-07T10:13:36.000Z</time>
      </trkpt>
      <trkpt lat="47.12504" lon="-1.70233">
        <ele>55</ele>
        <time>2021-02-07T10:13:38.000Z</time>
      </trkpt>
      <trkpt lat="47.12515" lon="-1.70227">
        <ele>55</ele>
        <time>2021-02-07T10:13:40.000Z</time>
      </trkpt>
      <trkpt lat="47.12525" lon="-1.70222">
        <ele>56</ele>
        <time>2021-02-07T10:13:42.000Z</time>
      </trkpt>
      <trkpt lat="47.12536" lon="-1.70216">
        <ele>56</ele>
        <time>2021-02-07T10:13:44.000Z</time>
      </trkpt>
      <trkpt lat="47.12547" lon="-1.7021">
        <ele>56</ele>
        <time>2021-02-07T10:13:46.000Z</time>
      </trkpt>
      <trkpt lat="47.12558" lon="-1.70204">
        <ele>56</ele>
        <time>2021-02-07T10:13:48.000Z</time>
      </trkpt>
      <trkpt lat="47.12569" lon="-1.70199">
        <ele>56</ele>
        <time>2021-02-07T10:13:50.000Z</time>
      </trkpt>
      <trkpt lat="47.12581" lon="-1.70194">
        <ele>55</ele>
        <time>2021-02-07T10:13:52.000Z</time>
      </trkpt>
      <trkpt lat="47.12591" lon="-1.70189">
        <ele>55</ele>
        <time>2021-02-07T10:13:54.000Z</time>
      </trkpt>
      <trkpt lat="47.12602" lon="-1.70183">
        <ele>56</ele>
        <time>2021-02-07T10:13:56.000Z</time>
      </trkpt>
      <trkpt lat="47.12612" lon="-1.70178">
        <ele>56</ele>
        <time>2021-02-07T10:13:58.000Z</time>
      </trkpt>
      <trkpt lat="47.12623" lon="-1.70172">
        <ele>56</ele>
        <time>2021-02-07T10:14:00.000Z</time>
      </trkpt>
      <trkpt lat="47.12634" lon="-1.70166">
        <ele>56</ele>
        <time>2021-02-07T10:14:02.000Z</time>
      </trkpt>
      <trkpt lat="47.1265" lon="-1.70158">
        <ele>55</ele>
        <time>2021-02-07T10:14:05.000Z</time>
      </trkpt>
      <trkpt lat="47.12661" lon="-1.70154">
        <ele>56</ele>
        <time>2021-02-07T10:14:07.000Z</time>
      </trkpt>
      <trkpt lat="47.12671" lon="-1.70149">
        <ele>56</ele>
        <time>2021-02-07T10:14:09.000Z</time>
      </trkpt>
      <trkpt lat="47.12682" lon="-1.70144">
        <ele>56</ele>
        <time>2021-02-07T10:14:11.000Z</time>
      </trkpt>
      <trkpt lat="47.12692" lon="-1.70138">
        <ele>55</ele>
        <time>2021-02-07T10:14:13.000Z</time>
      </trkpt>
      <trkpt lat="47.12703" lon="-1.70132">
        <ele>55</ele>
        <time>2021-02-07T10:14:15.000Z</time>
      </trkpt>
      <trkpt lat="47.12713" lon="-1.70127">
        <ele>55</ele>
        <time>2021-02-07T10:14:17.000Z</time>
      </trkpt>
      <trkpt lat="47.12724" lon="-1.70121">
        <ele>56</ele>
        <time>2021-02-07T10:14:19.000Z</time>
      </trkpt>
      <trkpt lat="47.12741" lon="-1.70113">
        <ele>55</ele>
        <time>2021-02-07T10:14:22.000Z</time>
      </trkpt>
      <trkpt lat="47.12752" lon="-1.70107">
        <ele>55</ele>
        <time>2021-02-07T10:14:24.000Z</time>
      </trkpt>
      <trkpt lat="47.12763" lon="-1.70101">
        <ele>56</ele>
        <time>2021-02-07T10:14:26.000Z</time>
      </trkpt>
      <trkpt lat="47.12773" lon="-1.70095">
        <ele>56</ele>
        <time>2021-02-07T10:14:28.000Z</time>
      </trkpt>
      <trkpt lat="47.12783" lon="-1.70089">
        <ele>56</ele>
        <time>2021-02-07T10:14:30.000Z</time>
      </trkpt>
      <trkpt lat="47.12794" lon="-1.70085">
        <ele>55</ele>
        <time>2021-02-07T10:14:32.000Z</time>
      </trkpt>
      <trkpt lat="47.12804" lon="-1.70079">
        <ele>55</ele>
        <time>2021-02-07T10:14:34.000Z</time>
      </trkpt>
      <trkpt lat="47.12814" lon="-1.70073">
        <ele>55</ele>
        <time>2021-02-07T10:14:36.000Z</time>
      </trkpt>
      <trkpt lat="47.12829" lon="-1.70065">
        <ele>55</ele>
        <time>2021-02-07T10:14:39.000Z</time>
      </trkpt>
      <trkpt lat="47.12839" lon="-1.70059">
        <ele>55</ele>
        <time>2021-02-07T10:14:41.000Z</time>
      </trkpt>
      <trkpt lat="47.12849" lon="-1.70054">
        <ele>55</ele>
        <time>2021-02-07T10:14:43.000Z</time>
      </trkpt>
      <trkpt lat="47.12859" lon="-1.70048">
        <ele>55</ele>
        <time>2021-02-07T10:14:45.000Z</time>
      </trkpt>
      <trkpt lat="47.12869" lon="-1.70042">
        <ele>54</ele>
        <time>2021-02-07T10:14:47.000Z</time>
      </trkpt>
      <trkpt lat="47.12879" lon="-1.70036">
        <ele>55</ele>
        <time>2021-02-07T10:14:49.000Z</time>
      </trkpt>
      <trkpt lat="47.12889" lon="-1.7003">
        <ele>55</ele>
        <time>2021-02-07T10:14:51.000Z</time>
      </trkpt>
      <trkpt lat="47.12898" lon="-1.70025">
        <ele>55</ele>
        <time>2021-02-07T10:14:53.000Z</time>
      </trkpt>
      <trkpt lat="47.12913" lon="-1.70018">
        <ele>55</ele>
        <time>2021-02-07T10:14:56.000Z</time>
      </trkpt>
      <trkpt lat="47.12922" lon="-1.70012">
        <ele>56</ele>
        <time>2021-02-07T10:14:58.000Z</time>
      </trkpt>
      <trkpt lat="47.12933" lon="-1.70007">
        <ele>56</ele>
        <time>2021-02-07T10:15:00.000Z</time>
      </trkpt>
      <trkpt lat="47.12944" lon="-1.70003">
        <ele>55</ele>
        <time>2021-02-07T10:15:02.000Z</time>
      </trkpt>
      <trkpt lat="47.12954" lon="-1.69998">
        <ele>55</ele>
        <time>2021-02-07T10:15:04.000Z</time>
      </trkpt>
      <trkpt lat="47.12964" lon="-1.69993">
        <ele>55</ele>
        <time>2021-02-07T10:15:06.000Z</time>
      </trkpt>
      <trkpt lat="47.12974" lon="-1.69988">
        <ele>55</ele>
        <time>2021-02-07T10:15:08.000Z</time>
      </trkpt>
      <trkpt lat="47.12984" lon="-1.69983">
        <ele>55</ele>
        <time>2021-02-07T10:15:10.000Z</time>
      </trkpt>
      <trkpt lat="47.12995" lon="-1.69978">
        <ele>55</ele>
        <time>2021-02-07T10:15:12.000Z</time>
      </trkpt>
      <trkpt lat="47.13005" lon="-1.69974">
        <ele>55</ele>
        <time>2021-02-07T10:15:14.000Z</time>
      </trkpt>
      <trkpt lat="47.13016" lon="-1.69969">
        <ele>56</ele>
        <time>2021-02-07T10:15:16.000Z</time>
      </trkpt>
      <trkpt lat="47.13026" lon="-1.69963">
        <ele>55</ele>
        <time>2021-02-07T10:15:18.000Z</time>
      </trkpt>
      <trkpt lat="47.13036" lon="-1.69957">
        <ele>56</ele>
        <time>2021-02-07T10:15:20.000Z</time>
      </trkpt>
      <trkpt lat="47.13046" lon="-1.69952">
        <ele>55</ele>
        <time>2021-02-07T10:15:22.000Z</time>
      </trkpt>
      <trkpt lat="47.1306" lon="-1.69945">
        <ele>55</ele>
        <time>2021-02-07T10:15:25.000Z</time>
      </trkpt>
      <trkpt lat="47.13069" lon="-1.69939">
        <ele>56</ele>
        <time>2021-02-07T10:15:27.000Z</time>
      </trkpt>
      <trkpt lat="47.13078" lon="-1.69934">
        <ele>56</ele>
        <time>2021-02-07T10:15:29.000Z</time>
      </trkpt>
      <trkpt lat="47.13088" lon="-1.69929">
        <ele>55</ele>
        <time>2021-02-07T10:15:31.000Z</time>
      </trkpt>
      <trkpt lat="47.13098" lon="-1.69924">
        <ele>55</ele>
        <time>2021-02-07T10:15:33.000Z</time>
      </trkpt>
      <trkpt lat="47.13109" lon="-1.69918">
        <ele>54</ele>
        <time>2021-02-07T10:15:35.000Z</time>
      </trkpt>
      <trkpt lat="47.13119" lon="-1.69913">
        <ele>54</ele>
        <time>2021-02-07T10:15:37.000Z</time>
      </trkpt>
      <trkpt lat="47.13128" lon="-1.69908">
        <ele>54</ele>
        <time>2021-02-07T10:15:39.000Z</time>
      </trkpt>
      <trkpt lat="47.13138" lon="-1.69903">
        <ele>54</ele>
        <time>2021-02-07T10:15:41.000Z</time>
      </trkpt>
      <trkpt lat="47.13148" lon="-1.69897">
        <ele>55</ele>
        <time>2021-02-07T10:15:43.000Z</time>
      </trkpt>
      <trkpt lat="47.13157" lon="-1.69893">
        <ele>55</ele>
        <time>2021-02-07T10:15:45.000Z</time>
      </trkpt>
      <trkpt lat="47.13167" lon="-1.69888">
        <ele>55</ele>
        <time>2021-02-07T10:15:47.000Z</time>
      </trkpt>
      <trkpt lat="47.13175" lon="-1.69883">
        <ele>55</ele>
        <time>2021-02-07T10:15:49.000Z</time>
      </trkpt>
      <trkpt lat="47.13184" lon="-1.69877">
        <ele>55</ele>
        <time>2021-02-07T10:15:51.000Z</time>
      </trkpt>
      <trkpt lat="47.13193" lon="-1.69872">
        <ele>55</ele>
        <time>2021-02-07T10:15:53.000Z</time>
      </trkpt>
      <trkpt lat="47.13202" lon="-1.69867">
        <ele>55</ele>
        <time>2021-02-07T10:15:55.000Z</time>
      </trkpt>
      <trkpt lat="47.1321" lon="-1.69862">
        <ele>55</ele>
        <time>2021-02-07T10:15:57.000Z</time>
      </trkpt>
      <trkpt lat="47.13219" lon="-1.69857">
        <ele>56</ele>
        <time>2021-02-07T10:15:59.000Z</time>
      </trkpt>
      <trkpt lat="47.13228" lon="-1.69852">
        <ele>56</ele>
        <time>2021-02-07T10:16:01.000Z</time>
      </trkpt>
      <trkpt lat="47.1324" lon="-1.69846">
        <ele>56</ele>
        <time>2021-02-07T10:16:04.000Z</time>
      </trkpt>
      <trkpt lat="47.13252" lon="-1.6984">
        <ele>57</ele>
        <time>2021-02-07T10:16:07.000Z</time>
      </trkpt>
      <trkpt lat="47.13261" lon="-1.69836">
        <ele>57</ele>
        <time>2021-02-07T10:16:09.000Z</time>
      </trkpt>
      <trkpt lat="47.13272" lon="-1.69832">
        <ele>56</ele>
        <time>2021-02-07T10:16:11.000Z</time>
      </trkpt>
      <trkpt lat="47.13281" lon="-1.69826">
        <ele>56</ele>
        <time>2021-02-07T10:16:13.000Z</time>
      </trkpt>
      <trkpt lat="47.13291" lon="-1.69821">
        <ele>56</ele>
        <time>2021-02-07T10:16:15.000Z</time>
      </trkpt>
      <trkpt lat="47.13302" lon="-1.69816">
        <ele>57</ele>
        <time>2021-02-07T10:16:17.000Z</time>
      </trkpt>
      <trkpt lat="47.13311" lon="-1.6981">
        <ele>57</ele>
        <time>2021-02-07T10:16:19.000Z</time>
      </trkpt>
      <trkpt lat="47.13321" lon="-1.69805">
        <ele>57</ele>
        <time>2021-02-07T10:16:21.000Z</time>
      </trkpt>
      <trkpt lat="47.13332" lon="-1.698">
        <ele>56</ele>
        <time>2021-02-07T10:16:23.000Z</time>
      </trkpt>
      <trkpt lat="47.13342" lon="-1.69794">
        <ele>56</ele>
        <time>2021-02-07T10:16:25.000Z</time>
      </trkpt>
      <trkpt lat="47.13353" lon="-1.69788">
        <ele>56</ele>
        <time>2021-02-07T10:16:27.000Z</time>
      </trkpt>
      <trkpt lat="47.13363" lon="-1.69783">
        <ele>56</ele>
        <time>2021-02-07T10:16:29.000Z</time>
      </trkpt>
      <trkpt lat="47.13373" lon="-1.69776">
        <ele>56</ele>
        <time>2021-02-07T10:16:31.000Z</time>
      </trkpt>
      <trkpt lat="47.13383" lon="-1.69771">
        <ele>56</ele>
        <time>2021-02-07T10:16:33.000Z</time>
      </trkpt>
      <trkpt lat="47.13392" lon="-1.69765">
        <ele>56</ele>
        <time>2021-02-07T10:16:35.000Z</time>
      </trkpt>
      <trkpt lat="47.13401" lon="-1.69759">
        <ele>56</ele>
        <time>2021-02-07T10:16:37.000Z</time>
      </trkpt>
      <trkpt lat="47.1341" lon="-1.69753">
        <ele>55</ele>
        <time>2021-02-07T10:16:39.000Z</time>
      </trkpt>
      <trkpt lat="47.13418" lon="-1.69747">
        <ele>55</ele>
        <time>2021-02-07T10:16:41.000Z</time>
      </trkpt>
      <trkpt lat="47.13428" lon="-1.69741">
        <ele>55</ele>
        <time>2021-02-07T10:16:43.000Z</time>
      </trkpt>
      <trkpt lat="47.13437" lon="-1.69735">
        <ele>55</ele>
        <time>2021-02-07T10:16:45.000Z</time>
      </trkpt>
      <trkpt lat="47.13447" lon="-1.6973">
        <ele>55</ele>
        <time>2021-02-07T10:16:47.000Z</time>
      </trkpt>
      <trkpt lat="47.13457" lon="-1.69727">
        <ele>54</ele>
        <time>2021-02-07T10:16:49.000Z</time>
      </trkpt>
      <trkpt lat="47.13468" lon="-1.69725">
        <ele>55</ele>
        <time>2021-02-07T10:16:51.000Z</time>
      </trkpt>
      <trkpt lat="47.13478" lon="-1.69724">
        <ele>54</ele>
        <time>2021-02-07T10:16:53.000Z</time>
      </trkpt>
      <trkpt lat="47.13488" lon="-1.69721">
        <ele>54</ele>
        <time>2021-02-07T10:16:56.000Z</time>
      </trkpt>
      <trkpt lat="47.13497" lon="-1.69724">
        <ele>54</ele>
        <time>2021-02-07T10:18:43.000Z</time>
      </trkpt>
      <trkpt lat="47.13506" lon="-1.69732">
        <ele>54</ele>
        <time>2021-02-07T10:18:47.000Z</time>
      </trkpt>
      <trkpt lat="47.13517" lon="-1.69732">
        <ele>55</ele>
        <time>2021-02-07T10:18:50.000Z</time>
      </trkpt>
      <trkpt lat="47.13529" lon="-1.69732">
        <ele>55</ele>
        <time>2021-02-07T10:18:53.000Z</time>
      </trkpt>
      <trkpt lat="47.13539" lon="-1.69732">
        <ele>54</ele>
        <time>2021-02-07T10:18:55.000Z</time>
      </trkpt>
      <trkpt lat="47.13549" lon="-1.69732">
        <ele>54</ele>
        <time>2021-02-07T10:18:57.000Z</time>
      </trkpt>
      <trkpt lat="47.1356" lon="-1.69732">
        <ele>55</ele>
        <time>2021-02-07T10:18:59.000Z</time>
      </trkpt>
      <trkpt lat="47.13571" lon="-1.69732">
        <ele>55</ele>
        <time>2021-02-07T10:19:01.000Z</time>
      </trkpt>
      <trkpt lat="47.13582" lon="-1.69731">
        <ele>55</ele>
        <time>2021-02-07T10:19:03.000Z</time>
      </trkpt>
      <trkpt lat="47.13593" lon="-1.69731">
        <ele>55</ele>
        <time>2021-02-07T10:19:05.000Z</time>
      </trkpt>
      <trkpt lat="47.13603" lon="-1.69731">
        <ele>55</ele>
        <time>2021-02-07T10:19:07.000Z</time>
      </trkpt>
      <trkpt lat="47.13614" lon="-1.6973">
        <ele>55</ele>
        <time>2021-02-07T10:19:09.000Z</time>
      </trkpt>
      <trkpt lat="47.13625" lon="-1.69731">
        <ele>56</ele>
        <time>2021-02-07T10:19:11.000Z</time>
      </trkpt>
      <trkpt lat="47.13636" lon="-1.69731">
        <ele>56</ele>
        <time>2021-02-07T10:19:13.000Z</time>
      </trkpt>
      <trkpt lat="47.13647" lon="-1.69731">
        <ele>56</ele>
        <time>2021-02-07T10:19:15.000Z</time>
      </trkpt>
      <trkpt lat="47.13658" lon="-1.6973">
        <ele>56</ele>
        <time>2021-02-07T10:19:17.000Z</time>
      </trkpt>
      <trkpt lat="47.13669" lon="-1.6973">
        <ele>57</ele>
        <time>2021-02-07T10:19:19.000Z</time>
      </trkpt>
      <trkpt lat="47.1368" lon="-1.69731">
        <ele>57</ele>
        <time>2021-02-07T10:19:21.000Z</time>
      </trkpt>
      <trkpt lat="47.13692" lon="-1.6973">
        <ele>57</ele>
        <time>2021-02-07T10:19:23.000Z</time>
      </trkpt>
      <trkpt lat="47.13704" lon="-1.69729">
        <ele>57</ele>
        <time>2021-02-07T10:19:25.000Z</time>
      </trkpt>
      <trkpt lat="47.13714" lon="-1.69728">
        <ele>57</ele>
        <time>2021-02-07T10:19:27.000Z</time>
      </trkpt>
      <trkpt lat="47.13725" lon="-1.69726">
        <ele>58</ele>
        <time>2021-02-07T10:19:29.000Z</time>
      </trkpt>
      <trkpt lat="47.13736" lon="-1.69724">
        <ele>58</ele>
        <time>2021-02-07T10:19:31.000Z</time>
      </trkpt>
      <trkpt lat="47.13747" lon="-1.69721">
        <ele>58</ele>
        <time>2021-02-07T10:19:33.000Z</time>
      </trkpt>
      <trkpt lat="47.13758" lon="-1.69719">
        <ele>58</ele>
        <time>2021-02-07T10:19:35.000Z</time>
      </trkpt>
      <trkpt lat="47.13769" lon="-1.69718">
        <ele>58</ele>
        <time>2021-02-07T10:19:37.000Z</time>
      </trkpt>
      <trkpt lat="47.1378" lon="-1.69718">
        <ele>58</ele>
        <time>2021-02-07T10:19:39.000Z</time>
      </trkpt>
      <trkpt lat="47.13791" lon="-1.69719">
        <ele>58</ele>
        <time>2021-02-07T10:19:41.000Z</time>
      </trkpt>
      <trkpt lat="47.13802" lon="-1.69719">
        <ele>58</ele>
        <time>2021-02-07T10:19:43.000Z</time>
      </trkpt>
      <trkpt lat="47.13813" lon="-1.6972">
        <ele>59</ele>
        <time>2021-02-07T10:19:45.000Z</time>
      </trkpt>
      <trkpt lat="47.13824" lon="-1.6972">
        <ele>59</ele>
        <time>2021-02-07T10:19:47.000Z</time>
      </trkpt>
      <trkpt lat="47.13835" lon="-1.6972">
        <ele>59</ele>
        <time>2021-02-07T10:19:49.000Z</time>
      </trkpt>
      <trkpt lat="47.13846" lon="-1.69718">
        <ele>59</ele>
        <time>2021-02-07T10:19:51.000Z</time>
      </trkpt>
      <trkpt lat="47.13857" lon="-1.69716">
        <ele>59</ele>
        <time>2021-02-07T10:19:53.000Z</time>
      </trkpt>
      <trkpt lat="47.13868" lon="-1.69714">
        <ele>59</ele>
        <time>2021-02-07T10:19:55.000Z</time>
      </trkpt>
      <trkpt lat="47.13879" lon="-1.69713">
        <ele>59</ele>
        <time>2021-02-07T10:19:57.000Z</time>
      </trkpt>
      <trkpt lat="47.1389" lon="-1.69712">
        <ele>59</ele>
        <time>2021-02-07T10:19:59.000Z</time>
      </trkpt>
      <trkpt lat="47.13901" lon="-1.69711">
        <ele>59</ele>
        <time>2021-02-07T10:20:01.000Z</time>
      </trkpt>
      <trkpt lat="47.13912" lon="-1.6971">
        <ele>59</ele>
        <time>2021-02-07T10:20:03.000Z</time>
      </trkpt>
      <trkpt lat="47.13924" lon="-1.69711">
        <ele>59</ele>
        <time>2021-02-07T10:20:05.000Z</time>
      </trkpt>
      <trkpt lat="47.13934" lon="-1.6971">
        <ele>60</ele>
        <time>2021-02-07T10:20:07.000Z</time>
      </trkpt>
      <trkpt lat="47.13943" lon="-1.6971">
        <ele>60</ele>
        <time>2021-02-07T10:20:09.000Z</time>
      </trkpt>
      <trkpt lat="47.13956" lon="-1.69709">
        <ele>59</ele>
        <time>2021-02-07T10:20:12.000Z</time>
      </trkpt>
      <trkpt lat="47.13968" lon="-1.69711">
        <ele>59</ele>
        <time>2021-02-07T10:20:15.000Z</time>
      </trkpt>
      <trkpt lat="47.13982" lon="-1.69712">
        <ele>60</ele>
        <time>2021-02-07T10:20:18.000Z</time>
      </trkpt>
      <trkpt lat="47.13991" lon="-1.69713">
        <ele>60</ele>
        <time>2021-02-07T10:20:20.000Z</time>
      </trkpt>
      <trkpt lat="47.14001" lon="-1.69713">
        <ele>60</ele>
        <time>2021-02-07T10:20:22.000Z</time>
      </trkpt>
      <trkpt lat="47.14011" lon="-1.69714">
        <ele>60</ele>
        <time>2021-02-07T10:20:24.000Z</time>
      </trkpt>
      <trkpt lat="47.14021" lon="-1.69715">
        <ele>59</ele>
        <time>2021-02-07T10:20:26.000Z</time>
      </trkpt>
      <trkpt lat="47.14031" lon="-1.69716">
        <ele>60</ele>
        <time>2021-02-07T10:20:28.000Z</time>
      </trkpt>
      <trkpt lat="47.14041" lon="-1.69718">
        <ele>59</ele>
        <time>2021-02-07T10:20:30.000Z</time>
      </trkpt>
      <trkpt lat="47.14052" lon="-1.69719">
        <ele>59</ele>
        <time>2021-02-07T10:20:32.000Z</time>
      </trkpt>
      <trkpt lat="47.14062" lon="-1.6972">
        <ele>59</ele>
        <time>2021-02-07T10:20:34.000Z</time>
      </trkpt>
      <trkpt lat="47.14073" lon="-1.6972">
        <ele>60</ele>
        <time>2021-02-07T10:20:36.000Z</time>
      </trkpt>
      <trkpt lat="47.14084" lon="-1.6972">
        <ele>60</ele>
        <time>2021-02-07T10:20:38.000Z</time>
      </trkpt>
      <trkpt lat="47.14095" lon="-1.69718">
        <ele>60</ele>
        <time>2021-02-07T10:20:40.000Z</time>
      </trkpt>
      <trkpt lat="47.14106" lon="-1.69717">
        <ele>60</ele>
        <time>2021-02-07T10:20:42.000Z</time>
      </trkpt>
      <trkpt lat="47.14118" lon="-1.69716">
        <ele>61</ele>
        <time>2021-02-07T10:20:44.000Z</time>
      </trkpt>
      <trkpt lat="47.14129" lon="-1.69715">
        <ele>60</ele>
        <time>2021-02-07T10:20:46.000Z</time>
      </trkpt>
      <trkpt lat="47.14141" lon="-1.69713">
        <ele>60</ele>
        <time>2021-02-07T10:20:48.000Z</time>
      </trkpt>
      <trkpt lat="47.14153" lon="-1.69711">
        <ele>60</ele>
        <time>2021-02-07T10:20:50.000Z</time>
      </trkpt>
      <trkpt lat="47.14165" lon="-1.6971">
        <ele>60</ele>
        <time>2021-02-07T10:20:52.000Z</time>
      </trkpt>
      <trkpt lat="47.14176" lon="-1.69709">
        <ele>60</ele>
        <time>2021-02-07T10:20:54.000Z</time>
      </trkpt>
      <trkpt lat="47.14187" lon="-1.69708">
        <ele>60</ele>
        <time>2021-02-07T10:20:56.000Z</time>
      </trkpt>
      <trkpt lat="47.14199" lon="-1.69706">
        <ele>60</ele>
        <time>2021-02-07T10:20:58.000Z</time>
      </trkpt>
      <trkpt lat="47.1421" lon="-1.69704">
        <ele>60</ele>
        <time>2021-02-07T10:21:00.000Z</time>
      </trkpt>
      <trkpt lat="47.14221" lon="-1.69702">
        <ele>60</ele>
        <time>2021-02-07T10:21:02.000Z</time>
      </trkpt>
      <trkpt lat="47.14232" lon="-1.69701">
        <ele>60</ele>
        <time>2021-02-07T10:21:04.000Z</time>
      </trkpt>
      <trkpt lat="47.14241" lon="-1.69699">
        <ele>60</ele>
        <time>2021-02-07T10:21:06.000Z</time>
      </trkpt>
      <trkpt lat="47.14251" lon="-1.69698">
        <ele>60</ele>
        <time>2021-02-07T10:21:08.000Z</time>
      </trkpt>
      <trkpt lat="47.14261" lon="-1.69697">
        <ele>60</ele>
        <time>2021-02-07T10:21:10.000Z</time>
      </trkpt>
      <trkpt lat="47.1427" lon="-1.69697">
        <ele>60</ele>
        <time>2021-02-07T10:21:12.000Z</time>
      </trkpt>
      <trkpt lat="47.1428" lon="-1.69698">
        <ele>60</ele>
        <time>2021-02-07T10:21:14.000Z</time>
      </trkpt>
      <trkpt lat="47.1429" lon="-1.69699">
        <ele>60</ele>
        <time>2021-02-07T10:21:16.000Z</time>
      </trkpt>
      <trkpt lat="47.14303" lon="-1.697">
        <ele>61</ele>
        <time>2021-02-07T10:21:19.000Z</time>
      </trkpt>
      <trkpt lat="47.14315" lon="-1.697">
        <ele>60</ele>
        <time>2021-02-07T10:21:22.000Z</time>
      </trkpt>
      <trkpt lat="47.14326" lon="-1.69693">
        <ele>60</ele>
        <time>2021-02-07T10:21:25.000Z</time>
      </trkpt>
      <trkpt lat="47.14332" lon="-1.69678">
        <ele>61</ele>
        <time>2021-02-07T10:21:28.000Z</time>
      </trkpt>
      <trkpt lat="47.14336" lon="-1.69662">
        <ele>62</ele>
        <time>2021-02-07T10:21:31.000Z</time>
      </trkpt>
      <trkpt lat="47.1434" lon="-1.69644">
        <ele>62</ele>
        <time>2021-02-07T10:21:34.000Z</time>
      </trkpt>
      <trkpt lat="47.14344" lon="-1.69627">
        <ele>62</ele>
        <time>2021-02-07T10:21:37.000Z</time>
      </trkpt>
      <trkpt lat="47.14349" lon="-1.69611">
        <ele>62</ele>
        <time>2021-02-07T10:21:40.000Z</time>
      </trkpt>
      <trkpt lat="47.14354" lon="-1.69595">
        <ele>63</ele>
        <time>2021-02-07T10:21:43.000Z</time>
      </trkpt>
      <trkpt lat="47.14359" lon="-1.69579">
        <ele>63</ele>
        <time>2021-02-07T10:21:46.000Z</time>
      </trkpt>
      <trkpt lat="47.14364" lon="-1.69562">
        <ele>64</ele>
        <time>2021-02-07T10:21:49.000Z</time>
      </trkpt>
      <trkpt lat="47.14369" lon="-1.69546">
        <ele>64</ele>
        <time>2021-02-07T10:21:52.000Z</time>
      </trkpt>
      <trkpt lat="47.14372" lon="-1.69529">
        <ele>64</ele>
        <time>2021-02-07T10:21:55.000Z</time>
      </trkpt>
      <trkpt lat="47.14376" lon="-1.69513">
        <ele>64</ele>
        <time>2021-02-07T10:21:58.000Z</time>
      </trkpt>
      <trkpt lat="47.14377" lon="-1.69496">
        <ele>65</ele>
        <time>2021-02-07T10:22:01.000Z</time>
      </trkpt>
      <trkpt lat="47.14378" lon="-1.69479">
        <ele>65</ele>
        <time>2021-02-07T10:22:04.000Z</time>
      </trkpt>
      <trkpt lat="47.14379" lon="-1.6946">
        <ele>66</ele>
        <time>2021-02-07T10:22:07.000Z</time>
      </trkpt>
      <trkpt lat="47.14379" lon="-1.69442">
        <ele>66</ele>
        <time>2021-02-07T10:22:10.000Z</time>
      </trkpt>
      <trkpt lat="47.14379" lon="-1.69425">
        <ele>66</ele>
        <time>2021-02-07T10:22:13.000Z</time>
      </trkpt>
      <trkpt lat="47.14379" lon="-1.69409">
        <ele>67</ele>
        <time>2021-02-07T10:22:16.000Z</time>
      </trkpt>
      <trkpt lat="47.14381" lon="-1.69394">
        <ele>68</ele>
        <time>2021-02-07T10:22:19.000Z</time>
      </trkpt>
      <trkpt lat="47.14383" lon="-1.69379">
        <ele>68</ele>
        <time>2021-02-07T10:22:24.000Z</time>
      </trkpt>
      <trkpt lat="47.14386" lon="-1.69362">
        <ele>69</ele>
        <time>2021-02-07T10:22:38.000Z</time>
      </trkpt>
      <trkpt lat="47.14388" lon="-1.69346">
        <ele>68</ele>
        <time>2021-02-07T10:22:41.000Z</time>
      </trkpt>
      <trkpt lat="47.14389" lon="-1.69332">
        <ele>68</ele>
        <time>2021-02-07T10:22:44.000Z</time>
      </trkpt>
      <trkpt lat="47.14389" lon="-1.69312">
        <ele>68</ele>
        <time>2021-02-07T10:22:47.000Z</time>
      </trkpt>
      <trkpt lat="47.1439" lon="-1.69297">
        <ele>69</ele>
        <time>2021-02-07T10:22:49.000Z</time>
      </trkpt>
      <trkpt lat="47.14391" lon="-1.69281">
        <ele>69</ele>
        <time>2021-02-07T10:22:51.000Z</time>
      </trkpt>
      <trkpt lat="47.14391" lon="-1.69264">
        <ele>69</ele>
        <time>2021-02-07T10:22:53.000Z</time>
      </trkpt>
      <trkpt lat="47.14391" lon="-1.69248">
        <ele>69</ele>
        <time>2021-02-07T10:22:55.000Z</time>
      </trkpt>
      <trkpt lat="47.14391" lon="-1.69232">
        <ele>69</ele>
        <time>2021-02-07T10:22:57.000Z</time>
      </trkpt>
      <trkpt lat="47.14391" lon="-1.69215">
        <ele>69</ele>
        <time>2021-02-07T10:22:59.000Z</time>
      </trkpt>
      <trkpt lat="47.14392" lon="-1.69197">
        <ele>69</ele>
        <time>2021-02-07T10:23:01.000Z</time>
      </trkpt>
      <trkpt lat="47.14392" lon="-1.6918">
        <ele>69</ele>
        <time>2021-02-07T10:23:03.000Z</time>
      </trkpt>
      <trkpt lat="47.14393" lon="-1.69163">
        <ele>70</ele>
        <time>2021-02-07T10:23:05.000Z</time>
      </trkpt>
      <trkpt lat="47.14393" lon="-1.69145">
        <ele>69</ele>
        <time>2021-02-07T10:23:07.000Z</time>
      </trkpt>
      <trkpt lat="47.14393" lon="-1.69128">
        <ele>69</ele>
        <time>2021-02-07T10:23:09.000Z</time>
      </trkpt>
      <trkpt lat="47.14392" lon="-1.69111">
        <ele>69</ele>
        <time>2021-02-07T10:23:11.000Z</time>
      </trkpt>
      <trkpt lat="47.14392" lon="-1.69095">
        <ele>69</ele>
        <time>2021-02-07T10:23:13.000Z</time>
      </trkpt>
      <trkpt lat="47.14393" lon="-1.69077">
        <ele>69</ele>
        <time>2021-02-07T10:23:15.000Z</time>
      </trkpt>
      <trkpt lat="47.14393" lon="-1.69059">
        <ele>69</ele>
        <time>2021-02-07T10:23:17.000Z</time>
      </trkpt>
      <trkpt lat="47.14393" lon="-1.69043">
        <ele>69</ele>
        <time>2021-02-07T10:23:19.000Z</time>
      </trkpt>
      <trkpt lat="47.14394" lon="-1.69026">
        <ele>69</ele>
        <time>2021-02-07T10:23:21.000Z</time>
      </trkpt>
      <trkpt lat="47.14394" lon="-1.6901">
        <ele>69</ele>
        <time>2021-02-07T10:23:23.000Z</time>
      </trkpt>
      <trkpt lat="47.14393" lon="-1.68994">
        <ele>69</ele>
        <time>2021-02-07T10:23:25.000Z</time>
      </trkpt>
      <trkpt lat="47.14394" lon="-1.68977">
        <ele>69</ele>
        <time>2021-02-07T10:23:27.000Z</time>
      </trkpt>
      <trkpt lat="47.14395" lon="-1.68961">
        <ele>69</ele>
        <time>2021-02-07T10:23:29.000Z</time>
      </trkpt>
      <trkpt lat="47.14396" lon="-1.68944">
        <ele>69</ele>
        <time>2021-02-07T10:23:31.000Z</time>
      </trkpt>
      <trkpt lat="47.14396" lon="-1.68926">
        <ele>69</ele>
        <time>2021-02-07T10:23:33.000Z</time>
      </trkpt>
      <trkpt lat="47.14396" lon="-1.68908">
        <ele>69</ele>
        <time>2021-02-07T10:23:35.000Z</time>
      </trkpt>
      <trkpt lat="47.14397" lon="-1.6889">
        <ele>69</ele>
        <time>2021-02-07T10:23:37.000Z</time>
      </trkpt>
      <trkpt lat="47.14399" lon="-1.68872">
        <ele>68</ele>
        <time>2021-02-07T10:23:39.000Z</time>
      </trkpt>
      <trkpt lat="47.14401" lon="-1.68855">
        <ele>68</ele>
        <time>2021-02-07T10:23:41.000Z</time>
      </trkpt>
      <trkpt lat="47.14404" lon="-1.68837">
        <ele>67</ele>
        <time>2021-02-07T10:23:43.000Z</time>
      </trkpt>
      <trkpt lat="47.14406" lon="-1.6882">
        <ele>66</ele>
        <time>2021-02-07T10:23:45.000Z</time>
      </trkpt>
      <trkpt lat="47.14407" lon="-1.68801">
        <ele>67</ele>
        <time>2021-02-07T10:23:47.000Z</time>
      </trkpt>
      <trkpt lat="47.14409" lon="-1.68782">
        <ele>66</ele>
        <time>2021-02-07T10:23:49.000Z</time>
      </trkpt>
      <trkpt lat="47.1441" lon="-1.68764">
        <ele>66</ele>
        <time>2021-02-07T10:23:51.000Z</time>
      </trkpt>
      <trkpt lat="47.1441" lon="-1.68746">
        <ele>65</ele>
        <time>2021-02-07T10:23:53.000Z</time>
      </trkpt>
      <trkpt lat="47.14408" lon="-1.68727">
        <ele>65</ele>
        <time>2021-02-07T10:23:55.000Z</time>
      </trkpt>
      <trkpt lat="47.14409" lon="-1.68708">
        <ele>65</ele>
        <time>2021-02-07T10:23:57.000Z</time>
      </trkpt>
      <trkpt lat="47.14407" lon="-1.6869">
        <ele>65</ele>
        <time>2021-02-07T10:23:59.000Z</time>
      </trkpt>
      <trkpt lat="47.14407" lon="-1.68672">
        <ele>65</ele>
        <time>2021-02-07T10:24:01.000Z</time>
      </trkpt>
      <trkpt lat="47.14404" lon="-1.68654">
        <ele>65</ele>
        <time>2021-02-07T10:24:03.000Z</time>
      </trkpt>
      <trkpt lat="47.14398" lon="-1.68639">
        <ele>65</ele>
        <time>2021-02-07T10:24:05.000Z</time>
      </trkpt>
      <trkpt lat="47.14393" lon="-1.68622">
        <ele>65</ele>
        <time>2021-02-07T10:24:07.000Z</time>
      </trkpt>
      <trkpt lat="47.14391" lon="-1.68604">
        <ele>65</ele>
        <time>2021-02-07T10:24:09.000Z</time>
      </trkpt>
      <trkpt lat="47.1439" lon="-1.68586">
        <ele>66</ele>
        <time>2021-02-07T10:24:11.000Z</time>
      </trkpt>
      <trkpt lat="47.14389" lon="-1.68569">
        <ele>66</ele>
        <time>2021-02-07T10:24:13.000Z</time>
      </trkpt>
      <trkpt lat="47.14388" lon="-1.6855">
        <ele>66</ele>
        <time>2021-02-07T10:24:15.000Z</time>
      </trkpt>
      <trkpt lat="47.14387" lon="-1.68532">
        <ele>66</ele>
        <time>2021-02-07T10:24:17.000Z</time>
      </trkpt>
      <trkpt lat="47.14389" lon="-1.68514">
        <ele>66</ele>
        <time>2021-02-07T10:24:19.000Z</time>
      </trkpt>
      <trkpt lat="47.14391" lon="-1.68496">
        <ele>66</ele>
        <time>2021-02-07T10:24:21.000Z</time>
      </trkpt>
      <trkpt lat="47.14393" lon="-1.68478">
        <ele>65</ele>
        <time>2021-02-07T10:24:23.000Z</time>
      </trkpt>
      <trkpt lat="47.14395" lon="-1.68459">
        <ele>65</ele>
        <time>2021-02-07T10:24:25.000Z</time>
      </trkpt>
      <trkpt lat="47.14395" lon="-1.6844">
        <ele>64</ele>
        <time>2021-02-07T10:24:27.000Z</time>
      </trkpt>
      <trkpt lat="47.14396" lon="-1.68421">
        <ele>64</ele>
        <time>2021-02-07T10:24:29.000Z</time>
      </trkpt>
      <trkpt lat="47.14397" lon="-1.684">
        <ele>64</ele>
        <time>2021-02-07T10:24:31.000Z</time>
      </trkpt>
      <trkpt lat="47.14397" lon="-1.6838">
        <ele>63</ele>
        <time>2021-02-07T10:24:33.000Z</time>
      </trkpt>
      <trkpt lat="47.14394" lon="-1.6836">
        <ele>63</ele>
        <time>2021-02-07T10:24:35.000Z</time>
      </trkpt>
      <trkpt lat="47.14392" lon="-1.68341">
        <ele>63</ele>
        <time>2021-02-07T10:24:37.000Z</time>
      </trkpt>
      <trkpt lat="47.14388" lon="-1.68321">
        <ele>63</ele>
        <time>2021-02-07T10:24:39.000Z</time>
      </trkpt>
      <trkpt lat="47.14384" lon="-1.68302">
        <ele>63</ele>
        <time>2021-02-07T10:24:41.000Z</time>
      </trkpt>
      <trkpt lat="47.14379" lon="-1.68284">
        <ele>63</ele>
        <time>2021-02-07T10:24:43.000Z</time>
      </trkpt>
      <trkpt lat="47.14374" lon="-1.68267">
        <ele>64</ele>
        <time>2021-02-07T10:24:45.000Z</time>
      </trkpt>
      <trkpt lat="47.14371" lon="-1.6825">
        <ele>64</ele>
        <time>2021-02-07T10:24:47.000Z</time>
      </trkpt>
      <trkpt lat="47.14369" lon="-1.68232">
        <ele>64</ele>
        <time>2021-02-07T10:24:49.000Z</time>
      </trkpt>
      <trkpt lat="47.14371" lon="-1.68214">
        <ele>65</ele>
        <time>2021-02-07T10:24:51.000Z</time>
      </trkpt>
      <trkpt lat="47.14373" lon="-1.68197">
        <ele>65</ele>
        <time>2021-02-07T10:24:53.000Z</time>
      </trkpt>
      <trkpt lat="47.14371" lon="-1.68179">
        <ele>65</ele>
        <time>2021-02-07T10:24:55.000Z</time>
      </trkpt>
      <trkpt lat="47.1437" lon="-1.68161">
        <ele>65</ele>
        <time>2021-02-07T10:24:57.000Z</time>
      </trkpt>
      <trkpt lat="47.14368" lon="-1.68144">
        <ele>66</ele>
        <time>2021-02-07T10:24:59.000Z</time>
      </trkpt>
      <trkpt lat="47.14369" lon="-1.68126">
        <ele>66</ele>
        <time>2021-02-07T10:25:01.000Z</time>
      </trkpt>
      <trkpt lat="47.14369" lon="-1.68108">
        <ele>66</ele>
        <time>2021-02-07T10:25:03.000Z</time>
      </trkpt>
      <trkpt lat="47.14368" lon="-1.6809">
        <ele>66</ele>
        <time>2021-02-07T10:25:05.000Z</time>
      </trkpt>
      <trkpt lat="47.14367" lon="-1.68073">
        <ele>66</ele>
        <time>2021-02-07T10:25:07.000Z</time>
      </trkpt>
      <trkpt lat="47.14367" lon="-1.68055">
        <ele>66</ele>
        <time>2021-02-07T10:25:09.000Z</time>
      </trkpt>
      <trkpt lat="47.14366" lon="-1.68037">
        <ele>66</ele>
        <time>2021-02-07T10:25:11.000Z</time>
      </trkpt>
      <trkpt lat="47.14366" lon="-1.68019">
        <ele>66</ele>
        <time>2021-02-07T10:25:13.000Z</time>
      </trkpt>
      <trkpt lat="47.14365" lon="-1.68001">
        <ele>65</ele>
        <time>2021-02-07T10:25:15.000Z</time>
      </trkpt>
      <trkpt lat="47.14363" lon="-1.67982">
        <ele>65</ele>
        <time>2021-02-07T10:25:17.000Z</time>
      </trkpt>
      <trkpt lat="47.1436" lon="-1.67963">
        <ele>65</ele>
        <time>2021-02-07T10:25:19.000Z</time>
      </trkpt>
      <trkpt lat="47.14358" lon="-1.67945">
        <ele>65</ele>
        <time>2021-02-07T10:25:21.000Z</time>
      </trkpt>
      <trkpt lat="47.14356" lon="-1.67927">
        <ele>65</ele>
        <time>2021-02-07T10:25:23.000Z</time>
      </trkpt>
      <trkpt lat="47.14353" lon="-1.67911">
        <ele>64</ele>
        <time>2021-02-07T10:25:25.000Z</time>
      </trkpt>
      <trkpt lat="47.14346" lon="-1.67895">
        <ele>64</ele>
        <time>2021-02-07T10:25:27.000Z</time>
      </trkpt>
      <trkpt lat="47.14341" lon="-1.67878">
        <ele>65</ele>
        <time>2021-02-07T10:25:29.000Z</time>
      </trkpt>
      <trkpt lat="47.14339" lon="-1.67861">
        <ele>65</ele>
        <time>2021-02-07T10:25:31.000Z</time>
      </trkpt>
      <trkpt lat="47.14342" lon="-1.67843">
        <ele>65</ele>
        <time>2021-02-07T10:25:33.000Z</time>
      </trkpt>
      <trkpt lat="47.14344" lon="-1.67825">
        <ele>66</ele>
        <time>2021-02-07T10:25:35.000Z</time>
      </trkpt>
      <trkpt lat="47.14342" lon="-1.67806">
        <ele>65</ele>
        <time>2021-02-07T10:25:37.000Z</time>
      </trkpt>
      <trkpt lat="47.1434" lon="-1.67787">
        <ele>65</ele>
        <time>2021-02-07T10:25:39.000Z</time>
      </trkpt>
      <trkpt lat="47.14336" lon="-1.67769">
        <ele>65</ele>
        <time>2021-02-07T10:25:41.000Z</time>
      </trkpt>
      <trkpt lat="47.14332" lon="-1.67753">
        <ele>65</ele>
        <time>2021-02-07T10:25:43.000Z</time>
      </trkpt>
      <trkpt lat="47.14328" lon="-1.67735">
        <ele>66</ele>
        <time>2021-02-07T10:25:45.000Z</time>
      </trkpt>
      <trkpt lat="47.14323" lon="-1.67717">
        <ele>65</ele>
        <time>2021-02-07T10:25:47.000Z</time>
      </trkpt>
      <trkpt lat="47.14319" lon="-1.67701">
        <ele>65</ele>
        <time>2021-02-07T10:25:49.000Z</time>
      </trkpt>
      <trkpt lat="47.14315" lon="-1.67683">
        <ele>65</ele>
        <time>2021-02-07T10:25:51.000Z</time>
      </trkpt>
      <trkpt lat="47.14311" lon="-1.67666">
        <ele>65</ele>
        <time>2021-02-07T10:25:53.000Z</time>
      </trkpt>
      <trkpt lat="47.14309" lon="-1.67648">
        <ele>65</ele>
        <time>2021-02-07T10:25:55.000Z</time>
      </trkpt>
      <trkpt lat="47.14307" lon="-1.67629">
        <ele>64</ele>
        <time>2021-02-07T10:25:57.000Z</time>
      </trkpt>
      <trkpt lat="47.14306" lon="-1.6761">
        <ele>64</ele>
        <time>2021-02-07T10:25:59.000Z</time>
      </trkpt>
      <trkpt lat="47.14305" lon="-1.67591">
        <ele>64</ele>
        <time>2021-02-07T10:26:01.000Z</time>
      </trkpt>
      <trkpt lat="47.14303" lon="-1.67572">
        <ele>64</ele>
        <time>2021-02-07T10:26:03.000Z</time>
      </trkpt>
      <trkpt lat="47.14301" lon="-1.67553">
        <ele>64</ele>
        <time>2021-02-07T10:26:05.000Z</time>
      </trkpt>
      <trkpt lat="47.14299" lon="-1.67535">
        <ele>64</ele>
        <time>2021-02-07T10:26:07.000Z</time>
      </trkpt>
      <trkpt lat="47.14296" lon="-1.67516">
        <ele>64</ele>
        <time>2021-02-07T10:26:09.000Z</time>
      </trkpt>
      <trkpt lat="47.14292" lon="-1.67499">
        <ele>64</ele>
        <time>2021-02-07T10:26:11.000Z</time>
      </trkpt>
      <trkpt lat="47.14288" lon="-1.67482">
        <ele>64</ele>
        <time>2021-02-07T10:26:13.000Z</time>
      </trkpt>
      <trkpt lat="47.14283" lon="-1.67465">
        <ele>65</ele>
        <time>2021-02-07T10:26:15.000Z</time>
      </trkpt>
      <trkpt lat="47.14278" lon="-1.67449">
        <ele>65</ele>
        <time>2021-02-07T10:26:17.000Z</time>
      </trkpt>
      <trkpt lat="47.14273" lon="-1.67433">
        <ele>65</ele>
        <time>2021-02-07T10:26:19.000Z</time>
      </trkpt>
      <trkpt lat="47.14267" lon="-1.67417">
        <ele>66</ele>
        <time>2021-02-07T10:26:21.000Z</time>
      </trkpt>
      <trkpt lat="47.14261" lon="-1.67402">
        <ele>66</ele>
        <time>2021-02-07T10:26:23.000Z</time>
      </trkpt>
      <trkpt lat="47.14254" lon="-1.67387">
        <ele>66</ele>
        <time>2021-02-07T10:26:25.000Z</time>
      </trkpt>
      <trkpt lat="47.14248" lon="-1.67372">
        <ele>66</ele>
        <time>2021-02-07T10:26:27.000Z</time>
      </trkpt>
      <trkpt lat="47.14242" lon="-1.67356">
        <ele>66</ele>
        <time>2021-02-07T10:26:29.000Z</time>
      </trkpt>
      <trkpt lat="47.14235" lon="-1.6734">
        <ele>65</ele>
        <time>2021-02-07T10:26:31.000Z</time>
      </trkpt>
      <trkpt lat="47.14229" lon="-1.67325">
        <ele>65</ele>
        <time>2021-02-07T10:26:33.000Z</time>
      </trkpt>
      <trkpt lat="47.14222" lon="-1.6731">
        <ele>65</ele>
        <time>2021-02-07T10:26:35.000Z</time>
      </trkpt>
      <trkpt lat="47.14217" lon="-1.67299">
        <ele>65</ele>
        <time>2021-02-07T10:26:37.000Z</time>
      </trkpt>
      <trkpt lat="47.14211" lon="-1.67286">
        <ele>65</ele>
        <time>2021-02-07T10:26:41.000Z</time>
      </trkpt>
      <trkpt lat="47.14206" lon="-1.67273">
        <ele>66</ele>
        <time>2021-02-07T10:27:15.000Z</time>
      </trkpt>
      <trkpt lat="47.14199" lon="-1.67256">
        <ele>66</ele>
        <time>2021-02-07T10:27:18.000Z</time>
      </trkpt>
      <trkpt lat="47.14195" lon="-1.67242">
        <ele>66</ele>
        <time>2021-02-07T10:27:20.000Z</time>
      </trkpt>
      <trkpt lat="47.14192" lon="-1.67224">
        <ele>66</ele>
        <time>2021-02-07T10:27:22.000Z</time>
      </trkpt>
      <trkpt lat="47.14189" lon="-1.67207">
        <ele>66</ele>
        <time>2021-02-07T10:27:24.000Z</time>
      </trkpt>
      <trkpt lat="47.14186" lon="-1.6719">
        <ele>66</ele>
        <time>2021-02-07T10:27:26.000Z</time>
      </trkpt>
      <trkpt lat="47.14183" lon="-1.67171">
        <ele>66</ele>
        <time>2021-02-07T10:27:28.000Z</time>
      </trkpt>
      <trkpt lat="47.1418" lon="-1.67154">
        <ele>66</ele>
        <time>2021-02-07T10:27:30.000Z</time>
      </trkpt>
      <trkpt lat="47.14176" lon="-1.67137">
        <ele>66</ele>
        <time>2021-02-07T10:27:32.000Z</time>
      </trkpt>
      <trkpt lat="47.14173" lon="-1.67118">
        <ele>66</ele>
        <time>2021-02-07T10:27:34.000Z</time>
      </trkpt>
      <trkpt lat="47.14169" lon="-1.671">
        <ele>66</ele>
        <time>2021-02-07T10:27:36.000Z</time>
      </trkpt>
      <trkpt lat="47.14167" lon="-1.67082">
        <ele>66</ele>
        <time>2021-02-07T10:27:38.000Z</time>
      </trkpt>
      <trkpt lat="47.14166" lon="-1.67064">
        <ele>66</ele>
        <time>2021-02-07T10:27:40.000Z</time>
      </trkpt>
      <trkpt lat="47.14165" lon="-1.67045">
        <ele>66</ele>
        <time>2021-02-07T10:27:42.000Z</time>
      </trkpt>
      <trkpt lat="47.14163" lon="-1.67027">
        <ele>66</ele>
        <time>2021-02-07T10:27:44.000Z</time>
      </trkpt>
      <trkpt lat="47.14161" lon="-1.67008">
        <ele>66</ele>
        <time>2021-02-07T10:27:46.000Z</time>
      </trkpt>
      <trkpt lat="47.1416" lon="-1.66988">
        <ele>65</ele>
        <time>2021-02-07T10:27:48.000Z</time>
      </trkpt>
      <trkpt lat="47.1416" lon="-1.66969">
        <ele>65</ele>
        <time>2021-02-07T10:27:50.000Z</time>
      </trkpt>
      <trkpt lat="47.14161" lon="-1.6695">
        <ele>64</ele>
        <time>2021-02-07T10:27:52.000Z</time>
      </trkpt>
      <trkpt lat="47.14162" lon="-1.66931">
        <ele>64</ele>
        <time>2021-02-07T10:27:54.000Z</time>
      </trkpt>
      <trkpt lat="47.14166" lon="-1.66912">
        <ele>64</ele>
        <time>2021-02-07T10:27:56.000Z</time>
      </trkpt>
      <trkpt lat="47.1417" lon="-1.66894">
        <ele>64</ele>
        <time>2021-02-07T10:27:58.000Z</time>
      </trkpt>
      <trkpt lat="47.14175" lon="-1.66875">
        <ele>63</ele>
        <time>2021-02-07T10:28:00.000Z</time>
      </trkpt>
      <trkpt lat="47.14181" lon="-1.66857">
        <ele>63</ele>
        <time>2021-02-07T10:28:02.000Z</time>
      </trkpt>
      <trkpt lat="47.14187" lon="-1.66838">
        <ele>62</ele>
        <time>2021-02-07T10:28:04.000Z</time>
      </trkpt>
      <trkpt lat="47.14193" lon="-1.6682">
        <ele>62</ele>
        <time>2021-02-07T10:28:06.000Z</time>
      </trkpt>
      <trkpt lat="47.142" lon="-1.66802">
        <ele>62</ele>
        <time>2021-02-07T10:28:08.000Z</time>
      </trkpt>
      <trkpt lat="47.14206" lon="-1.66784">
        <ele>62</ele>
        <time>2021-02-07T10:28:10.000Z</time>
      </trkpt>
      <trkpt lat="47.14212" lon="-1.66766">
        <ele>62</ele>
        <time>2021-02-07T10:28:12.000Z</time>
      </trkpt>
      <trkpt lat="47.14218" lon="-1.66749">
        <ele>62</ele>
        <time>2021-02-07T10:28:14.000Z</time>
      </trkpt>
      <trkpt lat="47.14223" lon="-1.66732">
        <ele>62</ele>
        <time>2021-02-07T10:28:16.000Z</time>
      </trkpt>
      <trkpt lat="47.14229" lon="-1.66716">
        <ele>62</ele>
        <time>2021-02-07T10:28:18.000Z</time>
      </trkpt>
      <trkpt lat="47.14234" lon="-1.66699">
        <ele>62</ele>
        <time>2021-02-07T10:28:20.000Z</time>
      </trkpt>
      <trkpt lat="47.14239" lon="-1.66683">
        <ele>62</ele>
        <time>2021-02-07T10:28:22.000Z</time>
      </trkpt>
      <trkpt lat="47.14245" lon="-1.66666">
        <ele>62</ele>
        <time>2021-02-07T10:28:24.000Z</time>
      </trkpt>
      <trkpt lat="47.1425" lon="-1.6665">
        <ele>62</ele>
        <time>2021-02-07T10:28:26.000Z</time>
      </trkpt>
      <trkpt lat="47.14255" lon="-1.66633">
        <ele>62</ele>
        <time>2021-02-07T10:28:28.000Z</time>
      </trkpt>
      <trkpt lat="47.14261" lon="-1.66618">
        <ele>62</ele>
        <time>2021-02-07T10:28:30.000Z</time>
      </trkpt>
      <trkpt lat="47.14266" lon="-1.66602">
        <ele>62</ele>
        <time>2021-02-07T10:28:32.000Z</time>
      </trkpt>
      <trkpt lat="47.1427" lon="-1.66587">
        <ele>63</ele>
        <time>2021-02-07T10:28:34.000Z</time>
      </trkpt>
      <trkpt lat="47.14274" lon="-1.66572">
        <ele>63</ele>
        <time>2021-02-07T10:28:36.000Z</time>
      </trkpt>
      <trkpt lat="47.14278" lon="-1.66557">
        <ele>63</ele>
        <time>2021-02-07T10:28:38.000Z</time>
      </trkpt>
      <trkpt lat="47.14281" lon="-1.66542">
        <ele>63</ele>
        <time>2021-02-07T10:28:40.000Z</time>
      </trkpt>
      <trkpt lat="47.14285" lon="-1.66527">
        <ele>64</ele>
        <time>2021-02-07T10:28:42.000Z</time>
      </trkpt>
      <trkpt lat="47.14289" lon="-1.66512">
        <ele>64</ele>
        <time>2021-02-07T10:28:44.000Z</time>
      </trkpt>
      <trkpt lat="47.14293" lon="-1.66496">
        <ele>64</ele>
        <time>2021-02-07T10:28:46.000Z</time>
      </trkpt>
      <trkpt lat="47.14297" lon="-1.66481">
        <ele>63</ele>
        <time>2021-02-07T10:28:48.000Z</time>
      </trkpt>
      <trkpt lat="47.14301" lon="-1.66465">
        <ele>63</ele>
        <time>2021-02-07T10:28:50.000Z</time>
      </trkpt>
      <trkpt lat="47.14304" lon="-1.66449">
        <ele>63</ele>
        <time>2021-02-07T10:28:52.000Z</time>
      </trkpt>
      <trkpt lat="47.14308" lon="-1.66434">
        <ele>63</ele>
        <time>2021-02-07T10:28:54.000Z</time>
      </trkpt>
      <trkpt lat="47.14312" lon="-1.66419">
        <ele>63</ele>
        <time>2021-02-07T10:28:56.000Z</time>
      </trkpt>
      <trkpt lat="47.14316" lon="-1.66403">
        <ele>63</ele>
        <time>2021-02-07T10:28:58.000Z</time>
      </trkpt>
      <trkpt lat="47.1432" lon="-1.66389">
        <ele>63</ele>
        <time>2021-02-07T10:29:00.000Z</time>
      </trkpt>
      <trkpt lat="47.14324" lon="-1.66373">
        <ele>64</ele>
        <time>2021-02-07T10:29:02.000Z</time>
      </trkpt>
      <trkpt lat="47.14328" lon="-1.66358">
        <ele>63</ele>
        <time>2021-02-07T10:29:04.000Z</time>
      </trkpt>
      <trkpt lat="47.14332" lon="-1.66342">
        <ele>63</ele>
        <time>2021-02-07T10:29:06.000Z</time>
      </trkpt>
      <trkpt lat="47.14335" lon="-1.66327">
        <ele>63</ele>
        <time>2021-02-07T10:29:08.000Z</time>
      </trkpt>
      <trkpt lat="47.14338" lon="-1.66311">
        <ele>63</ele>
        <time>2021-02-07T10:29:10.000Z</time>
      </trkpt>
      <trkpt lat="47.14342" lon="-1.66296">
        <ele>64</ele>
        <time>2021-02-07T10:29:12.000Z</time>
      </trkpt>
      <trkpt lat="47.14345" lon="-1.66281">
        <ele>64</ele>
        <time>2021-02-07T10:29:14.000Z</time>
      </trkpt>
      <trkpt lat="47.14348" lon="-1.66264">
        <ele>64</ele>
        <time>2021-02-07T10:29:16.000Z</time>
      </trkpt>
      <trkpt lat="47.14352" lon="-1.66249">
        <ele>64</ele>
        <time>2021-02-07T10:29:18.000Z</time>
      </trkpt>
      <trkpt lat="47.14356" lon="-1.66232">
        <ele>64</ele>
        <time>2021-02-07T10:29:20.000Z</time>
      </trkpt>
      <trkpt lat="47.14359" lon="-1.66216">
        <ele>64</ele>
        <time>2021-02-07T10:29:22.000Z</time>
      </trkpt>
      <trkpt lat="47.14363" lon="-1.66201">
        <ele>64</ele>
        <time>2021-02-07T10:29:24.000Z</time>
      </trkpt>
      <trkpt lat="47.1436" lon="-1.66187">
        <ele>65</ele>
        <time>2021-02-07T10:29:26.000Z</time>
      </trkpt>
      <trkpt lat="47.14362" lon="-1.66169">
        <ele>66</ele>
        <time>2021-02-07T10:29:29.000Z</time>
      </trkpt>
      <trkpt lat="47.14368" lon="-1.6616">
        <ele>66</ele>
        <time>2021-02-07T10:29:31.000Z</time>
      </trkpt>
      <trkpt lat="47.14373" lon="-1.66141">
        <ele>67</ele>
        <time>2021-02-07T10:29:34.000Z</time>
      </trkpt>
      <trkpt lat="47.14375" lon="-1.66125">
        <ele>67</ele>
        <time>2021-02-07T10:29:36.000Z</time>
      </trkpt>
      <trkpt lat="47.14377" lon="-1.66109">
        <ele>67</ele>
        <time>2021-02-07T10:29:38.000Z</time>
      </trkpt>
      <trkpt lat="47.14379" lon="-1.66093">
        <ele>67</ele>
        <time>2021-02-07T10:29:40.000Z</time>
      </trkpt>
      <trkpt lat="47.14381" lon="-1.66077">
        <ele>66</ele>
        <time>2021-02-07T10:29:42.000Z</time>
      </trkpt>
      <trkpt lat="47.14382" lon="-1.66061">
        <ele>66</ele>
        <time>2021-02-07T10:29:44.000Z</time>
      </trkpt>
      <trkpt lat="47.14384" lon="-1.66045">
        <ele>66</ele>
        <time>2021-02-07T10:29:46.000Z</time>
      </trkpt>
      <trkpt lat="47.14386" lon="-1.66028">
        <ele>66</ele>
        <time>2021-02-07T10:29:48.000Z</time>
      </trkpt>
      <trkpt lat="47.14387" lon="-1.66011">
        <ele>66</ele>
        <time>2021-02-07T10:29:50.000Z</time>
      </trkpt>
      <trkpt lat="47.14388" lon="-1.65995">
        <ele>66</ele>
        <time>2021-02-07T10:29:52.000Z</time>
      </trkpt>
      <trkpt lat="47.14389" lon="-1.65978">
        <ele>66</ele>
        <time>2021-02-07T10:29:54.000Z</time>
      </trkpt>
      <trkpt lat="47.1439" lon="-1.65961">
        <ele>65</ele>
        <time>2021-02-07T10:29:56.000Z</time>
      </trkpt>
      <trkpt lat="47.14391" lon="-1.65944">
        <ele>65</ele>
        <time>2021-02-07T10:29:58.000Z</time>
      </trkpt>
      <trkpt lat="47.14392" lon="-1.65927">
        <ele>65</ele>
        <time>2021-02-07T10:30:00.000Z</time>
      </trkpt>
      <trkpt lat="47.14393" lon="-1.65909">
        <ele>65</ele>
        <time>2021-02-07T10:30:02.000Z</time>
      </trkpt>
      <trkpt lat="47.14394" lon="-1.65891">
        <ele>64</ele>
        <time>2021-02-07T10:30:04.000Z</time>
      </trkpt>
      <trkpt lat="47.14395" lon="-1.65873">
        <ele>64</ele>
        <time>2021-02-07T10:30:06.000Z</time>
      </trkpt>
      <trkpt lat="47.14396" lon="-1.65855">
        <ele>64</ele>
        <time>2021-02-07T10:30:08.000Z</time>
      </trkpt>
      <trkpt lat="47.14398" lon="-1.65837">
        <ele>64</ele>
        <time>2021-02-07T10:30:10.000Z</time>
      </trkpt>
      <trkpt lat="47.144" lon="-1.65819">
        <ele>64</ele>
        <time>2021-02-07T10:30:12.000Z</time>
      </trkpt>
      <trkpt lat="47.14402" lon="-1.65802">
        <ele>64</ele>
        <time>2021-02-07T10:30:14.000Z</time>
      </trkpt>
      <trkpt lat="47.14404" lon="-1.65784">
        <ele>64</ele>
        <time>2021-02-07T10:30:16.000Z</time>
      </trkpt>
      <trkpt lat="47.14407" lon="-1.65766">
        <ele>63</ele>
        <time>2021-02-07T10:30:18.000Z</time>
      </trkpt>
      <trkpt lat="47.1441" lon="-1.65748">
        <ele>63</ele>
        <time>2021-02-07T10:30:20.000Z</time>
      </trkpt>
      <trkpt lat="47.14413" lon="-1.65731">
        <ele>63</ele>
        <time>2021-02-07T10:30:22.000Z</time>
      </trkpt>
      <trkpt lat="47.14416" lon="-1.65714">
        <ele>63</ele>
        <time>2021-02-07T10:30:24.000Z</time>
      </trkpt>
      <trkpt lat="47.14419" lon="-1.65697">
        <ele>63</ele>
        <time>2021-02-07T10:30:26.000Z</time>
      </trkpt>
      <trkpt lat="47.14422" lon="-1.6568">
        <ele>62</ele>
        <time>2021-02-07T10:30:28.000Z</time>
      </trkpt>
      <trkpt lat="47.14426" lon="-1.65664">
        <ele>62</ele>
        <time>2021-02-07T10:30:30.000Z</time>
      </trkpt>
      <trkpt lat="47.14431" lon="-1.65648">
        <ele>63</ele>
        <time>2021-02-07T10:30:32.000Z</time>
      </trkpt>
      <trkpt lat="47.14437" lon="-1.65632">
        <ele>63</ele>
        <time>2021-02-07T10:30:34.000Z</time>
      </trkpt>
      <trkpt lat="47.14442" lon="-1.65618">
        <ele>63</ele>
        <time>2021-02-07T10:30:36.000Z</time>
      </trkpt>
      <trkpt lat="47.14448" lon="-1.65602">
        <ele>63</ele>
        <time>2021-02-07T10:30:38.000Z</time>
      </trkpt>
      <trkpt lat="47.14454" lon="-1.65588">
        <ele>63</ele>
        <time>2021-02-07T10:30:40.000Z</time>
      </trkpt>
      <trkpt lat="47.14459" lon="-1.65573">
        <ele>64</ele>
        <time>2021-02-07T10:30:42.000Z</time>
      </trkpt>
      <trkpt lat="47.14465" lon="-1.65559">
        <ele>64</ele>
        <time>2021-02-07T10:30:44.000Z</time>
      </trkpt>
      <trkpt lat="47.1447" lon="-1.65545">
        <ele>64</ele>
        <time>2021-02-07T10:30:46.000Z</time>
      </trkpt>
      <trkpt lat="47.14476" lon="-1.65531">
        <ele>64</ele>
        <time>2021-02-07T10:30:48.000Z</time>
      </trkpt>
      <trkpt lat="47.14482" lon="-1.65517">
        <ele>64</ele>
        <time>2021-02-07T10:30:50.000Z</time>
      </trkpt>
      <trkpt lat="47.14487" lon="-1.65503">
        <ele>65</ele>
        <time>2021-02-07T10:30:52.000Z</time>
      </trkpt>
      <trkpt lat="47.14493" lon="-1.6549">
        <ele>65</ele>
        <time>2021-02-07T10:30:54.000Z</time>
      </trkpt>
      <trkpt lat="47.14499" lon="-1.65476">
        <ele>65</ele>
        <time>2021-02-07T10:30:56.000Z</time>
      </trkpt>
      <trkpt lat="47.14505" lon="-1.65462">
        <ele>65</ele>
        <time>2021-02-07T10:30:58.000Z</time>
      </trkpt>
      <trkpt lat="47.1451" lon="-1.65448">
        <ele>66</ele>
        <time>2021-02-07T10:31:00.000Z</time>
      </trkpt>
      <trkpt lat="47.14515" lon="-1.65434">
        <ele>66</ele>
        <time>2021-02-07T10:31:02.000Z</time>
      </trkpt>
      <trkpt lat="47.1452" lon="-1.65419">
        <ele>66</ele>
        <time>2021-02-07T10:31:04.000Z</time>
      </trkpt>
      <trkpt lat="47.14524" lon="-1.65404">
        <ele>66</ele>
        <time>2021-02-07T10:31:06.000Z</time>
      </trkpt>
      <trkpt lat="47.14525" lon="-1.65388">
        <ele>66</ele>
        <time>2021-02-07T10:31:08.000Z</time>
      </trkpt>
      <trkpt lat="47.14527" lon="-1.65372">
        <ele>67</ele>
        <time>2021-02-07T10:31:10.000Z</time>
      </trkpt>
      <trkpt lat="47.14531" lon="-1.65356">
        <ele>67</ele>
        <time>2021-02-07T10:31:12.000Z</time>
      </trkpt>
      <trkpt lat="47.14534" lon="-1.6534">
        <ele>67</ele>
        <time>2021-02-07T10:31:14.000Z</time>
      </trkpt>
      <trkpt lat="47.14539" lon="-1.65325">
        <ele>67</ele>
        <time>2021-02-07T10:31:16.000Z</time>
      </trkpt>
      <trkpt lat="47.14543" lon="-1.6531">
        <ele>67</ele>
        <time>2021-02-07T10:31:18.000Z</time>
      </trkpt>
      <trkpt lat="47.1455" lon="-1.65298">
        <ele>67</ele>
        <time>2021-02-07T10:31:20.000Z</time>
      </trkpt>
      <trkpt lat="47.14555" lon="-1.65283">
        <ele>67</ele>
        <time>2021-02-07T10:31:22.000Z</time>
      </trkpt>
      <trkpt lat="47.14558" lon="-1.65268">
        <ele>67</ele>
        <time>2021-02-07T10:31:24.000Z</time>
      </trkpt>
      <trkpt lat="47.14561" lon="-1.65252">
        <ele>67</ele>
        <time>2021-02-07T10:31:26.000Z</time>
      </trkpt>
      <trkpt lat="47.14564" lon="-1.65236">
        <ele>67</ele>
        <time>2021-02-07T10:31:28.000Z</time>
      </trkpt>
      <trkpt lat="47.14567" lon="-1.6522">
        <ele>68</ele>
        <time>2021-02-07T10:31:30.000Z</time>
      </trkpt>
      <trkpt lat="47.1457" lon="-1.65205">
        <ele>68</ele>
        <time>2021-02-07T10:31:32.000Z</time>
      </trkpt>
      <trkpt lat="47.14574" lon="-1.6519">
        <ele>68</ele>
        <time>2021-02-07T10:31:34.000Z</time>
      </trkpt>
      <trkpt lat="47.14578" lon="-1.65174">
        <ele>69</ele>
        <time>2021-02-07T10:31:36.000Z</time>
      </trkpt>
      <trkpt lat="47.14582" lon="-1.6516">
        <ele>69</ele>
        <time>2021-02-07T10:31:38.000Z</time>
      </trkpt>
      <trkpt lat="47.14587" lon="-1.65146">
        <ele>69</ele>
        <time>2021-02-07T10:31:40.000Z</time>
      </trkpt>
      <trkpt lat="47.14591" lon="-1.65132">
        <ele>69</ele>
        <time>2021-02-07T10:31:42.000Z</time>
      </trkpt>
      <trkpt lat="47.14596" lon="-1.65118">
        <ele>69</ele>
        <time>2021-02-07T10:31:44.000Z</time>
      </trkpt>
      <trkpt lat="47.14602" lon="-1.65104">
        <ele>69</ele>
        <time>2021-02-07T10:31:46.000Z</time>
      </trkpt>
      <trkpt lat="47.14606" lon="-1.65089">
        <ele>69</ele>
        <time>2021-02-07T10:31:48.000Z</time>
      </trkpt>
      <trkpt lat="47.14612" lon="-1.65076">
        <ele>68</ele>
        <time>2021-02-07T10:31:50.000Z</time>
      </trkpt>
      <trkpt lat="47.14616" lon="-1.65062">
        <ele>69</ele>
        <time>2021-02-07T10:31:52.000Z</time>
      </trkpt>
      <trkpt lat="47.14622" lon="-1.65048">
        <ele>69</ele>
        <time>2021-02-07T10:31:54.000Z</time>
      </trkpt>
      <trkpt lat="47.14627" lon="-1.65035">
        <ele>69</ele>
        <time>2021-02-07T10:31:56.000Z</time>
      </trkpt>
      <trkpt lat="47.14632" lon="-1.65022">
        <ele>69</ele>
        <time>2021-02-07T10:31:58.000Z</time>
      </trkpt>
      <trkpt lat="47.14637" lon="-1.65007">
        <ele>69</ele>
        <time>2021-02-07T10:32:00.000Z</time>
      </trkpt>
      <trkpt lat="47.14642" lon="-1.64995">
        <ele>70</ele>
        <time>2021-02-07T10:32:02.000Z</time>
      </trkpt>
      <trkpt lat="47.14648" lon="-1.64982">
        <ele>69</ele>
        <time>2021-02-07T10:32:04.000Z</time>
      </trkpt>
      <trkpt lat="47.14653" lon="-1.6497">
        <ele>70</ele>
        <time>2021-02-07T10:32:06.000Z</time>
      </trkpt>
      <trkpt lat="47.14658" lon="-1.64957">
        <ele>70</ele>
        <time>2021-02-07T10:32:08.000Z</time>
      </trkpt>
      <trkpt lat="47.14663" lon="-1.64945">
        <ele>70</ele>
        <time>2021-02-07T10:32:10.000Z</time>
      </trkpt>
      <trkpt lat="47.14668" lon="-1.64932">
        <ele>69</ele>
        <time>2021-02-07T10:32:12.000Z</time>
      </trkpt>
      <trkpt lat="47.14672" lon="-1.6492">
        <ele>69</ele>
        <time>2021-02-07T10:32:14.000Z</time>
      </trkpt>
      <trkpt lat="47.14677" lon="-1.64905">
        <ele>69</ele>
        <time>2021-02-07T10:32:16.000Z</time>
      </trkpt>
      <trkpt lat="47.14681" lon="-1.64891">
        <ele>69</ele>
        <time>2021-02-07T10:32:18.000Z</time>
      </trkpt>
      <trkpt lat="47.14685" lon="-1.64878">
        <ele>69</ele>
        <time>2021-02-07T10:32:20.000Z</time>
      </trkpt>
      <trkpt lat="47.14689" lon="-1.64865">
        <ele>70</ele>
        <time>2021-02-07T10:32:22.000Z</time>
      </trkpt>
      <trkpt lat="47.14693" lon="-1.64853">
        <ele>70</ele>
        <time>2021-02-07T10:32:24.000Z</time>
      </trkpt>
      <trkpt lat="47.14696" lon="-1.6484">
        <ele>70</ele>
        <time>2021-02-07T10:32:26.000Z</time>
      </trkpt>
      <trkpt lat="47.147" lon="-1.64827">
        <ele>70</ele>
        <time>2021-02-07T10:32:28.000Z</time>
      </trkpt>
      <trkpt lat="47.14704" lon="-1.64813">
        <ele>70</ele>
        <time>2021-02-07T10:32:30.000Z</time>
      </trkpt>
      <trkpt lat="47.14708" lon="-1.648">
        <ele>71</ele>
        <time>2021-02-07T10:32:32.000Z</time>
      </trkpt>
      <trkpt lat="47.14711" lon="-1.64786">
        <ele>71</ele>
        <time>2021-02-07T10:32:34.000Z</time>
      </trkpt>
      <trkpt lat="47.14714" lon="-1.64773">
        <ele>71</ele>
        <time>2021-02-07T10:32:36.000Z</time>
      </trkpt>
      <trkpt lat="47.14718" lon="-1.64759">
        <ele>71</ele>
        <time>2021-02-07T10:32:38.000Z</time>
      </trkpt>
      <trkpt lat="47.14721" lon="-1.64746">
        <ele>71</ele>
        <time>2021-02-07T10:32:40.000Z</time>
      </trkpt>
      <trkpt lat="47.14724" lon="-1.64732">
        <ele>72</ele>
        <time>2021-02-07T10:32:42.000Z</time>
      </trkpt>
      <trkpt lat="47.14727" lon="-1.64718">
        <ele>72</ele>
        <time>2021-02-07T10:32:44.000Z</time>
      </trkpt>
      <trkpt lat="47.1473" lon="-1.64703">
        <ele>72</ele>
        <time>2021-02-07T10:32:46.000Z</time>
      </trkpt>
      <trkpt lat="47.14733" lon="-1.64688">
        <ele>72</ele>
        <time>2021-02-07T10:32:48.000Z</time>
      </trkpt>
      <trkpt lat="47.14735" lon="-1.64674">
        <ele>72</ele>
        <time>2021-02-07T10:32:50.000Z</time>
      </trkpt>
      <trkpt lat="47.14738" lon="-1.64659">
        <ele>72</ele>
        <time>2021-02-07T10:32:52.000Z</time>
      </trkpt>
      <trkpt lat="47.1474" lon="-1.64644">
        <ele>72</ele>
        <time>2021-02-07T10:32:54.000Z</time>
      </trkpt>
      <trkpt lat="47.14743" lon="-1.64629">
        <ele>73</ele>
        <time>2021-02-07T10:32:56.000Z</time>
      </trkpt>
      <trkpt lat="47.14745" lon="-1.64614">
        <ele>73</ele>
        <time>2021-02-07T10:32:58.000Z</time>
      </trkpt>
      <trkpt lat="47.14747" lon="-1.64599">
        <ele>73</ele>
        <time>2021-02-07T10:33:00.000Z</time>
      </trkpt>
      <trkpt lat="47.14749" lon="-1.64585">
        <ele>73</ele>
        <time>2021-02-07T10:33:02.000Z</time>
      </trkpt>
      <trkpt lat="47.14752" lon="-1.64569">
        <ele>73</ele>
        <time>2021-02-07T10:33:04.000Z</time>
      </trkpt>
      <trkpt lat="47.14754" lon="-1.64555">
        <ele>73</ele>
        <time>2021-02-07T10:33:06.000Z</time>
      </trkpt>
      <trkpt lat="47.14757" lon="-1.64539">
        <ele>73</ele>
        <time>2021-02-07T10:33:08.000Z</time>
      </trkpt>
      <trkpt lat="47.1476" lon="-1.64524">
        <ele>73</ele>
        <time>2021-02-07T10:33:10.000Z</time>
      </trkpt>
      <trkpt lat="47.14763" lon="-1.64508">
        <ele>73</ele>
        <time>2021-02-07T10:33:12.000Z</time>
      </trkpt>
      <trkpt lat="47.14765" lon="-1.64492">
        <ele>73</ele>
        <time>2021-02-07T10:33:14.000Z</time>
      </trkpt>
      <trkpt lat="47.14768" lon="-1.64475">
        <ele>72</ele>
        <time>2021-02-07T10:33:16.000Z</time>
      </trkpt>
      <trkpt lat="47.14771" lon="-1.6446">
        <ele>73</ele>
        <time>2021-02-07T10:33:18.000Z</time>
      </trkpt>
      <trkpt lat="47.14774" lon="-1.64444">
        <ele>73</ele>
        <time>2021-02-07T10:33:20.000Z</time>
      </trkpt>
      <trkpt lat="47.14776" lon="-1.64428">
        <ele>73</ele>
        <time>2021-02-07T10:33:22.000Z</time>
      </trkpt>
      <trkpt lat="47.1478" lon="-1.64413">
        <ele>73</ele>
        <time>2021-02-07T10:33:24.000Z</time>
      </trkpt>
      <trkpt lat="47.14783" lon="-1.64399">
        <ele>73</ele>
        <time>2021-02-07T10:33:26.000Z</time>
      </trkpt>
      <trkpt lat="47.14787" lon="-1.64383">
        <ele>73</ele>
        <time>2021-02-07T10:33:28.000Z</time>
      </trkpt>
      <trkpt lat="47.1479" lon="-1.64367">
        <ele>73</ele>
        <time>2021-02-07T10:33:30.000Z</time>
      </trkpt>
      <trkpt lat="47.14794" lon="-1.64352">
        <ele>73</ele>
        <time>2021-02-07T10:33:32.000Z</time>
      </trkpt>
      <trkpt lat="47.14797" lon="-1.64337">
        <ele>73</ele>
        <time>2021-02-07T10:33:34.000Z</time>
      </trkpt>
      <trkpt lat="47.148" lon="-1.64322">
        <ele>73</ele>
        <time>2021-02-07T10:33:36.000Z</time>
      </trkpt>
      <trkpt lat="47.14805" lon="-1.64306">
        <ele>74</ele>
        <time>2021-02-07T10:33:38.000Z</time>
      </trkpt>
      <trkpt lat="47.14809" lon="-1.6429">
        <ele>74</ele>
        <time>2021-02-07T10:33:40.000Z</time>
      </trkpt>
      <trkpt lat="47.14813" lon="-1.64275">
        <ele>74</ele>
        <time>2021-02-07T10:33:42.000Z</time>
      </trkpt>
      <trkpt lat="47.14817" lon="-1.64259">
        <ele>74</ele>
        <time>2021-02-07T10:33:44.000Z</time>
      </trkpt>
      <trkpt lat="47.14822" lon="-1.64244">
        <ele>74</ele>
        <time>2021-02-07T10:33:46.000Z</time>
      </trkpt>
      <trkpt lat="47.14827" lon="-1.64229">
        <ele>75</ele>
        <time>2021-02-07T10:33:48.000Z</time>
      </trkpt>
      <trkpt lat="47.14832" lon="-1.64215">
        <ele>75</ele>
        <time>2021-02-07T10:33:50.000Z</time>
      </trkpt>
      <trkpt lat="47.14836" lon="-1.642">
        <ele>75</ele>
        <time>2021-02-07T10:33:52.000Z</time>
      </trkpt>
      <trkpt lat="47.14841" lon="-1.64185">
        <ele>75</ele>
        <time>2021-02-07T10:33:54.000Z</time>
      </trkpt>
      <trkpt lat="47.14845" lon="-1.64171">
        <ele>75</ele>
        <time>2021-02-07T10:33:56.000Z</time>
      </trkpt>
      <trkpt lat="47.1485" lon="-1.64156">
        <ele>74</ele>
        <time>2021-02-07T10:33:58.000Z</time>
      </trkpt>
      <trkpt lat="47.14855" lon="-1.64141">
        <ele>74</ele>
        <time>2021-02-07T10:34:00.000Z</time>
      </trkpt>
      <trkpt lat="47.1486" lon="-1.64126">
        <ele>74</ele>
        <time>2021-02-07T10:34:02.000Z</time>
      </trkpt>
      <trkpt lat="47.14865" lon="-1.64111">
        <ele>74</ele>
        <time>2021-02-07T10:34:04.000Z</time>
      </trkpt>
      <trkpt lat="47.1487" lon="-1.64097">
        <ele>75</ele>
        <time>2021-02-07T10:34:06.000Z</time>
      </trkpt>
      <trkpt lat="47.14875" lon="-1.64083">
        <ele>75</ele>
        <time>2021-02-07T10:34:08.000Z</time>
      </trkpt>
      <trkpt lat="47.14879" lon="-1.64069">
        <ele>75</ele>
        <time>2021-02-07T10:34:10.000Z</time>
      </trkpt>
      <trkpt lat="47.14881" lon="-1.64054">
        <ele>75</ele>
        <time>2021-02-07T10:34:12.000Z</time>
      </trkpt>
      <trkpt lat="47.14883" lon="-1.64041">
        <ele>75</ele>
        <time>2021-02-07T10:34:14.000Z</time>
      </trkpt>
      <trkpt lat="47.14888" lon="-1.64027">
        <ele>74</ele>
        <time>2021-02-07T10:34:17.000Z</time>
      </trkpt>
      <trkpt lat="47.14898" lon="-1.64015">
        <ele>75</ele>
        <time>2021-02-07T10:34:20.000Z</time>
      </trkpt>
      <trkpt lat="47.14907" lon="-1.64011">
        <ele>76</ele>
        <time>2021-02-07T10:34:22.000Z</time>
      </trkpt>
      <trkpt lat="47.14914" lon="-1.64002">
        <ele>76</ele>
        <time>2021-02-07T10:34:24.000Z</time>
      </trkpt>
      <trkpt lat="47.1492" lon="-1.63989">
        <ele>76</ele>
        <time>2021-02-07T10:34:26.000Z</time>
      </trkpt>
      <trkpt lat="47.14927" lon="-1.63976">
        <ele>76</ele>
        <time>2021-02-07T10:34:28.000Z</time>
      </trkpt>
      <trkpt lat="47.14934" lon="-1.63963">
        <ele>76</ele>
        <time>2021-02-07T10:34:30.000Z</time>
      </trkpt>
      <trkpt lat="47.14941" lon="-1.6395">
        <ele>76</ele>
        <time>2021-02-07T10:34:32.000Z</time>
      </trkpt>
      <trkpt lat="47.14948" lon="-1.63937">
        <ele>76</ele>
        <time>2021-02-07T10:34:34.000Z</time>
      </trkpt>
      <trkpt lat="47.14956" lon="-1.63926">
        <ele>76</ele>
        <time>2021-02-07T10:34:36.000Z</time>
      </trkpt>
      <trkpt lat="47.14965" lon="-1.63914">
        <ele>76</ele>
        <time>2021-02-07T10:34:38.000Z</time>
      </trkpt>
      <trkpt lat="47.14973" lon="-1.63902">
        <ele>76</ele>
        <time>2021-02-07T10:34:40.000Z</time>
      </trkpt>
      <trkpt lat="47.14981" lon="-1.6389">
        <ele>76</ele>
        <time>2021-02-07T10:34:42.000Z</time>
      </trkpt>
      <trkpt lat="47.14989" lon="-1.63878">
        <ele>76</ele>
        <time>2021-02-07T10:34:44.000Z</time>
      </trkpt>
      <trkpt lat="47.14998" lon="-1.63866">
        <ele>76</ele>
        <time>2021-02-07T10:34:46.000Z</time>
      </trkpt>
      <trkpt lat="47.15006" lon="-1.63855">
        <ele>76</ele>
        <time>2021-02-07T10:34:48.000Z</time>
      </trkpt>
      <trkpt lat="47.15015" lon="-1.63843">
        <ele>76</ele>
        <time>2021-02-07T10:34:50.000Z</time>
      </trkpt>
      <trkpt lat="47.15023" lon="-1.63831">
        <ele>75</ele>
        <time>2021-02-07T10:34:52.000Z</time>
      </trkpt>
      <trkpt lat="47.15032" lon="-1.6382">
        <ele>75</ele>
        <time>2021-02-07T10:34:54.000Z</time>
      </trkpt>
      <trkpt lat="47.1504" lon="-1.63809">
        <ele>75</ele>
        <time>2021-02-07T10:34:56.000Z</time>
      </trkpt>
      <trkpt lat="47.15048" lon="-1.63797">
        <ele>76</ele>
        <time>2021-02-07T10:34:58.000Z</time>
      </trkpt>
      <trkpt lat="47.15057" lon="-1.63787">
        <ele>76</ele>
        <time>2021-02-07T10:35:00.000Z</time>
      </trkpt>
      <trkpt lat="47.15066" lon="-1.63776">
        <ele>76</ele>
        <time>2021-02-07T10:35:02.000Z</time>
      </trkpt>
      <trkpt lat="47.15075" lon="-1.63766">
        <ele>76</ele>
        <time>2021-02-07T10:35:04.000Z</time>
      </trkpt>
      <trkpt lat="47.15082" lon="-1.63755">
        <ele>76</ele>
        <time>2021-02-07T10:35:06.000Z</time>
      </trkpt>
      <trkpt lat="47.15091" lon="-1.63744">
        <ele>76</ele>
        <time>2021-02-07T10:35:08.000Z</time>
      </trkpt>
      <trkpt lat="47.151" lon="-1.63734">
        <ele>76</ele>
        <time>2021-02-07T10:35:10.000Z</time>
      </trkpt>
      <trkpt lat="47.15108" lon="-1.63725">
        <ele>75</ele>
        <time>2021-02-07T10:35:12.000Z</time>
      </trkpt>
      <trkpt lat="47.15116" lon="-1.63715">
        <ele>75</ele>
        <time>2021-02-07T10:35:14.000Z</time>
      </trkpt>
      <trkpt lat="47.15125" lon="-1.63703">
        <ele>76</ele>
        <time>2021-02-07T10:35:16.000Z</time>
      </trkpt>
      <trkpt lat="47.15133" lon="-1.63694">
        <ele>76</ele>
        <time>2021-02-07T10:35:18.000Z</time>
      </trkpt>
      <trkpt lat="47.15142" lon="-1.63683">
        <ele>78</ele>
        <time>2021-02-07T10:35:20.000Z</time>
      </trkpt>
      <trkpt lat="47.15151" lon="-1.63675">
        <ele>77</ele>
        <time>2021-02-07T10:35:22.000Z</time>
      </trkpt>
      <trkpt lat="47.1516" lon="-1.63666">
        <ele>77</ele>
        <time>2021-02-07T10:35:24.000Z</time>
      </trkpt>
      <trkpt lat="47.1517" lon="-1.63659">
        <ele>76</ele>
        <time>2021-02-07T10:35:26.000Z</time>
      </trkpt>
      <trkpt lat="47.1518" lon="-1.63651">
        <ele>76</ele>
        <time>2021-02-07T10:35:28.000Z</time>
      </trkpt>
      <trkpt lat="47.1519" lon="-1.63644">
        <ele>76</ele>
        <time>2021-02-07T10:35:30.000Z</time>
      </trkpt>
      <trkpt lat="47.152" lon="-1.63635">
        <ele>76</ele>
        <time>2021-02-07T10:35:32.000Z</time>
      </trkpt>
      <trkpt lat="47.1521" lon="-1.63626">
        <ele>76</ele>
        <time>2021-02-07T10:35:34.000Z</time>
      </trkpt>
      <trkpt lat="47.1522" lon="-1.63617">
        <ele>76</ele>
        <time>2021-02-07T10:35:36.000Z</time>
      </trkpt>
      <trkpt lat="47.15229" lon="-1.63609">
        <ele>76</ele>
        <time>2021-02-07T10:35:38.000Z</time>
      </trkpt>
      <trkpt lat="47.15238" lon="-1.63601">
        <ele>76</ele>
        <time>2021-02-07T10:35:40.000Z</time>
      </trkpt>
      <trkpt lat="47.15248" lon="-1.63592">
        <ele>76</ele>
        <time>2021-02-07T10:35:42.000Z</time>
      </trkpt>
      <trkpt lat="47.15258" lon="-1.63584">
        <ele>76</ele>
        <time>2021-02-07T10:35:44.000Z</time>
      </trkpt>
      <trkpt lat="47.15267" lon="-1.63575">
        <ele>76</ele>
        <time>2021-02-07T10:35:46.000Z</time>
      </trkpt>
      <trkpt lat="47.15276" lon="-1.63567">
        <ele>76</ele>
        <time>2021-02-07T10:35:48.000Z</time>
      </trkpt>
      <trkpt lat="47.15286" lon="-1.63559">
        <ele>76</ele>
        <time>2021-02-07T10:35:50.000Z</time>
      </trkpt>
      <trkpt lat="47.15295" lon="-1.6355">
        <ele>76</ele>
        <time>2021-02-07T10:35:52.000Z</time>
      </trkpt>
      <trkpt lat="47.15304" lon="-1.63542">
        <ele>76</ele>
        <time>2021-02-07T10:35:54.000Z</time>
      </trkpt>
      <trkpt lat="47.15314" lon="-1.63534">
        <ele>76</ele>
        <time>2021-02-07T10:35:56.000Z</time>
      </trkpt>
      <trkpt lat="47.15323" lon="-1.63526">
        <ele>76</ele>
        <time>2021-02-07T10:35:58.000Z</time>
      </trkpt>
      <trkpt lat="47.15333" lon="-1.63518">
        <ele>76</ele>
        <time>2021-02-07T10:36:00.000Z</time>
      </trkpt>
      <trkpt lat="47.15342" lon="-1.6351">
        <ele>75</ele>
        <time>2021-02-07T10:36:02.000Z</time>
      </trkpt>
      <trkpt lat="47.15351" lon="-1.63502">
        <ele>75</ele>
        <time>2021-02-07T10:36:04.000Z</time>
      </trkpt>
      <trkpt lat="47.1536" lon="-1.63493">
        <ele>74</ele>
        <time>2021-02-07T10:36:06.000Z</time>
      </trkpt>
      <trkpt lat="47.1537" lon="-1.63485">
        <ele>75</ele>
        <time>2021-02-07T10:36:08.000Z</time>
      </trkpt>
      <trkpt lat="47.1538" lon="-1.63477">
        <ele>74</ele>
        <time>2021-02-07T10:36:10.000Z</time>
      </trkpt>
      <trkpt lat="47.15389" lon="-1.63469">
        <ele>74</ele>
        <time>2021-02-07T10:36:12.000Z</time>
      </trkpt>
      <trkpt lat="47.15398" lon="-1.63461">
        <ele>74</ele>
        <time>2021-02-07T10:36:14.000Z</time>
      </trkpt>
      <trkpt lat="47.15408" lon="-1.63452">
        <ele>74</ele>
        <time>2021-02-07T10:36:16.000Z</time>
      </trkpt>
      <trkpt lat="47.15417" lon="-1.63444">
        <ele>73</ele>
        <time>2021-02-07T10:36:18.000Z</time>
      </trkpt>
      <trkpt lat="47.15427" lon="-1.63435">
        <ele>73</ele>
        <time>2021-02-07T10:36:20.000Z</time>
      </trkpt>
      <trkpt lat="47.15436" lon="-1.63425">
        <ele>73</ele>
        <time>2021-02-07T10:36:22.000Z</time>
      </trkpt>
      <trkpt lat="47.15446" lon="-1.63415">
        <ele>73</ele>
        <time>2021-02-07T10:36:24.000Z</time>
      </trkpt>
      <trkpt lat="47.15456" lon="-1.63406">
        <ele>73</ele>
        <time>2021-02-07T10:36:26.000Z</time>
      </trkpt>
      <trkpt lat="47.15467" lon="-1.63397">
        <ele>73</ele>
        <time>2021-02-07T10:36:28.000Z</time>
      </trkpt>
      <trkpt lat="47.15478" lon="-1.63388">
        <ele>73</ele>
        <time>2021-02-07T10:36:30.000Z</time>
      </trkpt>
      <trkpt lat="47.15489" lon="-1.6338">
        <ele>73</ele>
        <time>2021-02-07T10:36:32.000Z</time>
      </trkpt>
      <trkpt lat="47.155" lon="-1.63371">
        <ele>72</ele>
        <time>2021-02-07T10:36:34.000Z</time>
      </trkpt>
      <trkpt lat="47.15511" lon="-1.63362">
        <ele>72</ele>
        <time>2021-02-07T10:36:36.000Z</time>
      </trkpt>
      <trkpt lat="47.15522" lon="-1.63353">
        <ele>72</ele>
        <time>2021-02-07T10:36:38.000Z</time>
      </trkpt>
      <trkpt lat="47.15534" lon="-1.63343">
        <ele>71</ele>
        <time>2021-02-07T10:36:40.000Z</time>
      </trkpt>
      <trkpt lat="47.15545" lon="-1.63333">
        <ele>71</ele>
        <time>2021-02-07T10:36:42.000Z</time>
      </trkpt>
      <trkpt lat="47.15557" lon="-1.63322">
        <ele>71</ele>
        <time>2021-02-07T10:36:44.000Z</time>
      </trkpt>
      <trkpt lat="47.15569" lon="-1.63312">
        <ele>70</ele>
        <time>2021-02-07T10:36:46.000Z</time>
      </trkpt>
      <trkpt lat="47.1558" lon="-1.63301">
        <ele>69</ele>
        <time>2021-02-07T10:36:48.000Z</time>
      </trkpt>
      <trkpt lat="47.15592" lon="-1.63291">
        <ele>69</ele>
        <time>2021-02-07T10:36:50.000Z</time>
      </trkpt>
      <trkpt lat="47.15603" lon="-1.6328">
        <ele>68</ele>
        <time>2021-02-07T10:36:52.000Z</time>
      </trkpt>
      <trkpt lat="47.15615" lon="-1.6327">
        <ele>68</ele>
        <time>2021-02-07T10:36:54.000Z</time>
      </trkpt>
      <trkpt lat="47.15626" lon="-1.63259">
        <ele>68</ele>
        <time>2021-02-07T10:36:56.000Z</time>
      </trkpt>
      <trkpt lat="47.15637" lon="-1.63249">
        <ele>68</ele>
        <time>2021-02-07T10:36:58.000Z</time>
      </trkpt>
      <trkpt lat="47.15648" lon="-1.63239">
        <ele>68</ele>
        <time>2021-02-07T10:37:00.000Z</time>
      </trkpt>
      <trkpt lat="47.15659" lon="-1.6323">
        <ele>68</ele>
        <time>2021-02-07T10:37:02.000Z</time>
      </trkpt>
      <trkpt lat="47.1567" lon="-1.6322">
        <ele>68</ele>
        <time>2021-02-07T10:37:04.000Z</time>
      </trkpt>
      <trkpt lat="47.15681" lon="-1.6321">
        <ele>68</ele>
        <time>2021-02-07T10:37:06.000Z</time>
      </trkpt>
      <trkpt lat="47.15691" lon="-1.632">
        <ele>67</ele>
        <time>2021-02-07T10:37:08.000Z</time>
      </trkpt>
      <trkpt lat="47.15702" lon="-1.63191">
        <ele>67</ele>
        <time>2021-02-07T10:37:10.000Z</time>
      </trkpt>
      <trkpt lat="47.15712" lon="-1.63182">
        <ele>67</ele>
        <time>2021-02-07T10:37:12.000Z</time>
      </trkpt>
      <trkpt lat="47.15723" lon="-1.63174">
        <ele>68</ele>
        <time>2021-02-07T10:37:14.000Z</time>
      </trkpt>
      <trkpt lat="47.15734" lon="-1.63165">
        <ele>68</ele>
        <time>2021-02-07T10:37:16.000Z</time>
      </trkpt>
      <trkpt lat="47.15743" lon="-1.63154">
        <ele>68</ele>
        <time>2021-02-07T10:37:18.000Z</time>
      </trkpt>
      <trkpt lat="47.15751" lon="-1.63144">
        <ele>68</ele>
        <time>2021-02-07T10:37:20.000Z</time>
      </trkpt>
      <trkpt lat="47.15763" lon="-1.63139">
        <ele>67</ele>
        <time>2021-02-07T10:37:22.000Z</time>
      </trkpt>
      <trkpt lat="47.15774" lon="-1.63131">
        <ele>66</ele>
        <time>2021-02-07T10:37:24.000Z</time>
      </trkpt>
      <trkpt lat="47.15785" lon="-1.63121">
        <ele>66</ele>
        <time>2021-02-07T10:37:26.000Z</time>
      </trkpt>
      <trkpt lat="47.15796" lon="-1.63112">
        <ele>66</ele>
        <time>2021-02-07T10:37:28.000Z</time>
      </trkpt>
      <trkpt lat="47.15807" lon="-1.63102">
        <ele>65</ele>
        <time>2021-02-07T10:37:30.000Z</time>
      </trkpt>
      <trkpt lat="47.15818" lon="-1.63091">
        <ele>65</ele>
        <time>2021-02-07T10:37:32.000Z</time>
      </trkpt>
      <trkpt lat="47.1583" lon="-1.63081">
        <ele>65</ele>
        <time>2021-02-07T10:37:34.000Z</time>
      </trkpt>
      <trkpt lat="47.15842" lon="-1.63071">
        <ele>64</ele>
        <time>2021-02-07T10:37:36.000Z</time>
      </trkpt>
      <trkpt lat="47.15855" lon="-1.6306">
        <ele>63</ele>
        <time>2021-02-07T10:37:38.000Z</time>
      </trkpt>
      <trkpt lat="47.15867" lon="-1.63049">
        <ele>63</ele>
        <time>2021-02-07T10:37:40.000Z</time>
      </trkpt>
      <trkpt lat="47.15878" lon="-1.63038">
        <ele>63</ele>
        <time>2021-02-07T10:37:42.000Z</time>
      </trkpt>
      <trkpt lat="47.1589" lon="-1.63027">
        <ele>63</ele>
        <time>2021-02-07T10:37:44.000Z</time>
      </trkpt>
      <trkpt lat="47.15901" lon="-1.63016">
        <ele>63</ele>
        <time>2021-02-07T10:37:46.000Z</time>
      </trkpt>
      <trkpt lat="47.15912" lon="-1.63005">
        <ele>63</ele>
        <time>2021-02-07T10:37:48.000Z</time>
      </trkpt>
      <trkpt lat="47.15923" lon="-1.62996">
        <ele>63</ele>
        <time>2021-02-07T10:37:50.000Z</time>
      </trkpt>
      <trkpt lat="47.15932" lon="-1.62987">
        <ele>63</ele>
        <time>2021-02-07T10:37:52.000Z</time>
      </trkpt>
      <trkpt lat="47.1594" lon="-1.62979">
        <ele>63</ele>
        <time>2021-02-07T10:37:54.000Z</time>
      </trkpt>
      <trkpt lat="47.15948" lon="-1.62972">
        <ele>64</ele>
        <time>2021-02-07T10:37:56.000Z</time>
      </trkpt>
      <trkpt lat="47.15956" lon="-1.62965">
        <ele>64</ele>
        <time>2021-02-07T10:37:58.000Z</time>
      </trkpt>
      <trkpt lat="47.15964" lon="-1.62958">
        <ele>64</ele>
        <time>2021-02-07T10:38:00.000Z</time>
      </trkpt>
      <trkpt lat="47.15972" lon="-1.6295">
        <ele>64</ele>
        <time>2021-02-07T10:38:02.000Z</time>
      </trkpt>
      <trkpt lat="47.15984" lon="-1.62939">
        <ele>64</ele>
        <time>2021-02-07T10:38:05.000Z</time>
      </trkpt>
      <trkpt lat="47.15992" lon="-1.62931">
        <ele>65</ele>
        <time>2021-02-07T10:38:07.000Z</time>
      </trkpt>
      <trkpt lat="47.16" lon="-1.62925">
        <ele>65</ele>
        <time>2021-02-07T10:38:09.000Z</time>
      </trkpt>
      <trkpt lat="47.16008" lon="-1.62918">
        <ele>65</ele>
        <time>2021-02-07T10:38:11.000Z</time>
      </trkpt>
      <trkpt lat="47.16016" lon="-1.62911">
        <ele>65</ele>
        <time>2021-02-07T10:38:13.000Z</time>
      </trkpt>
      <trkpt lat="47.16023" lon="-1.62903">
        <ele>64</ele>
        <time>2021-02-07T10:38:15.000Z</time>
      </trkpt>
      <trkpt lat="47.16031" lon="-1.62896">
        <ele>65</ele>
        <time>2021-02-07T10:38:17.000Z</time>
      </trkpt>
      <trkpt lat="47.1604" lon="-1.62891">
        <ele>65</ele>
        <time>2021-02-07T10:38:19.000Z</time>
      </trkpt>
      <trkpt lat="47.16048" lon="-1.62883">
        <ele>65</ele>
        <time>2021-02-07T10:38:21.000Z</time>
      </trkpt>
      <trkpt lat="47.16056" lon="-1.62876">
        <ele>65</ele>
        <time>2021-02-07T10:38:23.000Z</time>
      </trkpt>
      <trkpt lat="47.16063" lon="-1.6287">
        <ele>66</ele>
        <time>2021-02-07T10:38:25.000Z</time>
      </trkpt>
      <trkpt lat="47.16075" lon="-1.62859">
        <ele>66</ele>
        <time>2021-02-07T10:38:28.000Z</time>
      </trkpt>
      <trkpt lat="47.16082" lon="-1.62852">
        <ele>66</ele>
        <time>2021-02-07T10:38:30.000Z</time>
      </trkpt>
      <trkpt lat="47.16091" lon="-1.62845">
        <ele>67</ele>
        <time>2021-02-07T10:38:32.000Z</time>
      </trkpt>
      <trkpt lat="47.16098" lon="-1.62837">
        <ele>67</ele>
        <time>2021-02-07T10:38:34.000Z</time>
      </trkpt>
      <trkpt lat="47.16107" lon="-1.62831">
        <ele>67</ele>
        <time>2021-02-07T10:38:36.000Z</time>
      </trkpt>
      <trkpt lat="47.16115" lon="-1.62825">
        <ele>68</ele>
        <time>2021-02-07T10:38:38.000Z</time>
      </trkpt>
      <trkpt lat="47.16126" lon="-1.62816">
        <ele>69</ele>
        <time>2021-02-07T10:38:41.000Z</time>
      </trkpt>
      <trkpt lat="47.16134" lon="-1.6281">
        <ele>69</ele>
        <time>2021-02-07T10:38:43.000Z</time>
      </trkpt>
      <trkpt lat="47.16146" lon="-1.628">
        <ele>70</ele>
        <time>2021-02-07T10:38:46.000Z</time>
      </trkpt>
      <trkpt lat="47.16157" lon="-1.6279">
        <ele>71</ele>
        <time>2021-02-07T10:38:49.000Z</time>
      </trkpt>
      <trkpt lat="47.16168" lon="-1.62779">
        <ele>72</ele>
        <time>2021-02-07T10:38:52.000Z</time>
      </trkpt>
      <trkpt lat="47.16179" lon="-1.6277">
        <ele>73</ele>
        <time>2021-02-07T10:38:55.000Z</time>
      </trkpt>
      <trkpt lat="47.1619" lon="-1.6276">
        <ele>73</ele>
        <time>2021-02-07T10:38:58.000Z</time>
      </trkpt>
      <trkpt lat="47.162" lon="-1.6275">
        <ele>74</ele>
        <time>2021-02-07T10:39:01.000Z</time>
      </trkpt>
      <trkpt lat="47.16211" lon="-1.62741">
        <ele>74</ele>
        <time>2021-02-07T10:39:04.000Z</time>
      </trkpt>
      <trkpt lat="47.16222" lon="-1.62732">
        <ele>75</ele>
        <time>2021-02-07T10:39:07.000Z</time>
      </trkpt>
      <trkpt lat="47.16233" lon="-1.62723">
        <ele>75</ele>
        <time>2021-02-07T10:39:10.000Z</time>
      </trkpt>
      <trkpt lat="47.16243" lon="-1.62713">
        <ele>76</ele>
        <time>2021-02-07T10:39:13.000Z</time>
      </trkpt>
      <trkpt lat="47.16254" lon="-1.62704">
        <ele>76</ele>
        <time>2021-02-07T10:39:16.000Z</time>
      </trkpt>
      <trkpt lat="47.16266" lon="-1.62695">
        <ele>76</ele>
        <time>2021-02-07T10:39:19.000Z</time>
      </trkpt>
      <trkpt lat="47.16276" lon="-1.62686">
        <ele>77</ele>
        <time>2021-02-07T10:39:22.000Z</time>
      </trkpt>
      <trkpt lat="47.16277" lon="-1.62667">
        <ele>76</ele>
        <time>2021-02-07T10:39:25.000Z</time>
      </trkpt>
      <trkpt lat="47.16277" lon="-1.62654">
        <ele>76</ele>
        <time>2021-02-07T10:39:27.000Z</time>
      </trkpt>
      <trkpt lat="47.16279" lon="-1.62639">
        <ele>76</ele>
        <time>2021-02-07T10:39:29.000Z</time>
      </trkpt>
      <trkpt lat="47.16281" lon="-1.62626">
        <ele>75</ele>
        <time>2021-02-07T10:39:31.000Z</time>
      </trkpt>
      <trkpt lat="47.16284" lon="-1.62612">
        <ele>75</ele>
        <time>2021-02-07T10:39:33.000Z</time>
      </trkpt>
      <trkpt lat="47.16288" lon="-1.62598">
        <ele>75</ele>
        <time>2021-02-07T10:39:35.000Z</time>
      </trkpt>
      <trkpt lat="47.16293" lon="-1.62586">
        <ele>75</ele>
        <time>2021-02-07T10:39:37.000Z</time>
      </trkpt>
      <trkpt lat="47.16299" lon="-1.62575">
        <ele>75</ele>
        <time>2021-02-07T10:39:39.000Z</time>
      </trkpt>
      <trkpt lat="47.16309" lon="-1.6257">
        <ele>75</ele>
        <time>2021-02-07T10:39:41.000Z</time>
      </trkpt>
      <trkpt lat="47.1632" lon="-1.62566">
        <ele>75</ele>
        <time>2021-02-07T10:39:43.000Z</time>
      </trkpt>
      <trkpt lat="47.1633" lon="-1.62567">
        <ele>76</ele>
        <time>2021-02-07T10:39:45.000Z</time>
      </trkpt>
      <trkpt lat="47.1634" lon="-1.62571">
        <ele>76</ele>
        <time>2021-02-07T10:39:47.000Z</time>
      </trkpt>
      <trkpt lat="47.1635" lon="-1.62574">
        <ele>75</ele>
        <time>2021-02-07T10:39:49.000Z</time>
      </trkpt>
      <trkpt lat="47.16361" lon="-1.62577">
        <ele>75</ele>
        <time>2021-02-07T10:39:51.000Z</time>
      </trkpt>
      <trkpt lat="47.1637" lon="-1.62577">
        <ele>76</ele>
        <time>2021-02-07T10:39:53.000Z</time>
      </trkpt>
      <trkpt lat="47.1638" lon="-1.62577">
        <ele>76</ele>
        <time>2021-02-07T10:39:55.000Z</time>
      </trkpt>
      <trkpt lat="47.16391" lon="-1.62573">
        <ele>76</ele>
        <time>2021-02-07T10:39:57.000Z</time>
      </trkpt>
      <trkpt lat="47.16401" lon="-1.62567">
        <ele>77</ele>
        <time>2021-02-07T10:39:59.000Z</time>
      </trkpt>
      <trkpt lat="47.1641" lon="-1.62559">
        <ele>77</ele>
        <time>2021-02-07T10:40:01.000Z</time>
      </trkpt>
      <trkpt lat="47.16418" lon="-1.62551">
        <ele>78</ele>
        <time>2021-02-07T10:40:03.000Z</time>
      </trkpt>
      <trkpt lat="47.16427" lon="-1.62542">
        <ele>78</ele>
        <time>2021-02-07T10:40:05.000Z</time>
      </trkpt>
      <trkpt lat="47.16435" lon="-1.62537">
        <ele>78</ele>
        <time>2021-02-07T10:40:07.000Z</time>
      </trkpt>
      <trkpt lat="47.16445" lon="-1.62537">
        <ele>78</ele>
        <time>2021-02-07T10:40:09.000Z</time>
      </trkpt>
      <trkpt lat="47.16455" lon="-1.62538">
        <ele>79</ele>
        <time>2021-02-07T10:40:11.000Z</time>
      </trkpt>
      <trkpt lat="47.16465" lon="-1.62541">
        <ele>79</ele>
        <time>2021-02-07T10:40:13.000Z</time>
      </trkpt>
      <trkpt lat="47.16474" lon="-1.62544">
        <ele>79</ele>
        <time>2021-02-07T10:40:15.000Z</time>
      </trkpt>
      <trkpt lat="47.16484" lon="-1.62547">
        <ele>79</ele>
        <time>2021-02-07T10:40:17.000Z</time>
      </trkpt>
      <trkpt lat="47.16493" lon="-1.6255">
        <ele>79</ele>
        <time>2021-02-07T10:40:19.000Z</time>
      </trkpt>
      <trkpt lat="47.16504" lon="-1.62553">
        <ele>78</ele>
        <time>2021-02-07T10:40:21.000Z</time>
      </trkpt>
      <trkpt lat="47.16514" lon="-1.62555">
        <ele>77</ele>
        <time>2021-02-07T10:40:23.000Z</time>
      </trkpt>
      <trkpt lat="47.16524" lon="-1.62558">
        <ele>77</ele>
        <time>2021-02-07T10:40:25.000Z</time>
      </trkpt>
      <trkpt lat="47.16533" lon="-1.62557">
        <ele>78</ele>
        <time>2021-02-07T10:40:27.000Z</time>
      </trkpt>
      <trkpt lat="47.16542" lon="-1.62551">
        <ele>78</ele>
        <time>2021-02-07T10:40:29.000Z</time>
      </trkpt>
      <trkpt lat="47.16551" lon="-1.62541">
        <ele>78</ele>
        <time>2021-02-07T10:40:31.000Z</time>
      </trkpt>
      <trkpt lat="47.16558" lon="-1.6253">
        <ele>77</ele>
        <time>2021-02-07T10:40:33.000Z</time>
      </trkpt>
      <trkpt lat="47.16565" lon="-1.62517">
        <ele>77</ele>
        <time>2021-02-07T10:40:35.000Z</time>
      </trkpt>
      <trkpt lat="47.16571" lon="-1.62503">
        <ele>77</ele>
        <time>2021-02-07T10:40:37.000Z</time>
      </trkpt>
      <trkpt lat="47.16578" lon="-1.62488">
        <ele>76</ele>
        <time>2021-02-07T10:40:39.000Z</time>
      </trkpt>
      <trkpt lat="47.16584" lon="-1.62471">
        <ele>76</ele>
        <time>2021-02-07T10:40:41.000Z</time>
      </trkpt>
      <trkpt lat="47.1659" lon="-1.62455">
        <ele>75</ele>
        <time>2021-02-07T10:40:43.000Z</time>
      </trkpt>
      <trkpt lat="47.16597" lon="-1.62439">
        <ele>75</ele>
        <time>2021-02-07T10:40:45.000Z</time>
      </trkpt>
      <trkpt lat="47.16605" lon="-1.62423">
        <ele>75</ele>
        <time>2021-02-07T10:40:47.000Z</time>
      </trkpt>
      <trkpt lat="47.16613" lon="-1.62408">
        <ele>74</ele>
        <time>2021-02-07T10:40:49.000Z</time>
      </trkpt>
      <trkpt lat="47.16621" lon="-1.62394">
        <ele>73</ele>
        <time>2021-02-07T10:40:51.000Z</time>
      </trkpt>
      <trkpt lat="47.16631" lon="-1.62381">
        <ele>73</ele>
        <time>2021-02-07T10:40:53.000Z</time>
      </trkpt>
      <trkpt lat="47.16641" lon="-1.6237">
        <ele>72</ele>
        <time>2021-02-07T10:40:55.000Z</time>
      </trkpt>
      <trkpt lat="47.16651" lon="-1.6236">
        <ele>72</ele>
        <time>2021-02-07T10:40:57.000Z</time>
      </trkpt>
      <trkpt lat="47.16664" lon="-1.62353">
        <ele>72</ele>
        <time>2021-02-07T10:40:59.000Z</time>
      </trkpt>
      <trkpt lat="47.16676" lon="-1.62351">
        <ele>71</ele>
        <time>2021-02-07T10:41:01.000Z</time>
      </trkpt>
      <trkpt lat="47.16689" lon="-1.62355">
        <ele>71</ele>
        <time>2021-02-07T10:41:03.000Z</time>
      </trkpt>
      <trkpt lat="47.167" lon="-1.62366">
        <ele>71</ele>
        <time>2021-02-07T10:41:05.000Z</time>
      </trkpt>
      <trkpt lat="47.1671" lon="-1.62379">
        <ele>71</ele>
        <time>2021-02-07T10:41:07.000Z</time>
      </trkpt>
      <trkpt lat="47.16718" lon="-1.62389">
        <ele>71</ele>
        <time>2021-02-07T10:41:09.000Z</time>
      </trkpt>
      <trkpt lat="47.16729" lon="-1.62398">
        <ele>71</ele>
        <time>2021-02-07T10:41:12.000Z</time>
      </trkpt>
      <trkpt lat="47.16727" lon="-1.62413">
        <ele>69</ele>
        <time>2021-02-07T10:41:15.000Z</time>
      </trkpt>
      <trkpt lat="47.16728" lon="-1.62427">
        <ele>70</ele>
        <time>2021-02-07T10:41:19.000Z</time>
      </trkpt>
      <trkpt lat="47.16724" lon="-1.62445">
        <ele>69</ele>
        <time>2021-02-07T10:41:22.000Z</time>
      </trkpt>
      <trkpt lat="47.16722" lon="-1.6246">
        <ele>69</ele>
        <time>2021-02-07T10:41:24.000Z</time>
      </trkpt>
      <trkpt lat="47.16718" lon="-1.62474">
        <ele>70</ele>
        <time>2021-02-07T10:41:26.000Z</time>
      </trkpt>
      <trkpt lat="47.16716" lon="-1.62488">
        <ele>70</ele>
        <time>2021-02-07T10:41:28.000Z</time>
      </trkpt>
      <trkpt lat="47.16722" lon="-1.62499">
        <ele>70</ele>
        <time>2021-02-07T10:41:30.000Z</time>
      </trkpt>
      <trkpt lat="47.16734" lon="-1.625">
        <ele>70</ele>
        <time>2021-02-07T10:41:32.000Z</time>
      </trkpt>
      <trkpt lat="47.16744" lon="-1.62503">
        <ele>70</ele>
        <time>2021-02-07T10:41:34.000Z</time>
      </trkpt>
      <trkpt lat="47.16753" lon="-1.62507">
        <ele>70</ele>
        <time>2021-02-07T10:41:36.000Z</time>
      </trkpt>
      <trkpt lat="47.16763" lon="-1.62512">
        <ele>70</ele>
        <time>2021-02-07T10:41:38.000Z</time>
      </trkpt>
      <trkpt lat="47.16772" lon="-1.62518">
        <ele>70</ele>
        <time>2021-02-07T10:41:40.000Z</time>
      </trkpt>
      <trkpt lat="47.16781" lon="-1.62524">
        <ele>70</ele>
        <time>2021-02-07T10:41:42.000Z</time>
      </trkpt>
      <trkpt lat="47.1679" lon="-1.6253">
        <ele>69</ele>
        <time>2021-02-07T10:41:44.000Z</time>
      </trkpt>
      <trkpt lat="47.16799" lon="-1.62535">
        <ele>69</ele>
        <time>2021-02-07T10:41:46.000Z</time>
      </trkpt>
      <trkpt lat="47.16807" lon="-1.6254">
        <ele>69</ele>
        <time>2021-02-07T10:41:48.000Z</time>
      </trkpt>
      <trkpt lat="47.16816" lon="-1.62546">
        <ele>69</ele>
        <time>2021-02-07T10:41:50.000Z</time>
      </trkpt>
      <trkpt lat="47.16824" lon="-1.62556">
        <ele>69</ele>
        <time>2021-02-07T10:41:52.000Z</time>
      </trkpt>
      <trkpt lat="47.16831" lon="-1.62569">
        <ele>69</ele>
        <time>2021-02-07T10:41:54.000Z</time>
      </trkpt>
      <trkpt lat="47.16831" lon="-1.62584">
        <ele>69</ele>
        <time>2021-02-07T10:41:56.000Z</time>
      </trkpt>
      <trkpt lat="47.16824" lon="-1.62597">
        <ele>69</ele>
        <time>2021-02-07T10:41:58.000Z</time>
      </trkpt>
      <trkpt lat="47.16818" lon="-1.62607">
        <ele>70</ele>
        <time>2021-02-07T10:42:00.000Z</time>
      </trkpt>
      <trkpt lat="47.1681" lon="-1.62619">
        <ele>71</ele>
        <time>2021-02-07T10:42:02.000Z</time>
      </trkpt>
      <trkpt lat="47.16803" lon="-1.6263">
        <ele>71</ele>
        <time>2021-02-07T10:42:04.000Z</time>
      </trkpt>
      <trkpt lat="47.16797" lon="-1.6264">
        <ele>71</ele>
        <time>2021-02-07T10:42:06.000Z</time>
      </trkpt>
      <trkpt lat="47.1679" lon="-1.62655">
        <ele>71</ele>
        <time>2021-02-07T10:42:09.000Z</time>
      </trkpt>
      <trkpt lat="47.16779" lon="-1.62655">
        <ele>71</ele>
        <time>2021-02-07T10:42:13.000Z</time>
      </trkpt>
    </trkseg>
  </trk>
</gpx>